<?xml version="1.0" encoding="UTF-8" standalone="no" ?>
<gpx xmlns="http://www.topografix.com/GPX/1/1" xmlns:xsi="http://www.w3.org/2001/XMLSchema-instance" xsi:schemaLocation="http://www.topografix.com/GPX/1/1 http://www.topografix.com/GPX/1/1/gpx.xsd" version="1.1" creator="VisuGPX - https://www.visugpx.com">
  <metadata>
    <name>Bigreen 2009</name>
    <desc><![CDATA[Parcours Rouge]]></desc>
  </metadata>
  <trk>
    <name><![CDATA[Bigreen 2009]]></name>
    <cmt><![CDATA[Rando VTT Bigreen 2009
50km de Mons à Mandelieu
http://www.bigreen.fr/rando-big-green.html

Avec Geston
Première sortie du Pneu arrière]]></cmt>
    <trkseg>
      <trkpt lat="43.68932" lon="6.71286">
        <ele>759.84716796875</ele>
        <time>2009-03-08T07:58:04Z</time>
      </trkpt>
      <trkpt lat="43.68933" lon="6.71287">
        <ele>760.19958496094</ele>
        <time>2009-03-08T07:58:05Z</time>
      </trkpt>
      <trkpt lat="43.6893" lon="6.71291">
        <ele>758.89001464844</ele>
        <time>2009-03-08T07:58:10Z</time>
      </trkpt>
      <trkpt lat="43.68925" lon="6.71292">
        <ele>757.33074951172</ele>
        <time>2009-03-08T07:58:15Z</time>
      </trkpt>
      <trkpt lat="43.68919" lon="6.71303">
        <ele>754.78344726562</ele>
        <time>2009-03-08T07:58:20Z</time>
      </trkpt>
      <trkpt lat="43.68918" lon="6.71314">
        <ele>753.86907958984</ele>
        <time>2009-03-08T07:58:23Z</time>
      </trkpt>
      <trkpt lat="43.68918" lon="6.71334">
        <ele>752.44232177734</ele>
        <time>2009-03-08T07:58:29Z</time>
      </trkpt>
      <trkpt lat="43.68919" lon="6.71345">
        <ele>752.40655517578</ele>
        <time>2009-03-08T07:58:34Z</time>
      </trkpt>
      <trkpt lat="43.68923" lon="6.71353">
        <ele>753.34643554688</ele>
        <time>2009-03-08T07:58:38Z</time>
      </trkpt>
      <trkpt lat="43.68933" lon="6.71364">
        <ele>756.12573242188</ele>
        <time>2009-03-08T07:58:44Z</time>
      </trkpt>
      <trkpt lat="43.68944" lon="6.71373">
        <ele>759.7666015625</ele>
        <time>2009-03-08T07:58:50Z</time>
      </trkpt>
      <trkpt lat="43.68952" lon="6.71368">
        <ele>761.04205322266</ele>
        <time>2009-03-08T07:58:54Z</time>
      </trkpt>
      <trkpt lat="43.68962" lon="6.71354">
        <ele>762.78796386719</ele>
        <time>2009-03-08T07:59:00Z</time>
      </trkpt>
      <trkpt lat="43.68969" lon="6.71354">
        <ele>763.96704101562</ele>
        <time>2009-03-08T07:59:04Z</time>
      </trkpt>
      <trkpt lat="43.68979" lon="6.7136">
        <ele>765.00726318359</ele>
        <time>2009-03-08T07:59:10Z</time>
      </trkpt>
      <trkpt lat="43.6899" lon="6.7136">
        <ele>766.59637451172</ele>
        <time>2009-03-08T07:59:16Z</time>
      </trkpt>
      <trkpt lat="43.69013" lon="6.71364">
        <ele>769.66925048828</ele>
        <time>2009-03-08T07:59:21Z</time>
      </trkpt>
      <trkpt lat="43.69036" lon="6.71367">
        <ele>772.06951904297</ele>
        <time>2009-03-08T07:59:27Z</time>
      </trkpt>
      <trkpt lat="43.69052" lon="6.71372">
        <ele>772.62945556641</ele>
        <time>2009-03-08T07:59:32Z</time>
      </trkpt>
      <trkpt lat="43.69072" lon="6.71381">
        <ele>773.61895751953</ele>
        <time>2009-03-08T07:59:38Z</time>
      </trkpt>
      <trkpt lat="43.69088" lon="6.71388">
        <ele>774.58197021484</ele>
        <time>2009-03-08T07:59:42Z</time>
      </trkpt>
      <trkpt lat="43.69107" lon="6.71401">
        <ele>775.16906738281</ele>
        <time>2009-03-08T07:59:48Z</time>
      </trkpt>
      <trkpt lat="43.69117" lon="6.71407">
        <ele>775.70458984375</ele>
        <time>2009-03-08T07:59:53Z</time>
      </trkpt>
      <trkpt lat="43.69122" lon="6.71417">
        <ele>775.08697509766</ele>
        <time>2009-03-08T07:59:58Z</time>
      </trkpt>
      <trkpt lat="43.69133" lon="6.71428">
        <ele>775.26306152344</ele>
        <time>2009-03-08T08:00:02Z</time>
      </trkpt>
      <trkpt lat="43.69152" lon="6.71451">
        <ele>773.98486328125</ele>
        <time>2009-03-08T08:00:06Z</time>
      </trkpt>
      <trkpt lat="43.69158" lon="6.71455">
        <ele>773.8681640625</ele>
        <time>2009-03-08T08:00:07Z</time>
      </trkpt>
      <trkpt lat="43.69177" lon="6.71469">
        <ele>773.56237792969</ele>
        <time>2009-03-08T08:00:12Z</time>
      </trkpt>
      <trkpt lat="43.6919" lon="6.71474">
        <ele>774.26965332031</ele>
        <time>2009-03-08T08:00:16Z</time>
      </trkpt>
      <trkpt lat="43.69192" lon="6.71472">
        <ele>774.77770996094</ele>
        <time>2009-03-08T08:00:17Z</time>
      </trkpt>
      <trkpt lat="43.69199" lon="6.71472">
        <ele>775.2607421875</ele>
        <time>2009-03-08T08:00:20Z</time>
      </trkpt>
      <trkpt lat="43.69223" lon="6.71492">
        <ele>773.26208496094</ele>
        <time>2009-03-08T08:00:25Z</time>
      </trkpt>
      <trkpt lat="43.69237" lon="6.71511">
        <ele>773.12292480469</ele>
        <time>2009-03-08T08:00:28Z</time>
      </trkpt>
      <trkpt lat="43.69245" lon="6.71524">
        <ele>772.88439941406</ele>
        <time>2009-03-08T08:00:30Z</time>
      </trkpt>
      <trkpt lat="43.69244" lon="6.71553">
        <ele>769.45538330078</ele>
        <time>2009-03-08T08:00:34Z</time>
      </trkpt>
      <trkpt lat="43.69236" lon="6.7158">
        <ele>766.25177001953</ele>
        <time>2009-03-08T08:00:38Z</time>
      </trkpt>
      <trkpt lat="43.69217" lon="6.71613">
        <ele>761.30511474609</ele>
        <time>2009-03-08T08:00:44Z</time>
      </trkpt>
      <trkpt lat="43.69196" lon="6.71647">
        <ele>757.53601074219</ele>
        <time>2009-03-08T08:00:50Z</time>
      </trkpt>
      <trkpt lat="43.69186" lon="6.71662">
        <ele>755.40576171875</ele>
        <time>2009-03-08T08:00:53Z</time>
      </trkpt>
      <trkpt lat="43.69173" lon="6.71704">
        <ele>756.30572509766</ele>
        <time>2009-03-08T08:01:00Z</time>
      </trkpt>
      <trkpt lat="43.69168" lon="6.71716">
        <ele>756.77954101562</ele>
        <time>2009-03-08T08:01:02Z</time>
      </trkpt>
      <trkpt lat="43.69163" lon="6.71737">
        <ele>757.42108154297</ele>
        <time>2009-03-08T08:01:06Z</time>
      </trkpt>
      <trkpt lat="43.69161" lon="6.71753">
        <ele>758.15679931641</ele>
        <time>2009-03-08T08:01:09Z</time>
      </trkpt>
      <trkpt lat="43.69163" lon="6.71775">
        <ele>759.30462646484</ele>
        <time>2009-03-08T08:01:12Z</time>
      </trkpt>
      <trkpt lat="43.69171" lon="6.71828">
        <ele>765.2421875</ele>
        <time>2009-03-08T08:01:18Z</time>
      </trkpt>
      <trkpt lat="43.6918" lon="6.71856">
        <ele>768.51751708984</ele>
        <time>2009-03-08T08:01:21Z</time>
      </trkpt>
      <trkpt lat="43.69183" lon="6.71866">
        <ele>769.89984130859</ele>
        <time>2009-03-08T08:01:22Z</time>
      </trkpt>
      <trkpt lat="43.69204" lon="6.719">
        <ele>774.93237304688</ele>
        <time>2009-03-08T08:01:26Z</time>
      </trkpt>
      <trkpt lat="43.69212" lon="6.71907">
        <ele>775.81127929688</ele>
        <time>2009-03-08T08:01:27Z</time>
      </trkpt>
      <trkpt lat="43.69236" lon="6.71927">
        <ele>780.16851806641</ele>
        <time>2009-03-08T08:01:31Z</time>
      </trkpt>
      <trkpt lat="43.69246" lon="6.71935">
        <ele>782.26873779297</ele>
        <time>2009-03-08T08:01:33Z</time>
      </trkpt>
      <trkpt lat="43.69261" lon="6.71952">
        <ele>784.02941894531</ele>
        <time>2009-03-08T08:01:37Z</time>
      </trkpt>
      <trkpt lat="43.69282" lon="6.71981">
        <ele>785.03381347656</ele>
        <time>2009-03-08T08:01:43Z</time>
      </trkpt>
      <trkpt lat="43.69307" lon="6.72014">
        <ele>786.86047363281</ele>
        <time>2009-03-08T08:01:51Z</time>
      </trkpt>
      <trkpt lat="43.6931" lon="6.72017">
        <ele>787.18530273438</ele>
        <time>2009-03-08T08:01:52Z</time>
      </trkpt>
      <trkpt lat="43.6932" lon="6.72035">
        <ele>787.47344970703</ele>
        <time>2009-03-08T08:01:57Z</time>
      </trkpt>
      <trkpt lat="43.6933" lon="6.7206">
        <ele>787.71032714844</ele>
        <time>2009-03-08T08:02:03Z</time>
      </trkpt>
      <trkpt lat="43.69336" lon="6.72091">
        <ele>786.48010253906</ele>
        <time>2009-03-08T08:02:10Z</time>
      </trkpt>
      <trkpt lat="43.69337" lon="6.72121">
        <ele>787.5732421875</ele>
        <time>2009-03-08T08:02:17Z</time>
      </trkpt>
      <trkpt lat="43.69341" lon="6.72156">
        <ele>792.04217529297</ele>
        <time>2009-03-08T08:02:25Z</time>
      </trkpt>
      <trkpt lat="43.69345" lon="6.72179">
        <ele>795.66577148438</ele>
        <time>2009-03-08T08:02:30Z</time>
      </trkpt>
      <trkpt lat="43.69349" lon="6.72214">
        <ele>799.18988037109</ele>
        <time>2009-03-08T08:02:38Z</time>
      </trkpt>
      <trkpt lat="43.69351" lon="6.7224">
        <ele>801.43518066406</ele>
        <time>2009-03-08T08:02:44Z</time>
      </trkpt>
      <trkpt lat="43.69358" lon="6.7227">
        <ele>804.25225830078</ele>
        <time>2009-03-08T08:02:51Z</time>
      </trkpt>
      <trkpt lat="43.69368" lon="6.72285">
        <ele>806.03918457031</ele>
        <time>2009-03-08T08:02:56Z</time>
      </trkpt>
      <trkpt lat="43.69381" lon="6.72302">
        <ele>808.06475830078</ele>
        <time>2009-03-08T08:03:02Z</time>
      </trkpt>
      <trkpt lat="43.69399" lon="6.7233">
        <ele>811.94171142578</ele>
        <time>2009-03-08T08:03:10Z</time>
      </trkpt>
      <trkpt lat="43.69413" lon="6.72363">
        <ele>813.60339355469</ele>
        <time>2009-03-08T08:03:18Z</time>
      </trkpt>
      <trkpt lat="43.6942" lon="6.72381">
        <ele>814.22998046875</ele>
        <time>2009-03-08T08:03:24Z</time>
      </trkpt>
      <trkpt lat="43.69425" lon="6.72396">
        <ele>814.83416748047</ele>
        <time>2009-03-08T08:03:28Z</time>
      </trkpt>
      <trkpt lat="43.69442" lon="6.72437">
        <ele>816.82299804688</ele>
        <time>2009-03-08T08:03:38Z</time>
      </trkpt>
      <trkpt lat="43.69455" lon="6.72465">
        <ele>818.41058349609</ele>
        <time>2009-03-08T08:03:45Z</time>
      </trkpt>
      <trkpt lat="43.69468" lon="6.72486">
        <ele>820.43627929688</ele>
        <time>2009-03-08T08:03:51Z</time>
      </trkpt>
      <trkpt lat="43.69492" lon="6.72519">
        <ele>821</ele>
        <time>2009-03-08T08:03:59Z</time>
      </trkpt>
      <trkpt lat="43.69514" lon="6.72553">
        <ele>822.47985839844</ele>
        <time>2009-03-08T08:04:07Z</time>
      </trkpt>
      <trkpt lat="43.69533" lon="6.7259">
        <ele>824.49865722656</ele>
        <time>2009-03-08T08:04:15Z</time>
      </trkpt>
      <trkpt lat="43.69548" lon="6.72624">
        <ele>825.43103027344</ele>
        <time>2009-03-08T08:04:22Z</time>
      </trkpt>
      <trkpt lat="43.69549" lon="6.72643">
        <ele>825.54089355469</ele>
        <time>2009-03-08T08:04:27Z</time>
      </trkpt>
      <trkpt lat="43.69553" lon="6.72658">
        <ele>825.7880859375</ele>
        <time>2009-03-08T08:04:31Z</time>
      </trkpt>
      <trkpt lat="43.69552" lon="6.72674">
        <ele>825.73315429688</ele>
        <time>2009-03-08T08:04:34Z</time>
      </trkpt>
      <trkpt lat="43.6954" lon="6.72691">
        <ele>824.9091796875</ele>
        <time>2009-03-08T08:04:37Z</time>
      </trkpt>
      <trkpt lat="43.69509" lon="6.7272">
        <ele>822.65698242188</ele>
        <time>2009-03-08T08:04:44Z</time>
      </trkpt>
      <trkpt lat="43.69488" lon="6.72736">
        <ele>821.14636230469</ele>
        <time>2009-03-08T08:04:49Z</time>
      </trkpt>
      <trkpt lat="43.69464" lon="6.72754">
        <ele>819.38854980469</ele>
        <time>2009-03-08T08:04:54Z</time>
      </trkpt>
      <trkpt lat="43.69432" lon="6.72774">
        <ele>817.54071044922</ele>
        <time>2009-03-08T08:05:00Z</time>
      </trkpt>
      <trkpt lat="43.69409" lon="6.72779">
        <ele>816.4609375</ele>
        <time>2009-03-08T08:05:05Z</time>
      </trkpt>
      <trkpt lat="43.69392" lon="6.72775">
        <ele>815.22497558594</ele>
        <time>2009-03-08T08:05:09Z</time>
      </trkpt>
      <trkpt lat="43.69385" lon="6.7278">
        <ele>814.5546875</ele>
        <time>2009-03-08T08:05:12Z</time>
      </trkpt>
      <trkpt lat="43.69381" lon="6.72786">
        <ele>814.14270019531</ele>
        <time>2009-03-08T08:05:14Z</time>
      </trkpt>
      <trkpt lat="43.69371" lon="6.72791">
        <ele>813.03033447266</ele>
        <time>2009-03-08T08:05:20Z</time>
      </trkpt>
      <trkpt lat="43.69365" lon="6.72794">
        <ele>812.41235351562</ele>
        <time>2009-03-08T08:05:23Z</time>
      </trkpt>
      <trkpt lat="43.69355" lon="6.72803">
        <ele>811.56079101562</ele>
        <time>2009-03-08T08:05:27Z</time>
      </trkpt>
      <trkpt lat="43.69349" lon="6.72823">
        <ele>811.09387207031</ele>
        <time>2009-03-08T08:05:32Z</time>
      </trkpt>
      <trkpt lat="43.6935" lon="6.72845">
        <ele>811.17626953125</ele>
        <time>2009-03-08T08:05:37Z</time>
      </trkpt>
      <trkpt lat="43.6935" lon="6.7287">
        <ele>811.51232910156</ele>
        <time>2009-03-08T08:05:42Z</time>
      </trkpt>
      <trkpt lat="43.69351" lon="6.72892">
        <ele>812.25866699219</ele>
        <time>2009-03-08T08:05:47Z</time>
      </trkpt>
      <trkpt lat="43.69351" lon="6.72896">
        <ele>812.2861328125</ele>
        <time>2009-03-08T08:05:48Z</time>
      </trkpt>
      <trkpt lat="43.69346" lon="6.72919">
        <ele>811.92907714844</ele>
        <time>2009-03-08T08:05:54Z</time>
      </trkpt>
      <trkpt lat="43.69344" lon="6.72927">
        <ele>811.76428222656</ele>
        <time>2009-03-08T08:05:57Z</time>
      </trkpt>
      <trkpt lat="43.69339" lon="6.72936">
        <ele>811.4072265625</ele>
        <time>2009-03-08T08:06:02Z</time>
      </trkpt>
      <trkpt lat="43.69329" lon="6.72959">
        <ele>810.86029052734</ele>
        <time>2009-03-08T08:06:08Z</time>
      </trkpt>
      <trkpt lat="43.69316" lon="6.72981">
        <ele>810.48059082031</ele>
        <time>2009-03-08T08:06:13Z</time>
      </trkpt>
      <trkpt lat="43.69308" lon="6.72992">
        <ele>810.17791748047</ele>
        <time>2009-03-08T08:06:17Z</time>
      </trkpt>
      <trkpt lat="43.69303" lon="6.73002">
        <ele>809.74548339844</ele>
        <time>2009-03-08T08:06:22Z</time>
      </trkpt>
      <trkpt lat="43.69289" lon="6.73006">
        <ele>808.72027587891</ele>
        <time>2009-03-08T08:06:28Z</time>
      </trkpt>
      <trkpt lat="43.69274" lon="6.73005">
        <ele>807.86901855469</ele>
        <time>2009-03-08T08:06:33Z</time>
      </trkpt>
      <trkpt lat="43.69261" lon="6.73013">
        <ele>807.38836669922</ele>
        <time>2009-03-08T08:06:37Z</time>
      </trkpt>
      <trkpt lat="43.69252" lon="6.73033">
        <ele>806.87078857422</ele>
        <time>2009-03-08T08:06:41Z</time>
      </trkpt>
      <trkpt lat="43.69251" lon="6.73041">
        <ele>806.55841064453</ele>
        <time>2009-03-08T08:06:42Z</time>
      </trkpt>
      <trkpt lat="43.69247" lon="6.73056">
        <ele>805.81549072266</ele>
        <time>2009-03-08T08:06:44Z</time>
      </trkpt>
      <trkpt lat="43.69243" lon="6.73077">
        <ele>804.71685791016</ele>
        <time>2009-03-08T08:06:48Z</time>
      </trkpt>
      <trkpt lat="43.6924" lon="6.73081">
        <ele>804.35467529297</ele>
        <time>2009-03-08T08:06:54Z</time>
      </trkpt>
      <trkpt lat="43.69239" lon="6.7308">
        <ele>804.34094238281</ele>
        <time>2009-03-08T08:06:57Z</time>
      </trkpt>
      <trkpt lat="43.69237" lon="6.73096">
        <ele>803.57702636719</ele>
        <time>2009-03-08T08:07:03Z</time>
      </trkpt>
      <trkpt lat="43.69236" lon="6.731">
        <ele>803.3779296875</ele>
        <time>2009-03-08T08:07:04Z</time>
      </trkpt>
      <trkpt lat="43.69232" lon="6.73112">
        <ele>802.70642089844</ele>
        <time>2009-03-08T08:07:08Z</time>
      </trkpt>
      <trkpt lat="43.69226" lon="6.73119">
        <ele>802.21600341797</ele>
        <time>2009-03-08T08:07:14Z</time>
      </trkpt>
      <trkpt lat="43.69216" lon="6.7312">
        <ele>801.37969970703</ele>
        <time>2009-03-08T08:07:18Z</time>
      </trkpt>
      <trkpt lat="43.69201" lon="6.73114">
        <ele>800.32263183594</ele>
        <time>2009-03-08T08:07:24Z</time>
      </trkpt>
      <trkpt lat="43.69188" lon="6.73114">
        <ele>799.12493896484</ele>
        <time>2009-03-08T08:07:29Z</time>
      </trkpt>
      <trkpt lat="43.69181" lon="6.7312">
        <ele>797.87866210938</ele>
        <time>2009-03-08T08:07:33Z</time>
      </trkpt>
      <trkpt lat="43.69177" lon="6.73125">
        <ele>797.10620117188</ele>
        <time>2009-03-08T08:07:38Z</time>
      </trkpt>
      <trkpt lat="43.69175" lon="6.73127">
        <ele>796.82122802734</ele>
        <time>2009-03-08T08:07:39Z</time>
      </trkpt>
      <trkpt lat="43.69169" lon="6.73128">
        <ele>796.03503417969</ele>
        <time>2009-03-08T08:07:43Z</time>
      </trkpt>
      <trkpt lat="43.69154" lon="6.73134">
        <ele>793.99914550781</ele>
        <time>2009-03-08T08:07:47Z</time>
      </trkpt>
      <trkpt lat="43.69134" lon="6.73158">
        <ele>790.95715332031</ele>
        <time>2009-03-08T08:07:51Z</time>
      </trkpt>
      <trkpt lat="43.69127" lon="6.73177">
        <ele>789.56085205078</ele>
        <time>2009-03-08T08:07:53Z</time>
      </trkpt>
      <trkpt lat="43.69118" lon="6.73199">
        <ele>787.59497070312</ele>
        <time>2009-03-08T08:07:56Z</time>
      </trkpt>
      <trkpt lat="43.69118" lon="6.73199">
        <ele>787.62591552734</ele>
        <time>2009-03-08T08:08:00Z</time>
      </trkpt>
      <trkpt lat="43.69121" lon="6.73202">
        <ele>787.81469726562</ele>
        <time>2009-03-08T08:08:04Z</time>
      </trkpt>
      <trkpt lat="43.6912" lon="6.73208">
        <ele>787.49200439453</ele>
        <time>2009-03-08T08:08:09Z</time>
      </trkpt>
      <trkpt lat="43.6912" lon="6.73204">
        <ele>787.63446044922</ele>
        <time>2009-03-08T08:08:15Z</time>
      </trkpt>
      <trkpt lat="43.69118" lon="6.73201">
        <ele>787.53833007812</ele>
        <time>2009-03-08T08:08:22Z</time>
      </trkpt>
      <trkpt lat="43.69117" lon="6.73202">
        <ele>787.36669921875</ele>
        <time>2009-03-08T08:08:23Z</time>
      </trkpt>
      <trkpt lat="43.69106" lon="6.73214">
        <ele>785.28082275391</ele>
        <time>2009-03-08T08:08:28Z</time>
      </trkpt>
      <trkpt lat="43.691" lon="6.73234">
        <ele>783.59509277344</ele>
        <time>2009-03-08T08:08:32Z</time>
      </trkpt>
      <trkpt lat="43.69099" lon="6.73243">
        <ele>783.06640625</ele>
        <time>2009-03-08T08:08:34Z</time>
      </trkpt>
      <trkpt lat="43.69097" lon="6.73281">
        <ele>781.28967285156</ele>
        <time>2009-03-08T08:08:40Z</time>
      </trkpt>
      <trkpt lat="43.69094" lon="6.73323">
        <ele>778.98016357422</ele>
        <time>2009-03-08T08:08:45Z</time>
      </trkpt>
      <trkpt lat="43.69088" lon="6.7335">
        <ele>776.62677001953</ele>
        <time>2009-03-08T08:08:48Z</time>
      </trkpt>
      <trkpt lat="43.69083" lon="6.73369">
        <ele>774.73132324219</ele>
        <time>2009-03-08T08:08:50Z</time>
      </trkpt>
      <trkpt lat="43.69073" lon="6.73407">
        <ele>772.00408935547</ele>
        <time>2009-03-08T08:08:55Z</time>
      </trkpt>
      <trkpt lat="43.69065" lon="6.7341">
        <ele>770.79180908203</ele>
        <time>2009-03-08T08:08:58Z</time>
      </trkpt>
      <trkpt lat="43.69053" lon="6.73412">
        <ele>769.22741699219</ele>
        <time>2009-03-08T08:09:02Z</time>
      </trkpt>
      <trkpt lat="43.69051" lon="6.73416">
        <ele>768.88122558594</ele>
        <time>2009-03-08T08:09:03Z</time>
      </trkpt>
      <trkpt lat="43.69046" lon="6.73427">
        <ele>768.16809082031</ele>
        <time>2009-03-08T08:09:06Z</time>
      </trkpt>
      <trkpt lat="43.69038" lon="6.73426">
        <ele>767.82952880859</ele>
        <time>2009-03-08T08:09:10Z</time>
      </trkpt>
      <trkpt lat="43.6902" lon="6.73406">
        <ele>767.54992675781</ele>
        <time>2009-03-08T08:09:16Z</time>
      </trkpt>
      <trkpt lat="43.69001" lon="6.73383">
        <ele>766.30712890625</ele>
        <time>2009-03-08T08:09:21Z</time>
      </trkpt>
      <trkpt lat="43.68991" lon="6.73361">
        <ele>766.01702880859</ele>
        <time>2009-03-08T08:09:26Z</time>
      </trkpt>
      <trkpt lat="43.6899" lon="6.73355">
        <ele>766.16979980469</ele>
        <time>2009-03-08T08:09:27Z</time>
      </trkpt>
      <trkpt lat="43.6898" lon="6.73328">
        <ele>766.08569335938</ele>
        <time>2009-03-08T08:09:33Z</time>
      </trkpt>
      <trkpt lat="43.68978" lon="6.73314">
        <ele>766.34661865234</ele>
        <time>2009-03-08T08:09:36Z</time>
      </trkpt>
      <trkpt lat="43.68982" lon="6.73278">
        <ele>768.00830078125</ele>
        <time>2009-03-08T08:09:43Z</time>
      </trkpt>
      <trkpt lat="43.68985" lon="6.73249">
        <ele>769.46398925781</ele>
        <time>2009-03-08T08:09:49Z</time>
      </trkpt>
      <trkpt lat="43.6898" lon="6.73231">
        <ele>769.50170898438</ele>
        <time>2009-03-08T08:09:52Z</time>
      </trkpt>
      <trkpt lat="43.68964" lon="6.73198">
        <ele>769.27575683594</ele>
        <time>2009-03-08T08:09:57Z</time>
      </trkpt>
      <trkpt lat="43.68952" lon="6.73186">
        <ele>768.86889648438</ele>
        <time>2009-03-08T08:10:00Z</time>
      </trkpt>
      <trkpt lat="43.68933" lon="6.73167">
        <ele>765.18792724609</ele>
        <time>2009-03-08T08:10:05Z</time>
      </trkpt>
      <trkpt lat="43.68928" lon="6.73168">
        <ele>763.69757080078</ele>
        <time>2009-03-08T08:10:07Z</time>
      </trkpt>
      <trkpt lat="43.68917" lon="6.73164">
        <ele>760.30157470703</ele>
        <time>2009-03-08T08:10:13Z</time>
      </trkpt>
      <trkpt lat="43.68913" lon="6.73166">
        <ele>759.76147460938</ele>
        <time>2009-03-08T08:10:24Z</time>
      </trkpt>
      <trkpt lat="43.68902" lon="6.73171">
        <ele>758.85272216797</ele>
        <time>2009-03-08T08:10:30Z</time>
      </trkpt>
      <trkpt lat="43.68887" lon="6.73181">
        <ele>757.36279296875</ele>
        <time>2009-03-08T08:10:36Z</time>
      </trkpt>
      <trkpt lat="43.68881" lon="6.73188">
        <ele>756.66925048828</ele>
        <time>2009-03-08T08:10:40Z</time>
      </trkpt>
      <trkpt lat="43.6888" lon="6.73188">
        <ele>756.57312011719</ele>
        <time>2009-03-08T08:10:41Z</time>
      </trkpt>
      <trkpt lat="43.68877" lon="6.73182">
        <ele>756.56799316406</ele>
        <time>2009-03-08T08:10:45Z</time>
      </trkpt>
      <trkpt lat="43.6887" lon="6.73159">
        <ele>756.91302490234</ele>
        <time>2009-03-08T08:10:51Z</time>
      </trkpt>
      <trkpt lat="43.68859" lon="6.73127">
        <ele>757.15618896484</ele>
        <time>2009-03-08T08:10:57Z</time>
      </trkpt>
      <trkpt lat="43.68857" lon="6.73122">
        <ele>757.04632568359</ele>
        <time>2009-03-08T08:10:58Z</time>
      </trkpt>
      <trkpt lat="43.6885" lon="6.73105">
        <ele>756.67895507812</ele>
        <time>2009-03-08T08:11:01Z</time>
      </trkpt>
      <trkpt lat="43.68836" lon="6.73056">
        <ele>756.390625</ele>
        <time>2009-03-08T08:11:09Z</time>
      </trkpt>
      <trkpt lat="43.68831" lon="6.73048">
        <ele>755.19152832031</ele>
        <time>2009-03-08T08:11:11Z</time>
      </trkpt>
      <trkpt lat="43.68824" lon="6.73051">
        <ele>754.63879394531</ele>
        <time>2009-03-08T08:11:14Z</time>
      </trkpt>
      <trkpt lat="43.6882" lon="6.73058">
        <ele>754.40417480469</ele>
        <time>2009-03-08T08:11:15Z</time>
      </trkpt>
      <trkpt lat="43.68808" lon="6.73074">
        <ele>752.03558349609</ele>
        <time>2009-03-08T08:11:17Z</time>
      </trkpt>
      <trkpt lat="43.68782" lon="6.73082">
        <ele>749.34735107422</ele>
        <time>2009-03-08T08:11:22Z</time>
      </trkpt>
      <trkpt lat="43.68771" lon="6.73069">
        <ele>748.7939453125</ele>
        <time>2009-03-08T08:11:25Z</time>
      </trkpt>
      <trkpt lat="43.68755" lon="6.73057">
        <ele>747.54254150391</ele>
        <time>2009-03-08T08:11:29Z</time>
      </trkpt>
      <trkpt lat="43.68736" lon="6.73055">
        <ele>745.49102783203</ele>
        <time>2009-03-08T08:11:34Z</time>
      </trkpt>
      <trkpt lat="43.68716" lon="6.73068">
        <ele>742.71911621094</ele>
        <time>2009-03-08T08:11:39Z</time>
      </trkpt>
      <trkpt lat="43.68709" lon="6.73079">
        <ele>741.62646484375</ele>
        <time>2009-03-08T08:11:42Z</time>
      </trkpt>
      <trkpt lat="43.68706" lon="6.73088">
        <ele>741.26214599609</ele>
        <time>2009-03-08T08:11:44Z</time>
      </trkpt>
      <trkpt lat="43.68691" lon="6.73093">
        <ele>739.390625</ele>
        <time>2009-03-08T08:11:49Z</time>
      </trkpt>
      <trkpt lat="43.68688" lon="6.73094">
        <ele>738.8193359375</ele>
        <time>2009-03-08T08:11:50Z</time>
      </trkpt>
      <trkpt lat="43.68669" lon="6.73098">
        <ele>735.42572021484</ele>
        <time>2009-03-08T08:11:56Z</time>
      </trkpt>
      <trkpt lat="43.68648" lon="6.73099">
        <ele>733.40454101562</ele>
        <time>2009-03-08T08:12:01Z</time>
      </trkpt>
      <trkpt lat="43.68638" lon="6.73095">
        <ele>732.26623535156</ele>
        <time>2009-03-08T08:12:03Z</time>
      </trkpt>
      <trkpt lat="43.68621" lon="6.73072">
        <ele>728.97717285156</ele>
        <time>2009-03-08T08:12:07Z</time>
      </trkpt>
      <trkpt lat="43.68607" lon="6.73059">
        <ele>726.47094726562</ele>
        <time>2009-03-08T08:12:12Z</time>
      </trkpt>
      <trkpt lat="43.68597" lon="6.73054">
        <ele>725.00207519531</ele>
        <time>2009-03-08T08:12:15Z</time>
      </trkpt>
      <trkpt lat="43.68593" lon="6.73038">
        <ele>724.15441894531</ele>
        <time>2009-03-08T08:12:18Z</time>
      </trkpt>
      <trkpt lat="43.68588" lon="6.73029">
        <ele>723.53979492188</ele>
        <time>2009-03-08T08:12:21Z</time>
      </trkpt>
      <trkpt lat="43.68581" lon="6.73003">
        <ele>721.90130615234</ele>
        <time>2009-03-08T08:12:26Z</time>
      </trkpt>
      <trkpt lat="43.68573" lon="6.73009">
        <ele>721.46612548828</ele>
        <time>2009-03-08T08:12:30Z</time>
      </trkpt>
      <trkpt lat="43.68567" lon="6.7301">
        <ele>720.93182373047</ele>
        <time>2009-03-08T08:12:32Z</time>
      </trkpt>
      <trkpt lat="43.6856" lon="6.72991">
        <ele>720.24853515625</ele>
        <time>2009-03-08T08:12:36Z</time>
      </trkpt>
      <trkpt lat="43.68559" lon="6.72986">
        <ele>720.15881347656</ele>
        <time>2009-03-08T08:12:37Z</time>
      </trkpt>
      <trkpt lat="43.68559" lon="6.72958">
        <ele>718.78527832031</ele>
        <time>2009-03-08T08:12:41Z</time>
      </trkpt>
      <trkpt lat="43.68559" lon="6.72943">
        <ele>717.38604736328</ele>
        <time>2009-03-08T08:12:44Z</time>
      </trkpt>
      <trkpt lat="43.68562" lon="6.72925">
        <ele>716.73767089844</ele>
        <time>2009-03-08T08:12:48Z</time>
      </trkpt>
      <trkpt lat="43.68569" lon="6.729">
        <ele>716.76232910156</ele>
        <time>2009-03-08T08:12:53Z</time>
      </trkpt>
      <trkpt lat="43.68571" lon="6.72893">
        <ele>716.94384765625</ele>
        <time>2009-03-08T08:12:55Z</time>
      </trkpt>
      <trkpt lat="43.6856" lon="6.72892">
        <ele>714.30340576172</ele>
        <time>2009-03-08T08:13:00Z</time>
      </trkpt>
      <trkpt lat="43.68554" lon="6.72894">
        <ele>712.99322509766</ele>
        <time>2009-03-08T08:13:02Z</time>
      </trkpt>
      <trkpt lat="43.68547" lon="6.72882">
        <ele>710.06634521484</ele>
        <time>2009-03-08T08:13:06Z</time>
      </trkpt>
      <trkpt lat="43.68547" lon="6.72862">
        <ele>708.13385009766</ele>
        <time>2009-03-08T08:13:11Z</time>
      </trkpt>
      <trkpt lat="43.68547" lon="6.72854">
        <ele>707.61779785156</ele>
        <time>2009-03-08T08:13:14Z</time>
      </trkpt>
      <trkpt lat="43.6854" lon="6.72847">
        <ele>705.66772460938</ele>
        <time>2009-03-08T08:13:18Z</time>
      </trkpt>
      <trkpt lat="43.68535" lon="6.72847">
        <ele>704.59655761719</ele>
        <time>2009-03-08T08:13:21Z</time>
      </trkpt>
      <trkpt lat="43.68536" lon="6.72837">
        <ele>704.0712890625</ele>
        <time>2009-03-08T08:13:24Z</time>
      </trkpt>
      <trkpt lat="43.68532" lon="6.72829">
        <ele>702.77661132812</ele>
        <time>2009-03-08T08:13:27Z</time>
      </trkpt>
      <trkpt lat="43.68523" lon="6.72834">
        <ele>701.24395751953</ele>
        <time>2009-03-08T08:13:30Z</time>
      </trkpt>
      <trkpt lat="43.68521" lon="6.72839">
        <ele>701.23303222656</ele>
        <time>2009-03-08T08:13:31Z</time>
      </trkpt>
      <trkpt lat="43.68502" lon="6.72869">
        <ele>700.37524414062</ele>
        <time>2009-03-08T08:13:36Z</time>
      </trkpt>
      <trkpt lat="43.68478" lon="6.72907">
        <ele>695.90673828125</ele>
        <time>2009-03-08T08:13:41Z</time>
      </trkpt>
      <trkpt lat="43.68447" lon="6.72945">
        <ele>692.58923339844</ele>
        <time>2009-03-08T08:13:46Z</time>
      </trkpt>
      <trkpt lat="43.68436" lon="6.72958">
        <ele>691.13311767578</ele>
        <time>2009-03-08T08:13:49Z</time>
      </trkpt>
      <trkpt lat="43.68428" lon="6.72971">
        <ele>690.55462646484</ele>
        <time>2009-03-08T08:13:53Z</time>
      </trkpt>
      <trkpt lat="43.68416" lon="6.72987">
        <ele>689.43963623047</ele>
        <time>2009-03-08T08:14:00Z</time>
      </trkpt>
      <trkpt lat="43.68402" lon="6.73009">
        <ele>688.63513183594</ele>
        <time>2009-03-08T08:14:04Z</time>
      </trkpt>
      <trkpt lat="43.68392" lon="6.7303">
        <ele>687.48699951172</ele>
        <time>2009-03-08T08:14:07Z</time>
      </trkpt>
      <trkpt lat="43.68377" lon="6.73047">
        <ele>685.53015136719</ele>
        <time>2009-03-08T08:14:11Z</time>
      </trkpt>
      <trkpt lat="43.68353" lon="6.73068">
        <ele>680.68811035156</ele>
        <time>2009-03-08T08:14:19Z</time>
      </trkpt>
      <trkpt lat="43.68335" lon="6.73082">
        <ele>675.41888427734</ele>
        <time>2009-03-08T08:14:24Z</time>
      </trkpt>
      <trkpt lat="43.68322" lon="6.73089">
        <ele>673.00457763672</ele>
        <time>2009-03-08T08:14:29Z</time>
      </trkpt>
      <trkpt lat="43.68303" lon="6.73083">
        <ele>670.45007324219</ele>
        <time>2009-03-08T08:14:34Z</time>
      </trkpt>
      <trkpt lat="43.68288" lon="6.73084">
        <ele>667.29150390625</ele>
        <time>2009-03-08T08:14:38Z</time>
      </trkpt>
      <trkpt lat="43.68285" lon="6.73085">
        <ele>666.51214599609</ele>
        <time>2009-03-08T08:14:40Z</time>
      </trkpt>
      <trkpt lat="43.68272" lon="6.7309">
        <ele>663.67248535156</ele>
        <time>2009-03-08T08:14:45Z</time>
      </trkpt>
      <trkpt lat="43.68265" lon="6.73092">
        <ele>662.39880371094</ele>
        <time>2009-03-08T08:14:47Z</time>
      </trkpt>
      <trkpt lat="43.68249" lon="6.73107">
        <ele>658.96813964844</ele>
        <time>2009-03-08T08:14:53Z</time>
      </trkpt>
      <trkpt lat="43.68235" lon="6.73112">
        <ele>655.64520263672</ele>
        <time>2009-03-08T08:14:57Z</time>
      </trkpt>
      <trkpt lat="43.68222" lon="6.7311">
        <ele>652.99182128906</ele>
        <time>2009-03-08T08:15:02Z</time>
      </trkpt>
      <trkpt lat="43.68207" lon="6.7311">
        <ele>650.35827636719</ele>
        <time>2009-03-08T08:15:07Z</time>
      </trkpt>
      <trkpt lat="43.68185" lon="6.73112">
        <ele>645.32220458984</ele>
        <time>2009-03-08T08:15:11Z</time>
      </trkpt>
      <trkpt lat="43.68167" lon="6.73134">
        <ele>639.40631103516</ele>
        <time>2009-03-08T08:15:14Z</time>
      </trkpt>
      <trkpt lat="43.68147" lon="6.73156">
        <ele>636.22052001953</ele>
        <time>2009-03-08T08:15:19Z</time>
      </trkpt>
      <trkpt lat="43.6814" lon="6.73149">
        <ele>635.72442626953</ele>
        <time>2009-03-08T08:15:23Z</time>
      </trkpt>
      <trkpt lat="43.68127" lon="6.731">
        <ele>637.24517822266</ele>
        <time>2009-03-08T08:15:31Z</time>
      </trkpt>
      <trkpt lat="43.68121" lon="6.7307">
        <ele>638.17504882812</ele>
        <time>2009-03-08T08:15:35Z</time>
      </trkpt>
      <trkpt lat="43.681" lon="6.73011">
        <ele>639.21282958984</ele>
        <time>2009-03-08T08:15:43Z</time>
      </trkpt>
      <trkpt lat="43.68096" lon="6.72995">
        <ele>639.61791992188</ele>
        <time>2009-03-08T08:15:45Z</time>
      </trkpt>
      <trkpt lat="43.68086" lon="6.72939">
        <ele>641.11016845703</ele>
        <time>2009-03-08T08:15:52Z</time>
      </trkpt>
      <trkpt lat="43.68082" lon="6.72891">
        <ele>640.87591552734</ele>
        <time>2009-03-08T08:15:59Z</time>
      </trkpt>
      <trkpt lat="43.68082" lon="6.72884">
        <ele>640.70684814453</ele>
        <time>2009-03-08T08:16:00Z</time>
      </trkpt>
      <trkpt lat="43.68087" lon="6.72842">
        <ele>640.27276611328</ele>
        <time>2009-03-08T08:16:07Z</time>
      </trkpt>
      <trkpt lat="43.68088" lon="6.72825">
        <ele>640.34680175781</ele>
        <time>2009-03-08T08:16:10Z</time>
      </trkpt>
      <trkpt lat="43.6809" lon="6.72799">
        <ele>640.24353027344</ele>
        <time>2009-03-08T08:16:15Z</time>
      </trkpt>
      <trkpt lat="43.68077" lon="6.72793">
        <ele>638.64025878906</ele>
        <time>2009-03-08T08:16:19Z</time>
      </trkpt>
      <trkpt lat="43.68045" lon="6.72814">
        <ele>635.21295166016</ele>
        <time>2009-03-08T08:16:24Z</time>
      </trkpt>
      <trkpt lat="43.67997" lon="6.7285">
        <ele>632.28015136719</ele>
        <time>2009-03-08T08:16:31Z</time>
      </trkpt>
      <trkpt lat="43.67961" lon="6.7287">
        <ele>629.12506103516</ele>
        <time>2009-03-08T08:16:36Z</time>
      </trkpt>
      <trkpt lat="43.6792" lon="6.72885">
        <ele>626.08709716797</ele>
        <time>2009-03-08T08:16:41Z</time>
      </trkpt>
      <trkpt lat="43.67894" lon="6.72906">
        <ele>623.59124755859</ele>
        <time>2009-03-08T08:16:46Z</time>
      </trkpt>
      <trkpt lat="43.67887" lon="6.729">
        <ele>622.80847167969</ele>
        <time>2009-03-08T08:16:50Z</time>
      </trkpt>
      <trkpt lat="43.67886" lon="6.72895">
        <ele>622.72607421875</ele>
        <time>2009-03-08T08:16:51Z</time>
      </trkpt>
      <trkpt lat="43.67881" lon="6.72848">
        <ele>620.78576660156</ele>
        <time>2009-03-08T08:16:58Z</time>
      </trkpt>
      <trkpt lat="43.67879" lon="6.72833">
        <ele>619.97009277344</ele>
        <time>2009-03-08T08:17:00Z</time>
      </trkpt>
      <trkpt lat="43.67881" lon="6.72807">
        <ele>619.49017333984</ele>
        <time>2009-03-08T08:17:04Z</time>
      </trkpt>
      <trkpt lat="43.67882" lon="6.72794">
        <ele>619.41198730469</ele>
        <time>2009-03-08T08:17:07Z</time>
      </trkpt>
      <trkpt lat="43.67882" lon="6.72775">
        <ele>619.12762451172</ele>
        <time>2009-03-08T08:17:12Z</time>
      </trkpt>
      <trkpt lat="43.67884" lon="6.72756">
        <ele>618.73620605469</ele>
        <time>2009-03-08T08:17:18Z</time>
      </trkpt>
      <trkpt lat="43.67885" lon="6.72739">
        <ele>617.89373779297</ele>
        <time>2009-03-08T08:17:23Z</time>
      </trkpt>
      <trkpt lat="43.67885" lon="6.72717">
        <ele>616.55554199219</ele>
        <time>2009-03-08T08:17:29Z</time>
      </trkpt>
      <trkpt lat="43.67881" lon="6.72704">
        <ele>615.81909179688</ele>
        <time>2009-03-08T08:17:33Z</time>
      </trkpt>
      <trkpt lat="43.67881" lon="6.72678">
        <ele>614.82690429688</ele>
        <time>2009-03-08T08:17:39Z</time>
      </trkpt>
      <trkpt lat="43.67881" lon="6.7266">
        <ele>614.18145751953</ele>
        <time>2009-03-08T08:17:45Z</time>
      </trkpt>
      <trkpt lat="43.67881" lon="6.72659">
        <ele>614.18487548828</ele>
        <time>2009-03-08T08:17:46Z</time>
      </trkpt>
      <trkpt lat="43.67885" lon="6.72643">
        <ele>613.88623046875</ele>
        <time>2009-03-08T08:17:53Z</time>
      </trkpt>
      <trkpt lat="43.67886" lon="6.72635">
        <ele>613.64758300781</ele>
        <time>2009-03-08T08:17:55Z</time>
      </trkpt>
      <trkpt lat="43.67892" lon="6.72616">
        <ele>613.97216796875</ele>
        <time>2009-03-08T08:18:01Z</time>
      </trkpt>
      <trkpt lat="43.67895" lon="6.7261">
        <ele>614.76141357422</ele>
        <time>2009-03-08T08:18:04Z</time>
      </trkpt>
      <trkpt lat="43.67896" lon="6.72604">
        <ele>614.63439941406</ele>
        <time>2009-03-08T08:18:07Z</time>
      </trkpt>
      <trkpt lat="43.67894" lon="6.72585">
        <ele>613.42419433594</ele>
        <time>2009-03-08T08:18:14Z</time>
      </trkpt>
      <trkpt lat="43.67892" lon="6.72583">
        <ele>612.80480957031</ele>
        <time>2009-03-08T08:18:15Z</time>
      </trkpt>
      <trkpt lat="43.67881" lon="6.72572">
        <ele>611.0400390625</ele>
        <time>2009-03-08T08:18:20Z</time>
      </trkpt>
      <trkpt lat="43.67878" lon="6.72554">
        <ele>610.14739990234</ele>
        <time>2009-03-08T08:18:27Z</time>
      </trkpt>
      <trkpt lat="43.67883" lon="6.72533">
        <ele>609.74060058594</ele>
        <time>2009-03-08T08:18:33Z</time>
      </trkpt>
      <trkpt lat="43.67883" lon="6.72516">
        <ele>609.12945556641</ele>
        <time>2009-03-08T08:18:37Z</time>
      </trkpt>
      <trkpt lat="43.67876" lon="6.72507">
        <ele>608.31066894531</ele>
        <time>2009-03-08T08:18:41Z</time>
      </trkpt>
      <trkpt lat="43.67873" lon="6.72503">
        <ele>607.92266845703</ele>
        <time>2009-03-08T08:18:43Z</time>
      </trkpt>
      <trkpt lat="43.67862" lon="6.72501">
        <ele>607.13134765625</ele>
        <time>2009-03-08T08:18:47Z</time>
      </trkpt>
      <trkpt lat="43.67853" lon="6.72495">
        <ele>605.97491455078</ele>
        <time>2009-03-08T08:18:52Z</time>
      </trkpt>
      <trkpt lat="43.67837" lon="6.72488">
        <ele>603.97680664062</ele>
        <time>2009-03-08T08:18:56Z</time>
      </trkpt>
      <trkpt lat="43.67819" lon="6.72496">
        <ele>598.69897460938</ele>
        <time>2009-03-08T08:19:00Z</time>
      </trkpt>
      <trkpt lat="43.67816" lon="6.72499">
        <ele>597.63842773438</ele>
        <time>2009-03-08T08:19:01Z</time>
      </trkpt>
      <trkpt lat="43.67799" lon="6.72517">
        <ele>593.19219970703</ele>
        <time>2009-03-08T08:19:06Z</time>
      </trkpt>
      <trkpt lat="43.67791" lon="6.72512">
        <ele>591.28332519531</ele>
        <time>2009-03-08T08:19:10Z</time>
      </trkpt>
      <trkpt lat="43.67792" lon="6.72508">
        <ele>591.3193359375</ele>
        <time>2009-03-08T08:19:13Z</time>
      </trkpt>
      <trkpt lat="43.67797" lon="6.72497">
        <ele>592.00469970703</ele>
        <time>2009-03-08T08:19:19Z</time>
      </trkpt>
      <trkpt lat="43.67804" lon="6.72486">
        <ele>592.7353515625</ele>
        <time>2009-03-08T08:19:23Z</time>
      </trkpt>
      <trkpt lat="43.67805" lon="6.7247">
        <ele>591.76141357422</ele>
        <time>2009-03-08T08:19:28Z</time>
      </trkpt>
      <trkpt lat="43.67798" lon="6.72465">
        <ele>590.34429931641</ele>
        <time>2009-03-08T08:19:32Z</time>
      </trkpt>
      <trkpt lat="43.67785" lon="6.72453">
        <ele>587.17199707031</ele>
        <time>2009-03-08T08:19:37Z</time>
      </trkpt>
      <trkpt lat="43.67784" lon="6.7245">
        <ele>586.66693115234</ele>
        <time>2009-03-08T08:19:38Z</time>
      </trkpt>
      <trkpt lat="43.67779" lon="6.72448">
        <ele>585.48199462891</ele>
        <time>2009-03-08T08:19:40Z</time>
      </trkpt>
      <trkpt lat="43.67764" lon="6.72429">
        <ele>577.64703369141</ele>
        <time>2009-03-08T08:19:45Z</time>
      </trkpt>
      <trkpt lat="43.67741" lon="6.72416">
        <ele>568.61212158203</ele>
        <time>2009-03-08T08:19:49Z</time>
      </trkpt>
      <trkpt lat="43.67732" lon="6.72409">
        <ele>567.09069824219</ele>
        <time>2009-03-08T08:19:51Z</time>
      </trkpt>
      <trkpt lat="43.67729" lon="6.72392">
        <ele>565.86383056641</ele>
        <time>2009-03-08T08:19:55Z</time>
      </trkpt>
      <trkpt lat="43.67732" lon="6.72371">
        <ele>565.43286132812</ele>
        <time>2009-03-08T08:19:59Z</time>
      </trkpt>
      <trkpt lat="43.67738" lon="6.72352">
        <ele>565.33502197266</ele>
        <time>2009-03-08T08:20:04Z</time>
      </trkpt>
      <trkpt lat="43.6774" lon="6.72345">
        <ele>565.32983398438</ele>
        <time>2009-03-08T08:20:06Z</time>
      </trkpt>
      <trkpt lat="43.67749" lon="6.72319">
        <ele>564.83197021484</ele>
        <time>2009-03-08T08:20:12Z</time>
      </trkpt>
      <trkpt lat="43.67755" lon="6.72298">
        <ele>566.51220703125</ele>
        <time>2009-03-08T08:20:17Z</time>
      </trkpt>
      <trkpt lat="43.67757" lon="6.72293">
        <ele>567.49597167969</ele>
        <time>2009-03-08T08:20:20Z</time>
      </trkpt>
      <trkpt lat="43.67754" lon="6.72303">
        <ele>566.44653320312</ele>
        <time>2009-03-08T08:20:25Z</time>
      </trkpt>
      <trkpt lat="43.67754" lon="6.72305">
        <ele>566.49859619141</ele>
        <time>2009-03-08T08:20:30Z</time>
      </trkpt>
      <trkpt lat="43.67755" lon="6.72304">
        <ele>566.6787109375</ele>
        <time>2009-03-08T08:20:32Z</time>
      </trkpt>
      <trkpt lat="43.67754" lon="6.72304">
        <ele>566.02728271484</ele>
        <time>2009-03-08T08:20:36Z</time>
      </trkpt>
      <trkpt lat="43.67755" lon="6.72302">
        <ele>566.85876464844</ele>
        <time>2009-03-08T08:20:48Z</time>
      </trkpt>
      <trkpt lat="43.67754" lon="6.72303">
        <ele>566.22863769531</ele>
        <time>2009-03-08T08:20:55Z</time>
      </trkpt>
      <trkpt lat="43.67754" lon="6.72303">
        <ele>566.22277832031</ele>
        <time>2009-03-08T08:21:04Z</time>
      </trkpt>
      <trkpt lat="43.6775" lon="6.72302">
        <ele>563.97998046875</ele>
        <time>2009-03-08T08:21:15Z</time>
      </trkpt>
      <trkpt lat="43.6775" lon="6.72302">
        <ele>563.97827148438</ele>
        <time>2009-03-08T08:21:25Z</time>
      </trkpt>
      <trkpt lat="43.67747" lon="6.72308">
        <ele>563.98901367188</ele>
        <time>2009-03-08T08:21:43Z</time>
      </trkpt>
      <trkpt lat="43.67748" lon="6.7231">
        <ele>564.19268798828</ele>
        <time>2009-03-08T08:21:51Z</time>
      </trkpt>
      <trkpt lat="43.67744" lon="6.72317">
        <ele>564.34350585938</ele>
        <time>2009-03-08T08:22:05Z</time>
      </trkpt>
      <trkpt lat="43.67748" lon="6.72314">
        <ele>564.48199462891</ele>
        <time>2009-03-08T08:22:14Z</time>
      </trkpt>
      <trkpt lat="43.67748" lon="6.72315">
        <ele>564.52526855469</ele>
        <time>2009-03-08T08:22:25Z</time>
      </trkpt>
      <trkpt lat="43.67749" lon="6.72314">
        <ele>564.48699951172</ele>
        <time>2009-03-08T08:22:28Z</time>
      </trkpt>
      <trkpt lat="43.67753" lon="6.72307">
        <ele>565.74749755859</ele>
        <time>2009-03-08T08:22:35Z</time>
      </trkpt>
      <trkpt lat="43.67756" lon="6.72305">
        <ele>567.16955566406</ele>
        <time>2009-03-08T08:22:47Z</time>
      </trkpt>
      <trkpt lat="43.67757" lon="6.72304">
        <ele>567.79235839844</ele>
        <time>2009-03-08T08:22:53Z</time>
      </trkpt>
      <trkpt lat="43.67756" lon="6.72303">
        <ele>567.53204345703</ele>
        <time>2009-03-08T08:22:58Z</time>
      </trkpt>
      <trkpt lat="43.67756" lon="6.72304">
        <ele>567.57989501953</ele>
        <time>2009-03-08T08:23:08Z</time>
      </trkpt>
      <trkpt lat="43.67757" lon="6.72305">
        <ele>568.04095458984</ele>
        <time>2009-03-08T08:23:16Z</time>
      </trkpt>
      <trkpt lat="43.67756" lon="6.72304">
        <ele>567.56658935547</ele>
        <time>2009-03-08T08:23:29Z</time>
      </trkpt>
      <trkpt lat="43.67756" lon="6.72301">
        <ele>567.05395507812</ele>
        <time>2009-03-08T08:23:45Z</time>
      </trkpt>
      <trkpt lat="43.67754" lon="6.723">
        <ele>565.88537597656</ele>
        <time>2009-03-08T08:24:25Z</time>
      </trkpt>
      <trkpt lat="43.67754" lon="6.72299">
        <ele>565.87640380859</ele>
        <time>2009-03-08T08:24:38Z</time>
      </trkpt>
      <trkpt lat="43.67752" lon="6.72297">
        <ele>565.13427734375</ele>
        <time>2009-03-08T08:24:47Z</time>
      </trkpt>
      <trkpt lat="43.67754" lon="6.72295">
        <ele>565.73596191406</ele>
        <time>2009-03-08T08:24:53Z</time>
      </trkpt>
      <trkpt lat="43.67754" lon="6.72293">
        <ele>565.67620849609</ele>
        <time>2009-03-08T08:25:05Z</time>
      </trkpt>
      <trkpt lat="43.67753" lon="6.72291">
        <ele>565.38946533203</ele>
        <time>2009-03-08T08:25:34Z</time>
      </trkpt>
      <trkpt lat="43.67753" lon="6.7229">
        <ele>565.13940429688</ele>
        <time>2009-03-08T08:25:46Z</time>
      </trkpt>
      <trkpt lat="43.67753" lon="6.7229">
        <ele>565.13635253906</ele>
        <time>2009-03-08T08:25:47Z</time>
      </trkpt>
      <trkpt lat="43.67753" lon="6.7229">
        <ele>565.13323974609</ele>
        <time>2009-03-08T08:25:58Z</time>
      </trkpt>
      <trkpt lat="43.67752" lon="6.7229">
        <ele>564.89959716797</ele>
        <time>2009-03-08T08:26:37Z</time>
      </trkpt>
      <trkpt lat="43.67752" lon="6.7229">
        <ele>564.89801025391</ele>
        <time>2009-03-08T08:26:38Z</time>
      </trkpt>
      <trkpt lat="43.67754" lon="6.72292">
        <ele>565.63885498047</ele>
        <time>2009-03-08T08:27:46Z</time>
      </trkpt>
      <trkpt lat="43.67753" lon="6.72292">
        <ele>565.43048095703</ele>
        <time>2009-03-08T08:28:22Z</time>
      </trkpt>
      <trkpt lat="43.67752" lon="6.72291">
        <ele>564.94653320312</ele>
        <time>2009-03-08T08:28:45Z</time>
      </trkpt>
      <trkpt lat="43.67753" lon="6.72292">
        <ele>565.4228515625</ele>
        <time>2009-03-08T08:28:52Z</time>
      </trkpt>
      <trkpt lat="43.67754" lon="6.72292">
        <ele>565.66125488281</ele>
        <time>2009-03-08T08:28:56Z</time>
      </trkpt>
      <trkpt lat="43.67754" lon="6.72292">
        <ele>565.86102294922</ele>
        <time>2009-03-08T08:29:07Z</time>
      </trkpt>
      <trkpt lat="43.67754" lon="6.72291">
        <ele>565.83013916016</ele>
        <time>2009-03-08T08:29:14Z</time>
      </trkpt>
      <trkpt lat="43.67755" lon="6.72291">
        <ele>566.30865478516</ele>
        <time>2009-03-08T08:29:28Z</time>
      </trkpt>
      <trkpt lat="43.67756" lon="6.72292">
        <ele>566.79248046875</ele>
        <time>2009-03-08T08:29:40Z</time>
      </trkpt>
      <trkpt lat="43.67755" lon="6.72293">
        <ele>566.35845947266</ele>
        <time>2009-03-08T08:30:02Z</time>
      </trkpt>
      <trkpt lat="43.67755" lon="6.72294">
        <ele>566.60119628906</ele>
        <time>2009-03-08T08:30:06Z</time>
      </trkpt>
      <trkpt lat="43.67755" lon="6.72294">
        <ele>566.60119628906</ele>
        <time>2009-03-08T08:30:07Z</time>
      </trkpt>
      <trkpt lat="43.67755" lon="6.72294">
        <ele>566.61102294922</ele>
        <time>2009-03-08T08:30:18Z</time>
      </trkpt>
      <trkpt lat="43.67756" lon="6.72294">
        <ele>566.83923339844</ele>
        <time>2009-03-08T08:30:25Z</time>
      </trkpt>
      <trkpt lat="43.67755" lon="6.72294">
        <ele>566.61663818359</ele>
        <time>2009-03-08T08:30:34Z</time>
      </trkpt>
      <trkpt lat="43.67756" lon="6.72294">
        <ele>566.85302734375</ele>
        <time>2009-03-08T08:30:45Z</time>
      </trkpt>
      <trkpt lat="43.67756" lon="6.72295">
        <ele>567.08227539062</ele>
        <time>2009-03-08T08:30:56Z</time>
      </trkpt>
      <trkpt lat="43.67756" lon="6.72295">
        <ele>567.31671142578</ele>
        <time>2009-03-08T08:31:20Z</time>
      </trkpt>
      <trkpt lat="43.67757" lon="6.72295">
        <ele>567.53778076172</ele>
        <time>2009-03-08T08:31:36Z</time>
      </trkpt>
      <trkpt lat="43.67757" lon="6.72295">
        <ele>567.53778076172</ele>
        <time>2009-03-08T08:31:37Z</time>
      </trkpt>
      <trkpt lat="43.67757" lon="6.72294">
        <ele>567.52734375</ele>
        <time>2009-03-08T08:31:46Z</time>
      </trkpt>
      <trkpt lat="43.67757" lon="6.72294">
        <ele>567.52081298828</ele>
        <time>2009-03-08T08:31:52Z</time>
      </trkpt>
      <trkpt lat="43.67757" lon="6.72294">
        <ele>567.52081298828</ele>
        <time>2009-03-08T08:31:53Z</time>
      </trkpt>
      <trkpt lat="43.67757" lon="6.72294">
        <ele>567.51818847656</ele>
        <time>2009-03-08T08:31:58Z</time>
      </trkpt>
      <trkpt lat="43.67757" lon="6.72294">
        <ele>567.51428222656</ele>
        <time>2009-03-08T08:32:24Z</time>
      </trkpt>
      <trkpt lat="43.67757" lon="6.72294">
        <ele>567.52081298828</ele>
        <time>2009-03-08T08:32:36Z</time>
      </trkpt>
      <trkpt lat="43.67756" lon="6.72294">
        <ele>567.07281494141</ele>
        <time>2009-03-08T08:33:18Z</time>
      </trkpt>
      <trkpt lat="43.67756" lon="6.72294">
        <ele>567.30078125</ele>
        <time>2009-03-08T08:33:42Z</time>
      </trkpt>
      <trkpt lat="43.67757" lon="6.72294">
        <ele>567.51428222656</ele>
        <time>2009-03-08T08:33:51Z</time>
      </trkpt>
      <trkpt lat="43.67757" lon="6.72293">
        <ele>567.48553466797</ele>
        <time>2009-03-08T08:34:09Z</time>
      </trkpt>
      <trkpt lat="43.67756" lon="6.72293">
        <ele>567.25555419922</ele>
        <time>2009-03-08T08:34:13Z</time>
      </trkpt>
      <trkpt lat="43.67756" lon="6.72292">
        <ele>567.02008056641</ele>
        <time>2009-03-08T08:34:22Z</time>
      </trkpt>
      <trkpt lat="43.67756" lon="6.72292">
        <ele>567.01867675781</ele>
        <time>2009-03-08T08:34:23Z</time>
      </trkpt>
      <trkpt lat="43.67756" lon="6.72291">
        <ele>566.76220703125</ele>
        <time>2009-03-08T08:34:46Z</time>
      </trkpt>
      <trkpt lat="43.67757" lon="6.72295">
        <ele>567.5390625</ele>
        <time>2009-03-08T08:35:01Z</time>
      </trkpt>
      <trkpt lat="43.67757" lon="6.72293">
        <ele>567.95007324219</ele>
        <time>2009-03-08T08:35:02Z</time>
      </trkpt>
      <trkpt lat="43.67759" lon="6.7228">
        <ele>568.51434326172</ele>
        <time>2009-03-08T08:35:07Z</time>
      </trkpt>
      <trkpt lat="43.67764" lon="6.72281">
        <ele>571.33471679688</ele>
        <time>2009-03-08T08:35:21Z</time>
      </trkpt>
      <trkpt lat="43.67762" lon="6.72281">
        <ele>570.41229248047</ele>
        <time>2009-03-08T08:35:28Z</time>
      </trkpt>
      <trkpt lat="43.6776" lon="6.7228">
        <ele>568.98291015625</ele>
        <time>2009-03-08T08:35:41Z</time>
      </trkpt>
      <trkpt lat="43.67761" lon="6.72275">
        <ele>569.3564453125</ele>
        <time>2009-03-08T08:35:49Z</time>
      </trkpt>
      <trkpt lat="43.67761" lon="6.72268">
        <ele>568.57073974609</ele>
        <time>2009-03-08T08:35:54Z</time>
      </trkpt>
      <trkpt lat="43.67761" lon="6.72241">
        <ele>565.86810302734</ele>
        <time>2009-03-08T08:35:59Z</time>
      </trkpt>
      <trkpt lat="43.67758" lon="6.72221">
        <ele>562.48150634766</ele>
        <time>2009-03-08T08:36:03Z</time>
      </trkpt>
      <trkpt lat="43.67757" lon="6.72216">
        <ele>561.61883544922</ele>
        <time>2009-03-08T08:36:04Z</time>
      </trkpt>
      <trkpt lat="43.67743" lon="6.72175">
        <ele>548.63409423828</ele>
        <time>2009-03-08T08:36:11Z</time>
      </trkpt>
      <trkpt lat="43.67735" lon="6.72149">
        <ele>538.92266845703</ele>
        <time>2009-03-08T08:36:16Z</time>
      </trkpt>
      <trkpt lat="43.67731" lon="6.7214">
        <ele>535.48516845703</ele>
        <time>2009-03-08T08:36:21Z</time>
      </trkpt>
      <trkpt lat="43.67726" lon="6.72144">
        <ele>535.17272949219</ele>
        <time>2009-03-08T08:36:23Z</time>
      </trkpt>
      <trkpt lat="43.67702" lon="6.72171">
        <ele>535.20404052734</ele>
        <time>2009-03-08T08:36:29Z</time>
      </trkpt>
      <trkpt lat="43.67688" lon="6.72186">
        <ele>534.55108642578</ele>
        <time>2009-03-08T08:36:32Z</time>
      </trkpt>
      <trkpt lat="43.67678" lon="6.72196">
        <ele>533.67395019531</ele>
        <time>2009-03-08T08:36:35Z</time>
      </trkpt>
      <trkpt lat="43.67662" lon="6.72212">
        <ele>531.71917724609</ele>
        <time>2009-03-08T08:36:41Z</time>
      </trkpt>
      <trkpt lat="43.67653" lon="6.72221">
        <ele>530.98785400391</ele>
        <time>2009-03-08T08:36:45Z</time>
      </trkpt>
      <trkpt lat="43.67649" lon="6.72239">
        <ele>533.48272705078</ele>
        <time>2009-03-08T08:36:51Z</time>
      </trkpt>
      <trkpt lat="43.67649" lon="6.72242">
        <ele>533.85137939453</ele>
        <time>2009-03-08T08:36:52Z</time>
      </trkpt>
      <trkpt lat="43.67648" lon="6.72243">
        <ele>533.91424560547</ele>
        <time>2009-03-08T08:36:53Z</time>
      </trkpt>
      <trkpt lat="43.67649" lon="6.72253">
        <ele>536.06109619141</ele>
        <time>2009-03-08T08:36:59Z</time>
      </trkpt>
      <trkpt lat="43.67646" lon="6.72264">
        <ele>537.32971191406</ele>
        <time>2009-03-08T08:37:05Z</time>
      </trkpt>
      <trkpt lat="43.67646" lon="6.72279">
        <ele>539.91937255859</ele>
        <time>2009-03-08T08:37:10Z</time>
      </trkpt>
      <trkpt lat="43.67646" lon="6.72281">
        <ele>539.97265625</ele>
        <time>2009-03-08T08:37:11Z</time>
      </trkpt>
      <trkpt lat="43.67643" lon="6.72289">
        <ele>539.97943115234</ele>
        <time>2009-03-08T08:37:15Z</time>
      </trkpt>
      <trkpt lat="43.67643" lon="6.72297">
        <ele>540.42456054688</ele>
        <time>2009-03-08T08:37:18Z</time>
      </trkpt>
      <trkpt lat="43.67642" lon="6.72303">
        <ele>540.77362060547</ele>
        <time>2009-03-08T08:37:20Z</time>
      </trkpt>
      <trkpt lat="43.6764" lon="6.72314">
        <ele>541.04925537109</ele>
        <time>2009-03-08T08:37:24Z</time>
      </trkpt>
      <trkpt lat="43.67638" lon="6.7232">
        <ele>540.96740722656</ele>
        <time>2009-03-08T08:37:26Z</time>
      </trkpt>
      <trkpt lat="43.67629" lon="6.72337">
        <ele>541.48065185547</ele>
        <time>2009-03-08T08:37:32Z</time>
      </trkpt>
      <trkpt lat="43.67619" lon="6.72356">
        <ele>541.65454101562</ele>
        <time>2009-03-08T08:37:37Z</time>
      </trkpt>
      <trkpt lat="43.67616" lon="6.72363">
        <ele>541.57342529297</ele>
        <time>2009-03-08T08:37:39Z</time>
      </trkpt>
      <trkpt lat="43.67598" lon="6.72368">
        <ele>539.04125976562</ele>
        <time>2009-03-08T08:37:43Z</time>
      </trkpt>
      <trkpt lat="43.67573" lon="6.72372">
        <ele>534.14678955078</ele>
        <time>2009-03-08T08:37:48Z</time>
      </trkpt>
      <trkpt lat="43.67564" lon="6.72374">
        <ele>532.15209960938</ele>
        <time>2009-03-08T08:37:50Z</time>
      </trkpt>
      <trkpt lat="43.67556" lon="6.72376">
        <ele>530.15393066406</ele>
        <time>2009-03-08T08:37:54Z</time>
      </trkpt>
      <trkpt lat="43.67553" lon="6.72374">
        <ele>529.70892333984</ele>
        <time>2009-03-08T08:37:59Z</time>
      </trkpt>
      <trkpt lat="43.6755" lon="6.72374">
        <ele>529.33813476562</ele>
        <time>2009-03-08T08:38:06Z</time>
      </trkpt>
      <trkpt lat="43.6754" lon="6.72385">
        <ele>529.01879882812</ele>
        <time>2009-03-08T08:38:10Z</time>
      </trkpt>
      <trkpt lat="43.67518" lon="6.72405">
        <ele>527.88336181641</ele>
        <time>2009-03-08T08:38:14Z</time>
      </trkpt>
      <trkpt lat="43.67514" lon="6.7241">
        <ele>527.26995849609</ele>
        <time>2009-03-08T08:38:15Z</time>
      </trkpt>
      <trkpt lat="43.67505" lon="6.72416">
        <ele>525.31915283203</ele>
        <time>2009-03-08T08:38:18Z</time>
      </trkpt>
      <trkpt lat="43.67501" lon="6.72414">
        <ele>524.10235595703</ele>
        <time>2009-03-08T08:38:22Z</time>
      </trkpt>
      <trkpt lat="43.67501" lon="6.72413">
        <ele>523.91778564453</ele>
        <time>2009-03-08T08:38:28Z</time>
      </trkpt>
      <trkpt lat="43.67499" lon="6.72412">
        <ele>523.56683349609</ele>
        <time>2009-03-08T08:38:38Z</time>
      </trkpt>
      <trkpt lat="43.67497" lon="6.72411">
        <ele>523.39855957031</ele>
        <time>2009-03-08T08:38:42Z</time>
      </trkpt>
      <trkpt lat="43.67496" lon="6.72412">
        <ele>523.38140869141</ele>
        <time>2009-03-08T08:38:44Z</time>
      </trkpt>
      <trkpt lat="43.67492" lon="6.72411">
        <ele>522.99688720703</ele>
        <time>2009-03-08T08:38:51Z</time>
      </trkpt>
      <trkpt lat="43.67487" lon="6.72412">
        <ele>522.67077636719</ele>
        <time>2009-03-08T08:38:56Z</time>
      </trkpt>
      <trkpt lat="43.67484" lon="6.72412">
        <ele>522.51281738281</ele>
        <time>2009-03-08T08:38:58Z</time>
      </trkpt>
      <trkpt lat="43.67477" lon="6.72411">
        <ele>521.94635009766</ele>
        <time>2009-03-08T08:39:03Z</time>
      </trkpt>
      <trkpt lat="43.67472" lon="6.72408">
        <ele>521.42791748047</ele>
        <time>2009-03-08T08:39:07Z</time>
      </trkpt>
      <trkpt lat="43.67466" lon="6.72405">
        <ele>520.68328857422</ele>
        <time>2009-03-08T08:39:13Z</time>
      </trkpt>
      <trkpt lat="43.67463" lon="6.72403">
        <ele>520.19775390625</ele>
        <time>2009-03-08T08:39:19Z</time>
      </trkpt>
      <trkpt lat="43.6746" lon="6.72402">
        <ele>519.82952880859</ele>
        <time>2009-03-08T08:39:21Z</time>
      </trkpt>
      <trkpt lat="43.67455" lon="6.724">
        <ele>519.09838867188</ele>
        <time>2009-03-08T08:39:25Z</time>
      </trkpt>
      <trkpt lat="43.67449" lon="6.72397">
        <ele>518.32501220703</ele>
        <time>2009-03-08T08:39:31Z</time>
      </trkpt>
      <trkpt lat="43.67446" lon="6.72395">
        <ele>517.80316162109</ele>
        <time>2009-03-08T08:39:36Z</time>
      </trkpt>
      <trkpt lat="43.67442" lon="6.72394">
        <ele>516.91168212891</ele>
        <time>2009-03-08T08:39:45Z</time>
      </trkpt>
      <trkpt lat="43.67438" lon="6.72393">
        <ele>515.47015380859</ele>
        <time>2009-03-08T08:39:51Z</time>
      </trkpt>
      <trkpt lat="43.67435" lon="6.72392">
        <ele>514.34844970703</ele>
        <time>2009-03-08T08:39:56Z</time>
      </trkpt>
      <trkpt lat="43.67431" lon="6.72385">
        <ele>511.86920166016</ele>
        <time>2009-03-08T08:40:04Z</time>
      </trkpt>
      <trkpt lat="43.67432" lon="6.72377">
        <ele>510.47955322266</ele>
        <time>2009-03-08T08:40:12Z</time>
      </trkpt>
      <trkpt lat="43.67431" lon="6.72371">
        <ele>509.18466186523</ele>
        <time>2009-03-08T08:40:17Z</time>
      </trkpt>
      <trkpt lat="43.67432" lon="6.72369">
        <ele>509.02883911133</ele>
        <time>2009-03-08T08:40:19Z</time>
      </trkpt>
      <trkpt lat="43.6744" lon="6.72351">
        <ele>508.01989746094</ele>
        <time>2009-03-08T08:40:25Z</time>
      </trkpt>
      <trkpt lat="43.67455" lon="6.7233">
        <ele>505.93838500977</ele>
        <time>2009-03-08T08:40:31Z</time>
      </trkpt>
      <trkpt lat="43.67468" lon="6.72305">
        <ele>500.76727294922</ele>
        <time>2009-03-08T08:40:37Z</time>
      </trkpt>
      <trkpt lat="43.67479" lon="6.72284">
        <ele>498.41522216797</ele>
        <time>2009-03-08T08:40:42Z</time>
      </trkpt>
      <trkpt lat="43.6748" lon="6.72258">
        <ele>487.24472045898</ele>
        <time>2009-03-08T08:40:48Z</time>
      </trkpt>
      <trkpt lat="43.67474" lon="6.72238">
        <ele>474.64114379883</ele>
        <time>2009-03-08T08:40:54Z</time>
      </trkpt>
      <trkpt lat="43.67471" lon="6.72222">
        <ele>464.40731811523</ele>
        <time>2009-03-08T08:40:58Z</time>
      </trkpt>
      <trkpt lat="43.67474" lon="6.72197">
        <ele>457.37075805664</ele>
        <time>2009-03-08T08:41:03Z</time>
      </trkpt>
      <trkpt lat="43.67482" lon="6.7217">
        <ele>451.67141723633</ele>
        <time>2009-03-08T08:41:08Z</time>
      </trkpt>
      <trkpt lat="43.67485" lon="6.72158">
        <ele>450.94827270508</ele>
        <time>2009-03-08T08:41:11Z</time>
      </trkpt>
      <trkpt lat="43.67485" lon="6.72154">
        <ele>450.4479675293</ele>
        <time>2009-03-08T08:41:12Z</time>
      </trkpt>
      <trkpt lat="43.6749" lon="6.72132">
        <ele>450.462890625</ele>
        <time>2009-03-08T08:41:16Z</time>
      </trkpt>
      <trkpt lat="43.675" lon="6.72114">
        <ele>455.736328125</ele>
        <time>2009-03-08T08:41:19Z</time>
      </trkpt>
      <trkpt lat="43.67506" lon="6.72099">
        <ele>457.35916137695</ele>
        <time>2009-03-08T08:41:22Z</time>
      </trkpt>
      <trkpt lat="43.67516" lon="6.72075">
        <ele>458.43313598633</ele>
        <time>2009-03-08T08:41:28Z</time>
      </trkpt>
      <trkpt lat="43.67518" lon="6.72067">
        <ele>458.8571472168</ele>
        <time>2009-03-08T08:41:30Z</time>
      </trkpt>
      <trkpt lat="43.67528" lon="6.72047">
        <ele>460</ele>
        <time>2009-03-08T08:41:35Z</time>
      </trkpt>
      <trkpt lat="43.67532" lon="6.72036">
        <ele>460</ele>
        <time>2009-03-08T08:41:39Z</time>
      </trkpt>
      <trkpt lat="43.67536" lon="6.72025">
        <ele>460</ele>
        <time>2009-03-08T08:41:43Z</time>
      </trkpt>
      <trkpt lat="43.67538" lon="6.72004">
        <ele>460</ele>
        <time>2009-03-08T08:41:48Z</time>
      </trkpt>
      <trkpt lat="43.67543" lon="6.71983">
        <ele>460</ele>
        <time>2009-03-08T08:41:53Z</time>
      </trkpt>
      <trkpt lat="43.67551" lon="6.71956">
        <ele>460</ele>
        <time>2009-03-08T08:41:58Z</time>
      </trkpt>
      <trkpt lat="43.67557" lon="6.71939">
        <ele>460</ele>
        <time>2009-03-08T08:42:01Z</time>
      </trkpt>
      <trkpt lat="43.67566" lon="6.71929">
        <ele>460</ele>
        <time>2009-03-08T08:42:05Z</time>
      </trkpt>
      <trkpt lat="43.67574" lon="6.71925">
        <ele>460</ele>
        <time>2009-03-08T08:42:10Z</time>
      </trkpt>
      <trkpt lat="43.67573" lon="6.71923">
        <ele>460</ele>
        <time>2009-03-08T08:42:15Z</time>
      </trkpt>
      <trkpt lat="43.67575" lon="6.71917">
        <ele>460</ele>
        <time>2009-03-08T08:42:19Z</time>
      </trkpt>
      <trkpt lat="43.67577" lon="6.71914">
        <ele>460</ele>
        <time>2009-03-08T08:42:22Z</time>
      </trkpt>
      <trkpt lat="43.67575" lon="6.71911">
        <ele>460</ele>
        <time>2009-03-08T08:42:28Z</time>
      </trkpt>
      <trkpt lat="43.67579" lon="6.7191">
        <ele>460</ele>
        <time>2009-03-08T08:42:40Z</time>
      </trkpt>
      <trkpt lat="43.67585" lon="6.71909">
        <ele>460</ele>
        <time>2009-03-08T08:42:44Z</time>
      </trkpt>
      <trkpt lat="43.67589" lon="6.71904">
        <ele>460</ele>
        <time>2009-03-08T08:42:48Z</time>
      </trkpt>
      <trkpt lat="43.67591" lon="6.71898">
        <ele>460</ele>
        <time>2009-03-08T08:42:52Z</time>
      </trkpt>
      <trkpt lat="43.67592" lon="6.71898">
        <ele>460</ele>
        <time>2009-03-08T08:42:53Z</time>
      </trkpt>
      <trkpt lat="43.67584" lon="6.71898">
        <ele>460</ele>
        <time>2009-03-08T08:42:58Z</time>
      </trkpt>
      <trkpt lat="43.67564" lon="6.71899">
        <ele>460</ele>
        <time>2009-03-08T08:43:03Z</time>
      </trkpt>
      <trkpt lat="43.6756" lon="6.71899">
        <ele>460</ele>
        <time>2009-03-08T08:43:04Z</time>
      </trkpt>
      <trkpt lat="43.6756" lon="6.71891">
        <ele>460</ele>
        <time>2009-03-08T08:43:08Z</time>
      </trkpt>
      <trkpt lat="43.6757" lon="6.71896">
        <ele>460</ele>
        <time>2009-03-08T08:43:10Z</time>
      </trkpt>
      <trkpt lat="43.67591" lon="6.719">
        <ele>460</ele>
        <time>2009-03-08T08:43:13Z</time>
      </trkpt>
      <trkpt lat="43.67624" lon="6.71884">
        <ele>460</ele>
        <time>2009-03-08T08:43:18Z</time>
      </trkpt>
      <trkpt lat="43.67637" lon="6.71873">
        <ele>460</ele>
        <time>2009-03-08T08:43:20Z</time>
      </trkpt>
      <trkpt lat="43.67651" lon="6.71861">
        <ele>460</ele>
        <time>2009-03-08T08:43:22Z</time>
      </trkpt>
      <trkpt lat="43.67688" lon="6.71842">
        <ele>460</ele>
        <time>2009-03-08T08:43:27Z</time>
      </trkpt>
      <trkpt lat="43.67698" lon="6.71834">
        <ele>460</ele>
        <time>2009-03-08T08:43:29Z</time>
      </trkpt>
      <trkpt lat="43.67699" lon="6.71807">
        <ele>460</ele>
        <time>2009-03-08T08:43:33Z</time>
      </trkpt>
      <trkpt lat="43.67689" lon="6.71791">
        <ele>460.32470703125</ele>
        <time>2009-03-08T08:43:36Z</time>
      </trkpt>
      <trkpt lat="43.67685" lon="6.71788">
        <ele>460.63571166992</ele>
        <time>2009-03-08T08:43:37Z</time>
      </trkpt>
      <trkpt lat="43.67676" lon="6.71788">
        <ele>461.27658081055</ele>
        <time>2009-03-08T08:43:40Z</time>
      </trkpt>
      <trkpt lat="43.67663" lon="6.71793">
        <ele>461.60961914062</ele>
        <time>2009-03-08T08:43:47Z</time>
      </trkpt>
      <trkpt lat="43.67644" lon="6.71802">
        <ele>460.78329467773</ele>
        <time>2009-03-08T08:43:54Z</time>
      </trkpt>
      <trkpt lat="43.67624" lon="6.71811">
        <ele>462.24234008789</ele>
        <time>2009-03-08T08:44:01Z</time>
      </trkpt>
      <trkpt lat="43.67612" lon="6.71814">
        <ele>463.35003662109</ele>
        <time>2009-03-08T08:44:05Z</time>
      </trkpt>
      <trkpt lat="43.67594" lon="6.71816">
        <ele>467.45407104492</ele>
        <time>2009-03-08T08:44:12Z</time>
      </trkpt>
      <trkpt lat="43.67574" lon="6.71804">
        <ele>475.11367797852</ele>
        <time>2009-03-08T08:44:20Z</time>
      </trkpt>
      <trkpt lat="43.67558" lon="6.71795">
        <ele>482.50030517578</ele>
        <time>2009-03-08T08:44:27Z</time>
      </trkpt>
      <trkpt lat="43.67543" lon="6.71793">
        <ele>487.72369384766</ele>
        <time>2009-03-08T08:44:33Z</time>
      </trkpt>
      <trkpt lat="43.6753" lon="6.71801">
        <ele>489.53527832031</ele>
        <time>2009-03-08T08:44:39Z</time>
      </trkpt>
      <trkpt lat="43.67519" lon="6.71811">
        <ele>491.12835693359</ele>
        <time>2009-03-08T08:44:45Z</time>
      </trkpt>
      <trkpt lat="43.67505" lon="6.71826">
        <ele>493.59341430664</ele>
        <time>2009-03-08T08:44:52Z</time>
      </trkpt>
      <trkpt lat="43.6749" lon="6.71849">
        <ele>494.22570800781</ele>
        <time>2009-03-08T08:45:00Z</time>
      </trkpt>
      <trkpt lat="43.6748" lon="6.71869">
        <ele>494.02130126953</ele>
        <time>2009-03-08T08:45:06Z</time>
      </trkpt>
      <trkpt lat="43.67469" lon="6.71903">
        <ele>490.10067749023</ele>
        <time>2009-03-08T08:45:15Z</time>
      </trkpt>
      <trkpt lat="43.67461" lon="6.71933">
        <ele>485.8498840332</ele>
        <time>2009-03-08T08:45:23Z</time>
      </trkpt>
      <trkpt lat="43.67448" lon="6.71957">
        <ele>484.97830200195</ele>
        <time>2009-03-08T08:45:30Z</time>
      </trkpt>
      <trkpt lat="43.67426" lon="6.71976">
        <ele>491.46774291992</ele>
        <time>2009-03-08T08:45:38Z</time>
      </trkpt>
      <trkpt lat="43.67409" lon="6.71994">
        <ele>492.66946411133</ele>
        <time>2009-03-08T08:45:45Z</time>
      </trkpt>
      <trkpt lat="43.67386" lon="6.72018">
        <ele>490.08529663086</ele>
        <time>2009-03-08T08:45:54Z</time>
      </trkpt>
      <trkpt lat="43.67364" lon="6.72037">
        <ele>492.08843994141</ele>
        <time>2009-03-08T08:46:02Z</time>
      </trkpt>
      <trkpt lat="43.67339" lon="6.72039">
        <ele>498.50018310547</ele>
        <time>2009-03-08T08:46:10Z</time>
      </trkpt>
      <trkpt lat="43.67336" lon="6.72039">
        <ele>499.26599121094</ele>
        <time>2009-03-08T08:46:11Z</time>
      </trkpt>
      <trkpt lat="43.67319" lon="6.72053">
        <ele>499.92602539062</ele>
        <time>2009-03-08T08:46:18Z</time>
      </trkpt>
      <trkpt lat="43.6731" lon="6.72063">
        <ele>499.06506347656</ele>
        <time>2009-03-08T08:46:23Z</time>
      </trkpt>
      <trkpt lat="43.67302" lon="6.72073">
        <ele>497.80825805664</ele>
        <time>2009-03-08T08:46:27Z</time>
      </trkpt>
      <trkpt lat="43.67289" lon="6.72078">
        <ele>499.90106201172</ele>
        <time>2009-03-08T08:46:33Z</time>
      </trkpt>
      <trkpt lat="43.67273" lon="6.72076">
        <ele>503.62515258789</ele>
        <time>2009-03-08T08:46:40Z</time>
      </trkpt>
      <trkpt lat="43.67263" lon="6.72074">
        <ele>504.63467407227</ele>
        <time>2009-03-08T08:46:44Z</time>
      </trkpt>
      <trkpt lat="43.67241" lon="6.72064">
        <ele>507.07443237305</ele>
        <time>2009-03-08T08:46:52Z</time>
      </trkpt>
      <trkpt lat="43.67222" lon="6.72054">
        <ele>509.15063476562</ele>
        <time>2009-03-08T08:46:59Z</time>
      </trkpt>
      <trkpt lat="43.67207" lon="6.72047">
        <ele>510.5153503418</ele>
        <time>2009-03-08T08:47:05Z</time>
      </trkpt>
      <trkpt lat="43.67205" lon="6.72045">
        <ele>510.77282714844</ele>
        <time>2009-03-08T08:47:06Z</time>
      </trkpt>
      <trkpt lat="43.67185" lon="6.72041">
        <ele>512.24334716797</ele>
        <time>2009-03-08T08:47:14Z</time>
      </trkpt>
      <trkpt lat="43.67168" lon="6.72049">
        <ele>512.634765625</ele>
        <time>2009-03-08T08:47:21Z</time>
      </trkpt>
      <trkpt lat="43.67147" lon="6.72059">
        <ele>512.02764892578</ele>
        <time>2009-03-08T08:47:29Z</time>
      </trkpt>
      <trkpt lat="43.67125" lon="6.72066">
        <ele>511.14196777344</ele>
        <time>2009-03-08T08:47:38Z</time>
      </trkpt>
      <trkpt lat="43.6711" lon="6.72067">
        <ele>510.95315551758</ele>
        <time>2009-03-08T08:47:45Z</time>
      </trkpt>
      <trkpt lat="43.67095" lon="6.72065">
        <ele>511.8698425293</ele>
        <time>2009-03-08T08:47:52Z</time>
      </trkpt>
      <trkpt lat="43.67093" lon="6.72066">
        <ele>511.75140380859</ele>
        <time>2009-03-08T08:47:56Z</time>
      </trkpt>
      <trkpt lat="43.6709" lon="6.72067">
        <ele>511.67929077148</ele>
        <time>2009-03-08T08:48:13Z</time>
      </trkpt>
      <trkpt lat="43.6709" lon="6.72074">
        <ele>510.47424316406</ele>
        <time>2009-03-08T08:48:32Z</time>
      </trkpt>
      <trkpt lat="43.67091" lon="6.72073">
        <ele>510.53945922852</ele>
        <time>2009-03-08T08:48:40Z</time>
      </trkpt>
      <trkpt lat="43.67089" lon="6.72074">
        <ele>510.55834960938</ele>
        <time>2009-03-08T08:49:00Z</time>
      </trkpt>
      <trkpt lat="43.67089" lon="6.72074">
        <ele>510.47595214844</ele>
        <time>2009-03-08T08:49:01Z</time>
      </trkpt>
      <trkpt lat="43.67092" lon="6.72076">
        <ele>510.10516357422</ele>
        <time>2009-03-08T08:49:25Z</time>
      </trkpt>
      <trkpt lat="43.67092" lon="6.72078">
        <ele>509.67083740234</ele>
        <time>2009-03-08T08:49:30Z</time>
      </trkpt>
      <trkpt lat="43.67091" lon="6.72079">
        <ele>509.55239868164</ele>
        <time>2009-03-08T08:49:43Z</time>
      </trkpt>
      <trkpt lat="43.67091" lon="6.7208">
        <ele>509.41165161133</ele>
        <time>2009-03-08T08:49:50Z</time>
      </trkpt>
      <trkpt lat="43.6709" lon="6.72082">
        <ele>508.93786621094</ele>
        <time>2009-03-08T08:49:57Z</time>
      </trkpt>
      <trkpt lat="43.6709" lon="6.72089">
        <ele>507.70593261719</ele>
        <time>2009-03-08T08:50:01Z</time>
      </trkpt>
      <trkpt lat="43.67093" lon="6.7209">
        <ele>507.35498046875</ele>
        <time>2009-03-08T08:50:07Z</time>
      </trkpt>
      <trkpt lat="43.67096" lon="6.72091">
        <ele>507.02865600586</ele>
        <time>2009-03-08T08:50:09Z</time>
      </trkpt>
      <trkpt lat="43.67101" lon="6.72086">
        <ele>507.80181884766</ele>
        <time>2009-03-08T08:50:13Z</time>
      </trkpt>
      <trkpt lat="43.67101" lon="6.72085">
        <ele>507.98626708984</ele>
        <time>2009-03-08T08:50:14Z</time>
      </trkpt>
      <trkpt lat="43.67095" lon="6.72084">
        <ele>508.40631103516</ele>
        <time>2009-03-08T08:50:20Z</time>
      </trkpt>
      <trkpt lat="43.67091" lon="6.72083">
        <ele>508.88464355469</ele>
        <time>2009-03-08T08:50:25Z</time>
      </trkpt>
      <trkpt lat="43.67076" lon="6.72077">
        <ele>510.33001708984</ele>
        <time>2009-03-08T08:50:28Z</time>
      </trkpt>
      <trkpt lat="43.67055" lon="6.72067">
        <ele>512.90423583984</ele>
        <time>2009-03-08T08:50:33Z</time>
      </trkpt>
      <trkpt lat="43.67037" lon="6.72052">
        <ele>515.91986083984</ele>
        <time>2009-03-08T08:50:37Z</time>
      </trkpt>
      <trkpt lat="43.67023" lon="6.72044">
        <ele>517.01525878906</ele>
        <time>2009-03-08T08:50:41Z</time>
      </trkpt>
      <trkpt lat="43.67011" lon="6.72035">
        <ele>518.0830078125</ele>
        <time>2009-03-08T08:50:45Z</time>
      </trkpt>
      <trkpt lat="43.6699" lon="6.72013">
        <ele>520.79364013672</ele>
        <time>2009-03-08T08:50:51Z</time>
      </trkpt>
      <trkpt lat="43.66975" lon="6.7201">
        <ele>521.22625732422</ele>
        <time>2009-03-08T08:50:55Z</time>
      </trkpt>
      <trkpt lat="43.66969" lon="6.72018">
        <ele>521.06365966797</ele>
        <time>2009-03-08T08:50:59Z</time>
      </trkpt>
      <trkpt lat="43.66968" lon="6.72021">
        <ele>520.97357177734</ele>
        <time>2009-03-08T08:51:02Z</time>
      </trkpt>
      <trkpt lat="43.66966" lon="6.72035">
        <ele>520.17950439453</ele>
        <time>2009-03-08T08:51:07Z</time>
      </trkpt>
      <trkpt lat="43.66966" lon="6.72039">
        <ele>519.91290283203</ele>
        <time>2009-03-08T08:51:08Z</time>
      </trkpt>
      <trkpt lat="43.66966" lon="6.72065">
        <ele>518.16522216797</ele>
        <time>2009-03-08T08:51:13Z</time>
      </trkpt>
      <trkpt lat="43.66968" lon="6.72078">
        <ele>516.99792480469</ele>
        <time>2009-03-08T08:51:15Z</time>
      </trkpt>
      <trkpt lat="43.6697" lon="6.72097">
        <ele>515.41204833984</ele>
        <time>2009-03-08T08:51:18Z</time>
      </trkpt>
      <trkpt lat="43.66969" lon="6.7212">
        <ele>514.44396972656</ele>
        <time>2009-03-08T08:51:22Z</time>
      </trkpt>
      <trkpt lat="43.6697" lon="6.72148">
        <ele>513.0283203125</ele>
        <time>2009-03-08T08:51:27Z</time>
      </trkpt>
      <trkpt lat="43.66969" lon="6.72159">
        <ele>512.43823242188</ele>
        <time>2009-03-08T08:51:29Z</time>
      </trkpt>
      <trkpt lat="43.66964" lon="6.72191">
        <ele>511.23416137695</ele>
        <time>2009-03-08T08:51:35Z</time>
      </trkpt>
      <trkpt lat="43.66954" lon="6.72217">
        <ele>511.87286376953</ele>
        <time>2009-03-08T08:51:40Z</time>
      </trkpt>
      <trkpt lat="43.66944" lon="6.72222">
        <ele>514.19030761719</ele>
        <time>2009-03-08T08:51:43Z</time>
      </trkpt>
      <trkpt lat="43.66923" lon="6.72229">
        <ele>518.64105224609</ele>
        <time>2009-03-08T08:51:49Z</time>
      </trkpt>
      <trkpt lat="43.66906" lon="6.72228">
        <ele>523.86260986328</ele>
        <time>2009-03-08T08:51:54Z</time>
      </trkpt>
      <trkpt lat="43.66904" lon="6.72226">
        <ele>524.38415527344</ele>
        <time>2009-03-08T08:51:57Z</time>
      </trkpt>
      <trkpt lat="43.66903" lon="6.72227">
        <ele>524.64074707031</ele>
        <time>2009-03-08T08:52:09Z</time>
      </trkpt>
      <trkpt lat="43.6689" lon="6.72235">
        <ele>527.4736328125</ele>
        <time>2009-03-08T08:52:14Z</time>
      </trkpt>
      <trkpt lat="43.66869" lon="6.72263">
        <ele>527.20416259766</ele>
        <time>2009-03-08T08:52:20Z</time>
      </trkpt>
      <trkpt lat="43.66851" lon="6.72288">
        <ele>526.55596923828</ele>
        <time>2009-03-08T08:52:25Z</time>
      </trkpt>
      <trkpt lat="43.66847" lon="6.72292">
        <ele>526.75549316406</ele>
        <time>2009-03-08T08:52:26Z</time>
      </trkpt>
      <trkpt lat="43.66834" lon="6.72319">
        <ele>523.44616699219</ele>
        <time>2009-03-08T08:52:31Z</time>
      </trkpt>
      <trkpt lat="43.66832" lon="6.72331">
        <ele>520.82110595703</ele>
        <time>2009-03-08T08:52:33Z</time>
      </trkpt>
      <trkpt lat="43.6683" lon="6.72349">
        <ele>517.50268554688</ele>
        <time>2009-03-08T08:52:37Z</time>
      </trkpt>
      <trkpt lat="43.66828" lon="6.72378">
        <ele>512.73913574219</ele>
        <time>2009-03-08T08:52:43Z</time>
      </trkpt>
      <trkpt lat="43.66825" lon="6.724">
        <ele>509.10720825195</ele>
        <time>2009-03-08T08:52:47Z</time>
      </trkpt>
      <trkpt lat="43.66834" lon="6.72425">
        <ele>502.76907348633</ele>
        <time>2009-03-08T08:52:52Z</time>
      </trkpt>
      <trkpt lat="43.66841" lon="6.72445">
        <ele>498.36312866211</ele>
        <time>2009-03-08T08:52:56Z</time>
      </trkpt>
      <trkpt lat="43.66849" lon="6.72486">
        <ele>479.74542236328</ele>
        <time>2009-03-08T08:53:03Z</time>
      </trkpt>
      <trkpt lat="43.66849" lon="6.72516">
        <ele>470.35903930664</ele>
        <time>2009-03-08T08:53:08Z</time>
      </trkpt>
      <trkpt lat="43.66847" lon="6.7254">
        <ele>464.17422485352</ele>
        <time>2009-03-08T08:53:12Z</time>
      </trkpt>
      <trkpt lat="43.6684" lon="6.72567">
        <ele>460.92541503906</ele>
        <time>2009-03-08T08:53:17Z</time>
      </trkpt>
      <trkpt lat="43.66832" lon="6.72599">
        <ele>459.6787109375</ele>
        <time>2009-03-08T08:53:23Z</time>
      </trkpt>
      <trkpt lat="43.66829" lon="6.72613">
        <ele>460.17892456055</ele>
        <time>2009-03-08T08:53:26Z</time>
      </trkpt>
      <trkpt lat="43.66821" lon="6.72639">
        <ele>463.24496459961</ele>
        <time>2009-03-08T08:53:31Z</time>
      </trkpt>
      <trkpt lat="43.66814" lon="6.72662">
        <ele>469.04690551758</ele>
        <time>2009-03-08T08:53:35Z</time>
      </trkpt>
      <trkpt lat="43.66813" lon="6.72667">
        <ele>469.4267578125</ele>
        <time>2009-03-08T08:53:36Z</time>
      </trkpt>
      <trkpt lat="43.6681" lon="6.72692">
        <ele>472.99304199219</ele>
        <time>2009-03-08T08:53:42Z</time>
      </trkpt>
      <trkpt lat="43.6681" lon="6.72693">
        <ele>472.97109985352</ele>
        <time>2009-03-08T08:53:43Z</time>
      </trkpt>
      <trkpt lat="43.66804" lon="6.72705">
        <ele>480.66546630859</ele>
        <time>2009-03-08T08:53:50Z</time>
      </trkpt>
      <trkpt lat="43.66801" lon="6.7271">
        <ele>482.15469360352</ele>
        <time>2009-03-08T08:53:52Z</time>
      </trkpt>
      <trkpt lat="43.66793" lon="6.72733">
        <ele>482.07086181641</ele>
        <time>2009-03-08T08:53:58Z</time>
      </trkpt>
      <trkpt lat="43.6679" lon="6.72759">
        <ele>478.73461914062</ele>
        <time>2009-03-08T08:54:03Z</time>
      </trkpt>
      <trkpt lat="43.6679" lon="6.72784">
        <ele>474.48178100586</ele>
        <time>2009-03-08T08:54:07Z</time>
      </trkpt>
      <trkpt lat="43.66791" lon="6.72807">
        <ele>467.47869873047</ele>
        <time>2009-03-08T08:54:11Z</time>
      </trkpt>
      <trkpt lat="43.66791" lon="6.72834">
        <ele>463.05499267578</ele>
        <time>2009-03-08T08:54:17Z</time>
      </trkpt>
      <trkpt lat="43.66793" lon="6.7285">
        <ele>455.75335693359</ele>
        <time>2009-03-08T08:54:20Z</time>
      </trkpt>
      <trkpt lat="43.66785" lon="6.72866">
        <ele>465.40643310547</ele>
        <time>2009-03-08T08:54:25Z</time>
      </trkpt>
      <trkpt lat="43.66776" lon="6.72877">
        <ele>473.95819091797</ele>
        <time>2009-03-08T08:54:30Z</time>
      </trkpt>
      <trkpt lat="43.66772" lon="6.72883">
        <ele>473.70220947266</ele>
        <time>2009-03-08T08:54:38Z</time>
      </trkpt>
      <trkpt lat="43.66771" lon="6.72884">
        <ele>474.15710449219</ele>
        <time>2009-03-08T08:54:43Z</time>
      </trkpt>
      <trkpt lat="43.6677" lon="6.72882">
        <ele>475.41806030273</ele>
        <time>2009-03-08T08:54:48Z</time>
      </trkpt>
      <trkpt lat="43.66767" lon="6.72882">
        <ele>477.87066650391</ele>
        <time>2009-03-08T08:54:56Z</time>
      </trkpt>
      <trkpt lat="43.66763" lon="6.72879">
        <ele>481.00030517578</ele>
        <time>2009-03-08T08:55:03Z</time>
      </trkpt>
      <trkpt lat="43.66761" lon="6.72879">
        <ele>482.83569335938</ele>
        <time>2009-03-08T08:55:10Z</time>
      </trkpt>
      <trkpt lat="43.66757" lon="6.72878">
        <ele>485.24853515625</ele>
        <time>2009-03-08T08:55:14Z</time>
      </trkpt>
      <trkpt lat="43.66743" lon="6.72876">
        <ele>493.86773681641</ele>
        <time>2009-03-08T08:55:19Z</time>
      </trkpt>
      <trkpt lat="43.66731" lon="6.72874">
        <ele>499.90542602539</ele>
        <time>2009-03-08T08:55:23Z</time>
      </trkpt>
      <trkpt lat="43.66725" lon="6.72874">
        <ele>502.63461303711</ele>
        <time>2009-03-08T08:55:25Z</time>
      </trkpt>
      <trkpt lat="43.66713" lon="6.72884">
        <ele>505.98934936523</ele>
        <time>2009-03-08T08:55:30Z</time>
      </trkpt>
      <trkpt lat="43.66702" lon="6.72885">
        <ele>509.39846801758</ele>
        <time>2009-03-08T08:55:34Z</time>
      </trkpt>
      <trkpt lat="43.66694" lon="6.7289">
        <ele>511.11480712891</ele>
        <time>2009-03-08T08:55:36Z</time>
      </trkpt>
      <trkpt lat="43.66681" lon="6.72915">
        <ele>514.28350830078</ele>
        <time>2009-03-08T08:55:42Z</time>
      </trkpt>
      <trkpt lat="43.66674" lon="6.72932">
        <ele>514.91857910156</ele>
        <time>2009-03-08T08:55:47Z</time>
      </trkpt>
      <trkpt lat="43.66664" lon="6.72942">
        <ele>516.95349121094</ele>
        <time>2009-03-08T08:55:54Z</time>
      </trkpt>
      <trkpt lat="43.6666" lon="6.72945">
        <ele>517.30810546875</ele>
        <time>2009-03-08T08:55:59Z</time>
      </trkpt>
      <trkpt lat="43.66654" lon="6.72956">
        <ele>517.29718017578</ele>
        <time>2009-03-08T08:56:04Z</time>
      </trkpt>
      <trkpt lat="43.66645" lon="6.72965">
        <ele>518.67828369141</ele>
        <time>2009-03-08T08:56:08Z</time>
      </trkpt>
      <trkpt lat="43.66637" lon="6.72976">
        <ele>519.60748291016</ele>
        <time>2009-03-08T08:56:13Z</time>
      </trkpt>
      <trkpt lat="43.66632" lon="6.72981">
        <ele>519.10845947266</ele>
        <time>2009-03-08T08:56:19Z</time>
      </trkpt>
      <trkpt lat="43.66631" lon="6.72986">
        <ele>518.69030761719</ele>
        <time>2009-03-08T08:56:30Z</time>
      </trkpt>
      <trkpt lat="43.66631" lon="6.72986">
        <ele>518.65319824219</ele>
        <time>2009-03-08T08:56:33Z</time>
      </trkpt>
      <trkpt lat="43.66628" lon="6.72995">
        <ele>517.90771484375</ele>
        <time>2009-03-08T08:56:40Z</time>
      </trkpt>
      <trkpt lat="43.66623" lon="6.72999">
        <ele>517.64874267578</ele>
        <time>2009-03-08T08:56:46Z</time>
      </trkpt>
      <trkpt lat="43.66617" lon="6.73013">
        <ele>516.26629638672</ele>
        <time>2009-03-08T08:56:50Z</time>
      </trkpt>
      <trkpt lat="43.6661" lon="6.73036">
        <ele>513.77777099609</ele>
        <time>2009-03-08T08:56:55Z</time>
      </trkpt>
      <trkpt lat="43.66595" lon="6.73064">
        <ele>510.94219970703</ele>
        <time>2009-03-08T08:57:02Z</time>
      </trkpt>
      <trkpt lat="43.66592" lon="6.73068">
        <ele>510.8083190918</ele>
        <time>2009-03-08T08:57:03Z</time>
      </trkpt>
      <trkpt lat="43.66577" lon="6.73065">
        <ele>510.44000244141</ele>
        <time>2009-03-08T08:57:08Z</time>
      </trkpt>
      <trkpt lat="43.66559" lon="6.7306">
        <ele>508.31149291992</ele>
        <time>2009-03-08T08:57:14Z</time>
      </trkpt>
      <trkpt lat="43.66549" lon="6.73058">
        <ele>507.67535400391</ele>
        <time>2009-03-08T08:57:17Z</time>
      </trkpt>
      <trkpt lat="43.66538" lon="6.73062">
        <ele>507.11917114258</ele>
        <time>2009-03-08T08:57:20Z</time>
      </trkpt>
      <trkpt lat="43.66531" lon="6.7307">
        <ele>506.58358764648</ele>
        <time>2009-03-08T08:57:22Z</time>
      </trkpt>
      <trkpt lat="43.66518" lon="6.73075">
        <ele>506.64752197266</ele>
        <time>2009-03-08T08:57:26Z</time>
      </trkpt>
      <trkpt lat="43.66513" lon="6.73076">
        <ele>506.82434082031</ele>
        <time>2009-03-08T08:57:30Z</time>
      </trkpt>
      <trkpt lat="43.66501" lon="6.73074">
        <ele>507.30154418945</ele>
        <time>2009-03-08T08:57:37Z</time>
      </trkpt>
      <trkpt lat="43.66486" lon="6.73073">
        <ele>507.70004272461</ele>
        <time>2009-03-08T08:57:42Z</time>
      </trkpt>
      <trkpt lat="43.66472" lon="6.73069">
        <ele>508.00646972656</ele>
        <time>2009-03-08T08:57:46Z</time>
      </trkpt>
      <trkpt lat="43.66454" lon="6.73058">
        <ele>508.61447143555</ele>
        <time>2009-03-08T08:57:51Z</time>
      </trkpt>
      <trkpt lat="43.6644" lon="6.73041">
        <ele>509.08547973633</ele>
        <time>2009-03-08T08:57:56Z</time>
      </trkpt>
      <trkpt lat="43.66431" lon="6.73024">
        <ele>509.55706787109</ele>
        <time>2009-03-08T08:58:00Z</time>
      </trkpt>
      <trkpt lat="43.66424" lon="6.73011">
        <ele>509.89086914062</ele>
        <time>2009-03-08T08:58:03Z</time>
      </trkpt>
      <trkpt lat="43.66421" lon="6.72987">
        <ele>510.38467407227</ele>
        <time>2009-03-08T08:58:09Z</time>
      </trkpt>
      <trkpt lat="43.66419" lon="6.72977">
        <ele>510.77215576172</ele>
        <time>2009-03-08T08:58:14Z</time>
      </trkpt>
      <trkpt lat="43.66419" lon="6.72976">
        <ele>510.80380249023</ele>
        <time>2009-03-08T08:58:15Z</time>
      </trkpt>
      <trkpt lat="43.66417" lon="6.72964">
        <ele>510.99328613281</ele>
        <time>2009-03-08T08:58:21Z</time>
      </trkpt>
      <trkpt lat="43.66416" lon="6.72961">
        <ele>510.77163696289</ele>
        <time>2009-03-08T08:58:22Z</time>
      </trkpt>
      <trkpt lat="43.66412" lon="6.72948">
        <ele>509.85330200195</ele>
        <time>2009-03-08T08:58:28Z</time>
      </trkpt>
      <trkpt lat="43.66411" lon="6.72946">
        <ele>509.80557250977</ele>
        <time>2009-03-08T08:58:29Z</time>
      </trkpt>
      <trkpt lat="43.66411" lon="6.72922">
        <ele>510.54022216797</ele>
        <time>2009-03-08T08:58:34Z</time>
      </trkpt>
      <trkpt lat="43.66409" lon="6.72885">
        <ele>510.75634765625</ele>
        <time>2009-03-08T08:58:39Z</time>
      </trkpt>
      <trkpt lat="43.66403" lon="6.72867">
        <ele>510.35638427734</ele>
        <time>2009-03-08T08:58:42Z</time>
      </trkpt>
      <trkpt lat="43.66402" lon="6.72845">
        <ele>510.94174194336</ele>
        <time>2009-03-08T08:58:46Z</time>
      </trkpt>
      <trkpt lat="43.66405" lon="6.72829">
        <ele>511.91729736328</ele>
        <time>2009-03-08T08:58:49Z</time>
      </trkpt>
      <trkpt lat="43.66405" lon="6.72806">
        <ele>512.38195800781</ele>
        <time>2009-03-08T08:58:53Z</time>
      </trkpt>
      <trkpt lat="43.66398" lon="6.72786">
        <ele>512.50048828125</ele>
        <time>2009-03-08T08:58:57Z</time>
      </trkpt>
      <trkpt lat="43.66384" lon="6.72769">
        <ele>512.05682373047</ele>
        <time>2009-03-08T08:59:01Z</time>
      </trkpt>
      <trkpt lat="43.66378" lon="6.72759">
        <ele>512.27221679688</ele>
        <time>2009-03-08T08:59:03Z</time>
      </trkpt>
      <trkpt lat="43.66369" lon="6.72743">
        <ele>513.24639892578</ele>
        <time>2009-03-08T08:59:06Z</time>
      </trkpt>
      <trkpt lat="43.66354" lon="6.72726">
        <ele>515.48956298828</ele>
        <time>2009-03-08T08:59:10Z</time>
      </trkpt>
      <trkpt lat="43.66346" lon="6.72722">
        <ele>516.68237304688</ele>
        <time>2009-03-08T08:59:12Z</time>
      </trkpt>
      <trkpt lat="43.6633" lon="6.72723">
        <ele>518.75152587891</ele>
        <time>2009-03-08T08:59:17Z</time>
      </trkpt>
      <trkpt lat="43.6632" lon="6.72733">
        <ele>519.94250488281</ele>
        <time>2009-03-08T08:59:22Z</time>
      </trkpt>
      <trkpt lat="43.66313" lon="6.72748">
        <ele>519.80731201172</ele>
        <time>2009-03-08T08:59:26Z</time>
      </trkpt>
      <trkpt lat="43.66307" lon="6.72763">
        <ele>520.25415039062</ele>
        <time>2009-03-08T08:59:30Z</time>
      </trkpt>
      <trkpt lat="43.66301" lon="6.72779">
        <ele>520.38061523438</ele>
        <time>2009-03-08T08:59:34Z</time>
      </trkpt>
      <trkpt lat="43.66288" lon="6.72803">
        <ele>519.17553710938</ele>
        <time>2009-03-08T08:59:39Z</time>
      </trkpt>
      <trkpt lat="43.6627" lon="6.72823">
        <ele>520.35455322266</ele>
        <time>2009-03-08T08:59:44Z</time>
      </trkpt>
      <trkpt lat="43.66251" lon="6.72853">
        <ele>519.75933837891</ele>
        <time>2009-03-08T08:59:51Z</time>
      </trkpt>
      <trkpt lat="43.66237" lon="6.72877">
        <ele>518.75</ele>
        <time>2009-03-08T08:59:56Z</time>
      </trkpt>
      <trkpt lat="43.66232" lon="6.72886">
        <ele>518.31225585938</ele>
        <time>2009-03-08T08:59:58Z</time>
      </trkpt>
      <trkpt lat="43.66221" lon="6.72909">
        <ele>517.57904052734</ele>
        <time>2009-03-08T09:00:04Z</time>
      </trkpt>
      <trkpt lat="43.66213" lon="6.72922">
        <ele>516.697265625</ele>
        <time>2009-03-08T09:00:09Z</time>
      </trkpt>
      <trkpt lat="43.66209" lon="6.72934">
        <ele>515.66217041016</ele>
        <time>2009-03-08T09:00:13Z</time>
      </trkpt>
      <trkpt lat="43.66206" lon="6.72945">
        <ele>514.556640625</ele>
        <time>2009-03-08T09:00:18Z</time>
      </trkpt>
      <trkpt lat="43.66202" lon="6.72956">
        <ele>513.45288085938</ele>
        <time>2009-03-08T09:00:22Z</time>
      </trkpt>
      <trkpt lat="43.66198" lon="6.7296">
        <ele>513.22631835938</ele>
        <time>2009-03-08T09:00:26Z</time>
      </trkpt>
      <trkpt lat="43.6619" lon="6.72972">
        <ele>511.99456787109</ele>
        <time>2009-03-08T09:00:32Z</time>
      </trkpt>
      <trkpt lat="43.66185" lon="6.72976">
        <ele>511.71990966797</ele>
        <time>2009-03-08T09:00:34Z</time>
      </trkpt>
      <trkpt lat="43.66167" lon="6.72987">
        <ele>510.92681884766</ele>
        <time>2009-03-08T09:00:40Z</time>
      </trkpt>
      <trkpt lat="43.6615" lon="6.72988">
        <ele>510.84100341797</ele>
        <time>2009-03-08T09:00:45Z</time>
      </trkpt>
      <trkpt lat="43.66128" lon="6.72985">
        <ele>511.84704589844</ele>
        <time>2009-03-08T09:00:52Z</time>
      </trkpt>
      <trkpt lat="43.66111" lon="6.72983">
        <ele>513.23999023438</ele>
        <time>2009-03-08T09:00:58Z</time>
      </trkpt>
      <trkpt lat="43.66101" lon="6.72983">
        <ele>514.50708007812</ele>
        <time>2009-03-08T09:01:03Z</time>
      </trkpt>
      <trkpt lat="43.66095" lon="6.72982">
        <ele>515.29571533203</ele>
        <time>2009-03-08T09:01:07Z</time>
      </trkpt>
      <trkpt lat="43.66092" lon="6.72981">
        <ele>515.71905517578</ele>
        <time>2009-03-08T09:01:13Z</time>
      </trkpt>
      <trkpt lat="43.66087" lon="6.72977">
        <ele>516.44714355469</ele>
        <time>2009-03-08T09:01:20Z</time>
      </trkpt>
      <trkpt lat="43.66084" lon="6.72976">
        <ele>516.75897216797</ele>
        <time>2009-03-08T09:01:25Z</time>
      </trkpt>
      <trkpt lat="43.66082" lon="6.72976">
        <ele>517.00329589844</ele>
        <time>2009-03-08T09:01:34Z</time>
      </trkpt>
      <trkpt lat="43.66077" lon="6.72978">
        <ele>517.31274414062</ele>
        <time>2009-03-08T09:01:39Z</time>
      </trkpt>
      <trkpt lat="43.66069" lon="6.72989">
        <ele>517.77435302734</ele>
        <time>2009-03-08T09:01:44Z</time>
      </trkpt>
      <trkpt lat="43.66067" lon="6.72991">
        <ele>517.92938232422</ele>
        <time>2009-03-08T09:01:45Z</time>
      </trkpt>
      <trkpt lat="43.66066" lon="6.72994">
        <ele>517.99737548828</ele>
        <time>2009-03-08T09:01:49Z</time>
      </trkpt>
      <trkpt lat="43.66066" lon="6.72999">
        <ele>517.92907714844</ele>
        <time>2009-03-08T09:01:56Z</time>
      </trkpt>
      <trkpt lat="43.66064" lon="6.73004">
        <ele>517.90679931641</ele>
        <time>2009-03-08T09:02:00Z</time>
      </trkpt>
      <trkpt lat="43.66063" lon="6.7301">
        <ele>517.86047363281</ele>
        <time>2009-03-08T09:02:05Z</time>
      </trkpt>
      <trkpt lat="43.66063" lon="6.73021">
        <ele>517.41931152344</ele>
        <time>2009-03-08T09:02:13Z</time>
      </trkpt>
      <trkpt lat="43.66063" lon="6.73031">
        <ele>517.07855224609</ele>
        <time>2009-03-08T09:02:18Z</time>
      </trkpt>
      <trkpt lat="43.66063" lon="6.7305">
        <ele>516.23846435547</ele>
        <time>2009-03-08T09:02:24Z</time>
      </trkpt>
      <trkpt lat="43.66058" lon="6.73072">
        <ele>516.12225341797</ele>
        <time>2009-03-08T09:02:30Z</time>
      </trkpt>
      <trkpt lat="43.66052" lon="6.73083">
        <ele>516</ele>
        <time>2009-03-08T09:02:36Z</time>
      </trkpt>
      <trkpt lat="43.66047" lon="6.73087">
        <ele>516</ele>
        <time>2009-03-08T09:02:41Z</time>
      </trkpt>
      <trkpt lat="43.66042" lon="6.73089">
        <ele>516</ele>
        <time>2009-03-08T09:02:46Z</time>
      </trkpt>
      <trkpt lat="43.66036" lon="6.73091">
        <ele>516</ele>
        <time>2009-03-08T09:02:52Z</time>
      </trkpt>
      <trkpt lat="43.66027" lon="6.73096">
        <ele>516.03924560547</ele>
        <time>2009-03-08T09:02:56Z</time>
      </trkpt>
      <trkpt lat="43.66018" lon="6.73105">
        <ele>516.36883544922</ele>
        <time>2009-03-08T09:03:00Z</time>
      </trkpt>
      <trkpt lat="43.66004" lon="6.73115">
        <ele>516.84948730469</ele>
        <time>2009-03-08T09:03:06Z</time>
      </trkpt>
      <trkpt lat="43.6599" lon="6.73122">
        <ele>517</ele>
        <time>2009-03-08T09:03:12Z</time>
      </trkpt>
      <trkpt lat="43.65984" lon="6.73125">
        <ele>517</ele>
        <time>2009-03-08T09:03:16Z</time>
      </trkpt>
      <trkpt lat="43.65984" lon="6.73125">
        <ele>517</ele>
        <time>2009-03-08T09:03:23Z</time>
      </trkpt>
      <trkpt lat="43.65977" lon="6.73127">
        <ele>517</ele>
        <time>2009-03-08T09:03:30Z</time>
      </trkpt>
      <trkpt lat="43.65973" lon="6.7313">
        <ele>517</ele>
        <time>2009-03-08T09:03:34Z</time>
      </trkpt>
      <trkpt lat="43.65965" lon="6.73135">
        <ele>517.27770996094</ele>
        <time>2009-03-08T09:03:41Z</time>
      </trkpt>
      <trkpt lat="43.65953" lon="6.73139">
        <ele>517.67596435547</ele>
        <time>2009-03-08T09:03:46Z</time>
      </trkpt>
      <trkpt lat="43.65942" lon="6.7315">
        <ele>518.20336914062</ele>
        <time>2009-03-08T09:03:52Z</time>
      </trkpt>
      <trkpt lat="43.65938" lon="6.7315">
        <ele>518.45056152344</ele>
        <time>2009-03-08T09:03:53Z</time>
      </trkpt>
      <trkpt lat="43.65919" lon="6.73156">
        <ele>519.85131835938</ele>
        <time>2009-03-08T09:04:00Z</time>
      </trkpt>
      <trkpt lat="43.65898" lon="6.73155">
        <ele>518.24957275391</ele>
        <time>2009-03-08T09:04:05Z</time>
      </trkpt>
      <trkpt lat="43.65875" lon="6.73152">
        <ele>516.79669189453</ele>
        <time>2009-03-08T09:04:10Z</time>
      </trkpt>
      <trkpt lat="43.65854" lon="6.7315">
        <ele>515.39068603516</ele>
        <time>2009-03-08T09:04:14Z</time>
      </trkpt>
      <trkpt lat="43.65839" lon="6.73151">
        <ele>513.67749023438</ele>
        <time>2009-03-08T09:04:17Z</time>
      </trkpt>
      <trkpt lat="43.65819" lon="6.73154">
        <ele>512.11846923828</ele>
        <time>2009-03-08T09:04:21Z</time>
      </trkpt>
      <trkpt lat="43.6581" lon="6.73157">
        <ele>511.30657958984</ele>
        <time>2009-03-08T09:04:23Z</time>
      </trkpt>
      <trkpt lat="43.65801" lon="6.73159">
        <ele>511.11010742188</ele>
        <time>2009-03-08T09:04:25Z</time>
      </trkpt>
      <trkpt lat="43.65776" lon="6.73159">
        <ele>512.88342285156</ele>
        <time>2009-03-08T09:04:30Z</time>
      </trkpt>
      <trkpt lat="43.65771" lon="6.73158">
        <ele>513.17352294922</ele>
        <time>2009-03-08T09:04:31Z</time>
      </trkpt>
      <trkpt lat="43.65755" lon="6.73151">
        <ele>514.54681396484</ele>
        <time>2009-03-08T09:04:34Z</time>
      </trkpt>
      <trkpt lat="43.65744" lon="6.73147">
        <ele>515.76879882812</ele>
        <time>2009-03-08T09:04:36Z</time>
      </trkpt>
      <trkpt lat="43.65723" lon="6.73154">
        <ele>517.31890869141</ele>
        <time>2009-03-08T09:04:41Z</time>
      </trkpt>
      <trkpt lat="43.65714" lon="6.73163">
        <ele>516.673828125</ele>
        <time>2009-03-08T09:04:43Z</time>
      </trkpt>
      <trkpt lat="43.65689" lon="6.73179">
        <ele>515.25738525391</ele>
        <time>2009-03-08T09:04:48Z</time>
      </trkpt>
      <trkpt lat="43.65672" lon="6.73195">
        <ele>512.98406982422</ele>
        <time>2009-03-08T09:04:53Z</time>
      </trkpt>
      <trkpt lat="43.65669" lon="6.73199">
        <ele>512.62432861328</ele>
        <time>2009-03-08T09:04:54Z</time>
      </trkpt>
      <trkpt lat="43.65664" lon="6.73209">
        <ele>511.88366699219</ele>
        <time>2009-03-08T09:04:56Z</time>
      </trkpt>
      <trkpt lat="43.65637" lon="6.73234">
        <ele>508.62432861328</ele>
        <time>2009-03-08T09:05:02Z</time>
      </trkpt>
      <trkpt lat="43.65623" lon="6.73243">
        <ele>507.19439697266</ele>
        <time>2009-03-08T09:05:05Z</time>
      </trkpt>
      <trkpt lat="43.65588" lon="6.73271">
        <ele>503.66015625</ele>
        <time>2009-03-08T09:05:13Z</time>
      </trkpt>
      <trkpt lat="43.65579" lon="6.7328">
        <ele>502.71948242188</ele>
        <time>2009-03-08T09:05:15Z</time>
      </trkpt>
      <trkpt lat="43.65555" lon="6.73298">
        <ele>500.5276184082</ele>
        <time>2009-03-08T09:05:20Z</time>
      </trkpt>
      <trkpt lat="43.65549" lon="6.73299">
        <ele>500.34124755859</ele>
        <time>2009-03-08T09:05:21Z</time>
      </trkpt>
      <trkpt lat="43.65518" lon="6.73305">
        <ele>499.65478515625</ele>
        <time>2009-03-08T09:05:26Z</time>
      </trkpt>
      <trkpt lat="43.65505" lon="6.73307">
        <ele>499.18786621094</ele>
        <time>2009-03-08T09:05:28Z</time>
      </trkpt>
      <trkpt lat="43.65478" lon="6.7331">
        <ele>497.39819335938</ele>
        <time>2009-03-08T09:05:33Z</time>
      </trkpt>
      <trkpt lat="43.65464" lon="6.73317">
        <ele>496.07293701172</ele>
        <time>2009-03-08T09:05:36Z</time>
      </trkpt>
      <trkpt lat="43.65455" lon="6.7331">
        <ele>495.12536621094</ele>
        <time>2009-03-08T09:05:39Z</time>
      </trkpt>
      <trkpt lat="43.65447" lon="6.73299">
        <ele>494.09613037109</ele>
        <time>2009-03-08T09:05:42Z</time>
      </trkpt>
      <trkpt lat="43.65437" lon="6.73301">
        <ele>493.03607177734</ele>
        <time>2009-03-08T09:05:44Z</time>
      </trkpt>
      <trkpt lat="43.65399" lon="6.7331">
        <ele>489.79873657227</ele>
        <time>2009-03-08T09:05:51Z</time>
      </trkpt>
      <trkpt lat="43.65395" lon="6.73311">
        <ele>489.51315307617</ele>
        <time>2009-03-08T09:05:52Z</time>
      </trkpt>
      <trkpt lat="43.6538" lon="6.73321">
        <ele>487.85870361328</ele>
        <time>2009-03-08T09:05:56Z</time>
      </trkpt>
      <trkpt lat="43.65369" lon="6.73334">
        <ele>486.82223510742</ele>
        <time>2009-03-08T09:05:59Z</time>
      </trkpt>
      <trkpt lat="43.65353" lon="6.73329">
        <ele>485.24783325195</ele>
        <time>2009-03-08T09:06:02Z</time>
      </trkpt>
      <trkpt lat="43.6534" lon="6.73323">
        <ele>484.09942626953</ele>
        <time>2009-03-08T09:06:04Z</time>
      </trkpt>
      <trkpt lat="43.6532" lon="6.73314">
        <ele>482.81591796875</ele>
        <time>2009-03-08T09:06:07Z</time>
      </trkpt>
      <trkpt lat="43.6529" lon="6.73289">
        <ele>479.90563964844</ele>
        <time>2009-03-08T09:06:12Z</time>
      </trkpt>
      <trkpt lat="43.65264" lon="6.73275">
        <ele>474.75811767578</ele>
        <time>2009-03-08T09:06:16Z</time>
      </trkpt>
      <trkpt lat="43.65226" lon="6.73247">
        <ele>466.35665893555</ele>
        <time>2009-03-08T09:06:22Z</time>
      </trkpt>
      <trkpt lat="43.65214" lon="6.7324">
        <ele>465.0966796875</ele>
        <time>2009-03-08T09:06:24Z</time>
      </trkpt>
      <trkpt lat="43.65195" lon="6.73235">
        <ele>464.45861816406</ele>
        <time>2009-03-08T09:06:28Z</time>
      </trkpt>
      <trkpt lat="43.65168" lon="6.73231">
        <ele>462.72210693359</ele>
        <time>2009-03-08T09:06:33Z</time>
      </trkpt>
      <trkpt lat="43.65131" lon="6.7323">
        <ele>459.84243774414</ele>
        <time>2009-03-08T09:06:38Z</time>
      </trkpt>
      <trkpt lat="43.65106" lon="6.73228">
        <ele>456.63067626953</ele>
        <time>2009-03-08T09:06:42Z</time>
      </trkpt>
      <trkpt lat="43.651" lon="6.73228">
        <ele>455.57992553711</ele>
        <time>2009-03-08T09:06:43Z</time>
      </trkpt>
      <trkpt lat="43.65091" lon="6.73227">
        <ele>453.69979858398</ele>
        <time>2009-03-08T09:06:45Z</time>
      </trkpt>
      <trkpt lat="43.65078" lon="6.73228">
        <ele>451.62158203125</ele>
        <time>2009-03-08T09:06:48Z</time>
      </trkpt>
      <trkpt lat="43.65067" lon="6.73228">
        <ele>450.52587890625</ele>
        <time>2009-03-08T09:06:50Z</time>
      </trkpt>
      <trkpt lat="43.65032" lon="6.73231">
        <ele>448.5143737793</ele>
        <time>2009-03-08T09:06:55Z</time>
      </trkpt>
      <trkpt lat="43.65025" lon="6.73231">
        <ele>448.08758544922</ele>
        <time>2009-03-08T09:06:56Z</time>
      </trkpt>
      <trkpt lat="43.65003" lon="6.73227">
        <ele>446.38983154297</ele>
        <time>2009-03-08T09:07:00Z</time>
      </trkpt>
      <trkpt lat="43.64976" lon="6.73228">
        <ele>444.30899047852</ele>
        <time>2009-03-08T09:07:05Z</time>
      </trkpt>
      <trkpt lat="43.64956" lon="6.73231">
        <ele>442.98397827148</ele>
        <time>2009-03-08T09:07:10Z</time>
      </trkpt>
      <trkpt lat="43.64953" lon="6.73231">
        <ele>442.85766601562</ele>
        <time>2009-03-08T09:07:11Z</time>
      </trkpt>
      <trkpt lat="43.64946" lon="6.73232">
        <ele>442.42669677734</ele>
        <time>2009-03-08T09:07:13Z</time>
      </trkpt>
      <trkpt lat="43.64937" lon="6.73234">
        <ele>441.77026367188</ele>
        <time>2009-03-08T09:07:15Z</time>
      </trkpt>
      <trkpt lat="43.64903" lon="6.7324">
        <ele>440</ele>
        <time>2009-03-08T09:07:21Z</time>
      </trkpt>
      <trkpt lat="43.64893" lon="6.73243">
        <ele>440</ele>
        <time>2009-03-08T09:07:23Z</time>
      </trkpt>
      <trkpt lat="43.64881" lon="6.7325">
        <ele>440</ele>
        <time>2009-03-08T09:07:28Z</time>
      </trkpt>
      <trkpt lat="43.64877" lon="6.73254">
        <ele>440</ele>
        <time>2009-03-08T09:07:31Z</time>
      </trkpt>
      <trkpt lat="43.64861" lon="6.73265">
        <ele>440</ele>
        <time>2009-03-08T09:07:37Z</time>
      </trkpt>
      <trkpt lat="43.64841" lon="6.73273">
        <ele>440</ele>
        <time>2009-03-08T09:07:42Z</time>
      </trkpt>
      <trkpt lat="43.64827" lon="6.7328">
        <ele>440</ele>
        <time>2009-03-08T09:07:45Z</time>
      </trkpt>
      <trkpt lat="43.64817" lon="6.73284">
        <ele>440</ele>
        <time>2009-03-08T09:07:48Z</time>
      </trkpt>
      <trkpt lat="43.64803" lon="6.73289">
        <ele>440</ele>
        <time>2009-03-08T09:07:53Z</time>
      </trkpt>
      <trkpt lat="43.64795" lon="6.73293">
        <ele>440</ele>
        <time>2009-03-08T09:07:58Z</time>
      </trkpt>
      <trkpt lat="43.64779" lon="6.73295">
        <ele>440</ele>
        <time>2009-03-08T09:08:03Z</time>
      </trkpt>
      <trkpt lat="43.64766" lon="6.73298">
        <ele>440</ele>
        <time>2009-03-08T09:08:06Z</time>
      </trkpt>
      <trkpt lat="43.64748" lon="6.73298">
        <ele>440</ele>
        <time>2009-03-08T09:08:09Z</time>
      </trkpt>
      <trkpt lat="43.64728" lon="6.73303">
        <ele>440</ele>
        <time>2009-03-08T09:08:12Z</time>
      </trkpt>
      <trkpt lat="43.64696" lon="6.7331">
        <ele>438.09326171875</ele>
        <time>2009-03-08T09:08:17Z</time>
      </trkpt>
      <trkpt lat="43.64676" lon="6.73314">
        <ele>436.19244384766</ele>
        <time>2009-03-08T09:08:20Z</time>
      </trkpt>
      <trkpt lat="43.64644" lon="6.73324">
        <ele>433.5133972168</ele>
        <time>2009-03-08T09:08:25Z</time>
      </trkpt>
      <trkpt lat="43.64639" lon="6.73326">
        <ele>432.96008300781</ele>
        <time>2009-03-08T09:08:26Z</time>
      </trkpt>
      <trkpt lat="43.6461" lon="6.73333">
        <ele>429.94091796875</ele>
        <time>2009-03-08T09:08:31Z</time>
      </trkpt>
      <trkpt lat="43.64571" lon="6.73338">
        <ele>426.78900146484</ele>
        <time>2009-03-08T09:08:37Z</time>
      </trkpt>
      <trkpt lat="43.64529" lon="6.7334">
        <ele>423.36627197266</ele>
        <time>2009-03-08T09:08:43Z</time>
      </trkpt>
      <trkpt lat="43.64522" lon="6.7334">
        <ele>422.58291625977</ele>
        <time>2009-03-08T09:08:44Z</time>
      </trkpt>
      <trkpt lat="43.64508" lon="6.73338">
        <ele>420.91619873047</ele>
        <time>2009-03-08T09:08:46Z</time>
      </trkpt>
      <trkpt lat="43.6448" lon="6.73336">
        <ele>420</ele>
        <time>2009-03-08T09:08:50Z</time>
      </trkpt>
      <trkpt lat="43.64467" lon="6.73337">
        <ele>420</ele>
        <time>2009-03-08T09:08:52Z</time>
      </trkpt>
      <trkpt lat="43.64452" lon="6.73342">
        <ele>420</ele>
        <time>2009-03-08T09:08:55Z</time>
      </trkpt>
      <trkpt lat="43.64432" lon="6.73352">
        <ele>420</ele>
        <time>2009-03-08T09:09:00Z</time>
      </trkpt>
      <trkpt lat="43.64418" lon="6.73356">
        <ele>420</ele>
        <time>2009-03-08T09:09:03Z</time>
      </trkpt>
      <trkpt lat="43.64407" lon="6.73364">
        <ele>419.27416992188</ele>
        <time>2009-03-08T09:09:06Z</time>
      </trkpt>
      <trkpt lat="43.64389" lon="6.73374">
        <ele>417.9709777832</ele>
        <time>2009-03-08T09:09:10Z</time>
      </trkpt>
      <trkpt lat="43.64381" lon="6.73379">
        <ele>416.96633911133</ele>
        <time>2009-03-08T09:09:12Z</time>
      </trkpt>
      <trkpt lat="43.64372" lon="6.73383">
        <ele>415.67001342773</ele>
        <time>2009-03-08T09:09:14Z</time>
      </trkpt>
      <trkpt lat="43.64358" lon="6.73386">
        <ele>413.76007080078</ele>
        <time>2009-03-08T09:09:17Z</time>
      </trkpt>
      <trkpt lat="43.64342" lon="6.73387">
        <ele>412.05722045898</ele>
        <time>2009-03-08T09:09:20Z</time>
      </trkpt>
      <trkpt lat="43.64311" lon="6.73396">
        <ele>409.43850708008</ele>
        <time>2009-03-08T09:09:26Z</time>
      </trkpt>
      <trkpt lat="43.64283" lon="6.73402">
        <ele>408.60723876953</ele>
        <time>2009-03-08T09:09:32Z</time>
      </trkpt>
      <trkpt lat="43.64262" lon="6.73401">
        <ele>408.11508178711</ele>
        <time>2009-03-08T09:09:37Z</time>
      </trkpt>
      <trkpt lat="43.64236" lon="6.73393">
        <ele>408.02752685547</ele>
        <time>2009-03-08T09:09:43Z</time>
      </trkpt>
      <trkpt lat="43.64222" lon="6.734">
        <ele>406.75552368164</ele>
        <time>2009-03-08T09:09:46Z</time>
      </trkpt>
      <trkpt lat="43.64189" lon="6.73421">
        <ele>402.06991577148</ele>
        <time>2009-03-08T09:09:51Z</time>
      </trkpt>
      <trkpt lat="43.64181" lon="6.73425">
        <ele>401.04907226562</ele>
        <time>2009-03-08T09:09:52Z</time>
      </trkpt>
      <trkpt lat="43.64165" lon="6.73433">
        <ele>399.8766784668</ele>
        <time>2009-03-08T09:09:54Z</time>
      </trkpt>
      <trkpt lat="43.64144" lon="6.73442">
        <ele>397.68572998047</ele>
        <time>2009-03-08T09:09:57Z</time>
      </trkpt>
      <trkpt lat="43.64131" lon="6.73447">
        <ele>396.12457275391</ele>
        <time>2009-03-08T09:09:59Z</time>
      </trkpt>
      <trkpt lat="43.64099" lon="6.73459">
        <ele>392.91342163086</ele>
        <time>2009-03-08T09:10:04Z</time>
      </trkpt>
      <trkpt lat="43.64066" lon="6.73471">
        <ele>389.22891235352</ele>
        <time>2009-03-08T09:10:09Z</time>
      </trkpt>
      <trkpt lat="43.64038" lon="6.73483">
        <ele>386.4700012207</ele>
        <time>2009-03-08T09:10:13Z</time>
      </trkpt>
      <trkpt lat="43.63997" lon="6.73495">
        <ele>382.48806762695</ele>
        <time>2009-03-08T09:10:18Z</time>
      </trkpt>
      <trkpt lat="43.63967" lon="6.73505">
        <ele>380</ele>
        <time>2009-03-08T09:10:22Z</time>
      </trkpt>
      <trkpt lat="43.63947" lon="6.73514">
        <ele>380</ele>
        <time>2009-03-08T09:10:25Z</time>
      </trkpt>
      <trkpt lat="43.63927" lon="6.7352">
        <ele>380</ele>
        <time>2009-03-08T09:10:29Z</time>
      </trkpt>
      <trkpt lat="43.63924" lon="6.73521">
        <ele>380</ele>
        <time>2009-03-08T09:10:32Z</time>
      </trkpt>
      <trkpt lat="43.63922" lon="6.73521">
        <ele>380</ele>
        <time>2009-03-08T09:10:38Z</time>
      </trkpt>
      <trkpt lat="43.63911" lon="6.7353">
        <ele>379.78430175781</ele>
        <time>2009-03-08T09:10:44Z</time>
      </trkpt>
      <trkpt lat="43.63897" lon="6.73542">
        <ele>379.28991699219</ele>
        <time>2009-03-08T09:10:49Z</time>
      </trkpt>
      <trkpt lat="43.63879" lon="6.73558">
        <ele>378.14886474609</ele>
        <time>2009-03-08T09:10:54Z</time>
      </trkpt>
      <trkpt lat="43.63862" lon="6.73573">
        <ele>375.80902099609</ele>
        <time>2009-03-08T09:10:58Z</time>
      </trkpt>
      <trkpt lat="43.63849" lon="6.73583">
        <ele>373.69018554688</ele>
        <time>2009-03-08T09:11:01Z</time>
      </trkpt>
      <trkpt lat="43.63837" lon="6.73604">
        <ele>370.47100830078</ele>
        <time>2009-03-08T09:11:06Z</time>
      </trkpt>
      <trkpt lat="43.63841" lon="6.7362">
        <ele>370.19854736328</ele>
        <time>2009-03-08T09:11:09Z</time>
      </trkpt>
      <trkpt lat="43.63845" lon="6.73649">
        <ele>371.58178710938</ele>
        <time>2009-03-08T09:11:13Z</time>
      </trkpt>
      <trkpt lat="43.63845" lon="6.73676">
        <ele>374.26138305664</ele>
        <time>2009-03-08T09:11:19Z</time>
      </trkpt>
      <trkpt lat="43.63846" lon="6.73695">
        <ele>375.83929443359</ele>
        <time>2009-03-08T09:11:25Z</time>
      </trkpt>
      <trkpt lat="43.63851" lon="6.73711">
        <ele>377.85479736328</ele>
        <time>2009-03-08T09:11:32Z</time>
      </trkpt>
      <trkpt lat="43.63849" lon="6.73715">
        <ele>377.80307006836</ele>
        <time>2009-03-08T09:11:41Z</time>
      </trkpt>
      <trkpt lat="43.63852" lon="6.7372">
        <ele>378.50088500977</ele>
        <time>2009-03-08T09:11:55Z</time>
      </trkpt>
      <trkpt lat="43.63853" lon="6.73722">
        <ele>378.80172729492</ele>
        <time>2009-03-08T09:12:04Z</time>
      </trkpt>
      <trkpt lat="43.63854" lon="6.73725">
        <ele>379.07116699219</ele>
        <time>2009-03-08T09:12:16Z</time>
      </trkpt>
      <trkpt lat="43.63853" lon="6.73725">
        <ele>378.98681640625</ele>
        <time>2009-03-08T09:12:33Z</time>
      </trkpt>
      <trkpt lat="43.63852" lon="6.73728">
        <ele>378.87170410156</ele>
        <time>2009-03-08T09:12:35Z</time>
      </trkpt>
      <trkpt lat="43.63848" lon="6.73738">
        <ele>378.94030761719</ele>
        <time>2009-03-08T09:12:39Z</time>
      </trkpt>
      <trkpt lat="43.63833" lon="6.73749">
        <ele>378.80270385742</ele>
        <time>2009-03-08T09:12:44Z</time>
      </trkpt>
      <trkpt lat="43.63829" lon="6.73754">
        <ele>378.40646362305</ele>
        <time>2009-03-08T09:12:47Z</time>
      </trkpt>
      <trkpt lat="43.63827" lon="6.73753">
        <ele>377.97116088867</ele>
        <time>2009-03-08T09:12:53Z</time>
      </trkpt>
      <trkpt lat="43.63814" lon="6.73761">
        <ele>376.22653198242</ele>
        <time>2009-03-08T09:12:58Z</time>
      </trkpt>
      <trkpt lat="43.63801" lon="6.73778">
        <ele>375.67855834961</ele>
        <time>2009-03-08T09:13:03Z</time>
      </trkpt>
      <trkpt lat="43.63785" lon="6.73775">
        <ele>374.31900024414</ele>
        <time>2009-03-08T09:13:07Z</time>
      </trkpt>
      <trkpt lat="43.63774" lon="6.73776">
        <ele>373.47717285156</ele>
        <time>2009-03-08T09:13:11Z</time>
      </trkpt>
      <trkpt lat="43.63774" lon="6.73775">
        <ele>373.39828491211</ele>
        <time>2009-03-08T09:13:14Z</time>
      </trkpt>
      <trkpt lat="43.63775" lon="6.73776">
        <ele>373.5832824707</ele>
        <time>2009-03-08T09:13:18Z</time>
      </trkpt>
      <trkpt lat="43.63776" lon="6.73776">
        <ele>373.65341186523</ele>
        <time>2009-03-08T09:13:20Z</time>
      </trkpt>
      <trkpt lat="43.63773" lon="6.73778">
        <ele>373.48016357422</ele>
        <time>2009-03-08T09:13:26Z</time>
      </trkpt>
      <trkpt lat="43.63771" lon="6.73781">
        <ele>373.27416992188</ele>
        <time>2009-03-08T09:13:35Z</time>
      </trkpt>
      <trkpt lat="43.6377" lon="6.73793">
        <ele>373.15057373047</ele>
        <time>2009-03-08T09:13:39Z</time>
      </trkpt>
      <trkpt lat="43.63769" lon="6.738">
        <ele>373.06817626953</ele>
        <time>2009-03-08T09:13:41Z</time>
      </trkpt>
      <trkpt lat="43.63768" lon="6.73832">
        <ele>372.94458007812</ele>
        <time>2009-03-08T09:13:47Z</time>
      </trkpt>
      <trkpt lat="43.63768" lon="6.73838">
        <ele>372.78359985352</ele>
        <time>2009-03-08T09:13:48Z</time>
      </trkpt>
      <trkpt lat="43.63772" lon="6.73863">
        <ele>372.38562011719</ele>
        <time>2009-03-08T09:13:53Z</time>
      </trkpt>
      <trkpt lat="43.63774" lon="6.73874">
        <ele>372.58905029297</ele>
        <time>2009-03-08T09:13:57Z</time>
      </trkpt>
      <trkpt lat="43.63774" lon="6.73882">
        <ele>372.50598144531</ele>
        <time>2009-03-08T09:13:59Z</time>
      </trkpt>
      <trkpt lat="43.63778" lon="6.73887">
        <ele>372.96649169922</ele>
        <time>2009-03-08T09:14:04Z</time>
      </trkpt>
      <trkpt lat="43.63779" lon="6.73888">
        <ele>373.0654296875</ele>
        <time>2009-03-08T09:14:06Z</time>
      </trkpt>
      <trkpt lat="43.6378" lon="6.73894">
        <ele>372.98870849609</ele>
        <time>2009-03-08T09:14:12Z</time>
      </trkpt>
      <trkpt lat="43.63779" lon="6.73902">
        <ele>372.59390258789</ele>
        <time>2009-03-08T09:14:16Z</time>
      </trkpt>
      <trkpt lat="43.63774" lon="6.73908">
        <ele>371.74609375</ele>
        <time>2009-03-08T09:14:21Z</time>
      </trkpt>
      <trkpt lat="43.63773" lon="6.73913">
        <ele>371.37185668945</ele>
        <time>2009-03-08T09:14:23Z</time>
      </trkpt>
      <trkpt lat="43.6377" lon="6.7393">
        <ele>370.5735168457</ele>
        <time>2009-03-08T09:14:27Z</time>
      </trkpt>
      <trkpt lat="43.6377" lon="6.73952">
        <ele>370.03009033203</ele>
        <time>2009-03-08T09:14:31Z</time>
      </trkpt>
      <trkpt lat="43.63774" lon="6.73972">
        <ele>370.47369384766</ele>
        <time>2009-03-08T09:14:35Z</time>
      </trkpt>
      <trkpt lat="43.63769" lon="6.73987">
        <ele>369.51623535156</ele>
        <time>2009-03-08T09:14:40Z</time>
      </trkpt>
      <trkpt lat="43.63765" lon="6.74001">
        <ele>369.04919433594</ele>
        <time>2009-03-08T09:14:43Z</time>
      </trkpt>
      <trkpt lat="43.63754" lon="6.74026">
        <ele>368.28015136719</ele>
        <time>2009-03-08T09:14:49Z</time>
      </trkpt>
      <trkpt lat="43.63747" lon="6.74045">
        <ele>368.24853515625</ele>
        <time>2009-03-08T09:14:53Z</time>
      </trkpt>
      <trkpt lat="43.63742" lon="6.74058">
        <ele>368.17575073242</ele>
        <time>2009-03-08T09:14:55Z</time>
      </trkpt>
      <trkpt lat="43.6373" lon="6.74086">
        <ele>367.16668701172</ele>
        <time>2009-03-08T09:14:59Z</time>
      </trkpt>
      <trkpt lat="43.63714" lon="6.74115">
        <ele>366.24603271484</ele>
        <time>2009-03-08T09:15:04Z</time>
      </trkpt>
      <trkpt lat="43.6371" lon="6.74128">
        <ele>366.25631713867</ele>
        <time>2009-03-08T09:15:06Z</time>
      </trkpt>
      <trkpt lat="43.63708" lon="6.7414">
        <ele>366.517578125</ele>
        <time>2009-03-08T09:15:08Z</time>
      </trkpt>
      <trkpt lat="43.637" lon="6.74161">
        <ele>365.57000732422</ele>
        <time>2009-03-08T09:15:11Z</time>
      </trkpt>
      <trkpt lat="43.63696" lon="6.74186">
        <ele>365.83996582031</ele>
        <time>2009-03-08T09:15:15Z</time>
      </trkpt>
      <trkpt lat="43.63697" lon="6.74196">
        <ele>366.27941894531</ele>
        <time>2009-03-08T09:15:17Z</time>
      </trkpt>
      <trkpt lat="43.63699" lon="6.74219">
        <ele>367.3952331543</ele>
        <time>2009-03-08T09:15:22Z</time>
      </trkpt>
      <trkpt lat="43.63699" lon="6.74236">
        <ele>367.94479370117</ele>
        <time>2009-03-08T09:15:27Z</time>
      </trkpt>
      <trkpt lat="43.63692" lon="6.7426">
        <ele>367.83963012695</ele>
        <time>2009-03-08T09:15:31Z</time>
      </trkpt>
      <trkpt lat="43.63685" lon="6.74275">
        <ele>367.62539672852</ele>
        <time>2009-03-08T09:15:34Z</time>
      </trkpt>
      <trkpt lat="43.63678" lon="6.74274">
        <ele>367.30508422852</ele>
        <time>2009-03-08T09:15:39Z</time>
      </trkpt>
      <trkpt lat="43.63676" lon="6.74274">
        <ele>367.22412109375</ele>
        <time>2009-03-08T09:15:43Z</time>
      </trkpt>
      <trkpt lat="43.63676" lon="6.74274">
        <ele>367.24380493164</ele>
        <time>2009-03-08T09:15:44Z</time>
      </trkpt>
      <trkpt lat="43.63674" lon="6.74278">
        <ele>367.26501464844</ele>
        <time>2009-03-08T09:15:47Z</time>
      </trkpt>
      <trkpt lat="43.63674" lon="6.74283">
        <ele>367.47262573242</ele>
        <time>2009-03-08T09:15:53Z</time>
      </trkpt>
      <trkpt lat="43.63673" lon="6.7429">
        <ele>367.66488647461</ele>
        <time>2009-03-08T09:15:57Z</time>
      </trkpt>
      <trkpt lat="43.63669" lon="6.74304">
        <ele>368.00650024414</ele>
        <time>2009-03-08T09:16:02Z</time>
      </trkpt>
      <trkpt lat="43.63662" lon="6.74313">
        <ele>367.88873291016</ele>
        <time>2009-03-08T09:16:06Z</time>
      </trkpt>
      <trkpt lat="43.63657" lon="6.7433">
        <ele>367.95523071289</ele>
        <time>2009-03-08T09:16:10Z</time>
      </trkpt>
      <trkpt lat="43.63656" lon="6.74338">
        <ele>368.10076904297</ele>
        <time>2009-03-08T09:16:12Z</time>
      </trkpt>
      <trkpt lat="43.63652" lon="6.74356">
        <ele>368.36849975586</ele>
        <time>2009-03-08T09:16:16Z</time>
      </trkpt>
      <trkpt lat="43.6365" lon="6.74377">
        <ele>368.97546386719</ele>
        <time>2009-03-08T09:16:21Z</time>
      </trkpt>
      <trkpt lat="43.63652" lon="6.74401">
        <ele>369.69427490234</ele>
        <time>2009-03-08T09:16:27Z</time>
      </trkpt>
      <trkpt lat="43.63655" lon="6.74419">
        <ele>370.03948974609</ele>
        <time>2009-03-08T09:16:31Z</time>
      </trkpt>
      <trkpt lat="43.63661" lon="6.74439">
        <ele>370.65115356445</ele>
        <time>2009-03-08T09:16:36Z</time>
      </trkpt>
      <trkpt lat="43.63663" lon="6.74457">
        <ele>371.30740356445</ele>
        <time>2009-03-08T09:16:40Z</time>
      </trkpt>
      <trkpt lat="43.63662" lon="6.74466">
        <ele>371.61639404297</ele>
        <time>2009-03-08T09:16:42Z</time>
      </trkpt>
      <trkpt lat="43.63661" lon="6.7448">
        <ele>371.84832763672</ele>
        <time>2009-03-08T09:16:49Z</time>
      </trkpt>
      <trkpt lat="43.63657" lon="6.74495">
        <ele>371.94360351562</ele>
        <time>2009-03-08T09:16:54Z</time>
      </trkpt>
      <trkpt lat="43.63657" lon="6.74497">
        <ele>371.96658325195</ele>
        <time>2009-03-08T09:16:55Z</time>
      </trkpt>
      <trkpt lat="43.63661" lon="6.74508">
        <ele>372.23947143555</ele>
        <time>2009-03-08T09:17:00Z</time>
      </trkpt>
      <trkpt lat="43.63658" lon="6.74525">
        <ele>372.61959838867</ele>
        <time>2009-03-08T09:17:04Z</time>
      </trkpt>
      <trkpt lat="43.63655" lon="6.74553">
        <ele>373.48999023438</ele>
        <time>2009-03-08T09:17:10Z</time>
      </trkpt>
      <trkpt lat="43.63656" lon="6.74571">
        <ele>373.83181762695</ele>
        <time>2009-03-08T09:17:14Z</time>
      </trkpt>
      <trkpt lat="43.63657" lon="6.74589">
        <ele>374.20108032227</ele>
        <time>2009-03-08T09:17:18Z</time>
      </trkpt>
      <trkpt lat="43.63663" lon="6.74612">
        <ele>375.01434326172</ele>
        <time>2009-03-08T09:17:23Z</time>
      </trkpt>
      <trkpt lat="43.63666" lon="6.74625">
        <ele>375.48959350586</ele>
        <time>2009-03-08T09:17:26Z</time>
      </trkpt>
      <trkpt lat="43.6366" lon="6.74638">
        <ele>375.73962402344</ele>
        <time>2009-03-08T09:17:31Z</time>
      </trkpt>
      <trkpt lat="43.63657" lon="6.74648">
        <ele>375.96957397461</ele>
        <time>2009-03-08T09:17:35Z</time>
      </trkpt>
      <trkpt lat="43.63654" lon="6.74654">
        <ele>376.05883789062</ele>
        <time>2009-03-08T09:17:39Z</time>
      </trkpt>
      <trkpt lat="43.63643" lon="6.74668">
        <ele>376.16067504883</ele>
        <time>2009-03-08T09:17:45Z</time>
      </trkpt>
      <trkpt lat="43.63642" lon="6.74689">
        <ele>376.82586669922</ele>
        <time>2009-03-08T09:17:51Z</time>
      </trkpt>
      <trkpt lat="43.63638" lon="6.74709">
        <ele>377.03472900391</ele>
        <time>2009-03-08T09:17:56Z</time>
      </trkpt>
      <trkpt lat="43.63634" lon="6.74725">
        <ele>377.24130249023</ele>
        <time>2009-03-08T09:18:01Z</time>
      </trkpt>
      <trkpt lat="43.63624" lon="6.74736">
        <ele>377.77114868164</ele>
        <time>2009-03-08T09:18:06Z</time>
      </trkpt>
      <trkpt lat="43.63606" lon="6.74752">
        <ele>378.23828125</ele>
        <time>2009-03-08T09:18:12Z</time>
      </trkpt>
      <trkpt lat="43.6359" lon="6.7477">
        <ele>378.92886352539</ele>
        <time>2009-03-08T09:18:18Z</time>
      </trkpt>
      <trkpt lat="43.63585" lon="6.7478">
        <ele>379.08764648438</ele>
        <time>2009-03-08T09:18:21Z</time>
      </trkpt>
      <trkpt lat="43.63585" lon="6.74791">
        <ele>379.45385742188</ele>
        <time>2009-03-08T09:18:26Z</time>
      </trkpt>
      <trkpt lat="43.63588" lon="6.74793">
        <ele>379.4645690918</ele>
        <time>2009-03-08T09:18:28Z</time>
      </trkpt>
      <trkpt lat="43.63591" lon="6.74795">
        <ele>379.46133422852</ele>
        <time>2009-03-08T09:18:31Z</time>
      </trkpt>
      <trkpt lat="43.63599" lon="6.74798">
        <ele>379.32876586914</ele>
        <time>2009-03-08T09:18:38Z</time>
      </trkpt>
      <trkpt lat="43.63603" lon="6.74804">
        <ele>379.26870727539</ele>
        <time>2009-03-08T09:18:41Z</time>
      </trkpt>
      <trkpt lat="43.63618" lon="6.7481">
        <ele>379.18426513672</ele>
        <time>2009-03-08T09:18:47Z</time>
      </trkpt>
      <trkpt lat="43.63631" lon="6.74806">
        <ele>379.01425170898</ele>
        <time>2009-03-08T09:18:53Z</time>
      </trkpt>
      <trkpt lat="43.63641" lon="6.74805">
        <ele>379.12216186523</ele>
        <time>2009-03-08T09:18:58Z</time>
      </trkpt>
      <trkpt lat="43.63656" lon="6.74803">
        <ele>380.18865966797</ele>
        <time>2009-03-08T09:19:04Z</time>
      </trkpt>
      <trkpt lat="43.63674" lon="6.74798">
        <ele>381.50378417969</ele>
        <time>2009-03-08T09:19:10Z</time>
      </trkpt>
      <trkpt lat="43.63692" lon="6.74795">
        <ele>383.36804199219</ele>
        <time>2009-03-08T09:19:16Z</time>
      </trkpt>
      <trkpt lat="43.63712" lon="6.74794">
        <ele>386.03854370117</ele>
        <time>2009-03-08T09:19:22Z</time>
      </trkpt>
      <trkpt lat="43.63734" lon="6.74791">
        <ele>389.60247802734</ele>
        <time>2009-03-08T09:19:29Z</time>
      </trkpt>
      <trkpt lat="43.63745" lon="6.74788">
        <ele>391.5439453125</ele>
        <time>2009-03-08T09:19:33Z</time>
      </trkpt>
      <trkpt lat="43.63758" lon="6.74788">
        <ele>392.55584716797</ele>
        <time>2009-03-08T09:19:37Z</time>
      </trkpt>
      <trkpt lat="43.63761" lon="6.74787">
        <ele>392.59799194336</ele>
        <time>2009-03-08T09:19:38Z</time>
      </trkpt>
      <trkpt lat="43.63771" lon="6.74784">
        <ele>392.81634521484</ele>
        <time>2009-03-08T09:19:44Z</time>
      </trkpt>
      <trkpt lat="43.63781" lon="6.74782">
        <ele>392.89047241211</ele>
        <time>2009-03-08T09:19:49Z</time>
      </trkpt>
      <trkpt lat="43.63797" lon="6.74779">
        <ele>392.3371887207</ele>
        <time>2009-03-08T09:19:55Z</time>
      </trkpt>
      <trkpt lat="43.63802" lon="6.7478">
        <ele>392.21374511719</ele>
        <time>2009-03-08T09:19:57Z</time>
      </trkpt>
      <trkpt lat="43.63809" lon="6.74793">
        <ele>392.37518310547</ele>
        <time>2009-03-08T09:20:02Z</time>
      </trkpt>
      <trkpt lat="43.63811" lon="6.74795">
        <ele>392.28796386719</ele>
        <time>2009-03-08T09:20:03Z</time>
      </trkpt>
      <trkpt lat="43.63818" lon="6.748">
        <ele>392.02880859375</ele>
        <time>2009-03-08T09:20:10Z</time>
      </trkpt>
      <trkpt lat="43.63824" lon="6.74806">
        <ele>391.63854980469</ele>
        <time>2009-03-08T09:20:21Z</time>
      </trkpt>
      <trkpt lat="43.63837" lon="6.7481">
        <ele>391.14898681641</ele>
        <time>2009-03-08T09:20:25Z</time>
      </trkpt>
      <trkpt lat="43.63848" lon="6.74812">
        <ele>391.23654174805</ele>
        <time>2009-03-08T09:20:28Z</time>
      </trkpt>
      <trkpt lat="43.63851" lon="6.74815">
        <ele>391.3515625</ele>
        <time>2009-03-08T09:20:31Z</time>
      </trkpt>
      <trkpt lat="43.63856" lon="6.74828">
        <ele>391.79272460938</ele>
        <time>2009-03-08T09:20:37Z</time>
      </trkpt>
      <trkpt lat="43.63872" lon="6.74846">
        <ele>392.26617431641</ele>
        <time>2009-03-08T09:20:42Z</time>
      </trkpt>
      <trkpt lat="43.63882" lon="6.74868">
        <ele>392.42788696289</ele>
        <time>2009-03-08T09:20:47Z</time>
      </trkpt>
      <trkpt lat="43.63881" lon="6.74882">
        <ele>392.81045532227</ele>
        <time>2009-03-08T09:20:51Z</time>
      </trkpt>
      <trkpt lat="43.63875" lon="6.74905">
        <ele>393.56335449219</ele>
        <time>2009-03-08T09:20:58Z</time>
      </trkpt>
      <trkpt lat="43.63876" lon="6.74928">
        <ele>394.19708251953</ele>
        <time>2009-03-08T09:21:02Z</time>
      </trkpt>
      <trkpt lat="43.63882" lon="6.74951">
        <ele>394.4387512207</ele>
        <time>2009-03-08T09:21:06Z</time>
      </trkpt>
      <trkpt lat="43.63889" lon="6.74965">
        <ele>394.75845336914</ele>
        <time>2009-03-08T09:21:09Z</time>
      </trkpt>
      <trkpt lat="43.63898" lon="6.74974">
        <ele>395.06100463867</ele>
        <time>2009-03-08T09:21:12Z</time>
      </trkpt>
      <trkpt lat="43.63914" lon="6.74992">
        <ele>395.7236328125</ele>
        <time>2009-03-08T09:21:18Z</time>
      </trkpt>
      <trkpt lat="43.63931" lon="6.75003">
        <ele>395.53280639648</ele>
        <time>2009-03-08T09:21:23Z</time>
      </trkpt>
      <trkpt lat="43.63946" lon="6.75011">
        <ele>395.3874206543</ele>
        <time>2009-03-08T09:21:28Z</time>
      </trkpt>
      <trkpt lat="43.63956" lon="6.75014">
        <ele>395.2932434082</ele>
        <time>2009-03-08T09:21:33Z</time>
      </trkpt>
      <trkpt lat="43.63961" lon="6.75014">
        <ele>395.20529174805</ele>
        <time>2009-03-08T09:21:39Z</time>
      </trkpt>
      <trkpt lat="43.63968" lon="6.75017">
        <ele>395.09652709961</ele>
        <time>2009-03-08T09:21:45Z</time>
      </trkpt>
      <trkpt lat="43.63971" lon="6.75022">
        <ele>395.02557373047</ele>
        <time>2009-03-08T09:21:52Z</time>
      </trkpt>
      <trkpt lat="43.63975" lon="6.75018">
        <ele>394.85772705078</ele>
        <time>2009-03-08T09:21:57Z</time>
      </trkpt>
      <trkpt lat="43.63979" lon="6.75018">
        <ele>394.69131469727</ele>
        <time>2009-03-08T09:22:03Z</time>
      </trkpt>
      <trkpt lat="43.63977" lon="6.75022">
        <ele>394.79019165039</ele>
        <time>2009-03-08T09:22:06Z</time>
      </trkpt>
      <trkpt lat="43.63974" lon="6.75027">
        <ele>394.94799804688</ele>
        <time>2009-03-08T09:22:11Z</time>
      </trkpt>
      <trkpt lat="43.63979" lon="6.75031">
        <ele>394.88189697266</ele>
        <time>2009-03-08T09:22:15Z</time>
      </trkpt>
      <trkpt lat="43.63981" lon="6.75035">
        <ele>394.93511962891</ele>
        <time>2009-03-08T09:22:17Z</time>
      </trkpt>
      <trkpt lat="43.63984" lon="6.75046">
        <ele>395.2458190918</ele>
        <time>2009-03-08T09:22:22Z</time>
      </trkpt>
      <trkpt lat="43.63992" lon="6.75054">
        <ele>395.23379516602</ele>
        <time>2009-03-08T09:22:27Z</time>
      </trkpt>
      <trkpt lat="43.63996" lon="6.7506">
        <ele>395.31448364258</ele>
        <time>2009-03-08T09:22:31Z</time>
      </trkpt>
      <trkpt lat="43.64005" lon="6.75067">
        <ele>395.30624389648</ele>
        <time>2009-03-08T09:22:38Z</time>
      </trkpt>
      <trkpt lat="43.64011" lon="6.75071">
        <ele>395.41003417969</ele>
        <time>2009-03-08T09:22:41Z</time>
      </trkpt>
      <trkpt lat="43.64013" lon="6.75073">
        <ele>395.44525146484</ele>
        <time>2009-03-08T09:22:43Z</time>
      </trkpt>
      <trkpt lat="43.64018" lon="6.75073">
        <ele>395.40658569336</ele>
        <time>2009-03-08T09:22:46Z</time>
      </trkpt>
      <trkpt lat="43.64027" lon="6.75084">
        <ele>396.02294921875</ele>
        <time>2009-03-08T09:22:51Z</time>
      </trkpt>
      <trkpt lat="43.6403" lon="6.75086">
        <ele>396.02780151367</ele>
        <time>2009-03-08T09:22:53Z</time>
      </trkpt>
      <trkpt lat="43.64037" lon="6.75089">
        <ele>395.8681640625</ele>
        <time>2009-03-08T09:22:57Z</time>
      </trkpt>
      <trkpt lat="43.64045" lon="6.75087">
        <ele>395.53170776367</ele>
        <time>2009-03-08T09:23:01Z</time>
      </trkpt>
      <trkpt lat="43.64059" lon="6.75095">
        <ele>395.41607666016</ele>
        <time>2009-03-08T09:23:07Z</time>
      </trkpt>
      <trkpt lat="43.64064" lon="6.751">
        <ele>395.59802246094</ele>
        <time>2009-03-08T09:23:10Z</time>
      </trkpt>
      <trkpt lat="43.64071" lon="6.75108">
        <ele>395.87954711914</ele>
        <time>2009-03-08T09:23:16Z</time>
      </trkpt>
      <trkpt lat="43.6408" lon="6.75117">
        <ele>396.21774291992</ele>
        <time>2009-03-08T09:23:21Z</time>
      </trkpt>
      <trkpt lat="43.64082" lon="6.75119">
        <ele>396.30270385742</ele>
        <time>2009-03-08T09:23:22Z</time>
      </trkpt>
      <trkpt lat="43.6409" lon="6.7513">
        <ele>396.93713378906</ele>
        <time>2009-03-08T09:23:29Z</time>
      </trkpt>
      <trkpt lat="43.64097" lon="6.7514">
        <ele>397.52828979492</ele>
        <time>2009-03-08T09:23:33Z</time>
      </trkpt>
      <trkpt lat="43.64105" lon="6.75156">
        <ele>398.51977539062</ele>
        <time>2009-03-08T09:23:38Z</time>
      </trkpt>
      <trkpt lat="43.64121" lon="6.75169">
        <ele>398.73596191406</ele>
        <time>2009-03-08T09:23:43Z</time>
      </trkpt>
      <trkpt lat="43.64141" lon="6.75182">
        <ele>398.53857421875</ele>
        <time>2009-03-08T09:23:48Z</time>
      </trkpt>
      <trkpt lat="43.64151" lon="6.75189">
        <ele>398.79092407227</ele>
        <time>2009-03-08T09:23:51Z</time>
      </trkpt>
      <trkpt lat="43.64165" lon="6.75203">
        <ele>399.017578125</ele>
        <time>2009-03-08T09:23:56Z</time>
      </trkpt>
      <trkpt lat="43.64175" lon="6.75213">
        <ele>397.740234375</ele>
        <time>2009-03-08T09:23:59Z</time>
      </trkpt>
      <trkpt lat="43.64182" lon="6.75217">
        <ele>396.861328125</ele>
        <time>2009-03-08T09:24:01Z</time>
      </trkpt>
      <trkpt lat="43.64185" lon="6.75219">
        <ele>396.421875</ele>
        <time>2009-03-08T09:24:02Z</time>
      </trkpt>
      <trkpt lat="43.64194" lon="6.7524">
        <ele>395.05624389648</ele>
        <time>2009-03-08T09:24:09Z</time>
      </trkpt>
      <trkpt lat="43.642" lon="6.75258">
        <ele>395.58154296875</ele>
        <time>2009-03-08T09:24:14Z</time>
      </trkpt>
      <trkpt lat="43.6421" lon="6.75286">
        <ele>396.65270996094</ele>
        <time>2009-03-08T09:24:21Z</time>
      </trkpt>
      <trkpt lat="43.64222" lon="6.75315">
        <ele>397.97106933594</ele>
        <time>2009-03-08T09:24:27Z</time>
      </trkpt>
      <trkpt lat="43.64242" lon="6.7536">
        <ele>399.40893554688</ele>
        <time>2009-03-08T09:24:34Z</time>
      </trkpt>
      <trkpt lat="43.64249" lon="6.75379">
        <ele>399.93078613281</ele>
        <time>2009-03-08T09:24:37Z</time>
      </trkpt>
      <trkpt lat="43.64267" lon="6.75416">
        <ele>400</ele>
        <time>2009-03-08T09:24:43Z</time>
      </trkpt>
      <trkpt lat="43.6427" lon="6.75422">
        <ele>400</ele>
        <time>2009-03-08T09:24:44Z</time>
      </trkpt>
      <trkpt lat="43.64287" lon="6.75432">
        <ele>400</ele>
        <time>2009-03-08T09:24:48Z</time>
      </trkpt>
      <trkpt lat="43.64293" lon="6.75432">
        <ele>400</ele>
        <time>2009-03-08T09:24:50Z</time>
      </trkpt>
      <trkpt lat="43.64296" lon="6.75432">
        <ele>400</ele>
        <time>2009-03-08T09:24:51Z</time>
      </trkpt>
      <trkpt lat="43.64326" lon="6.7544">
        <ele>400</ele>
        <time>2009-03-08T09:24:58Z</time>
      </trkpt>
      <trkpt lat="43.64331" lon="6.75444">
        <ele>400</ele>
        <time>2009-03-08T09:24:59Z</time>
      </trkpt>
      <trkpt lat="43.64343" lon="6.75459">
        <ele>400</ele>
        <time>2009-03-08T09:25:02Z</time>
      </trkpt>
      <trkpt lat="43.6435" lon="6.75468">
        <ele>400</ele>
        <time>2009-03-08T09:25:04Z</time>
      </trkpt>
      <trkpt lat="43.64373" lon="6.75503">
        <ele>400</ele>
        <time>2009-03-08T09:25:10Z</time>
      </trkpt>
      <trkpt lat="43.64386" lon="6.75533">
        <ele>400</ele>
        <time>2009-03-08T09:25:16Z</time>
      </trkpt>
      <trkpt lat="43.64393" lon="6.75569">
        <ele>400</ele>
        <time>2009-03-08T09:25:22Z</time>
      </trkpt>
      <trkpt lat="43.64398" lon="6.7559">
        <ele>400</ele>
        <time>2009-03-08T09:25:25Z</time>
      </trkpt>
      <trkpt lat="43.6441" lon="6.75627">
        <ele>400</ele>
        <time>2009-03-08T09:25:30Z</time>
      </trkpt>
      <trkpt lat="43.64415" lon="6.75641">
        <ele>400</ele>
        <time>2009-03-08T09:25:32Z</time>
      </trkpt>
      <trkpt lat="43.6443" lon="6.7567">
        <ele>400</ele>
        <time>2009-03-08T09:25:37Z</time>
      </trkpt>
      <trkpt lat="43.64436" lon="6.757">
        <ele>400</ele>
        <time>2009-03-08T09:25:42Z</time>
      </trkpt>
      <trkpt lat="43.64434" lon="6.75728">
        <ele>400</ele>
        <time>2009-03-08T09:25:47Z</time>
      </trkpt>
      <trkpt lat="43.64431" lon="6.7575">
        <ele>400</ele>
        <time>2009-03-08T09:25:51Z</time>
      </trkpt>
      <trkpt lat="43.64427" lon="6.7578">
        <ele>400</ele>
        <time>2009-03-08T09:25:56Z</time>
      </trkpt>
      <trkpt lat="43.64415" lon="6.75792">
        <ele>400</ele>
        <time>2009-03-08T09:26:00Z</time>
      </trkpt>
      <trkpt lat="43.64412" lon="6.75796">
        <ele>400</ele>
        <time>2009-03-08T09:26:01Z</time>
      </trkpt>
      <trkpt lat="43.64406" lon="6.75804">
        <ele>400</ele>
        <time>2009-03-08T09:26:04Z</time>
      </trkpt>
      <trkpt lat="43.64407" lon="6.7581">
        <ele>400</ele>
        <time>2009-03-08T09:26:09Z</time>
      </trkpt>
      <trkpt lat="43.64408" lon="6.75817">
        <ele>400</ele>
        <time>2009-03-08T09:26:13Z</time>
      </trkpt>
      <trkpt lat="43.64405" lon="6.75826">
        <ele>400</ele>
        <time>2009-03-08T09:26:18Z</time>
      </trkpt>
      <trkpt lat="43.64405" lon="6.75846">
        <ele>400</ele>
        <time>2009-03-08T09:26:24Z</time>
      </trkpt>
      <trkpt lat="43.64409" lon="6.75863">
        <ele>400</ele>
        <time>2009-03-08T09:26:29Z</time>
      </trkpt>
      <trkpt lat="43.64416" lon="6.75882">
        <ele>400</ele>
        <time>2009-03-08T09:26:35Z</time>
      </trkpt>
      <trkpt lat="43.64425" lon="6.75894">
        <ele>400</ele>
        <time>2009-03-08T09:26:40Z</time>
      </trkpt>
      <trkpt lat="43.64439" lon="6.75898">
        <ele>400</ele>
        <time>2009-03-08T09:26:46Z</time>
      </trkpt>
      <trkpt lat="43.64455" lon="6.75902">
        <ele>400</ele>
        <time>2009-03-08T09:26:52Z</time>
      </trkpt>
      <trkpt lat="43.64469" lon="6.75901">
        <ele>400</ele>
        <time>2009-03-08T09:26:57Z</time>
      </trkpt>
      <trkpt lat="43.64483" lon="6.75905">
        <ele>400.38366699219</ele>
        <time>2009-03-08T09:27:02Z</time>
      </trkpt>
      <trkpt lat="43.64487" lon="6.75907">
        <ele>400.53472900391</ele>
        <time>2009-03-08T09:27:04Z</time>
      </trkpt>
      <trkpt lat="43.6449" lon="6.75918">
        <ele>400.64459228516</ele>
        <time>2009-03-08T09:27:09Z</time>
      </trkpt>
      <trkpt lat="43.64491" lon="6.75922">
        <ele>400.68579101562</ele>
        <time>2009-03-08T09:27:11Z</time>
      </trkpt>
      <trkpt lat="43.64495" lon="6.75933">
        <ele>400.80938720703</ele>
        <time>2009-03-08T09:27:16Z</time>
      </trkpt>
      <trkpt lat="43.64496" lon="6.75939">
        <ele>400.8505859375</ele>
        <time>2009-03-08T09:27:19Z</time>
      </trkpt>
      <trkpt lat="43.64498" lon="6.75939">
        <ele>400.93298339844</ele>
        <time>2009-03-08T09:27:23Z</time>
      </trkpt>
      <trkpt lat="43.64503" lon="6.75938">
        <ele>401.37573242188</ele>
        <time>2009-03-08T09:27:29Z</time>
      </trkpt>
      <trkpt lat="43.64509" lon="6.75934">
        <ele>401.99371337891</ele>
        <time>2009-03-08T09:27:35Z</time>
      </trkpt>
      <trkpt lat="43.64511" lon="6.75939">
        <ele>402.15850830078</ele>
        <time>2009-03-08T09:27:41Z</time>
      </trkpt>
      <trkpt lat="43.64512" lon="6.7594">
        <ele>402.28210449219</ele>
        <time>2009-03-08T09:27:55Z</time>
      </trkpt>
      <trkpt lat="43.64513" lon="6.75941">
        <ele>402.36450195312</ele>
        <time>2009-03-08T09:28:07Z</time>
      </trkpt>
      <trkpt lat="43.64514" lon="6.75944">
        <ele>402.529296875</ele>
        <time>2009-03-08T09:28:09Z</time>
      </trkpt>
      <trkpt lat="43.64522" lon="6.75953">
        <ele>403.39447021484</ele>
        <time>2009-03-08T09:28:15Z</time>
      </trkpt>
      <trkpt lat="43.64528" lon="6.75962">
        <ele>404.05364990234</ele>
        <time>2009-03-08T09:28:20Z</time>
      </trkpt>
      <trkpt lat="43.64526" lon="6.75975">
        <ele>404.03314208984</ele>
        <time>2009-03-08T09:28:24Z</time>
      </trkpt>
      <trkpt lat="43.64519" lon="6.75989">
        <ele>404.2666015625</ele>
        <time>2009-03-08T09:28:28Z</time>
      </trkpt>
      <trkpt lat="43.64522" lon="6.76001">
        <ele>405.35327148438</ele>
        <time>2009-03-08T09:28:32Z</time>
      </trkpt>
      <trkpt lat="43.64523" lon="6.76011">
        <ele>405.43566894531</ele>
        <time>2009-03-08T09:28:36Z</time>
      </trkpt>
      <trkpt lat="43.64522" lon="6.76022">
        <ele>405.39447021484</ele>
        <time>2009-03-08T09:28:39Z</time>
      </trkpt>
      <trkpt lat="43.64527" lon="6.76043">
        <ele>405.88885498047</ele>
        <time>2009-03-08T09:28:45Z</time>
      </trkpt>
      <trkpt lat="43.64527" lon="6.76046">
        <ele>405.88885498047</ele>
        <time>2009-03-08T09:28:46Z</time>
      </trkpt>
      <trkpt lat="43.64532" lon="6.76052">
        <ele>406.31042480469</ele>
        <time>2009-03-08T09:28:50Z</time>
      </trkpt>
      <trkpt lat="43.64539" lon="6.76051">
        <ele>406.83227539062</ele>
        <time>2009-03-08T09:28:53Z</time>
      </trkpt>
      <trkpt lat="43.64553" lon="6.76048">
        <ele>407.84851074219</ele>
        <time>2009-03-08T09:28:59Z</time>
      </trkpt>
      <trkpt lat="43.64565" lon="6.76047">
        <ele>408.96752929688</ele>
        <time>2009-03-08T09:29:05Z</time>
      </trkpt>
      <trkpt lat="43.64576" lon="6.76044">
        <ele>410.24468994141</ele>
        <time>2009-03-08T09:29:10Z</time>
      </trkpt>
      <trkpt lat="43.64593" lon="6.76042">
        <ele>412.05743408203</ele>
        <time>2009-03-08T09:29:17Z</time>
      </trkpt>
      <trkpt lat="43.64604" lon="6.76048">
        <ele>413.25219726562</ele>
        <time>2009-03-08T09:29:22Z</time>
      </trkpt>
      <trkpt lat="43.64613" lon="6.76051">
        <ele>414.13317871094</ele>
        <time>2009-03-08T09:29:26Z</time>
      </trkpt>
      <trkpt lat="43.64623" lon="6.76055">
        <ele>414.84729003906</ele>
        <time>2009-03-08T09:29:31Z</time>
      </trkpt>
      <trkpt lat="43.6463" lon="6.76062">
        <ele>415.369140625</ele>
        <time>2009-03-08T09:29:35Z</time>
      </trkpt>
      <trkpt lat="43.64639" lon="6.76068">
        <ele>416.01416015625</ele>
        <time>2009-03-08T09:29:41Z</time>
      </trkpt>
      <trkpt lat="43.64649" lon="6.76077">
        <ele>416.35748291016</ele>
        <time>2009-03-08T09:29:46Z</time>
      </trkpt>
      <trkpt lat="43.6466" lon="6.76094">
        <ele>416.65893554688</ele>
        <time>2009-03-08T09:29:53Z</time>
      </trkpt>
      <trkpt lat="43.64669" lon="6.76116">
        <ele>417.31356811523</ele>
        <time>2009-03-08T09:30:00Z</time>
      </trkpt>
      <trkpt lat="43.64671" lon="6.7613">
        <ele>417.51428222656</ele>
        <time>2009-03-08T09:30:05Z</time>
      </trkpt>
      <trkpt lat="43.64669" lon="6.76139">
        <ele>417.34112548828</ele>
        <time>2009-03-08T09:30:10Z</time>
      </trkpt>
      <trkpt lat="43.6467" lon="6.76155">
        <ele>418.57308959961</ele>
        <time>2009-03-08T09:30:16Z</time>
      </trkpt>
      <trkpt lat="43.64672" lon="6.76178">
        <ele>420.07022094727</ele>
        <time>2009-03-08T09:30:22Z</time>
      </trkpt>
      <trkpt lat="43.64675" lon="6.76196">
        <ele>421.2900390625</ele>
        <time>2009-03-08T09:30:27Z</time>
      </trkpt>
      <trkpt lat="43.64684" lon="6.76213">
        <ele>423.10623168945</ele>
        <time>2009-03-08T09:30:33Z</time>
      </trkpt>
      <trkpt lat="43.64693" lon="6.76225">
        <ele>425.02600097656</ele>
        <time>2009-03-08T09:30:39Z</time>
      </trkpt>
      <trkpt lat="43.64706" lon="6.76235">
        <ele>428.13223266602</ele>
        <time>2009-03-08T09:30:46Z</time>
      </trkpt>
      <trkpt lat="43.64714" lon="6.76241">
        <ele>430.03289794922</ele>
        <time>2009-03-08T09:30:51Z</time>
      </trkpt>
      <trkpt lat="43.64716" lon="6.76242">
        <ele>430.45397949219</ele>
        <time>2009-03-08T09:30:52Z</time>
      </trkpt>
      <trkpt lat="43.64724" lon="6.76251">
        <ele>432.27032470703</ele>
        <time>2009-03-08T09:30:59Z</time>
      </trkpt>
      <trkpt lat="43.64729" lon="6.76258">
        <ele>433.0221862793</ele>
        <time>2009-03-08T09:31:03Z</time>
      </trkpt>
      <trkpt lat="43.6473" lon="6.76269">
        <ele>433.50283813477</ele>
        <time>2009-03-08T09:31:09Z</time>
      </trkpt>
      <trkpt lat="43.64727" lon="6.76282">
        <ele>433.76159667969</ele>
        <time>2009-03-08T09:31:16Z</time>
      </trkpt>
      <trkpt lat="43.64726" lon="6.76286">
        <ele>433.97210693359</ele>
        <time>2009-03-08T09:31:18Z</time>
      </trkpt>
      <trkpt lat="43.64727" lon="6.76304">
        <ele>435.20901489258</ele>
        <time>2009-03-08T09:31:25Z</time>
      </trkpt>
      <trkpt lat="43.64727" lon="6.76318">
        <ele>435.82012939453</ele>
        <time>2009-03-08T09:31:30Z</time>
      </trkpt>
      <trkpt lat="43.64727" lon="6.76334">
        <ele>436.33340454102</ele>
        <time>2009-03-08T09:31:36Z</time>
      </trkpt>
      <trkpt lat="43.64722" lon="6.76351">
        <ele>436.66815185547</ele>
        <time>2009-03-08T09:31:42Z</time>
      </trkpt>
      <trkpt lat="43.64721" lon="6.76365">
        <ele>437.03814697266</ele>
        <time>2009-03-08T09:31:48Z</time>
      </trkpt>
      <trkpt lat="43.64717" lon="6.76377">
        <ele>437.27008056641</ele>
        <time>2009-03-08T09:31:54Z</time>
      </trkpt>
      <trkpt lat="43.64709" lon="6.76393">
        <ele>436.84344482422</ele>
        <time>2009-03-08T09:32:00Z</time>
      </trkpt>
      <trkpt lat="43.64702" lon="6.76409">
        <ele>436.61410522461</ele>
        <time>2009-03-08T09:32:06Z</time>
      </trkpt>
      <trkpt lat="43.647" lon="6.76429">
        <ele>437.24261474609</ele>
        <time>2009-03-08T09:32:12Z</time>
      </trkpt>
      <trkpt lat="43.64699" lon="6.76457">
        <ele>438.72250366211</ele>
        <time>2009-03-08T09:32:21Z</time>
      </trkpt>
      <trkpt lat="43.64698" lon="6.76475">
        <ele>439.69375610352</ele>
        <time>2009-03-08T09:32:27Z</time>
      </trkpt>
      <trkpt lat="43.64693" lon="6.76498">
        <ele>439.69421386719</ele>
        <time>2009-03-08T09:32:34Z</time>
      </trkpt>
      <trkpt lat="43.64687" lon="6.76517">
        <ele>438.54489135742</ele>
        <time>2009-03-08T09:32:40Z</time>
      </trkpt>
      <trkpt lat="43.64682" lon="6.76538">
        <ele>438.19927978516</ele>
        <time>2009-03-08T09:32:47Z</time>
      </trkpt>
      <trkpt lat="43.6468" lon="6.76558">
        <ele>438.45660400391</ele>
        <time>2009-03-08T09:32:53Z</time>
      </trkpt>
      <trkpt lat="43.64676" lon="6.76578">
        <ele>438.19842529297</ele>
        <time>2009-03-08T09:32:59Z</time>
      </trkpt>
      <trkpt lat="43.64674" lon="6.76596">
        <ele>438.7998046875</ele>
        <time>2009-03-08T09:33:04Z</time>
      </trkpt>
      <trkpt lat="43.64671" lon="6.76616">
        <ele>439.60711669922</ele>
        <time>2009-03-08T09:33:09Z</time>
      </trkpt>
      <trkpt lat="43.64671" lon="6.7664">
        <ele>440.42077636719</ele>
        <time>2009-03-08T09:33:14Z</time>
      </trkpt>
      <trkpt lat="43.64674" lon="6.76664">
        <ele>440.75036621094</ele>
        <time>2009-03-08T09:33:19Z</time>
      </trkpt>
      <trkpt lat="43.64687" lon="6.76682">
        <ele>442.7373046875</ele>
        <time>2009-03-08T09:33:25Z</time>
      </trkpt>
      <trkpt lat="43.64709" lon="6.767">
        <ele>446.91683959961</ele>
        <time>2009-03-08T09:33:33Z</time>
      </trkpt>
      <trkpt lat="43.64726" lon="6.76712">
        <ele>450.00900268555</ele>
        <time>2009-03-08T09:33:39Z</time>
      </trkpt>
      <trkpt lat="43.64739" lon="6.7672">
        <ele>451.75137329102</ele>
        <time>2009-03-08T09:33:45Z</time>
      </trkpt>
      <trkpt lat="43.64755" lon="6.76725">
        <ele>453.70092773438</ele>
        <time>2009-03-08T09:33:51Z</time>
      </trkpt>
      <trkpt lat="43.64759" lon="6.76726">
        <ele>454.36010742188</ele>
        <time>2009-03-08T09:33:53Z</time>
      </trkpt>
      <trkpt lat="43.64766" lon="6.76738">
        <ele>455.34887695312</ele>
        <time>2009-03-08T09:33:58Z</time>
      </trkpt>
      <trkpt lat="43.64769" lon="6.76757">
        <ele>455.7333984375</ele>
        <time>2009-03-08T09:34:03Z</time>
      </trkpt>
      <trkpt lat="43.6477" lon="6.7677">
        <ele>455.89819335938</ele>
        <time>2009-03-08T09:34:07Z</time>
      </trkpt>
      <trkpt lat="43.64771" lon="6.7678">
        <ele>456.13732910156</ele>
        <time>2009-03-08T09:34:11Z</time>
      </trkpt>
      <trkpt lat="43.64775" lon="6.76789">
        <ele>456.97503662109</ele>
        <time>2009-03-08T09:34:15Z</time>
      </trkpt>
      <trkpt lat="43.64783" lon="6.76809">
        <ele>458.82080078125</ele>
        <time>2009-03-08T09:34:23Z</time>
      </trkpt>
      <trkpt lat="43.64788" lon="6.76829">
        <ele>459.53491210938</ele>
        <time>2009-03-08T09:34:30Z</time>
      </trkpt>
      <trkpt lat="43.64791" lon="6.76847">
        <ele>460.36611938477</ele>
        <time>2009-03-08T09:34:36Z</time>
      </trkpt>
      <trkpt lat="43.64799" lon="6.76867">
        <ele>462.30603027344</ele>
        <time>2009-03-08T09:34:43Z</time>
      </trkpt>
      <trkpt lat="43.64809" lon="6.76884">
        <ele>464.14953613281</ele>
        <time>2009-03-08T09:34:50Z</time>
      </trkpt>
      <trkpt lat="43.64816" lon="6.76891">
        <ele>465.13488769531</ele>
        <time>2009-03-08T09:34:54Z</time>
      </trkpt>
      <trkpt lat="43.64828" lon="6.76894">
        <ele>466.64721679688</ele>
        <time>2009-03-08T09:35:00Z</time>
      </trkpt>
      <trkpt lat="43.64841" lon="6.76889">
        <ele>468.32073974609</ele>
        <time>2009-03-08T09:35:06Z</time>
      </trkpt>
      <trkpt lat="43.64857" lon="6.7688">
        <ele>470.89569091797</ele>
        <time>2009-03-08T09:35:14Z</time>
      </trkpt>
      <trkpt lat="43.64872" lon="6.76873">
        <ele>473.3796081543</ele>
        <time>2009-03-08T09:35:22Z</time>
      </trkpt>
      <trkpt lat="43.64874" lon="6.76872">
        <ele>473.68518066406</ele>
        <time>2009-03-08T09:35:23Z</time>
      </trkpt>
      <trkpt lat="43.64876" lon="6.76876">
        <ele>474.23104858398</ele>
        <time>2009-03-08T09:35:28Z</time>
      </trkpt>
      <trkpt lat="43.64876" lon="6.76877">
        <ele>474.29971313477</ele>
        <time>2009-03-08T09:35:33Z</time>
      </trkpt>
      <trkpt lat="43.64877" lon="6.76878">
        <ele>474.40615844727</ele>
        <time>2009-03-08T09:35:44Z</time>
      </trkpt>
      <trkpt lat="43.64874" lon="6.76884">
        <ele>474.17440795898</ele>
        <time>2009-03-08T09:35:51Z</time>
      </trkpt>
      <trkpt lat="43.64868" lon="6.76901">
        <ele>473.61993408203</ele>
        <time>2009-03-08T09:35:56Z</time>
      </trkpt>
      <trkpt lat="43.64861" lon="6.76928">
        <ele>473.384765625</ele>
        <time>2009-03-08T09:36:01Z</time>
      </trkpt>
      <trkpt lat="43.64855" lon="6.76945">
        <ele>472.97277832031</ele>
        <time>2009-03-08T09:36:04Z</time>
      </trkpt>
      <trkpt lat="43.64847" lon="6.76957">
        <ele>471.93078613281</ele>
        <time>2009-03-08T09:36:06Z</time>
      </trkpt>
      <trkpt lat="43.6483" lon="6.76979">
        <ele>469.70355224609</ele>
        <time>2009-03-08T09:36:11Z</time>
      </trkpt>
      <trkpt lat="43.64812" lon="6.76998">
        <ele>467.92001342773</ele>
        <time>2009-03-08T09:36:16Z</time>
      </trkpt>
      <trkpt lat="43.648" lon="6.77022">
        <ele>466.66000366211</ele>
        <time>2009-03-08T09:36:20Z</time>
      </trkpt>
      <trkpt lat="43.64793" lon="6.77055">
        <ele>465.20874023438</ele>
        <time>2009-03-08T09:36:25Z</time>
      </trkpt>
      <trkpt lat="43.6479" lon="6.77074">
        <ele>464.71435546875</ele>
        <time>2009-03-08T09:36:28Z</time>
      </trkpt>
      <trkpt lat="43.64789" lon="6.77097">
        <ele>464.46716308594</ele>
        <time>2009-03-08T09:36:34Z</time>
      </trkpt>
      <trkpt lat="43.6479" lon="6.77116">
        <ele>464.54061889648</ele>
        <time>2009-03-08T09:36:38Z</time>
      </trkpt>
      <trkpt lat="43.64789" lon="6.77139">
        <ele>463.87911987305</ele>
        <time>2009-03-08T09:36:41Z</time>
      </trkpt>
      <trkpt lat="43.64792" lon="6.77179">
        <ele>464.88507080078</ele>
        <time>2009-03-08T09:36:45Z</time>
      </trkpt>
      <trkpt lat="43.64794" lon="6.77216">
        <ele>465.7177734375</ele>
        <time>2009-03-08T09:36:49Z</time>
      </trkpt>
      <trkpt lat="43.64801" lon="6.77253">
        <ele>467.65582275391</ele>
        <time>2009-03-08T09:36:53Z</time>
      </trkpt>
      <trkpt lat="43.64808" lon="6.77294">
        <ele>470.03424072266</ele>
        <time>2009-03-08T09:36:58Z</time>
      </trkpt>
      <trkpt lat="43.64809" lon="6.7731">
        <ele>470.37835693359</ele>
        <time>2009-03-08T09:37:01Z</time>
      </trkpt>
      <trkpt lat="43.64803" lon="6.77333">
        <ele>468.15020751953</ele>
        <time>2009-03-08T09:37:05Z</time>
      </trkpt>
      <trkpt lat="43.64796" lon="6.77364">
        <ele>465.30078125</ele>
        <time>2009-03-08T09:37:09Z</time>
      </trkpt>
      <trkpt lat="43.64791" lon="6.7738">
        <ele>462.59024047852</ele>
        <time>2009-03-08T09:37:11Z</time>
      </trkpt>
      <trkpt lat="43.6479" lon="6.77396">
        <ele>461.47860717773</ele>
        <time>2009-03-08T09:37:13Z</time>
      </trkpt>
      <trkpt lat="43.64783" lon="6.77426">
        <ele>457.45318603516</ele>
        <time>2009-03-08T09:37:18Z</time>
      </trkpt>
      <trkpt lat="43.64779" lon="6.77453">
        <ele>454.96133422852</ele>
        <time>2009-03-08T09:37:22Z</time>
      </trkpt>
      <trkpt lat="43.64769" lon="6.77506">
        <ele>449.63659667969</ele>
        <time>2009-03-08T09:37:29Z</time>
      </trkpt>
      <trkpt lat="43.64764" lon="6.77553">
        <ele>447.11456298828</ele>
        <time>2009-03-08T09:37:34Z</time>
      </trkpt>
      <trkpt lat="43.64764" lon="6.77594">
        <ele>445.90698242188</ele>
        <time>2009-03-08T09:37:39Z</time>
      </trkpt>
      <trkpt lat="43.64765" lon="6.77619">
        <ele>445.23788452148</ele>
        <time>2009-03-08T09:37:42Z</time>
      </trkpt>
      <trkpt lat="43.64769" lon="6.77653">
        <ele>444.22616577148</ele>
        <time>2009-03-08T09:37:46Z</time>
      </trkpt>
      <trkpt lat="43.64766" lon="6.77692">
        <ele>442.44088745117</ele>
        <time>2009-03-08T09:37:50Z</time>
      </trkpt>
      <trkpt lat="43.64758" lon="6.77764">
        <ele>435.55859375</ele>
        <time>2009-03-08T09:37:57Z</time>
      </trkpt>
      <trkpt lat="43.64752" lon="6.77808">
        <ele>426.95700073242</ele>
        <time>2009-03-08T09:38:01Z</time>
      </trkpt>
      <trkpt lat="43.64743" lon="6.77864">
        <ele>416.65023803711</ele>
        <time>2009-03-08T09:38:07Z</time>
      </trkpt>
      <trkpt lat="43.6474" lon="6.77885">
        <ele>409.5915222168</ele>
        <time>2009-03-08T09:38:09Z</time>
      </trkpt>
      <trkpt lat="43.64743" lon="6.77922">
        <ele>399.74426269531</ele>
        <time>2009-03-08T09:38:13Z</time>
      </trkpt>
      <trkpt lat="43.64739" lon="6.77932">
        <ele>397.92098999023</ele>
        <time>2009-03-08T09:38:16Z</time>
      </trkpt>
      <trkpt lat="43.6473" lon="6.77923">
        <ele>401.19134521484</ele>
        <time>2009-03-08T09:38:19Z</time>
      </trkpt>
      <trkpt lat="43.64717" lon="6.77915">
        <ele>405.8447265625</ele>
        <time>2009-03-08T09:38:23Z</time>
      </trkpt>
      <trkpt lat="43.64706" lon="6.77908">
        <ele>410.52420043945</ele>
        <time>2009-03-08T09:38:27Z</time>
      </trkpt>
      <trkpt lat="43.64704" lon="6.77907">
        <ele>411.47177124023</ele>
        <time>2009-03-08T09:38:28Z</time>
      </trkpt>
      <trkpt lat="43.64701" lon="6.77906">
        <ele>412.29229736328</ele>
        <time>2009-03-08T09:38:33Z</time>
      </trkpt>
      <trkpt lat="43.647" lon="6.77907">
        <ele>412.63906860352</ele>
        <time>2009-03-08T09:38:43Z</time>
      </trkpt>
      <trkpt lat="43.64699" lon="6.77908">
        <ele>412.52233886719</ele>
        <time>2009-03-08T09:38:57Z</time>
      </trkpt>
      <trkpt lat="43.647" lon="6.77908">
        <ele>412.14123535156</ele>
        <time>2009-03-08T09:39:04Z</time>
      </trkpt>
      <trkpt lat="43.647" lon="6.77909">
        <ele>411.89404296875</ele>
        <time>2009-03-08T09:39:11Z</time>
      </trkpt>
      <trkpt lat="43.647" lon="6.77915">
        <ele>410.69927978516</ele>
        <time>2009-03-08T09:39:58Z</time>
      </trkpt>
      <trkpt lat="43.64701" lon="6.77915">
        <ele>410.51733398438</ele>
        <time>2009-03-08T09:41:22Z</time>
      </trkpt>
      <trkpt lat="43.64701" lon="6.77915">
        <ele>410.50701904297</ele>
        <time>2009-03-08T09:41:23Z</time>
      </trkpt>
      <trkpt lat="43.64701" lon="6.77909">
        <ele>411.63656616211</ele>
        <time>2009-03-08T09:43:49Z</time>
      </trkpt>
      <trkpt lat="43.64699" lon="6.7791">
        <ele>412.12066650391</ele>
        <time>2009-03-08T09:45:18Z</time>
      </trkpt>
      <trkpt lat="43.64699" lon="6.7791">
        <ele>412.13095092773</ele>
        <time>2009-03-08T09:45:19Z</time>
      </trkpt>
      <trkpt lat="43.647" lon="6.77909">
        <ele>411.87347412109</ele>
        <time>2009-03-08T09:45:39Z</time>
      </trkpt>
      <trkpt lat="43.647" lon="6.77909">
        <ele>411.88375854492</ele>
        <time>2009-03-08T09:45:40Z</time>
      </trkpt>
      <trkpt lat="43.647" lon="6.7791">
        <ele>411.87002563477</ele>
        <time>2009-03-08T09:46:23Z</time>
      </trkpt>
      <trkpt lat="43.64699" lon="6.7791">
        <ele>412.0485534668</ele>
        <time>2009-03-08T09:46:42Z</time>
      </trkpt>
      <trkpt lat="43.64699" lon="6.7791">
        <ele>412.0485534668</ele>
        <time>2009-03-08T09:46:50Z</time>
      </trkpt>
      <trkpt lat="43.64701" lon="6.7791">
        <ele>411.69149780273</ele>
        <time>2009-03-08T09:47:10Z</time>
      </trkpt>
      <trkpt lat="43.647" lon="6.77909">
        <ele>412.04510498047</ele>
        <time>2009-03-08T09:48:03Z</time>
      </trkpt>
      <trkpt lat="43.647" lon="6.77909">
        <ele>412.24768066406</ele>
        <time>2009-03-08T09:48:10Z</time>
      </trkpt>
      <trkpt lat="43.64699" lon="6.77908">
        <ele>412.63220214844</ele>
        <time>2009-03-08T09:48:11Z</time>
      </trkpt>
      <trkpt lat="43.64694" lon="6.77899">
        <ele>415.84002685547</ele>
        <time>2009-03-08T09:48:17Z</time>
      </trkpt>
      <trkpt lat="43.64693" lon="6.77897">
        <ele>416.4736328125</ele>
        <time>2009-03-08T09:48:18Z</time>
      </trkpt>
      <trkpt lat="43.6469" lon="6.77879">
        <ele>419.38458251953</ele>
        <time>2009-03-08T09:48:24Z</time>
      </trkpt>
      <trkpt lat="43.6469" lon="6.77876">
        <ele>419.62701416016</ele>
        <time>2009-03-08T09:48:25Z</time>
      </trkpt>
      <trkpt lat="43.64688" lon="6.77861">
        <ele>420.97509765625</ele>
        <time>2009-03-08T09:48:31Z</time>
      </trkpt>
      <trkpt lat="43.64687" lon="6.7786">
        <ele>421.03430175781</ele>
        <time>2009-03-08T09:48:32Z</time>
      </trkpt>
      <trkpt lat="43.6468" lon="6.77846">
        <ele>421.2619934082</ele>
        <time>2009-03-08T09:48:40Z</time>
      </trkpt>
      <trkpt lat="43.64671" lon="6.77833">
        <ele>421.14514160156</ele>
        <time>2009-03-08T09:48:44Z</time>
      </trkpt>
      <trkpt lat="43.64656" lon="6.77811">
        <ele>421.50927734375</ele>
        <time>2009-03-08T09:48:48Z</time>
      </trkpt>
      <trkpt lat="43.64653" lon="6.77805">
        <ele>421.52227783203</ele>
        <time>2009-03-08T09:48:49Z</time>
      </trkpt>
      <trkpt lat="43.64636" lon="6.77789">
        <ele>421</ele>
        <time>2009-03-08T09:48:53Z</time>
      </trkpt>
      <trkpt lat="43.64613" lon="6.77781">
        <ele>421</ele>
        <time>2009-03-08T09:48:58Z</time>
      </trkpt>
      <trkpt lat="43.64606" lon="6.7778">
        <ele>420.84539794922</ele>
        <time>2009-03-08T09:49:00Z</time>
      </trkpt>
      <trkpt lat="43.64602" lon="6.77784">
        <ele>420.7321472168</ele>
        <time>2009-03-08T09:49:05Z</time>
      </trkpt>
      <trkpt lat="43.64598" lon="6.77788">
        <ele>420.70874023438</ele>
        <time>2009-03-08T09:49:09Z</time>
      </trkpt>
      <trkpt lat="43.64592" lon="6.77799">
        <ele>420.83804321289</ele>
        <time>2009-03-08T09:49:14Z</time>
      </trkpt>
      <trkpt lat="43.64583" lon="6.77803">
        <ele>420.90328979492</ele>
        <time>2009-03-08T09:49:18Z</time>
      </trkpt>
      <trkpt lat="43.64572" lon="6.77809">
        <ele>420.21994018555</ele>
        <time>2009-03-08T09:49:22Z</time>
      </trkpt>
      <trkpt lat="43.64561" lon="6.77815">
        <ele>419.697265625</ele>
        <time>2009-03-08T09:49:27Z</time>
      </trkpt>
      <trkpt lat="43.64549" lon="6.77831">
        <ele>418.93496704102</ele>
        <time>2009-03-08T09:49:33Z</time>
      </trkpt>
      <trkpt lat="43.64545" lon="6.7784">
        <ele>418.85653686523</ele>
        <time>2009-03-08T09:49:35Z</time>
      </trkpt>
      <trkpt lat="43.64527" lon="6.77863">
        <ele>417.92962646484</ele>
        <time>2009-03-08T09:49:41Z</time>
      </trkpt>
      <trkpt lat="43.64521" lon="6.77871">
        <ele>416.6217956543</ele>
        <time>2009-03-08T09:49:43Z</time>
      </trkpt>
      <trkpt lat="43.64508" lon="6.77881">
        <ele>413.5788269043</ele>
        <time>2009-03-08T09:49:46Z</time>
      </trkpt>
      <trkpt lat="43.64494" lon="6.77895">
        <ele>410.82919311523</ele>
        <time>2009-03-08T09:49:51Z</time>
      </trkpt>
      <trkpt lat="43.64487" lon="6.77898">
        <ele>408.94079589844</ele>
        <time>2009-03-08T09:49:53Z</time>
      </trkpt>
      <trkpt lat="43.64472" lon="6.779">
        <ele>405.07641601562</ele>
        <time>2009-03-08T09:49:58Z</time>
      </trkpt>
      <trkpt lat="43.6446" lon="6.77904">
        <ele>403.0993347168</ele>
        <time>2009-03-08T09:50:03Z</time>
      </trkpt>
      <trkpt lat="43.64453" lon="6.77906">
        <ele>401.75451660156</ele>
        <time>2009-03-08T09:50:05Z</time>
      </trkpt>
      <trkpt lat="43.64447" lon="6.77907">
        <ele>400.62985229492</ele>
        <time>2009-03-08T09:50:07Z</time>
      </trkpt>
      <trkpt lat="43.64431" lon="6.77912">
        <ele>400</ele>
        <time>2009-03-08T09:50:12Z</time>
      </trkpt>
      <trkpt lat="43.64419" lon="6.77923">
        <ele>400</ele>
        <time>2009-03-08T09:50:16Z</time>
      </trkpt>
      <trkpt lat="43.64415" lon="6.77924">
        <ele>400</ele>
        <time>2009-03-08T09:50:17Z</time>
      </trkpt>
      <trkpt lat="43.64393" lon="6.77925">
        <ele>400</ele>
        <time>2009-03-08T09:50:22Z</time>
      </trkpt>
      <trkpt lat="43.64375" lon="6.77913">
        <ele>399.51098632812</ele>
        <time>2009-03-08T09:50:27Z</time>
      </trkpt>
      <trkpt lat="43.64368" lon="6.77909">
        <ele>399.26379394531</ele>
        <time>2009-03-08T09:50:30Z</time>
      </trkpt>
      <trkpt lat="43.64364" lon="6.77924">
        <ele>399.09899902344</ele>
        <time>2009-03-08T09:50:33Z</time>
      </trkpt>
      <trkpt lat="43.64354" lon="6.77958">
        <ele>398.72821044922</ele>
        <time>2009-03-08T09:50:39Z</time>
      </trkpt>
      <trkpt lat="43.64351" lon="6.77972">
        <ele>398.61834716797</ele>
        <time>2009-03-08T09:50:41Z</time>
      </trkpt>
      <trkpt lat="43.64348" lon="6.77992">
        <ele>398.53594970703</ele>
        <time>2009-03-08T09:50:44Z</time>
      </trkpt>
      <trkpt lat="43.64345" lon="6.7801">
        <ele>398.41235351562</ele>
        <time>2009-03-08T09:50:47Z</time>
      </trkpt>
      <trkpt lat="43.64345" lon="6.7802">
        <ele>398.41235351562</ele>
        <time>2009-03-08T09:50:49Z</time>
      </trkpt>
      <trkpt lat="43.64344" lon="6.78033">
        <ele>398.39862060547</ele>
        <time>2009-03-08T09:50:56Z</time>
      </trkpt>
      <trkpt lat="43.64343" lon="6.7805">
        <ele>398.357421875</ele>
        <time>2009-03-08T09:51:01Z</time>
      </trkpt>
      <trkpt lat="43.64342" lon="6.78061">
        <ele>398.31622314453</ele>
        <time>2009-03-08T09:51:04Z</time>
      </trkpt>
      <trkpt lat="43.64342" lon="6.78086">
        <ele>398.32995605469</ele>
        <time>2009-03-08T09:51:10Z</time>
      </trkpt>
      <trkpt lat="43.64339" lon="6.78108">
        <ele>398.22009277344</ele>
        <time>2009-03-08T09:51:15Z</time>
      </trkpt>
      <trkpt lat="43.64339" lon="6.78115">
        <ele>398.22009277344</ele>
        <time>2009-03-08T09:51:17Z</time>
      </trkpt>
      <trkpt lat="43.64336" lon="6.78134">
        <ele>398.09649658203</ele>
        <time>2009-03-08T09:51:22Z</time>
      </trkpt>
      <trkpt lat="43.64328" lon="6.78155">
        <ele>397.80810546875</ele>
        <time>2009-03-08T09:51:27Z</time>
      </trkpt>
      <trkpt lat="43.6432" lon="6.78176">
        <ele>397.00009155273</ele>
        <time>2009-03-08T09:51:32Z</time>
      </trkpt>
      <trkpt lat="43.64307" lon="6.7821">
        <ele>394.85186767578</ele>
        <time>2009-03-08T09:51:38Z</time>
      </trkpt>
      <trkpt lat="43.64307" lon="6.78218">
        <ele>394.27111816406</ele>
        <time>2009-03-08T09:51:40Z</time>
      </trkpt>
      <trkpt lat="43.64306" lon="6.78239">
        <ele>391.53707885742</ele>
        <time>2009-03-08T09:51:46Z</time>
      </trkpt>
      <trkpt lat="43.64308" lon="6.78251">
        <ele>389.59460449219</ele>
        <time>2009-03-08T09:51:50Z</time>
      </trkpt>
      <trkpt lat="43.64309" lon="6.78253">
        <ele>389.12225341797</ele>
        <time>2009-03-08T09:51:51Z</time>
      </trkpt>
      <trkpt lat="43.6431" lon="6.78259">
        <ele>388.13604736328</ele>
        <time>2009-03-08T09:51:53Z</time>
      </trkpt>
      <trkpt lat="43.64304" lon="6.78274">
        <ele>386.64059448242</ele>
        <time>2009-03-08T09:52:00Z</time>
      </trkpt>
      <trkpt lat="43.64297" lon="6.7829">
        <ele>385.10101318359</ele>
        <time>2009-03-08T09:52:06Z</time>
      </trkpt>
      <trkpt lat="43.64293" lon="6.78311">
        <ele>383.07955932617</ele>
        <time>2009-03-08T09:52:12Z</time>
      </trkpt>
      <trkpt lat="43.64287" lon="6.78322">
        <ele>382.05422973633</ele>
        <time>2009-03-08T09:52:17Z</time>
      </trkpt>
      <trkpt lat="43.64277" lon="6.78328">
        <ele>382.67395019531</ele>
        <time>2009-03-08T09:52:22Z</time>
      </trkpt>
      <trkpt lat="43.64267" lon="6.78332">
        <ele>382.95376586914</ele>
        <time>2009-03-08T09:52:27Z</time>
      </trkpt>
      <trkpt lat="43.64253" lon="6.7834">
        <ele>382.96936035156</ele>
        <time>2009-03-08T09:52:34Z</time>
      </trkpt>
      <trkpt lat="43.64237" lon="6.78351">
        <ele>382.84320068359</ele>
        <time>2009-03-08T09:52:42Z</time>
      </trkpt>
      <trkpt lat="43.6422" lon="6.7836">
        <ele>383.16967773438</ele>
        <time>2009-03-08T09:52:51Z</time>
      </trkpt>
      <trkpt lat="43.64204" lon="6.78365">
        <ele>383.47598266602</ele>
        <time>2009-03-08T09:52:57Z</time>
      </trkpt>
      <trkpt lat="43.64185" lon="6.78373">
        <ele>383.88616943359</ele>
        <time>2009-03-08T09:53:04Z</time>
      </trkpt>
      <trkpt lat="43.6417" lon="6.78379">
        <ele>384.20202636719</ele>
        <time>2009-03-08T09:53:10Z</time>
      </trkpt>
      <trkpt lat="43.64152" lon="6.7839">
        <ele>383.92431640625</ele>
        <time>2009-03-08T09:53:15Z</time>
      </trkpt>
      <trkpt lat="43.64132" lon="6.78402">
        <ele>383.51275634766</ele>
        <time>2009-03-08T09:53:20Z</time>
      </trkpt>
      <trkpt lat="43.64122" lon="6.78406">
        <ele>383.38571166992</ele>
        <time>2009-03-08T09:53:22Z</time>
      </trkpt>
      <trkpt lat="43.64108" lon="6.78414">
        <ele>383.08471679688</ele>
        <time>2009-03-08T09:53:25Z</time>
      </trkpt>
      <trkpt lat="43.64081" lon="6.78425">
        <ele>382.64807128906</ele>
        <time>2009-03-08T09:53:30Z</time>
      </trkpt>
      <trkpt lat="43.6405" lon="6.7844">
        <ele>382</ele>
        <time>2009-03-08T09:53:35Z</time>
      </trkpt>
      <trkpt lat="43.64009" lon="6.78457">
        <ele>381.18255615234</ele>
        <time>2009-03-08T09:53:41Z</time>
      </trkpt>
      <trkpt lat="43.63999" lon="6.7846">
        <ele>380.97033691406</ele>
        <time>2009-03-08T09:53:43Z</time>
      </trkpt>
      <trkpt lat="43.63982" lon="6.7847">
        <ele>380.33862304688</ele>
        <time>2009-03-08T09:53:46Z</time>
      </trkpt>
      <trkpt lat="43.63971" lon="6.78473">
        <ele>379.85992431641</ele>
        <time>2009-03-08T09:53:48Z</time>
      </trkpt>
      <trkpt lat="43.63964" lon="6.78463">
        <ele>379.18475341797</ele>
        <time>2009-03-08T09:53:51Z</time>
      </trkpt>
      <trkpt lat="43.6396" lon="6.78444">
        <ele>379.09188842773</ele>
        <time>2009-03-08T09:53:56Z</time>
      </trkpt>
      <trkpt lat="43.6396" lon="6.78442">
        <ele>379.13189697266</ele>
        <time>2009-03-08T09:53:57Z</time>
      </trkpt>
      <trkpt lat="43.6396" lon="6.78443">
        <ele>379.13290405273</ele>
        <time>2009-03-08T09:54:05Z</time>
      </trkpt>
      <trkpt lat="43.63958" lon="6.78444">
        <ele>379.01577758789</ele>
        <time>2009-03-08T09:54:12Z</time>
      </trkpt>
      <trkpt lat="43.6396" lon="6.7844">
        <ele>379.16168212891</ele>
        <time>2009-03-08T09:54:20Z</time>
      </trkpt>
      <trkpt lat="43.63961" lon="6.78424">
        <ele>379.58840942383</ele>
        <time>2009-03-08T09:54:24Z</time>
      </trkpt>
      <trkpt lat="43.63959" lon="6.78395">
        <ele>379.92694091797</ele>
        <time>2009-03-08T09:54:29Z</time>
      </trkpt>
      <trkpt lat="43.63959" lon="6.78376">
        <ele>380.029296875</ele>
        <time>2009-03-08T09:54:32Z</time>
      </trkpt>
      <trkpt lat="43.63954" lon="6.78351">
        <ele>379.93139648438</ele>
        <time>2009-03-08T09:54:38Z</time>
      </trkpt>
      <trkpt lat="43.6395" lon="6.78334">
        <ele>380.20181274414</ele>
        <time>2009-03-08T09:54:42Z</time>
      </trkpt>
      <trkpt lat="43.63943" lon="6.7833">
        <ele>379.93518066406</ele>
        <time>2009-03-08T09:54:44Z</time>
      </trkpt>
      <trkpt lat="43.63922" lon="6.78328">
        <ele>378.53079223633</ele>
        <time>2009-03-08T09:54:48Z</time>
      </trkpt>
      <trkpt lat="43.63895" lon="6.7833">
        <ele>377.3466796875</ele>
        <time>2009-03-08T09:54:53Z</time>
      </trkpt>
      <trkpt lat="43.63872" lon="6.78334">
        <ele>376.98123168945</ele>
        <time>2009-03-08T09:54:58Z</time>
      </trkpt>
      <trkpt lat="43.63867" lon="6.78334">
        <ele>376.98123168945</ele>
        <time>2009-03-08T09:54:59Z</time>
      </trkpt>
      <trkpt lat="43.63842" lon="6.78331">
        <ele>377.89727783203</ele>
        <time>2009-03-08T09:55:04Z</time>
      </trkpt>
      <trkpt lat="43.63827" lon="6.78338">
        <ele>377.72229003906</ele>
        <time>2009-03-08T09:55:08Z</time>
      </trkpt>
      <trkpt lat="43.6381" lon="6.78348">
        <ele>377.25366210938</ele>
        <time>2009-03-08T09:55:13Z</time>
      </trkpt>
      <trkpt lat="43.63787" lon="6.78354">
        <ele>376.23208618164</ele>
        <time>2009-03-08T09:55:20Z</time>
      </trkpt>
      <trkpt lat="43.63773" lon="6.78354">
        <ele>376.08969116211</ele>
        <time>2009-03-08T09:55:25Z</time>
      </trkpt>
      <trkpt lat="43.63762" lon="6.78351">
        <ele>376.71823120117</ele>
        <time>2009-03-08T09:55:29Z</time>
      </trkpt>
      <trkpt lat="43.63757" lon="6.78346">
        <ele>377.62295532227</ele>
        <time>2009-03-08T09:55:32Z</time>
      </trkpt>
      <trkpt lat="43.63746" lon="6.78342">
        <ele>378.5071105957</ele>
        <time>2009-03-08T09:55:37Z</time>
      </trkpt>
      <trkpt lat="43.63731" lon="6.78334">
        <ele>379.94906616211</ele>
        <time>2009-03-08T09:55:43Z</time>
      </trkpt>
      <trkpt lat="43.63731" lon="6.78332">
        <ele>380.03100585938</ele>
        <time>2009-03-08T09:55:47Z</time>
      </trkpt>
      <trkpt lat="43.63728" lon="6.78328">
        <ele>380.18551635742</ele>
        <time>2009-03-08T09:55:54Z</time>
      </trkpt>
      <trkpt lat="43.63712" lon="6.78318">
        <ele>380.54598999023</ele>
        <time>2009-03-08T09:56:00Z</time>
      </trkpt>
      <trkpt lat="43.63693" lon="6.78306">
        <ele>380.99099731445</ele>
        <time>2009-03-08T09:56:06Z</time>
      </trkpt>
      <trkpt lat="43.6368" lon="6.78296">
        <ele>381.33221435547</ele>
        <time>2009-03-08T09:56:10Z</time>
      </trkpt>
      <trkpt lat="43.63663" lon="6.78283">
        <ele>381.53601074219</ele>
        <time>2009-03-08T09:56:15Z</time>
      </trkpt>
      <trkpt lat="43.63637" lon="6.78264">
        <ele>380.91619873047</ele>
        <time>2009-03-08T09:56:22Z</time>
      </trkpt>
      <trkpt lat="43.63624" lon="6.7826">
        <ele>380.76858520508</ele>
        <time>2009-03-08T09:56:25Z</time>
      </trkpt>
      <trkpt lat="43.63608" lon="6.78253">
        <ele>380.53909301758</ele>
        <time>2009-03-08T09:56:28Z</time>
      </trkpt>
      <trkpt lat="43.63588" lon="6.78242">
        <ele>379.63366699219</ele>
        <time>2009-03-08T09:56:32Z</time>
      </trkpt>
      <trkpt lat="43.63559" lon="6.7823">
        <ele>378.86831665039</ele>
        <time>2009-03-08T09:56:39Z</time>
      </trkpt>
      <trkpt lat="43.6355" lon="6.78227">
        <ele>378.77600097656</ele>
        <time>2009-03-08T09:56:41Z</time>
      </trkpt>
      <trkpt lat="43.63528" lon="6.78223">
        <ele>378.93817138672</ele>
        <time>2009-03-08T09:56:46Z</time>
      </trkpt>
      <trkpt lat="43.6352" lon="6.78218">
        <ele>380.02526855469</ele>
        <time>2009-03-08T09:56:48Z</time>
      </trkpt>
      <trkpt lat="43.63502" lon="6.78211">
        <ele>382.56674194336</ele>
        <time>2009-03-08T09:56:53Z</time>
      </trkpt>
      <trkpt lat="43.6349" lon="6.78213">
        <ele>384.80404663086</ele>
        <time>2009-03-08T09:56:57Z</time>
      </trkpt>
      <trkpt lat="43.63465" lon="6.78215">
        <ele>388.99877929688</ele>
        <time>2009-03-08T09:57:04Z</time>
      </trkpt>
      <trkpt lat="43.63447" lon="6.78213">
        <ele>391.07586669922</ele>
        <time>2009-03-08T09:57:10Z</time>
      </trkpt>
      <trkpt lat="43.63426" lon="6.78211">
        <ele>391.41696166992</ele>
        <time>2009-03-08T09:57:17Z</time>
      </trkpt>
      <trkpt lat="43.63399" lon="6.78207">
        <ele>391.56286621094</ele>
        <time>2009-03-08T09:57:24Z</time>
      </trkpt>
      <trkpt lat="43.63379" lon="6.78201">
        <ele>391.37344360352</ele>
        <time>2009-03-08T09:57:29Z</time>
      </trkpt>
      <trkpt lat="43.63361" lon="6.78202">
        <ele>390.74859619141</ele>
        <time>2009-03-08T09:57:33Z</time>
      </trkpt>
      <trkpt lat="43.63346" lon="6.78203">
        <ele>390.15292358398</ele>
        <time>2009-03-08T09:57:37Z</time>
      </trkpt>
      <trkpt lat="43.63319" lon="6.78205">
        <ele>388.58178710938</ele>
        <time>2009-03-08T09:57:42Z</time>
      </trkpt>
      <trkpt lat="43.63294" lon="6.78195">
        <ele>386.72299194336</ele>
        <time>2009-03-08T09:57:47Z</time>
      </trkpt>
      <trkpt lat="43.63287" lon="6.78189">
        <ele>386.22189331055</ele>
        <time>2009-03-08T09:57:50Z</time>
      </trkpt>
      <trkpt lat="43.63272" lon="6.7819">
        <ele>384.78198242188</ele>
        <time>2009-03-08T09:57:56Z</time>
      </trkpt>
      <trkpt lat="43.63261" lon="6.78191">
        <ele>383.95971679688</ele>
        <time>2009-03-08T09:58:00Z</time>
      </trkpt>
      <trkpt lat="43.63249" lon="6.78181">
        <ele>383.42846679688</ele>
        <time>2009-03-08T09:58:05Z</time>
      </trkpt>
      <trkpt lat="43.63243" lon="6.78173">
        <ele>383.34274291992</ele>
        <time>2009-03-08T09:58:08Z</time>
      </trkpt>
      <trkpt lat="43.63241" lon="6.78174">
        <ele>383.18881225586</ele>
        <time>2009-03-08T09:58:20Z</time>
      </trkpt>
      <trkpt lat="43.63237" lon="6.78173">
        <ele>382.9377746582</ele>
        <time>2009-03-08T09:58:26Z</time>
      </trkpt>
      <trkpt lat="43.63235" lon="6.78172">
        <ele>382.86059570312</ele>
        <time>2009-03-08T09:58:27Z</time>
      </trkpt>
      <trkpt lat="43.63222" lon="6.78167">
        <ele>382</ele>
        <time>2009-03-08T09:58:32Z</time>
      </trkpt>
      <trkpt lat="43.63203" lon="6.78161">
        <ele>382</ele>
        <time>2009-03-08T09:58:37Z</time>
      </trkpt>
      <trkpt lat="43.63193" lon="6.78148">
        <ele>382</ele>
        <time>2009-03-08T09:58:40Z</time>
      </trkpt>
      <trkpt lat="43.63191" lon="6.78141">
        <ele>382</ele>
        <time>2009-03-08T09:58:41Z</time>
      </trkpt>
      <trkpt lat="43.63169" lon="6.78114">
        <ele>381.18075561523</ele>
        <time>2009-03-08T09:58:46Z</time>
      </trkpt>
      <trkpt lat="43.63154" lon="6.78097">
        <ele>379.55035400391</ele>
        <time>2009-03-08T09:58:49Z</time>
      </trkpt>
      <trkpt lat="43.63133" lon="6.78061">
        <ele>376.76208496094</ele>
        <time>2009-03-08T09:58:54Z</time>
      </trkpt>
      <trkpt lat="43.63124" lon="6.78045">
        <ele>375.73257446289</ele>
        <time>2009-03-08T09:58:56Z</time>
      </trkpt>
      <trkpt lat="43.631" lon="6.78015">
        <ele>374.20373535156</ele>
        <time>2009-03-08T09:59:00Z</time>
      </trkpt>
      <trkpt lat="43.6307" lon="6.78001">
        <ele>372.47897338867</ele>
        <time>2009-03-08T09:59:04Z</time>
      </trkpt>
      <trkpt lat="43.63042" lon="6.78005">
        <ele>370.49169921875</ele>
        <time>2009-03-08T09:59:08Z</time>
      </trkpt>
      <trkpt lat="43.63026" lon="6.78017">
        <ele>368.96240234375</ele>
        <time>2009-03-08T09:59:11Z</time>
      </trkpt>
      <trkpt lat="43.63005" lon="6.7803">
        <ele>368.09844970703</ele>
        <time>2009-03-08T09:59:15Z</time>
      </trkpt>
      <trkpt lat="43.62999" lon="6.78031">
        <ele>367.82247924805</ele>
        <time>2009-03-08T09:59:16Z</time>
      </trkpt>
      <trkpt lat="43.62981" lon="6.78034">
        <ele>366.38052368164</ele>
        <time>2009-03-08T09:59:19Z</time>
      </trkpt>
      <trkpt lat="43.62966" lon="6.78041">
        <ele>365.30285644531</ele>
        <time>2009-03-08T09:59:21Z</time>
      </trkpt>
      <trkpt lat="43.62949" lon="6.78069">
        <ele>363.74807739258</ele>
        <time>2009-03-08T09:59:25Z</time>
      </trkpt>
      <trkpt lat="43.6294" lon="6.78082">
        <ele>362.8600769043</ele>
        <time>2009-03-08T09:59:27Z</time>
      </trkpt>
      <trkpt lat="43.62922" lon="6.78108">
        <ele>361.30999755859</ele>
        <time>2009-03-08T09:59:31Z</time>
      </trkpt>
      <trkpt lat="43.62912" lon="6.78116">
        <ele>361</ele>
        <time>2009-03-08T09:59:34Z</time>
      </trkpt>
      <trkpt lat="43.62902" lon="6.7814">
        <ele>360.89450073242</ele>
        <time>2009-03-08T09:59:38Z</time>
      </trkpt>
      <trkpt lat="43.62898" lon="6.78146">
        <ele>360.49624633789</ele>
        <time>2009-03-08T09:59:39Z</time>
      </trkpt>
      <trkpt lat="43.62881" lon="6.78172">
        <ele>358.05667114258</ele>
        <time>2009-03-08T09:59:43Z</time>
      </trkpt>
      <trkpt lat="43.62867" lon="6.782">
        <ele>353.01727294922</ele>
        <time>2009-03-08T09:59:47Z</time>
      </trkpt>
      <trkpt lat="43.62851" lon="6.78214">
        <ele>351.79620361328</ele>
        <time>2009-03-08T09:59:50Z</time>
      </trkpt>
      <trkpt lat="43.62831" lon="6.78233">
        <ele>350.24908447266</ele>
        <time>2009-03-08T09:59:53Z</time>
      </trkpt>
      <trkpt lat="43.62795" lon="6.78265">
        <ele>348.78796386719</ele>
        <time>2009-03-08T09:59:59Z</time>
      </trkpt>
      <trkpt lat="43.62773" lon="6.78284">
        <ele>348.56631469727</ele>
        <time>2009-03-08T10:00:03Z</time>
      </trkpt>
      <trkpt lat="43.62759" lon="6.78295">
        <ele>348.26885986328</ele>
        <time>2009-03-08T10:00:06Z</time>
      </trkpt>
      <trkpt lat="43.6274" lon="6.78315">
        <ele>347.03350830078</ele>
        <time>2009-03-08T10:00:11Z</time>
      </trkpt>
      <trkpt lat="43.62717" lon="6.78346">
        <ele>342.67456054688</ele>
        <time>2009-03-08T10:00:16Z</time>
      </trkpt>
      <trkpt lat="43.6271" lon="6.78362">
        <ele>339.83901977539</ele>
        <time>2009-03-08T10:00:18Z</time>
      </trkpt>
      <trkpt lat="43.62701" lon="6.78385">
        <ele>337.24151611328</ele>
        <time>2009-03-08T10:00:22Z</time>
      </trkpt>
      <trkpt lat="43.62689" lon="6.784">
        <ele>335.40432739258</ele>
        <time>2009-03-08T10:00:26Z</time>
      </trkpt>
      <trkpt lat="43.62681" lon="6.78406">
        <ele>335.12088012695</ele>
        <time>2009-03-08T10:00:28Z</time>
      </trkpt>
      <trkpt lat="43.62661" lon="6.78411">
        <ele>336.29769897461</ele>
        <time>2009-03-08T10:00:33Z</time>
      </trkpt>
      <trkpt lat="43.62652" lon="6.78415">
        <ele>336.79257202148</ele>
        <time>2009-03-08T10:00:37Z</time>
      </trkpt>
      <trkpt lat="43.62648" lon="6.78414">
        <ele>337.26232910156</ele>
        <time>2009-03-08T10:00:38Z</time>
      </trkpt>
      <trkpt lat="43.62632" lon="6.78407">
        <ele>339.03790283203</ele>
        <time>2009-03-08T10:00:42Z</time>
      </trkpt>
      <trkpt lat="43.62618" lon="6.78401">
        <ele>339.7878112793</ele>
        <time>2009-03-08T10:00:46Z</time>
      </trkpt>
      <trkpt lat="43.62607" lon="6.78403">
        <ele>340.3493347168</ele>
        <time>2009-03-08T10:00:50Z</time>
      </trkpt>
      <trkpt lat="43.62607" lon="6.78405">
        <ele>340.37353515625</ele>
        <time>2009-03-08T10:00:51Z</time>
      </trkpt>
      <trkpt lat="43.62609" lon="6.78422">
        <ele>340.05813598633</ele>
        <time>2009-03-08T10:00:57Z</time>
      </trkpt>
      <trkpt lat="43.62616" lon="6.78439">
        <ele>338.83447265625</ele>
        <time>2009-03-08T10:01:02Z</time>
      </trkpt>
      <trkpt lat="43.6262" lon="6.78454">
        <ele>339.26068115234</ele>
        <time>2009-03-08T10:01:07Z</time>
      </trkpt>
      <trkpt lat="43.62625" lon="6.78463">
        <ele>339.68667602539</ele>
        <time>2009-03-08T10:01:11Z</time>
      </trkpt>
      <trkpt lat="43.62627" lon="6.78478">
        <ele>341.810546875</ele>
        <time>2009-03-08T10:01:16Z</time>
      </trkpt>
      <trkpt lat="43.62627" lon="6.78481">
        <ele>342.35601806641</ele>
        <time>2009-03-08T10:01:17Z</time>
      </trkpt>
      <trkpt lat="43.62628" lon="6.78489">
        <ele>344.08578491211</ele>
        <time>2009-03-08T10:01:20Z</time>
      </trkpt>
      <trkpt lat="43.6263" lon="6.78509">
        <ele>348.73147583008</ele>
        <time>2009-03-08T10:01:27Z</time>
      </trkpt>
      <trkpt lat="43.62634" lon="6.78526">
        <ele>352.18515014648</ele>
        <time>2009-03-08T10:01:32Z</time>
      </trkpt>
      <trkpt lat="43.6264" lon="6.78549">
        <ele>353.748046875</ele>
        <time>2009-03-08T10:01:39Z</time>
      </trkpt>
      <trkpt lat="43.62644" lon="6.78568">
        <ele>354.36349487305</ele>
        <time>2009-03-08T10:01:45Z</time>
      </trkpt>
      <trkpt lat="43.62647" lon="6.78591">
        <ele>354.84991455078</ele>
        <time>2009-03-08T10:01:52Z</time>
      </trkpt>
      <trkpt lat="43.62651" lon="6.78607">
        <ele>353.20367431641</ele>
        <time>2009-03-08T10:01:58Z</time>
      </trkpt>
      <trkpt lat="43.62655" lon="6.78621">
        <ele>350.74890136719</ele>
        <time>2009-03-08T10:02:03Z</time>
      </trkpt>
      <trkpt lat="43.62663" lon="6.78636">
        <ele>346.57754516602</ele>
        <time>2009-03-08T10:02:07Z</time>
      </trkpt>
      <trkpt lat="43.62672" lon="6.78649">
        <ele>344.61349487305</ele>
        <time>2009-03-08T10:02:12Z</time>
      </trkpt>
      <trkpt lat="43.62684" lon="6.78662">
        <ele>346.00927734375</ele>
        <time>2009-03-08T10:02:17Z</time>
      </trkpt>
      <trkpt lat="43.62688" lon="6.7867">
        <ele>346.75012207031</ele>
        <time>2009-03-08T10:02:19Z</time>
      </trkpt>
      <trkpt lat="43.6269" lon="6.78684">
        <ele>347.84735107422</ele>
        <time>2009-03-08T10:02:23Z</time>
      </trkpt>
      <trkpt lat="43.62697" lon="6.78713">
        <ele>350.91333007812</ele>
        <time>2009-03-08T10:02:31Z</time>
      </trkpt>
      <trkpt lat="43.62704" lon="6.78729">
        <ele>353.85662841797</ele>
        <time>2009-03-08T10:02:36Z</time>
      </trkpt>
      <trkpt lat="43.62706" lon="6.78745">
        <ele>355.6796875</ele>
        <time>2009-03-08T10:02:41Z</time>
      </trkpt>
      <trkpt lat="43.62707" lon="6.7875">
        <ele>356.17749023438</ele>
        <time>2009-03-08T10:02:43Z</time>
      </trkpt>
      <trkpt lat="43.62706" lon="6.78773">
        <ele>356.81362915039</ele>
        <time>2009-03-08T10:02:51Z</time>
      </trkpt>
      <trkpt lat="43.62704" lon="6.78778">
        <ele>356.68347167969</ele>
        <time>2009-03-08T10:02:53Z</time>
      </trkpt>
      <trkpt lat="43.62704" lon="6.78794">
        <ele>357.53109741211</ele>
        <time>2009-03-08T10:02:59Z</time>
      </trkpt>
      <trkpt lat="43.62705" lon="6.78805">
        <ele>358.09948730469</ele>
        <time>2009-03-08T10:03:03Z</time>
      </trkpt>
      <trkpt lat="43.627" lon="6.78815">
        <ele>358.07952880859</ele>
        <time>2009-03-08T10:03:07Z</time>
      </trkpt>
      <trkpt lat="43.62694" lon="6.78827">
        <ele>358.35992431641</ele>
        <time>2009-03-08T10:03:14Z</time>
      </trkpt>
      <trkpt lat="43.62692" lon="6.78827">
        <ele>357.90002441406</ele>
        <time>2009-03-08T10:03:15Z</time>
      </trkpt>
      <trkpt lat="43.62682" lon="6.78824">
        <ele>354.78356933594</ele>
        <time>2009-03-08T10:03:22Z</time>
      </trkpt>
      <trkpt lat="43.62678" lon="6.78824">
        <ele>353.82138061523</ele>
        <time>2009-03-08T10:03:27Z</time>
      </trkpt>
      <trkpt lat="43.62677" lon="6.78829">
        <ele>353.86322021484</ele>
        <time>2009-03-08T10:03:31Z</time>
      </trkpt>
      <trkpt lat="43.62677" lon="6.7884">
        <ele>354.09530639648</ele>
        <time>2009-03-08T10:03:35Z</time>
      </trkpt>
      <trkpt lat="43.62672" lon="6.78858">
        <ele>353.54428100586</ele>
        <time>2009-03-08T10:03:41Z</time>
      </trkpt>
      <trkpt lat="43.62664" lon="6.78879">
        <ele>353.6328125</ele>
        <time>2009-03-08T10:03:47Z</time>
      </trkpt>
      <trkpt lat="43.62655" lon="6.78898">
        <ele>358.32922363281</ele>
        <time>2009-03-08T10:03:53Z</time>
      </trkpt>
      <trkpt lat="43.62649" lon="6.78914">
        <ele>361.37634277344</ele>
        <time>2009-03-08T10:03:58Z</time>
      </trkpt>
      <trkpt lat="43.6264" lon="6.78935">
        <ele>364.462890625</ele>
        <time>2009-03-08T10:04:05Z</time>
      </trkpt>
      <trkpt lat="43.62636" lon="6.7895">
        <ele>365.33325195312</ele>
        <time>2009-03-08T10:04:09Z</time>
      </trkpt>
      <trkpt lat="43.62632" lon="6.78971">
        <ele>365.74523925781</ele>
        <time>2009-03-08T10:04:14Z</time>
      </trkpt>
      <trkpt lat="43.62629" lon="6.78994">
        <ele>366.03363037109</ele>
        <time>2009-03-08T10:04:20Z</time>
      </trkpt>
      <trkpt lat="43.62622" lon="6.7901">
        <ele>366.6003112793</ele>
        <time>2009-03-08T10:04:25Z</time>
      </trkpt>
      <trkpt lat="43.62615" lon="6.79025">
        <ele>366.81997680664</ele>
        <time>2009-03-08T10:04:31Z</time>
      </trkpt>
      <trkpt lat="43.62605" lon="6.79036">
        <ele>367.67034912109</ele>
        <time>2009-03-08T10:04:37Z</time>
      </trkpt>
      <trkpt lat="43.62603" lon="6.79038">
        <ele>367.87634277344</ele>
        <time>2009-03-08T10:04:38Z</time>
      </trkpt>
      <trkpt lat="43.62596" lon="6.79054">
        <ele>368.65911865234</ele>
        <time>2009-03-08T10:04:44Z</time>
      </trkpt>
      <trkpt lat="43.62584" lon="6.79065">
        <ele>369.61734008789</ele>
        <time>2009-03-08T10:04:49Z</time>
      </trkpt>
      <trkpt lat="43.62565" lon="6.79072">
        <ele>371.13275146484</ele>
        <time>2009-03-08T10:04:58Z</time>
      </trkpt>
      <trkpt lat="43.62554" lon="6.79081">
        <ele>372.12731933594</ele>
        <time>2009-03-08T10:05:04Z</time>
      </trkpt>
      <trkpt lat="43.62542" lon="6.79091">
        <ele>372.66754150391</ele>
        <time>2009-03-08T10:05:10Z</time>
      </trkpt>
      <trkpt lat="43.62527" lon="6.79104">
        <ele>373.30642700195</ele>
        <time>2009-03-08T10:05:18Z</time>
      </trkpt>
      <trkpt lat="43.6251" lon="6.79115">
        <ele>373.98614501953</ele>
        <time>2009-03-08T10:05:26Z</time>
      </trkpt>
      <trkpt lat="43.62496" lon="6.79118">
        <ele>374.59909057617</ele>
        <time>2009-03-08T10:05:32Z</time>
      </trkpt>
      <trkpt lat="43.62479" lon="6.79116">
        <ele>376.04992675781</ele>
        <time>2009-03-08T10:05:40Z</time>
      </trkpt>
      <trkpt lat="43.62467" lon="6.79113">
        <ele>377.04797363281</ele>
        <time>2009-03-08T10:05:47Z</time>
      </trkpt>
      <trkpt lat="43.62455" lon="6.79111">
        <ele>377.61447143555</ele>
        <time>2009-03-08T10:05:54Z</time>
      </trkpt>
      <trkpt lat="43.62443" lon="6.79107">
        <ele>378.21725463867</ele>
        <time>2009-03-08T10:06:02Z</time>
      </trkpt>
      <trkpt lat="43.62435" lon="6.79107">
        <ele>378.77114868164</ele>
        <time>2009-03-08T10:06:07Z</time>
      </trkpt>
      <trkpt lat="43.62426" lon="6.79103">
        <ele>379.42767333984</ele>
        <time>2009-03-08T10:06:13Z</time>
      </trkpt>
      <trkpt lat="43.62421" lon="6.79102">
        <ele>379.71380615234</ele>
        <time>2009-03-08T10:06:16Z</time>
      </trkpt>
      <trkpt lat="43.6241" lon="6.79098">
        <ele>380</ele>
        <time>2009-03-08T10:06:23Z</time>
      </trkpt>
      <trkpt lat="43.62402" lon="6.79091">
        <ele>380</ele>
        <time>2009-03-08T10:06:28Z</time>
      </trkpt>
      <trkpt lat="43.62391" lon="6.79088">
        <ele>380</ele>
        <time>2009-03-08T10:06:34Z</time>
      </trkpt>
      <trkpt lat="43.62386" lon="6.79089">
        <ele>380</ele>
        <time>2009-03-08T10:06:36Z</time>
      </trkpt>
      <trkpt lat="43.62379" lon="6.79089">
        <ele>380</ele>
        <time>2009-03-08T10:06:42Z</time>
      </trkpt>
      <trkpt lat="43.62379" lon="6.79092">
        <ele>380</ele>
        <time>2009-03-08T10:06:53Z</time>
      </trkpt>
      <trkpt lat="43.62379" lon="6.79092">
        <ele>380</ele>
        <time>2009-03-08T10:06:57Z</time>
      </trkpt>
      <trkpt lat="43.6238" lon="6.79096">
        <ele>380</ele>
        <time>2009-03-08T10:07:04Z</time>
      </trkpt>
      <trkpt lat="43.62379" lon="6.79096">
        <ele>380</ele>
        <time>2009-03-08T10:07:06Z</time>
      </trkpt>
      <trkpt lat="43.62369" lon="6.79089">
        <ele>380</ele>
        <time>2009-03-08T10:07:12Z</time>
      </trkpt>
      <trkpt lat="43.62367" lon="6.79088">
        <ele>380</ele>
        <time>2009-03-08T10:07:13Z</time>
      </trkpt>
      <trkpt lat="43.62352" lon="6.79086">
        <ele>380</ele>
        <time>2009-03-08T10:07:19Z</time>
      </trkpt>
      <trkpt lat="43.62346" lon="6.79086">
        <ele>380</ele>
        <time>2009-03-08T10:07:21Z</time>
      </trkpt>
      <trkpt lat="43.62332" lon="6.79094">
        <ele>380</ele>
        <time>2009-03-08T10:07:26Z</time>
      </trkpt>
      <trkpt lat="43.62326" lon="6.79113">
        <ele>380</ele>
        <time>2009-03-08T10:07:30Z</time>
      </trkpt>
      <trkpt lat="43.62313" lon="6.79141">
        <ele>380</ele>
        <time>2009-03-08T10:07:36Z</time>
      </trkpt>
      <trkpt lat="43.62309" lon="6.79151">
        <ele>380</ele>
        <time>2009-03-08T10:07:38Z</time>
      </trkpt>
      <trkpt lat="43.62306" lon="6.79172">
        <ele>380</ele>
        <time>2009-03-08T10:07:42Z</time>
      </trkpt>
      <trkpt lat="43.62298" lon="6.79197">
        <ele>380</ele>
        <time>2009-03-08T10:07:47Z</time>
      </trkpt>
      <trkpt lat="43.62296" lon="6.79202">
        <ele>380</ele>
        <time>2009-03-08T10:07:48Z</time>
      </trkpt>
      <trkpt lat="43.62276" lon="6.79211">
        <ele>380</ele>
        <time>2009-03-08T10:07:52Z</time>
      </trkpt>
      <trkpt lat="43.62255" lon="6.79231">
        <ele>380</ele>
        <time>2009-03-08T10:07:58Z</time>
      </trkpt>
      <trkpt lat="43.62242" lon="6.79248">
        <ele>380</ele>
        <time>2009-03-08T10:08:02Z</time>
      </trkpt>
      <trkpt lat="43.62236" lon="6.79258">
        <ele>380</ele>
        <time>2009-03-08T10:08:04Z</time>
      </trkpt>
      <trkpt lat="43.62227" lon="6.7927">
        <ele>380</ele>
        <time>2009-03-08T10:08:07Z</time>
      </trkpt>
      <trkpt lat="43.62212" lon="6.79293">
        <ele>379.45324707031</ele>
        <time>2009-03-08T10:08:12Z</time>
      </trkpt>
      <trkpt lat="43.62193" lon="6.79327">
        <ele>376.50491333008</ele>
        <time>2009-03-08T10:08:18Z</time>
      </trkpt>
      <trkpt lat="43.62185" lon="6.79342">
        <ele>371.56991577148</ele>
        <time>2009-03-08T10:08:20Z</time>
      </trkpt>
      <trkpt lat="43.62165" lon="6.79357">
        <ele>364.04376220703</ele>
        <time>2009-03-08T10:08:25Z</time>
      </trkpt>
      <trkpt lat="43.62158" lon="6.79348">
        <ele>364.31842041016</ele>
        <time>2009-03-08T10:08:28Z</time>
      </trkpt>
      <trkpt lat="43.62156" lon="6.79344">
        <ele>364.38708496094</ele>
        <time>2009-03-08T10:08:29Z</time>
      </trkpt>
      <trkpt lat="43.62152" lon="6.79333">
        <ele>364.52584838867</ele>
        <time>2009-03-08T10:08:31Z</time>
      </trkpt>
      <trkpt lat="43.62141" lon="6.79321">
        <ele>365.31240844727</ele>
        <time>2009-03-08T10:08:35Z</time>
      </trkpt>
      <trkpt lat="43.62121" lon="6.79317">
        <ele>365.853515625</ele>
        <time>2009-03-08T10:08:40Z</time>
      </trkpt>
      <trkpt lat="43.62113" lon="6.79327">
        <ele>365.9416809082</ele>
        <time>2009-03-08T10:08:43Z</time>
      </trkpt>
      <trkpt lat="43.62102" lon="6.79345">
        <ele>366.64685058594</ele>
        <time>2009-03-08T10:08:47Z</time>
      </trkpt>
      <trkpt lat="43.62083" lon="6.79367">
        <ele>368.25338745117</ele>
        <time>2009-03-08T10:08:52Z</time>
      </trkpt>
      <trkpt lat="43.62078" lon="6.79387">
        <ele>369.3108215332</ele>
        <time>2009-03-08T10:08:56Z</time>
      </trkpt>
      <trkpt lat="43.62084" lon="6.79406">
        <ele>368.94781494141</ele>
        <time>2009-03-08T10:08:59Z</time>
      </trkpt>
      <trkpt lat="43.62094" lon="6.79462">
        <ele>367.87664794922</ele>
        <time>2009-03-08T10:09:05Z</time>
      </trkpt>
      <trkpt lat="43.62113" lon="6.79502">
        <ele>366.96490478516</ele>
        <time>2009-03-08T10:09:10Z</time>
      </trkpt>
      <trkpt lat="43.62126" lon="6.79511">
        <ele>366.16839599609</ele>
        <time>2009-03-08T10:09:12Z</time>
      </trkpt>
      <trkpt lat="43.62149" lon="6.79528">
        <ele>365.25415039062</ele>
        <time>2009-03-08T10:09:16Z</time>
      </trkpt>
      <trkpt lat="43.62167" lon="6.79551">
        <ele>364.70053100586</ele>
        <time>2009-03-08T10:09:20Z</time>
      </trkpt>
      <trkpt lat="43.62181" lon="6.79564">
        <ele>363.02523803711</ele>
        <time>2009-03-08T10:09:23Z</time>
      </trkpt>
      <trkpt lat="43.62198" lon="6.79572">
        <ele>360.87585449219</ele>
        <time>2009-03-08T10:09:27Z</time>
      </trkpt>
      <trkpt lat="43.62205" lon="6.79574">
        <ele>360.56341552734</ele>
        <time>2009-03-08T10:09:29Z</time>
      </trkpt>
      <trkpt lat="43.62216" lon="6.79575">
        <ele>359.89050292969</ele>
        <time>2009-03-08T10:09:32Z</time>
      </trkpt>
      <trkpt lat="43.62225" lon="6.79583">
        <ele>359.72570800781</ele>
        <time>2009-03-08T10:09:36Z</time>
      </trkpt>
      <trkpt lat="43.62233" lon="6.79591">
        <ele>359.88903808594</ele>
        <time>2009-03-08T10:09:42Z</time>
      </trkpt>
      <trkpt lat="43.62242" lon="6.796">
        <ele>360.22018432617</ele>
        <time>2009-03-08T10:09:47Z</time>
      </trkpt>
      <trkpt lat="43.62258" lon="6.79601">
        <ele>359.30780029297</ele>
        <time>2009-03-08T10:09:54Z</time>
      </trkpt>
      <trkpt lat="43.62271" lon="6.79604">
        <ele>358.73101806641</ele>
        <time>2009-03-08T10:09:59Z</time>
      </trkpt>
      <trkpt lat="43.62283" lon="6.7962">
        <ele>358.80850219727</ele>
        <time>2009-03-08T10:10:04Z</time>
      </trkpt>
      <trkpt lat="43.62291" lon="6.79645">
        <ele>359.75567626953</ele>
        <time>2009-03-08T10:10:10Z</time>
      </trkpt>
      <trkpt lat="43.62302" lon="6.79655">
        <ele>359.99771118164</ele>
        <time>2009-03-08T10:10:14Z</time>
      </trkpt>
      <trkpt lat="43.62307" lon="6.79655">
        <ele>359.62142944336</ele>
        <time>2009-03-08T10:10:16Z</time>
      </trkpt>
      <trkpt lat="43.62316" lon="6.79643">
        <ele>358.02670288086</ele>
        <time>2009-03-08T10:10:21Z</time>
      </trkpt>
      <trkpt lat="43.62329" lon="6.79647">
        <ele>358.05242919922</ele>
        <time>2009-03-08T10:10:25Z</time>
      </trkpt>
      <trkpt lat="43.62335" lon="6.79655">
        <ele>358.34158325195</ele>
        <time>2009-03-08T10:10:27Z</time>
      </trkpt>
      <trkpt lat="43.62349" lon="6.7968">
        <ele>355.63146972656</ele>
        <time>2009-03-08T10:10:32Z</time>
      </trkpt>
      <trkpt lat="43.62363" lon="6.797">
        <ele>350.35186767578</ele>
        <time>2009-03-08T10:10:36Z</time>
      </trkpt>
      <trkpt lat="43.6238" lon="6.79697">
        <ele>348.06188964844</ele>
        <time>2009-03-08T10:10:39Z</time>
      </trkpt>
      <trkpt lat="43.62386" lon="6.79697">
        <ele>347.26538085938</ele>
        <time>2009-03-08T10:10:40Z</time>
      </trkpt>
      <trkpt lat="43.62394" lon="6.79698">
        <ele>346.03582763672</ele>
        <time>2009-03-08T10:10:42Z</time>
      </trkpt>
      <trkpt lat="43.62402" lon="6.79689">
        <ele>345.5625</ele>
        <time>2009-03-08T10:10:47Z</time>
      </trkpt>
      <trkpt lat="43.62403" lon="6.79678">
        <ele>346.17016601562</ele>
        <time>2009-03-08T10:10:50Z</time>
      </trkpt>
      <trkpt lat="43.62408" lon="6.79658">
        <ele>346.49273681641</ele>
        <time>2009-03-08T10:10:56Z</time>
      </trkpt>
      <trkpt lat="43.62414" lon="6.79646">
        <ele>346.16314697266</ele>
        <time>2009-03-08T10:11:02Z</time>
      </trkpt>
      <trkpt lat="43.62414" lon="6.79642">
        <ele>346.2507019043</ele>
        <time>2009-03-08T10:11:07Z</time>
      </trkpt>
      <trkpt lat="43.62415" lon="6.79634">
        <ele>345.92169189453</ele>
        <time>2009-03-08T10:11:13Z</time>
      </trkpt>
      <trkpt lat="43.62416" lon="6.79628">
        <ele>345.35522460938</ele>
        <time>2009-03-08T10:11:19Z</time>
      </trkpt>
      <trkpt lat="43.62413" lon="6.7962">
        <ele>345.11145019531</ele>
        <time>2009-03-08T10:11:25Z</time>
      </trkpt>
      <trkpt lat="43.62412" lon="6.79614">
        <ele>344.857421875</ele>
        <time>2009-03-08T10:11:32Z</time>
      </trkpt>
      <trkpt lat="43.62411" lon="6.79607">
        <ele>344.44198608398</ele>
        <time>2009-03-08T10:11:38Z</time>
      </trkpt>
      <trkpt lat="43.62413" lon="6.79606">
        <ele>344.19479370117</ele>
        <time>2009-03-08T10:11:43Z</time>
      </trkpt>
      <trkpt lat="43.62418" lon="6.7961">
        <ele>343.66265869141</ele>
        <time>2009-03-08T10:11:48Z</time>
      </trkpt>
      <trkpt lat="43.62423" lon="6.79606">
        <ele>342.68417358398</ele>
        <time>2009-03-08T10:11:53Z</time>
      </trkpt>
      <trkpt lat="43.62426" lon="6.79608">
        <ele>342.40606689453</ele>
        <time>2009-03-08T10:11:57Z</time>
      </trkpt>
      <trkpt lat="43.62433" lon="6.79619">
        <ele>342.15545654297</ele>
        <time>2009-03-08T10:12:04Z</time>
      </trkpt>
      <trkpt lat="43.62436" lon="6.79629">
        <ele>342.45071411133</ele>
        <time>2009-03-08T10:12:09Z</time>
      </trkpt>
      <trkpt lat="43.62436" lon="6.79631">
        <ele>342.72537231445</ele>
        <time>2009-03-08T10:12:12Z</time>
      </trkpt>
      <trkpt lat="43.62435" lon="6.7964">
        <ele>343.32720947266</ele>
        <time>2009-03-08T10:12:17Z</time>
      </trkpt>
      <trkpt lat="43.62442" lon="6.79646">
        <ele>342.37963867188</ele>
        <time>2009-03-08T10:12:19Z</time>
      </trkpt>
      <trkpt lat="43.62452" lon="6.79652">
        <ele>339.09020996094</ele>
        <time>2009-03-08T10:12:25Z</time>
      </trkpt>
      <trkpt lat="43.62455" lon="6.79655">
        <ele>337.44320678711</ele>
        <time>2009-03-08T10:12:29Z</time>
      </trkpt>
      <trkpt lat="43.62461" lon="6.79659">
        <ele>334.34371948242</ele>
        <time>2009-03-08T10:12:35Z</time>
      </trkpt>
      <trkpt lat="43.62463" lon="6.79663">
        <ele>332.40686035156</ele>
        <time>2009-03-08T10:12:42Z</time>
      </trkpt>
      <trkpt lat="43.62464" lon="6.79669">
        <ele>331.17956542969</ele>
        <time>2009-03-08T10:12:48Z</time>
      </trkpt>
      <trkpt lat="43.62466" lon="6.79677">
        <ele>328.19430541992</ele>
        <time>2009-03-08T10:12:55Z</time>
      </trkpt>
      <trkpt lat="43.62468" lon="6.79683">
        <ele>325.87692260742</ele>
        <time>2009-03-08T10:13:01Z</time>
      </trkpt>
      <trkpt lat="43.62468" lon="6.79688">
        <ele>324.67147827148</ele>
        <time>2009-03-08T10:13:06Z</time>
      </trkpt>
      <trkpt lat="43.62465" lon="6.79699">
        <ele>324.650390625</ele>
        <time>2009-03-08T10:13:12Z</time>
      </trkpt>
      <trkpt lat="43.62465" lon="6.79702">
        <ele>324.7424621582</ele>
        <time>2009-03-08T10:13:14Z</time>
      </trkpt>
      <trkpt lat="43.6246" lon="6.79705">
        <ele>328.30758666992</ele>
        <time>2009-03-08T10:13:19Z</time>
      </trkpt>
      <trkpt lat="43.62457" lon="6.79705">
        <ele>330.51739501953</ele>
        <time>2009-03-08T10:13:21Z</time>
      </trkpt>
      <trkpt lat="43.62455" lon="6.79707">
        <ele>332.24725341797</ele>
        <time>2009-03-08T10:13:23Z</time>
      </trkpt>
      <trkpt lat="43.62449" lon="6.79723">
        <ele>335.39559936523</ele>
        <time>2009-03-08T10:13:29Z</time>
      </trkpt>
      <trkpt lat="43.62446" lon="6.79734">
        <ele>335.16851806641</ele>
        <time>2009-03-08T10:13:32Z</time>
      </trkpt>
      <trkpt lat="43.62447" lon="6.7975">
        <ele>330.09234619141</ele>
        <time>2009-03-08T10:13:37Z</time>
      </trkpt>
      <trkpt lat="43.62447" lon="6.79757">
        <ele>327.18869018555</ele>
        <time>2009-03-08T10:13:39Z</time>
      </trkpt>
      <trkpt lat="43.62441" lon="6.79769">
        <ele>327.10131835938</ele>
        <time>2009-03-08T10:13:44Z</time>
      </trkpt>
      <trkpt lat="43.62436" lon="6.79779">
        <ele>326.22943115234</ele>
        <time>2009-03-08T10:13:48Z</time>
      </trkpt>
      <trkpt lat="43.62429" lon="6.7979">
        <ele>327.09036254883</ele>
        <time>2009-03-08T10:13:52Z</time>
      </trkpt>
      <trkpt lat="43.62425" lon="6.79797">
        <ele>327.73147583008</ele>
        <time>2009-03-08T10:13:58Z</time>
      </trkpt>
      <trkpt lat="43.62421" lon="6.79807">
        <ele>327.73104858398</ele>
        <time>2009-03-08T10:14:04Z</time>
      </trkpt>
      <trkpt lat="43.62422" lon="6.79823">
        <ele>322.7317199707</ele>
        <time>2009-03-08T10:14:10Z</time>
      </trkpt>
      <trkpt lat="43.62422" lon="6.79837">
        <ele>319.29077148438</ele>
        <time>2009-03-08T10:14:13Z</time>
      </trkpt>
      <trkpt lat="43.62421" lon="6.79844">
        <ele>318.38970947266</ele>
        <time>2009-03-08T10:14:17Z</time>
      </trkpt>
      <trkpt lat="43.62417" lon="6.79851">
        <ele>318.9094543457</ele>
        <time>2009-03-08T10:14:23Z</time>
      </trkpt>
      <trkpt lat="43.62414" lon="6.79855">
        <ele>319.08526611328</ele>
        <time>2009-03-08T10:14:28Z</time>
      </trkpt>
      <trkpt lat="43.62413" lon="6.79859">
        <ele>318.5461730957</ele>
        <time>2009-03-08T10:14:35Z</time>
      </trkpt>
      <trkpt lat="43.62416" lon="6.79864">
        <ele>316.82879638672</ele>
        <time>2009-03-08T10:14:40Z</time>
      </trkpt>
      <trkpt lat="43.62419" lon="6.79865">
        <ele>315.13558959961</ele>
        <time>2009-03-08T10:14:43Z</time>
      </trkpt>
      <trkpt lat="43.62425" lon="6.79868">
        <ele>310.775390625</ele>
        <time>2009-03-08T10:14:50Z</time>
      </trkpt>
      <trkpt lat="43.62426" lon="6.7987">
        <ele>310.08187866211</ele>
        <time>2009-03-08T10:15:00Z</time>
      </trkpt>
      <trkpt lat="43.62426" lon="6.79888">
        <ele>307.47262573242</ele>
        <time>2009-03-08T10:15:06Z</time>
      </trkpt>
      <trkpt lat="43.62422" lon="6.79896">
        <ele>307.92297363281</ele>
        <time>2009-03-08T10:15:10Z</time>
      </trkpt>
      <trkpt lat="43.62419" lon="6.79903">
        <ele>308.60659790039</ele>
        <time>2009-03-08T10:15:13Z</time>
      </trkpt>
      <trkpt lat="43.62415" lon="6.79914">
        <ele>308.8837890625</ele>
        <time>2009-03-08T10:15:17Z</time>
      </trkpt>
      <trkpt lat="43.62402" lon="6.79925">
        <ele>310.04299926758</ele>
        <time>2009-03-08T10:15:23Z</time>
      </trkpt>
      <trkpt lat="43.624" lon="6.79933">
        <ele>309.27395629883</ele>
        <time>2009-03-08T10:15:27Z</time>
      </trkpt>
      <trkpt lat="43.624" lon="6.79936">
        <ele>308.84136962891</ele>
        <time>2009-03-08T10:15:31Z</time>
      </trkpt>
      <trkpt lat="43.62399" lon="6.79939">
        <ele>308.7177734375</ele>
        <time>2009-03-08T10:15:36Z</time>
      </trkpt>
      <trkpt lat="43.624" lon="6.79946">
        <ele>307.05444335938</ele>
        <time>2009-03-08T10:15:42Z</time>
      </trkpt>
      <trkpt lat="43.62402" lon="6.7995">
        <ele>305.67636108398</ele>
        <time>2009-03-08T10:15:47Z</time>
      </trkpt>
      <trkpt lat="43.6241" lon="6.79954">
        <ele>303.06600952148</ele>
        <time>2009-03-08T10:15:53Z</time>
      </trkpt>
      <trkpt lat="43.62414" lon="6.7996">
        <ele>300.29455566406</ele>
        <time>2009-03-08T10:15:56Z</time>
      </trkpt>
      <trkpt lat="43.62419" lon="6.79979">
        <ele>290.49887084961</ele>
        <time>2009-03-08T10:16:02Z</time>
      </trkpt>
      <trkpt lat="43.62419" lon="6.79982">
        <ele>288.47930908203</ele>
        <time>2009-03-08T10:16:03Z</time>
      </trkpt>
      <trkpt lat="43.62419" lon="6.79988">
        <ele>286.70565795898</ele>
        <time>2009-03-08T10:16:06Z</time>
      </trkpt>
      <trkpt lat="43.62417" lon="6.79988">
        <ele>289.10565185547</ele>
        <time>2009-03-08T10:16:11Z</time>
      </trkpt>
      <trkpt lat="43.62415" lon="6.79987">
        <ele>290.32113647461</ele>
        <time>2009-03-08T10:16:13Z</time>
      </trkpt>
      <trkpt lat="43.62408" lon="6.79989">
        <ele>292.25228881836</ele>
        <time>2009-03-08T10:16:19Z</time>
      </trkpt>
      <trkpt lat="43.62405" lon="6.79997">
        <ele>290.55364990234</ele>
        <time>2009-03-08T10:16:24Z</time>
      </trkpt>
      <trkpt lat="43.62401" lon="6.80005">
        <ele>289.83245849609</ele>
        <time>2009-03-08T10:16:27Z</time>
      </trkpt>
      <trkpt lat="43.62394" lon="6.80013">
        <ele>291.0546875</ele>
        <time>2009-03-08T10:16:31Z</time>
      </trkpt>
      <trkpt lat="43.62381" lon="6.80011">
        <ele>295.67587280273</ele>
        <time>2009-03-08T10:16:36Z</time>
      </trkpt>
      <trkpt lat="43.62365" lon="6.8001">
        <ele>299.94467163086</ele>
        <time>2009-03-08T10:16:40Z</time>
      </trkpt>
      <trkpt lat="43.62354" lon="6.80026">
        <ele>299.60070800781</ele>
        <time>2009-03-08T10:16:44Z</time>
      </trkpt>
      <trkpt lat="43.62343" lon="6.80058">
        <ele>293.32174682617</ele>
        <time>2009-03-08T10:16:50Z</time>
      </trkpt>
      <trkpt lat="43.62342" lon="6.80088">
        <ele>285.19332885742</ele>
        <time>2009-03-08T10:16:56Z</time>
      </trkpt>
      <trkpt lat="43.62343" lon="6.80107">
        <ele>280.91891479492</ele>
        <time>2009-03-08T10:17:00Z</time>
      </trkpt>
      <trkpt lat="43.62343" lon="6.80111">
        <ele>280.33602905273</ele>
        <time>2009-03-08T10:17:02Z</time>
      </trkpt>
      <trkpt lat="43.62343" lon="6.80113">
        <ele>279.54510498047</ele>
        <time>2009-03-08T10:17:05Z</time>
      </trkpt>
      <trkpt lat="43.62345" lon="6.80115">
        <ele>278.08807373047</ele>
        <time>2009-03-08T10:17:07Z</time>
      </trkpt>
      <trkpt lat="43.6235" lon="6.80115">
        <ele>275.67864990234</ele>
        <time>2009-03-08T10:17:13Z</time>
      </trkpt>
      <trkpt lat="43.6235" lon="6.80114">
        <ele>275.73886108398</ele>
        <time>2009-03-08T10:17:14Z</time>
      </trkpt>
      <trkpt lat="43.62355" lon="6.801">
        <ele>276.68148803711</ele>
        <time>2009-03-08T10:17:19Z</time>
      </trkpt>
      <trkpt lat="43.62358" lon="6.80094">
        <ele>276.81561279297</ele>
        <time>2009-03-08T10:17:24Z</time>
      </trkpt>
      <trkpt lat="43.62358" lon="6.80095">
        <ele>276.66485595703</ele>
        <time>2009-03-08T10:17:28Z</time>
      </trkpt>
      <trkpt lat="43.62358" lon="6.80096">
        <ele>276.15100097656</ele>
        <time>2009-03-08T10:17:30Z</time>
      </trkpt>
      <trkpt lat="43.62357" lon="6.80116">
        <ele>271.42175292969</ele>
        <time>2009-03-08T10:17:35Z</time>
      </trkpt>
      <trkpt lat="43.62356" lon="6.80122">
        <ele>269.91912841797</ele>
        <time>2009-03-08T10:17:38Z</time>
      </trkpt>
      <trkpt lat="43.62357" lon="6.80125">
        <ele>268.47073364258</ele>
        <time>2009-03-08T10:17:42Z</time>
      </trkpt>
      <trkpt lat="43.62362" lon="6.80113">
        <ele>270.12957763672</ele>
        <time>2009-03-08T10:17:46Z</time>
      </trkpt>
      <trkpt lat="43.62365" lon="6.80099">
        <ele>272.58538818359</ele>
        <time>2009-03-08T10:17:51Z</time>
      </trkpt>
      <trkpt lat="43.62368" lon="6.80094">
        <ele>272.63345336914</ele>
        <time>2009-03-08T10:17:59Z</time>
      </trkpt>
      <trkpt lat="43.62368" lon="6.801">
        <ele>270.98550415039</ele>
        <time>2009-03-08T10:18:04Z</time>
      </trkpt>
      <trkpt lat="43.62369" lon="6.80102">
        <ele>270.08258056641</ele>
        <time>2009-03-08T10:18:05Z</time>
      </trkpt>
      <trkpt lat="43.62371" lon="6.8011">
        <ele>267.0973815918</ele>
        <time>2009-03-08T10:18:11Z</time>
      </trkpt>
      <trkpt lat="43.62381" lon="6.80098">
        <ele>266.37811279297</ele>
        <time>2009-03-08T10:18:17Z</time>
      </trkpt>
      <trkpt lat="43.62393" lon="6.801">
        <ele>260.64556884766</ele>
        <time>2009-03-08T10:18:21Z</time>
      </trkpt>
      <trkpt lat="43.62395" lon="6.80099">
        <ele>259.6862487793</ele>
        <time>2009-03-08T10:18:24Z</time>
      </trkpt>
      <trkpt lat="43.62399" lon="6.80101">
        <ele>256.92864990234</ele>
        <time>2009-03-08T10:18:34Z</time>
      </trkpt>
      <trkpt lat="43.624" lon="6.80103">
        <ele>255.39520263672</ele>
        <time>2009-03-08T10:18:39Z</time>
      </trkpt>
      <trkpt lat="43.62404" lon="6.80106">
        <ele>252.56163024902</ele>
        <time>2009-03-08T10:18:42Z</time>
      </trkpt>
      <trkpt lat="43.62416" lon="6.80103">
        <ele>246.31214904785</ele>
        <time>2009-03-08T10:18:46Z</time>
      </trkpt>
      <trkpt lat="43.62434" lon="6.80101">
        <ele>222.80586242676</ele>
        <time>2009-03-08T10:18:51Z</time>
      </trkpt>
      <trkpt lat="43.62447" lon="6.80103">
        <ele>206.25549316406</ele>
        <time>2009-03-08T10:18:56Z</time>
      </trkpt>
      <trkpt lat="43.62452" lon="6.80103">
        <ele>204.40939331055</ele>
        <time>2009-03-08T10:18:58Z</time>
      </trkpt>
      <trkpt lat="43.62454" lon="6.80101">
        <ele>203.73486328125</ele>
        <time>2009-03-08T10:19:01Z</time>
      </trkpt>
      <trkpt lat="43.62457" lon="6.801">
        <ele>202.44279479981</ele>
        <time>2009-03-08T10:19:05Z</time>
      </trkpt>
      <trkpt lat="43.62459" lon="6.80101">
        <ele>201.34513854981</ele>
        <time>2009-03-08T10:19:11Z</time>
      </trkpt>
      <trkpt lat="43.62457" lon="6.80101">
        <ele>201.94595336914</ele>
        <time>2009-03-08T10:19:17Z</time>
      </trkpt>
      <trkpt lat="43.62458" lon="6.80102">
        <ele>201.51884460449</ele>
        <time>2009-03-08T10:19:18Z</time>
      </trkpt>
      <trkpt lat="43.62465" lon="6.80102">
        <ele>198.36611938477</ele>
        <time>2009-03-08T10:19:26Z</time>
      </trkpt>
      <trkpt lat="43.6247" lon="6.80099">
        <ele>195.85394287109</ele>
        <time>2009-03-08T10:19:32Z</time>
      </trkpt>
      <trkpt lat="43.62474" lon="6.80097">
        <ele>194.0260925293</ele>
        <time>2009-03-08T10:19:36Z</time>
      </trkpt>
      <trkpt lat="43.62484" lon="6.80088">
        <ele>187.01205444336</ele>
        <time>2009-03-08T10:19:43Z</time>
      </trkpt>
      <trkpt lat="43.62491" lon="6.80081">
        <ele>182.48614501953</ele>
        <time>2009-03-08T10:19:47Z</time>
      </trkpt>
      <trkpt lat="43.62496" lon="6.80075">
        <ele>179.60223388672</ele>
        <time>2009-03-08T10:19:51Z</time>
      </trkpt>
      <trkpt lat="43.62506" lon="6.80057">
        <ele>175.39013671875</ele>
        <time>2009-03-08T10:19:58Z</time>
      </trkpt>
      <trkpt lat="43.62511" lon="6.80046">
        <ele>174.01930236816</ele>
        <time>2009-03-08T10:20:02Z</time>
      </trkpt>
      <trkpt lat="43.62518" lon="6.80032">
        <ele>172.95899963379</ele>
        <time>2009-03-08T10:20:06Z</time>
      </trkpt>
      <trkpt lat="43.62526" lon="6.8002">
        <ele>171.33837890625</ele>
        <time>2009-03-08T10:20:10Z</time>
      </trkpt>
      <trkpt lat="43.62527" lon="6.80014">
        <ele>171.26780700684</ele>
        <time>2009-03-08T10:20:16Z</time>
      </trkpt>
      <trkpt lat="43.62535" lon="6.79997">
        <ele>169.85217285156</ele>
        <time>2009-03-08T10:20:21Z</time>
      </trkpt>
      <trkpt lat="43.62537" lon="6.7999">
        <ele>170.28619384766</ele>
        <time>2009-03-08T10:20:23Z</time>
      </trkpt>
      <trkpt lat="43.62539" lon="6.79971">
        <ele>172.82850646973</ele>
        <time>2009-03-08T10:20:28Z</time>
      </trkpt>
      <trkpt lat="43.62547" lon="6.7996">
        <ele>172.47640991211</ele>
        <time>2009-03-08T10:20:32Z</time>
      </trkpt>
      <trkpt lat="43.62552" lon="6.7994">
        <ele>174.59437561035</ele>
        <time>2009-03-08T10:20:38Z</time>
      </trkpt>
      <trkpt lat="43.62553" lon="6.79936">
        <ele>174.77328491211</ele>
        <time>2009-03-08T10:20:39Z</time>
      </trkpt>
      <trkpt lat="43.62562" lon="6.79911">
        <ele>176.08102416992</ele>
        <time>2009-03-08T10:20:44Z</time>
      </trkpt>
      <trkpt lat="43.62567" lon="6.79897">
        <ele>177.80450439453</ele>
        <time>2009-03-08T10:20:47Z</time>
      </trkpt>
      <trkpt lat="43.62568" lon="6.79886">
        <ele>179.93672180176</ele>
        <time>2009-03-08T10:20:52Z</time>
      </trkpt>
      <trkpt lat="43.62571" lon="6.79883">
        <ele>179.5771484375</ele>
        <time>2009-03-08T10:20:55Z</time>
      </trkpt>
      <trkpt lat="43.62571" lon="6.79881">
        <ele>179.70906066894</ele>
        <time>2009-03-08T10:20:57Z</time>
      </trkpt>
      <trkpt lat="43.62574" lon="6.7988">
        <ele>178.80509948731</ele>
        <time>2009-03-08T10:21:01Z</time>
      </trkpt>
      <trkpt lat="43.62572" lon="6.79891">
        <ele>177.73068237305</ele>
        <time>2009-03-08T10:21:06Z</time>
      </trkpt>
      <trkpt lat="43.62572" lon="6.79907">
        <ele>173.38766479492</ele>
        <time>2009-03-08T10:21:11Z</time>
      </trkpt>
      <trkpt lat="43.62573" lon="6.79911">
        <ele>172.09161376953</ele>
        <time>2009-03-08T10:21:13Z</time>
      </trkpt>
      <trkpt lat="43.62579" lon="6.79908">
        <ele>170.83161926269</ele>
        <time>2009-03-08T10:21:18Z</time>
      </trkpt>
      <trkpt lat="43.62587" lon="6.79909">
        <ele>167.63420104981</ele>
        <time>2009-03-08T10:21:23Z</time>
      </trkpt>
      <trkpt lat="43.62591" lon="6.79912">
        <ele>165.23896789551</ele>
        <time>2009-03-08T10:21:38Z</time>
      </trkpt>
      <trkpt lat="43.62592" lon="6.79913">
        <ele>164.91534423828</ele>
        <time>2009-03-08T10:21:39Z</time>
      </trkpt>
      <trkpt lat="43.62591" lon="6.7992">
        <ele>163.87991333008</ele>
        <time>2009-03-08T10:21:44Z</time>
      </trkpt>
      <trkpt lat="43.62589" lon="6.79921">
        <ele>164.21482849121</ele>
        <time>2009-03-08T10:21:47Z</time>
      </trkpt>
      <trkpt lat="43.62587" lon="6.79942">
        <ele>161.97122192383</ele>
        <time>2009-03-08T10:21:53Z</time>
      </trkpt>
      <trkpt lat="43.62587" lon="6.79946">
        <ele>161.58757019043</ele>
        <time>2009-03-08T10:21:54Z</time>
      </trkpt>
      <trkpt lat="43.62585" lon="6.79957">
        <ele>160.39866638184</ele>
        <time>2009-03-08T10:21:57Z</time>
      </trkpt>
      <trkpt lat="43.62584" lon="6.7997">
        <ele>158.20661926269</ele>
        <time>2009-03-08T10:22:02Z</time>
      </trkpt>
      <trkpt lat="43.62584" lon="6.79973">
        <ele>157.78215026856</ele>
        <time>2009-03-08T10:22:03Z</time>
      </trkpt>
      <trkpt lat="43.62585" lon="6.79978">
        <ele>156.70030212402</ele>
        <time>2009-03-08T10:22:11Z</time>
      </trkpt>
      <trkpt lat="43.62587" lon="6.79981">
        <ele>155.47561645508</ele>
        <time>2009-03-08T10:22:17Z</time>
      </trkpt>
      <trkpt lat="43.62585" lon="6.79984">
        <ele>155.67671203613</ele>
        <time>2009-03-08T10:22:22Z</time>
      </trkpt>
      <trkpt lat="43.62587" lon="6.79989">
        <ele>154.58766174316</ele>
        <time>2009-03-08T10:22:31Z</time>
      </trkpt>
      <trkpt lat="43.62587" lon="6.7999">
        <ele>154.24971008301</ele>
        <time>2009-03-08T10:22:32Z</time>
      </trkpt>
      <trkpt lat="43.62589" lon="6.8">
        <ele>152.26408386231</ele>
        <time>2009-03-08T10:22:37Z</time>
      </trkpt>
      <trkpt lat="43.62588" lon="6.80008">
        <ele>151.78775024414</ele>
        <time>2009-03-08T10:22:43Z</time>
      </trkpt>
      <trkpt lat="43.62591" lon="6.80012">
        <ele>150.58567810059</ele>
        <time>2009-03-08T10:22:55Z</time>
      </trkpt>
      <trkpt lat="43.62595" lon="6.80011">
        <ele>149.28839111328</ele>
        <time>2009-03-08T10:23:00Z</time>
      </trkpt>
      <trkpt lat="43.62597" lon="6.8001">
        <ele>148.5750579834</ele>
        <time>2009-03-08T10:23:03Z</time>
      </trkpt>
      <trkpt lat="43.62605" lon="6.80007">
        <ele>146.35615539551</ele>
        <time>2009-03-08T10:23:09Z</time>
      </trkpt>
      <trkpt lat="43.62611" lon="6.80009">
        <ele>144.21299743652</ele>
        <time>2009-03-08T10:23:14Z</time>
      </trkpt>
      <trkpt lat="43.62611" lon="6.80011">
        <ele>143.78489685059</ele>
        <time>2009-03-08T10:23:19Z</time>
      </trkpt>
      <trkpt lat="43.62614" lon="6.80009">
        <ele>143.19094848633</ele>
        <time>2009-03-08T10:23:26Z</time>
      </trkpt>
      <trkpt lat="43.62616" lon="6.80008">
        <ele>142.6296081543</ele>
        <time>2009-03-08T10:23:32Z</time>
      </trkpt>
      <trkpt lat="43.62621" lon="6.80008">
        <ele>141.3112487793</ele>
        <time>2009-03-08T10:23:38Z</time>
      </trkpt>
      <trkpt lat="43.62626" lon="6.80009">
        <ele>139.67016601562</ele>
        <time>2009-03-08T10:23:45Z</time>
      </trkpt>
      <trkpt lat="43.62627" lon="6.80011">
        <ele>139.09854125977</ele>
        <time>2009-03-08T10:23:51Z</time>
      </trkpt>
      <trkpt lat="43.62628" lon="6.80016">
        <ele>138.49945068359</ele>
        <time>2009-03-08T10:23:56Z</time>
      </trkpt>
      <trkpt lat="43.62629" lon="6.80018">
        <ele>138.07887268066</ele>
        <time>2009-03-08T10:24:00Z</time>
      </trkpt>
      <trkpt lat="43.62629" lon="6.80019">
        <ele>137.79391479492</ele>
        <time>2009-03-08T10:24:07Z</time>
      </trkpt>
      <trkpt lat="43.62632" lon="6.8002">
        <ele>136.978515625</ele>
        <time>2009-03-08T10:24:12Z</time>
      </trkpt>
      <trkpt lat="43.62634" lon="6.80022">
        <ele>135.99319458008</ele>
        <time>2009-03-08T10:24:17Z</time>
      </trkpt>
      <trkpt lat="43.62635" lon="6.80025">
        <ele>135.37176513672</ele>
        <time>2009-03-08T10:24:32Z</time>
      </trkpt>
      <trkpt lat="43.62634" lon="6.80027">
        <ele>135.49536132812</ele>
        <time>2009-03-08T10:24:33Z</time>
      </trkpt>
      <trkpt lat="43.6263" lon="6.80038">
        <ele>134.79335021973</ele>
        <time>2009-03-08T10:24:39Z</time>
      </trkpt>
      <trkpt lat="43.6263" lon="6.80039">
        <ele>134.7159576416</ele>
        <time>2009-03-08T10:24:40Z</time>
      </trkpt>
      <trkpt lat="43.62627" lon="6.80049">
        <ele>133.94686889648</ele>
        <time>2009-03-08T10:24:45Z</time>
      </trkpt>
      <trkpt lat="43.62622" lon="6.80062">
        <ele>133.33192443848</ele>
        <time>2009-03-08T10:24:49Z</time>
      </trkpt>
      <trkpt lat="43.62621" lon="6.8007">
        <ele>132.67663574219</ele>
        <time>2009-03-08T10:24:52Z</time>
      </trkpt>
      <trkpt lat="43.62619" lon="6.80089">
        <ele>130.75494384766</ele>
        <time>2009-03-08T10:24:57Z</time>
      </trkpt>
      <trkpt lat="43.62619" lon="6.80107">
        <ele>128.97109985352</ele>
        <time>2009-03-08T10:25:02Z</time>
      </trkpt>
      <trkpt lat="43.62617" lon="6.80129">
        <ele>127.42205810547</ele>
        <time>2009-03-08T10:25:07Z</time>
      </trkpt>
      <trkpt lat="43.62611" lon="6.80152">
        <ele>126.64037322998</ele>
        <time>2009-03-08T10:25:13Z</time>
      </trkpt>
      <trkpt lat="43.62605" lon="6.80172">
        <ele>127.1418762207</ele>
        <time>2009-03-08T10:25:19Z</time>
      </trkpt>
      <trkpt lat="43.626" lon="6.80191">
        <ele>128.25424194336</ele>
        <time>2009-03-08T10:25:24Z</time>
      </trkpt>
      <trkpt lat="43.62597" lon="6.802">
        <ele>128.83282470703</ele>
        <time>2009-03-08T10:25:28Z</time>
      </trkpt>
      <trkpt lat="43.62594" lon="6.80209">
        <ele>129.23320007324</ele>
        <time>2009-03-08T10:25:33Z</time>
      </trkpt>
      <trkpt lat="43.62592" lon="6.80214">
        <ele>129.87036132812</ele>
        <time>2009-03-08T10:25:38Z</time>
      </trkpt>
      <trkpt lat="43.62587" lon="6.80225">
        <ele>131.35958862305</ele>
        <time>2009-03-08T10:25:44Z</time>
      </trkpt>
      <trkpt lat="43.62585" lon="6.80231">
        <ele>131.84059143066</ele>
        <time>2009-03-08T10:25:48Z</time>
      </trkpt>
      <trkpt lat="43.62583" lon="6.80249">
        <ele>132.15242004394</ele>
        <time>2009-03-08T10:25:53Z</time>
      </trkpt>
      <trkpt lat="43.62584" lon="6.80264">
        <ele>132.37895202637</ele>
        <time>2009-03-08T10:25:57Z</time>
      </trkpt>
      <trkpt lat="43.62585" lon="6.80291">
        <ele>132.69100952148</ele>
        <time>2009-03-08T10:26:04Z</time>
      </trkpt>
      <trkpt lat="43.62587" lon="6.80311">
        <ele>132.29849243164</ele>
        <time>2009-03-08T10:26:09Z</time>
      </trkpt>
      <trkpt lat="43.62589" lon="6.80331">
        <ele>131.29203796387</ele>
        <time>2009-03-08T10:26:14Z</time>
      </trkpt>
      <trkpt lat="43.62591" lon="6.8035">
        <ele>130.78665161133</ele>
        <time>2009-03-08T10:26:19Z</time>
      </trkpt>
      <trkpt lat="43.62595" lon="6.80375">
        <ele>129.37902832031</ele>
        <time>2009-03-08T10:26:25Z</time>
      </trkpt>
      <trkpt lat="43.62597" lon="6.80396">
        <ele>128.94473266602</ele>
        <time>2009-03-08T10:26:30Z</time>
      </trkpt>
      <trkpt lat="43.62598" lon="6.80407">
        <ele>128.40570068359</ele>
        <time>2009-03-08T10:26:34Z</time>
      </trkpt>
      <trkpt lat="43.62599" lon="6.80408">
        <ele>128.20657348633</ele>
        <time>2009-03-08T10:26:35Z</time>
      </trkpt>
      <trkpt lat="43.62603" lon="6.80412">
        <ele>126.03163146973</ele>
        <time>2009-03-08T10:26:42Z</time>
      </trkpt>
      <trkpt lat="43.62605" lon="6.80417">
        <ele>125.09829711914</ele>
        <time>2009-03-08T10:26:47Z</time>
      </trkpt>
      <trkpt lat="43.62613" lon="6.80434">
        <ele>122.50485992432</ele>
        <time>2009-03-08T10:26:53Z</time>
      </trkpt>
      <trkpt lat="43.62621" lon="6.80458">
        <ele>123.89087677002</ele>
        <time>2009-03-08T10:26:59Z</time>
      </trkpt>
      <trkpt lat="43.6262" lon="6.80488">
        <ele>126.93492126465</ele>
        <time>2009-03-08T10:27:05Z</time>
      </trkpt>
      <trkpt lat="43.62613" lon="6.80518">
        <ele>132.17965698242</ele>
        <time>2009-03-08T10:27:11Z</time>
      </trkpt>
      <trkpt lat="43.62611" lon="6.80555">
        <ele>137.03721618652</ele>
        <time>2009-03-08T10:27:17Z</time>
      </trkpt>
      <trkpt lat="43.62612" lon="6.80589">
        <ele>140.46192932129</ele>
        <time>2009-03-08T10:27:22Z</time>
      </trkpt>
      <trkpt lat="43.62619" lon="6.8062">
        <ele>142.79106140137</ele>
        <time>2009-03-08T10:27:27Z</time>
      </trkpt>
      <trkpt lat="43.62627" lon="6.80636">
        <ele>143.34223937988</ele>
        <time>2009-03-08T10:27:31Z</time>
      </trkpt>
      <trkpt lat="43.62635" lon="6.80658">
        <ele>143.41981506348</ele>
        <time>2009-03-08T10:27:38Z</time>
      </trkpt>
      <trkpt lat="43.62638" lon="6.80664">
        <ele>143.00268554688</ele>
        <time>2009-03-08T10:27:41Z</time>
      </trkpt>
      <trkpt lat="43.62637" lon="6.80668">
        <ele>143.81509399414</ele>
        <time>2009-03-08T10:27:48Z</time>
      </trkpt>
      <trkpt lat="43.62639" lon="6.80668">
        <ele>143.05931091309</ele>
        <time>2009-03-08T10:28:01Z</time>
      </trkpt>
      <trkpt lat="43.62644" lon="6.80671">
        <ele>140.95562744141</ele>
        <time>2009-03-08T10:28:15Z</time>
      </trkpt>
      <trkpt lat="43.62642" lon="6.80673">
        <ele>142.14714050293</ele>
        <time>2009-03-08T10:28:23Z</time>
      </trkpt>
      <trkpt lat="43.62642" lon="6.80673">
        <ele>142.62413024902</ele>
        <time>2009-03-08T10:28:27Z</time>
      </trkpt>
      <trkpt lat="43.62642" lon="6.80676">
        <ele>143.01222229004</ele>
        <time>2009-03-08T10:28:36Z</time>
      </trkpt>
      <trkpt lat="43.62641" lon="6.80678">
        <ele>143.58947753906</ele>
        <time>2009-03-08T10:28:49Z</time>
      </trkpt>
      <trkpt lat="43.62644" lon="6.80683">
        <ele>142.93325805664</ele>
        <time>2009-03-08T10:28:55Z</time>
      </trkpt>
      <trkpt lat="43.62646" lon="6.80687">
        <ele>142.42599487305</ele>
        <time>2009-03-08T10:29:00Z</time>
      </trkpt>
      <trkpt lat="43.62648" lon="6.80694">
        <ele>141.73728942871</ele>
        <time>2009-03-08T10:29:06Z</time>
      </trkpt>
      <trkpt lat="43.6265" lon="6.80699">
        <ele>141.22012329102</ele>
        <time>2009-03-08T10:29:09Z</time>
      </trkpt>
      <trkpt lat="43.62657" lon="6.80724">
        <ele>138.30854797363</ele>
        <time>2009-03-08T10:29:16Z</time>
      </trkpt>
      <trkpt lat="43.62667" lon="6.80752">
        <ele>134.38627624512</ele>
        <time>2009-03-08T10:29:22Z</time>
      </trkpt>
      <trkpt lat="43.62674" lon="6.80769">
        <ele>133.29440307617</ele>
        <time>2009-03-08T10:29:26Z</time>
      </trkpt>
      <trkpt lat="43.62679" lon="6.80785">
        <ele>132.13166809082</ele>
        <time>2009-03-08T10:29:30Z</time>
      </trkpt>
      <trkpt lat="43.62682" lon="6.80797">
        <ele>130.93515014648</ele>
        <time>2009-03-08T10:29:34Z</time>
      </trkpt>
      <trkpt lat="43.62683" lon="6.80798">
        <ele>130.07434082031</ele>
        <time>2009-03-08T10:29:35Z</time>
      </trkpt>
      <trkpt lat="43.6269" lon="6.80807">
        <ele>125.61574554443</ele>
        <time>2009-03-08T10:29:41Z</time>
      </trkpt>
      <trkpt lat="43.627" lon="6.80818">
        <ele>120.8540725708</ele>
        <time>2009-03-08T10:29:46Z</time>
      </trkpt>
      <trkpt lat="43.62706" lon="6.80822">
        <ele>118.60656738281</ele>
        <time>2009-03-08T10:29:48Z</time>
      </trkpt>
      <trkpt lat="43.62724" lon="6.80837">
        <ele>110.41732788086</ele>
        <time>2009-03-08T10:29:54Z</time>
      </trkpt>
      <trkpt lat="43.62733" lon="6.80843">
        <ele>107.12387084961</ele>
        <time>2009-03-08T10:29:57Z</time>
      </trkpt>
      <trkpt lat="43.62741" lon="6.8085">
        <ele>104.09234619141</ele>
        <time>2009-03-08T10:30:02Z</time>
      </trkpt>
      <trkpt lat="43.62749" lon="6.8086">
        <ele>100.41960906982</ele>
        <time>2009-03-08T10:30:07Z</time>
      </trkpt>
      <trkpt lat="43.62756" lon="6.8087">
        <ele>99.771484375</ele>
        <time>2009-03-08T10:30:12Z</time>
      </trkpt>
      <trkpt lat="43.62761" lon="6.80872">
        <ele>99.606689453125</ele>
        <time>2009-03-08T10:30:15Z</time>
      </trkpt>
      <trkpt lat="43.62763" lon="6.8087">
        <ele>99.538024902344</ele>
        <time>2009-03-08T10:30:17Z</time>
      </trkpt>
      <trkpt lat="43.62767" lon="6.80869">
        <ele>99.386962890625</ele>
        <time>2009-03-08T10:30:23Z</time>
      </trkpt>
      <trkpt lat="43.62769" lon="6.80874">
        <ele>99.304565429688</ele>
        <time>2009-03-08T10:30:30Z</time>
      </trkpt>
      <trkpt lat="43.62772" lon="6.80876">
        <ele>99.208435058594</ele>
        <time>2009-03-08T10:30:36Z</time>
      </trkpt>
      <trkpt lat="43.6277" lon="6.80881">
        <ele>99.290832519531</ele>
        <time>2009-03-08T10:30:44Z</time>
      </trkpt>
      <trkpt lat="43.62767" lon="6.80888">
        <ele>99.373229980469</ele>
        <time>2009-03-08T10:30:50Z</time>
      </trkpt>
      <trkpt lat="43.62767" lon="6.80889">
        <ele>99.400695800781</ele>
        <time>2009-03-08T10:30:55Z</time>
      </trkpt>
      <trkpt lat="43.62766" lon="6.80897">
        <ele>99.44189453125</ele>
        <time>2009-03-08T10:31:09Z</time>
      </trkpt>
      <trkpt lat="43.62766" lon="6.80902">
        <ele>99.414428710938</ele>
        <time>2009-03-08T10:31:14Z</time>
      </trkpt>
      <trkpt lat="43.62766" lon="6.80908">
        <ele>99.428161621094</ele>
        <time>2009-03-08T10:31:17Z</time>
      </trkpt>
      <trkpt lat="43.62766" lon="6.80909">
        <ele>99.414428710938</ele>
        <time>2009-03-08T10:31:19Z</time>
      </trkpt>
      <trkpt lat="43.62766" lon="6.80927">
        <ele>100.04409790039</ele>
        <time>2009-03-08T10:31:26Z</time>
      </trkpt>
      <trkpt lat="43.62766" lon="6.80945">
        <ele>101.09201049805</ele>
        <time>2009-03-08T10:31:32Z</time>
      </trkpt>
      <trkpt lat="43.62771" lon="6.80964">
        <ele>100.60638427734</ele>
        <time>2009-03-08T10:31:38Z</time>
      </trkpt>
      <trkpt lat="43.62776" lon="6.80982">
        <ele>99.599014282227</ele>
        <time>2009-03-08T10:31:44Z</time>
      </trkpt>
      <trkpt lat="43.62782" lon="6.81001">
        <ele>99</ele>
        <time>2009-03-08T10:31:50Z</time>
      </trkpt>
      <trkpt lat="43.62785" lon="6.81009">
        <ele>99</ele>
        <time>2009-03-08T10:31:53Z</time>
      </trkpt>
      <trkpt lat="43.62788" lon="6.81026">
        <ele>99</ele>
        <time>2009-03-08T10:32:00Z</time>
      </trkpt>
      <trkpt lat="43.62788" lon="6.81043">
        <ele>99.334487915039</ele>
        <time>2009-03-08T10:32:06Z</time>
      </trkpt>
      <trkpt lat="43.62787" lon="6.81055">
        <ele>99.639656066895</ele>
        <time>2009-03-08T10:32:12Z</time>
      </trkpt>
      <trkpt lat="43.62789" lon="6.81067">
        <ele>101.6187210083</ele>
        <time>2009-03-08T10:32:19Z</time>
      </trkpt>
      <trkpt lat="43.62791" lon="6.81076">
        <ele>102.54864501953</ele>
        <time>2009-03-08T10:32:24Z</time>
      </trkpt>
      <trkpt lat="43.62795" lon="6.81088">
        <ele>103.59513092041</ele>
        <time>2009-03-08T10:32:30Z</time>
      </trkpt>
      <trkpt lat="43.62796" lon="6.81093">
        <ele>104.19005584717</ele>
        <time>2009-03-08T10:32:32Z</time>
      </trkpt>
      <trkpt lat="43.62803" lon="6.8111">
        <ele>104.14150238037</ele>
        <time>2009-03-08T10:32:40Z</time>
      </trkpt>
      <trkpt lat="43.62807" lon="6.81125">
        <ele>106.08799743652</ele>
        <time>2009-03-08T10:32:45Z</time>
      </trkpt>
      <trkpt lat="43.62812" lon="6.81149">
        <ele>110.08516693115</ele>
        <time>2009-03-08T10:32:50Z</time>
      </trkpt>
      <trkpt lat="43.62819" lon="6.81182">
        <ele>110.64008331299</ele>
        <time>2009-03-08T10:32:56Z</time>
      </trkpt>
      <trkpt lat="43.62826" lon="6.81207">
        <ele>109.26544189453</ele>
        <time>2009-03-08T10:33:01Z</time>
      </trkpt>
      <trkpt lat="43.62825" lon="6.81216">
        <ele>111.59226989746</ele>
        <time>2009-03-08T10:33:04Z</time>
      </trkpt>
      <trkpt lat="43.62819" lon="6.81209">
        <ele>113.64306640625</ele>
        <time>2009-03-08T10:33:10Z</time>
      </trkpt>
      <trkpt lat="43.62816" lon="6.81206">
        <ele>114.81793212891</ele>
        <time>2009-03-08T10:33:12Z</time>
      </trkpt>
      <trkpt lat="43.62807" lon="6.812">
        <ele>119.37982940674</ele>
        <time>2009-03-08T10:33:19Z</time>
      </trkpt>
      <trkpt lat="43.62801" lon="6.81203">
        <ele>121.84886169434</ele>
        <time>2009-03-08T10:33:24Z</time>
      </trkpt>
      <trkpt lat="43.62796" lon="6.81208">
        <ele>123.55860900879</ele>
        <time>2009-03-08T10:33:28Z</time>
      </trkpt>
      <trkpt lat="43.62788" lon="6.81218">
        <ele>126.20562744141</ele>
        <time>2009-03-08T10:33:33Z</time>
      </trkpt>
      <trkpt lat="43.62781" lon="6.81229">
        <ele>129.23124694824</ele>
        <time>2009-03-08T10:33:38Z</time>
      </trkpt>
      <trkpt lat="43.62775" lon="6.81242">
        <ele>133.14956665039</ele>
        <time>2009-03-08T10:33:43Z</time>
      </trkpt>
      <trkpt lat="43.62766" lon="6.81258">
        <ele>139.01400756836</ele>
        <time>2009-03-08T10:33:48Z</time>
      </trkpt>
      <trkpt lat="43.62757" lon="6.81282">
        <ele>144.44119262695</ele>
        <time>2009-03-08T10:33:53Z</time>
      </trkpt>
      <trkpt lat="43.6275" lon="6.813">
        <ele>148.70797729492</ele>
        <time>2009-03-08T10:33:58Z</time>
      </trkpt>
      <trkpt lat="43.62745" lon="6.81326">
        <ele>152.62811279297</ele>
        <time>2009-03-08T10:34:03Z</time>
      </trkpt>
      <trkpt lat="43.6274" lon="6.81354">
        <ele>156.10838317871</ele>
        <time>2009-03-08T10:34:09Z</time>
      </trkpt>
      <trkpt lat="43.62739" lon="6.81369">
        <ele>155.36329650879</ele>
        <time>2009-03-08T10:34:14Z</time>
      </trkpt>
      <trkpt lat="43.62739" lon="6.81371">
        <ele>155.12690734863</ele>
        <time>2009-03-08T10:34:15Z</time>
      </trkpt>
      <trkpt lat="43.62733" lon="6.81383">
        <ele>156.45483398438</ele>
        <time>2009-03-08T10:34:21Z</time>
      </trkpt>
      <trkpt lat="43.62732" lon="6.81388">
        <ele>156.3330078125</ele>
        <time>2009-03-08T10:34:23Z</time>
      </trkpt>
      <trkpt lat="43.6273" lon="6.81403">
        <ele>156.14794921875</ele>
        <time>2009-03-08T10:34:29Z</time>
      </trkpt>
      <trkpt lat="43.6273" lon="6.81417">
        <ele>154.37773132324</ele>
        <time>2009-03-08T10:34:35Z</time>
      </trkpt>
      <trkpt lat="43.6273" lon="6.81431">
        <ele>154.08560180664</ele>
        <time>2009-03-08T10:34:41Z</time>
      </trkpt>
      <trkpt lat="43.6273" lon="6.81441">
        <ele>153.72415161133</ele>
        <time>2009-03-08T10:34:45Z</time>
      </trkpt>
      <trkpt lat="43.6273" lon="6.81445">
        <ele>153.34080505371</ele>
        <time>2009-03-08T10:34:47Z</time>
      </trkpt>
      <trkpt lat="43.62728" lon="6.81455">
        <ele>152.43922424316</ele>
        <time>2009-03-08T10:34:51Z</time>
      </trkpt>
      <trkpt lat="43.62726" lon="6.81469">
        <ele>149.78495788574</ele>
        <time>2009-03-08T10:34:57Z</time>
      </trkpt>
      <trkpt lat="43.62725" lon="6.81475">
        <ele>148.32588195801</ele>
        <time>2009-03-08T10:35:01Z</time>
      </trkpt>
      <trkpt lat="43.62725" lon="6.81479">
        <ele>147.27987670898</ele>
        <time>2009-03-08T10:35:07Z</time>
      </trkpt>
      <trkpt lat="43.62723" lon="6.8148">
        <ele>148.07922363281</ele>
        <time>2009-03-08T10:35:09Z</time>
      </trkpt>
      <trkpt lat="43.62711" lon="6.81494">
        <ele>150.37536621094</ele>
        <time>2009-03-08T10:35:14Z</time>
      </trkpt>
      <trkpt lat="43.62704" lon="6.81503">
        <ele>152.17634582519</ele>
        <time>2009-03-08T10:35:16Z</time>
      </trkpt>
      <trkpt lat="43.62681" lon="6.81538">
        <ele>159.92280578613</ele>
        <time>2009-03-08T10:35:21Z</time>
      </trkpt>
      <trkpt lat="43.62645" lon="6.81597">
        <ele>160.60530090332</ele>
        <time>2009-03-08T10:35:27Z</time>
      </trkpt>
      <trkpt lat="43.62639" lon="6.8162">
        <ele>151.51544189453</ele>
        <time>2009-03-08T10:35:30Z</time>
      </trkpt>
      <trkpt lat="43.62634" lon="6.81636">
        <ele>146.07608032227</ele>
        <time>2009-03-08T10:35:33Z</time>
      </trkpt>
      <trkpt lat="43.62625" lon="6.81656">
        <ele>142.25814819336</ele>
        <time>2009-03-08T10:35:38Z</time>
      </trkpt>
      <trkpt lat="43.62617" lon="6.81666">
        <ele>142.20445251465</ele>
        <time>2009-03-08T10:35:42Z</time>
      </trkpt>
      <trkpt lat="43.62621" lon="6.81667">
        <ele>140.29295349121</ele>
        <time>2009-03-08T10:35:50Z</time>
      </trkpt>
      <trkpt lat="43.62623" lon="6.8167">
        <ele>138.27792358398</ele>
        <time>2009-03-08T10:35:59Z</time>
      </trkpt>
      <trkpt lat="43.62622" lon="6.81673">
        <ele>137.16423034668</ele>
        <time>2009-03-08T10:36:07Z</time>
      </trkpt>
      <trkpt lat="43.62622" lon="6.81677">
        <ele>136.0011138916</ele>
        <time>2009-03-08T10:36:10Z</time>
      </trkpt>
      <trkpt lat="43.62618" lon="6.81692">
        <ele>131.33963012695</ele>
        <time>2009-03-08T10:36:15Z</time>
      </trkpt>
      <trkpt lat="43.62619" lon="6.81695">
        <ele>130.11010742188</ele>
        <time>2009-03-08T10:36:16Z</time>
      </trkpt>
      <trkpt lat="43.62627" lon="6.81696">
        <ele>125.61563873291</ele>
        <time>2009-03-08T10:36:21Z</time>
      </trkpt>
      <trkpt lat="43.62633" lon="6.81695">
        <ele>123.06579589844</ele>
        <time>2009-03-08T10:36:24Z</time>
      </trkpt>
      <trkpt lat="43.62638" lon="6.81694">
        <ele>120.72757720947</ele>
        <time>2009-03-08T10:36:30Z</time>
      </trkpt>
      <trkpt lat="43.62638" lon="6.81694">
        <ele>120.79907989502</ele>
        <time>2009-03-08T10:36:34Z</time>
      </trkpt>
      <trkpt lat="43.62637" lon="6.81698">
        <ele>120.28500366211</ele>
        <time>2009-03-08T10:36:49Z</time>
      </trkpt>
      <trkpt lat="43.62643" lon="6.81693">
        <ele>118.36912536621</ele>
        <time>2009-03-08T10:37:05Z</time>
      </trkpt>
      <trkpt lat="43.62642" lon="6.81702">
        <ele>116.55685424805</ele>
        <time>2009-03-08T10:37:11Z</time>
      </trkpt>
      <trkpt lat="43.62645" lon="6.81704">
        <ele>114.82038116455</ele>
        <time>2009-03-08T10:37:16Z</time>
      </trkpt>
      <trkpt lat="43.62654" lon="6.81705">
        <ele>109.11622619629</ele>
        <time>2009-03-08T10:37:22Z</time>
      </trkpt>
      <trkpt lat="43.62661" lon="6.81704">
        <ele>106.02267456055</ele>
        <time>2009-03-08T10:37:25Z</time>
      </trkpt>
      <trkpt lat="43.62666" lon="6.81706">
        <ele>102.92053985596</ele>
        <time>2009-03-08T10:37:29Z</time>
      </trkpt>
      <trkpt lat="43.62671" lon="6.81716">
        <ele>100.51161193848</ele>
        <time>2009-03-08T10:37:34Z</time>
      </trkpt>
      <trkpt lat="43.62671" lon="6.81719">
        <ele>100.12845611572</ele>
        <time>2009-03-08T10:37:35Z</time>
      </trkpt>
      <trkpt lat="43.62672" lon="6.81728">
        <ele>99.470329284668</ele>
        <time>2009-03-08T10:37:39Z</time>
      </trkpt>
      <trkpt lat="43.62682" lon="6.81733">
        <ele>98.752334594727</ele>
        <time>2009-03-08T10:37:44Z</time>
      </trkpt>
      <trkpt lat="43.62693" lon="6.81728">
        <ele>98.067390441895</ele>
        <time>2009-03-08T10:37:47Z</time>
      </trkpt>
      <trkpt lat="43.62701" lon="6.81727">
        <ele>97.762756347656</ele>
        <time>2009-03-08T10:37:49Z</time>
      </trkpt>
      <trkpt lat="43.62703" lon="6.81735">
        <ele>97.680358886719</ele>
        <time>2009-03-08T10:37:53Z</time>
      </trkpt>
      <trkpt lat="43.62704" lon="6.81737">
        <ele>97.666625976562</ele>
        <time>2009-03-08T10:37:55Z</time>
      </trkpt>
      <trkpt lat="43.62703" lon="6.81744">
        <ele>97.694091796875</ele>
        <time>2009-03-08T10:37:59Z</time>
      </trkpt>
      <trkpt lat="43.62698" lon="6.81759">
        <ele>97.546051025391</ele>
        <time>2009-03-08T10:38:06Z</time>
      </trkpt>
      <trkpt lat="43.62697" lon="6.81765">
        <ele>97.376106262207</ele>
        <time>2009-03-08T10:38:09Z</time>
      </trkpt>
      <trkpt lat="43.62697" lon="6.81765">
        <ele>97.352073669434</ele>
        <time>2009-03-08T10:38:15Z</time>
      </trkpt>
      <trkpt lat="43.62698" lon="6.81763">
        <ele>97.386405944824</ele>
        <time>2009-03-08T10:38:27Z</time>
      </trkpt>
      <trkpt lat="43.62692" lon="6.81771">
        <ele>97.326324462891</ele>
        <time>2009-03-08T10:38:32Z</time>
      </trkpt>
      <trkpt lat="43.62692" lon="6.8178">
        <ele>96.997283935547</ele>
        <time>2009-03-08T10:38:35Z</time>
      </trkpt>
      <trkpt lat="43.62695" lon="6.81782">
        <ele>96.85425567627</ele>
        <time>2009-03-08T10:38:38Z</time>
      </trkpt>
      <trkpt lat="43.62697" lon="6.81783">
        <ele>96.711776733398</ele>
        <time>2009-03-08T10:38:41Z</time>
      </trkpt>
      <trkpt lat="43.627" lon="6.81793">
        <ele>96.255157470703</ele>
        <time>2009-03-08T10:38:47Z</time>
      </trkpt>
      <trkpt lat="43.62701" lon="6.81798">
        <ele>96.019981384277</ele>
        <time>2009-03-08T10:38:51Z</time>
      </trkpt>
      <trkpt lat="43.62701" lon="6.81801">
        <ele>95.911834716797</ele>
        <time>2009-03-08T10:38:57Z</time>
      </trkpt>
      <trkpt lat="43.62699" lon="6.81803">
        <ele>95.932434082031</ele>
        <time>2009-03-08T10:39:06Z</time>
      </trkpt>
      <trkpt lat="43.62699" lon="6.81807">
        <ele>95.807121276855</ele>
        <time>2009-03-08T10:39:11Z</time>
      </trkpt>
      <trkpt lat="43.62695" lon="6.81811">
        <ele>95.762489318848</ele>
        <time>2009-03-08T10:39:18Z</time>
      </trkpt>
      <trkpt lat="43.62696" lon="6.81812">
        <ele>95.693824768066</ele>
        <time>2009-03-08T10:39:31Z</time>
      </trkpt>
      <trkpt lat="43.62696" lon="6.81814">
        <ele>95.662925720215</ele>
        <time>2009-03-08T10:39:33Z</time>
      </trkpt>
      <trkpt lat="43.62687" lon="6.81824">
        <ele>95.510124206543</ele>
        <time>2009-03-08T10:39:39Z</time>
      </trkpt>
      <trkpt lat="43.62677" lon="6.81838">
        <ele>95.357566833496</ele>
        <time>2009-03-08T10:39:44Z</time>
      </trkpt>
      <trkpt lat="43.62664" lon="6.81851">
        <ele>94.840560913086</ele>
        <time>2009-03-08T10:39:49Z</time>
      </trkpt>
      <trkpt lat="43.62646" lon="6.81871">
        <ele>94.864967346191</ele>
        <time>2009-03-08T10:39:55Z</time>
      </trkpt>
      <trkpt lat="43.62624" lon="6.8189">
        <ele>95.02806854248</ele>
        <time>2009-03-08T10:40:02Z</time>
      </trkpt>
      <trkpt lat="43.62615" lon="6.81903">
        <ele>95.220329284668</ele>
        <time>2009-03-08T10:40:06Z</time>
      </trkpt>
      <trkpt lat="43.62605" lon="6.81925">
        <ele>95.315444946289</ele>
        <time>2009-03-08T10:40:11Z</time>
      </trkpt>
      <trkpt lat="43.62595" lon="6.81951">
        <ele>94.818786621094</ele>
        <time>2009-03-08T10:40:17Z</time>
      </trkpt>
      <trkpt lat="43.62588" lon="6.81971">
        <ele>94.531585693359</ele>
        <time>2009-03-08T10:40:22Z</time>
      </trkpt>
      <trkpt lat="43.62577" lon="6.81998">
        <ele>94.511085510254</ele>
        <time>2009-03-08T10:40:28Z</time>
      </trkpt>
      <trkpt lat="43.6257" lon="6.82017">
        <ele>93.743423461914</ele>
        <time>2009-03-08T10:40:33Z</time>
      </trkpt>
      <trkpt lat="43.62554" lon="6.82035">
        <ele>93.84610748291</ele>
        <time>2009-03-08T10:40:38Z</time>
      </trkpt>
      <trkpt lat="43.62531" lon="6.82053">
        <ele>94.879508972168</ele>
        <time>2009-03-08T10:40:45Z</time>
      </trkpt>
      <trkpt lat="43.62514" lon="6.82064">
        <ele>96.314270019531</ele>
        <time>2009-03-08T10:40:52Z</time>
      </trkpt>
      <trkpt lat="43.62497" lon="6.82079">
        <ele>97.728530883789</ele>
        <time>2009-03-08T10:40:58Z</time>
      </trkpt>
      <trkpt lat="43.6249" lon="6.82091">
        <ele>97.833015441895</ele>
        <time>2009-03-08T10:41:03Z</time>
      </trkpt>
      <trkpt lat="43.62482" lon="6.82109">
        <ele>97.95832824707</ele>
        <time>2009-03-08T10:41:08Z</time>
      </trkpt>
      <trkpt lat="43.62473" lon="6.82138">
        <ele>97.032745361328</ele>
        <time>2009-03-08T10:41:15Z</time>
      </trkpt>
      <trkpt lat="43.62458" lon="6.82164">
        <ele>96.716888427734</ele>
        <time>2009-03-08T10:41:21Z</time>
      </trkpt>
      <trkpt lat="43.62448" lon="6.82188">
        <ele>96.193771362305</ele>
        <time>2009-03-08T10:41:27Z</time>
      </trkpt>
      <trkpt lat="43.62433" lon="6.82206">
        <ele>96.411331176758</ele>
        <time>2009-03-08T10:41:32Z</time>
      </trkpt>
      <trkpt lat="43.62415" lon="6.82208">
        <ele>98.405372619629</ele>
        <time>2009-03-08T10:41:38Z</time>
      </trkpt>
      <trkpt lat="43.62395" lon="6.82207">
        <ele>103.78415679932</ele>
        <time>2009-03-08T10:41:45Z</time>
      </trkpt>
      <trkpt lat="43.62378" lon="6.82221">
        <ele>104.39125061035</ele>
        <time>2009-03-08T10:41:51Z</time>
      </trkpt>
      <trkpt lat="43.62368" lon="6.82231">
        <ele>104.94990539551</ele>
        <time>2009-03-08T10:41:55Z</time>
      </trkpt>
      <trkpt lat="43.62357" lon="6.82243">
        <ele>104.64075469971</ele>
        <time>2009-03-08T10:42:01Z</time>
      </trkpt>
      <trkpt lat="43.62341" lon="6.82256">
        <ele>106.04914855957</ele>
        <time>2009-03-08T10:42:08Z</time>
      </trkpt>
      <trkpt lat="43.62325" lon="6.82269">
        <ele>105.78686523438</ele>
        <time>2009-03-08T10:42:14Z</time>
      </trkpt>
      <trkpt lat="43.62307" lon="6.82282">
        <ele>104.84216308594</ele>
        <time>2009-03-08T10:42:21Z</time>
      </trkpt>
      <trkpt lat="43.62291" lon="6.82289">
        <ele>110.88600158691</ele>
        <time>2009-03-08T10:42:27Z</time>
      </trkpt>
      <trkpt lat="43.62276" lon="6.82298">
        <ele>114.55882263184</ele>
        <time>2009-03-08T10:42:33Z</time>
      </trkpt>
      <trkpt lat="43.62263" lon="6.82311">
        <ele>115.4347076416</ele>
        <time>2009-03-08T10:42:38Z</time>
      </trkpt>
      <trkpt lat="43.62256" lon="6.82316">
        <ele>115.52680969238</ele>
        <time>2009-03-08T10:42:42Z</time>
      </trkpt>
      <trkpt lat="43.62247" lon="6.82325">
        <ele>114.27506256103</ele>
        <time>2009-03-08T10:42:47Z</time>
      </trkpt>
      <trkpt lat="43.6223" lon="6.82342">
        <ele>118.24613952637</ele>
        <time>2009-03-08T10:42:54Z</time>
      </trkpt>
      <trkpt lat="43.62217" lon="6.82357">
        <ele>119.25708007812</ele>
        <time>2009-03-08T10:42:59Z</time>
      </trkpt>
      <trkpt lat="43.62204" lon="6.82367">
        <ele>123.91619110107</ele>
        <time>2009-03-08T10:43:03Z</time>
      </trkpt>
      <trkpt lat="43.62174" lon="6.82381">
        <ele>130.33639526367</ele>
        <time>2009-03-08T10:43:12Z</time>
      </trkpt>
      <trkpt lat="43.62149" lon="6.82391">
        <ele>130.68190002441</ele>
        <time>2009-03-08T10:43:20Z</time>
      </trkpt>
      <trkpt lat="43.62125" lon="6.82402">
        <ele>130.62712097168</ele>
        <time>2009-03-08T10:43:27Z</time>
      </trkpt>
      <trkpt lat="43.62113" lon="6.82406">
        <ele>131.22450256348</ele>
        <time>2009-03-08T10:43:31Z</time>
      </trkpt>
      <trkpt lat="43.62097" lon="6.82406">
        <ele>132.33616638184</ele>
        <time>2009-03-08T10:43:36Z</time>
      </trkpt>
      <trkpt lat="43.62075" lon="6.82405">
        <ele>133.61378479004</ele>
        <time>2009-03-08T10:43:43Z</time>
      </trkpt>
      <trkpt lat="43.62051" lon="6.82406">
        <ele>133.63206481934</ele>
        <time>2009-03-08T10:43:49Z</time>
      </trkpt>
      <trkpt lat="43.62031" lon="6.82401">
        <ele>136.04905700684</ele>
        <time>2009-03-08T10:43:54Z</time>
      </trkpt>
      <trkpt lat="43.6201" lon="6.82392">
        <ele>138.98655700684</ele>
        <time>2009-03-08T10:44:00Z</time>
      </trkpt>
      <trkpt lat="43.61987" lon="6.82382">
        <ele>141.16070556641</ele>
        <time>2009-03-08T10:44:07Z</time>
      </trkpt>
      <trkpt lat="43.61964" lon="6.82377">
        <ele>142.58096313477</ele>
        <time>2009-03-08T10:44:14Z</time>
      </trkpt>
      <trkpt lat="43.61947" lon="6.82372">
        <ele>144.22131347656</ele>
        <time>2009-03-08T10:44:20Z</time>
      </trkpt>
      <trkpt lat="43.61927" lon="6.82371">
        <ele>144.54217529297</ele>
        <time>2009-03-08T10:44:26Z</time>
      </trkpt>
      <trkpt lat="43.61906" lon="6.8236">
        <ele>146.9715423584</ele>
        <time>2009-03-08T10:44:32Z</time>
      </trkpt>
      <trkpt lat="43.61879" lon="6.82344">
        <ele>150.77639770508</ele>
        <time>2009-03-08T10:44:41Z</time>
      </trkpt>
      <trkpt lat="43.61856" lon="6.82327">
        <ele>153.14280700684</ele>
        <time>2009-03-08T10:44:49Z</time>
      </trkpt>
      <trkpt lat="43.61842" lon="6.82323">
        <ele>153.77795410156</ele>
        <time>2009-03-08T10:44:54Z</time>
      </trkpt>
      <trkpt lat="43.61837" lon="6.82321">
        <ele>154.15560913086</ele>
        <time>2009-03-08T10:44:56Z</time>
      </trkpt>
      <trkpt lat="43.61831" lon="6.82321">
        <ele>154.09899902344</ele>
        <time>2009-03-08T10:45:02Z</time>
      </trkpt>
      <trkpt lat="43.61831" lon="6.82322">
        <ele>153.88442993164</ele>
        <time>2009-03-08T10:45:09Z</time>
      </trkpt>
      <trkpt lat="43.61827" lon="6.82325">
        <ele>153.13082885742</ele>
        <time>2009-03-08T10:45:18Z</time>
      </trkpt>
      <trkpt lat="43.61826" lon="6.82326">
        <ele>152.861328125</ele>
        <time>2009-03-08T10:45:23Z</time>
      </trkpt>
      <trkpt lat="43.61825" lon="6.82327">
        <ele>152.61584472656</ele>
        <time>2009-03-08T10:45:31Z</time>
      </trkpt>
      <trkpt lat="43.61824" lon="6.82327">
        <ele>152.51800537109</ele>
        <time>2009-03-08T10:45:36Z</time>
      </trkpt>
      <trkpt lat="43.61824" lon="6.8233">
        <ele>151.93092346191</ele>
        <time>2009-03-08T10:46:04Z</time>
      </trkpt>
      <trkpt lat="43.61824" lon="6.8233">
        <ele>151.89659118652</ele>
        <time>2009-03-08T10:46:11Z</time>
      </trkpt>
      <trkpt lat="43.61825" lon="6.82332">
        <ele>151.66999816894</ele>
        <time>2009-03-08T10:46:29Z</time>
      </trkpt>
      <trkpt lat="43.61838" lon="6.82348">
        <ele>149.41775512695</ele>
        <time>2009-03-08T10:46:34Z</time>
      </trkpt>
      <trkpt lat="43.6185" lon="6.82358">
        <ele>147.64105224609</ele>
        <time>2009-03-08T10:46:37Z</time>
      </trkpt>
      <trkpt lat="43.6186" lon="6.8237">
        <ele>146.08172607422</ele>
        <time>2009-03-08T10:46:39Z</time>
      </trkpt>
      <trkpt lat="43.61894" lon="6.82395">
        <ele>142.80020141602</ele>
        <time>2009-03-08T10:46:45Z</time>
      </trkpt>
      <trkpt lat="43.61912" lon="6.82412">
        <ele>138.94812011719</ele>
        <time>2009-03-08T10:46:49Z</time>
      </trkpt>
      <trkpt lat="43.61938" lon="6.8242">
        <ele>136.74803161621</ele>
        <time>2009-03-08T10:46:55Z</time>
      </trkpt>
      <trkpt lat="43.61946" lon="6.8242">
        <ele>136.36383056641</ele>
        <time>2009-03-08T10:46:57Z</time>
      </trkpt>
      <trkpt lat="43.61984" lon="6.82434">
        <ele>132.01788330078</ele>
        <time>2009-03-08T10:47:04Z</time>
      </trkpt>
      <trkpt lat="43.62009" lon="6.82452">
        <ele>128.35530090332</ele>
        <time>2009-03-08T10:47:08Z</time>
      </trkpt>
      <trkpt lat="43.62024" lon="6.82471">
        <ele>124.19422912598</ele>
        <time>2009-03-08T10:47:11Z</time>
      </trkpt>
      <trkpt lat="43.6204" lon="6.82481">
        <ele>120.97973632812</ele>
        <time>2009-03-08T10:47:14Z</time>
      </trkpt>
      <trkpt lat="43.62073" lon="6.82495">
        <ele>116.24248504639</ele>
        <time>2009-03-08T10:47:20Z</time>
      </trkpt>
      <trkpt lat="43.62082" lon="6.82496">
        <ele>116.00215911865</ele>
        <time>2009-03-08T10:47:24Z</time>
      </trkpt>
      <trkpt lat="43.62096" lon="6.82498">
        <ele>115.01161193848</ele>
        <time>2009-03-08T10:47:30Z</time>
      </trkpt>
      <trkpt lat="43.62111" lon="6.82504">
        <ele>113.25868225098</ele>
        <time>2009-03-08T10:47:35Z</time>
      </trkpt>
      <trkpt lat="43.62139" lon="6.82507">
        <ele>109.05361938477</ele>
        <time>2009-03-08T10:47:41Z</time>
      </trkpt>
      <trkpt lat="43.62144" lon="6.82505">
        <ele>107.93707275391</ele>
        <time>2009-03-08T10:47:42Z</time>
      </trkpt>
      <trkpt lat="43.62164" lon="6.82498">
        <ele>104.21685791016</ele>
        <time>2009-03-08T10:47:48Z</time>
      </trkpt>
      <trkpt lat="43.62179" lon="6.82496">
        <ele>100.58082580566</ele>
        <time>2009-03-08T10:47:52Z</time>
      </trkpt>
      <trkpt lat="43.62192" lon="6.825">
        <ele>96.596641540527</ele>
        <time>2009-03-08T10:47:55Z</time>
      </trkpt>
      <trkpt lat="43.6219" lon="6.82514">
        <ele>95.921249389648</ele>
        <time>2009-03-08T10:47:59Z</time>
      </trkpt>
      <trkpt lat="43.62181" lon="6.82533">
        <ele>95.84708404541</ele>
        <time>2009-03-08T10:48:04Z</time>
      </trkpt>
      <trkpt lat="43.62175" lon="6.8254">
        <ele>96.083976745605</ele>
        <time>2009-03-08T10:48:08Z</time>
      </trkpt>
      <trkpt lat="43.62174" lon="6.82542">
        <ele>96.121742248535</ele>
        <time>2009-03-08T10:48:12Z</time>
      </trkpt>
      <trkpt lat="43.62171" lon="6.82551">
        <ele>95.733787536621</ele>
        <time>2009-03-08T10:48:16Z</time>
      </trkpt>
      <trkpt lat="43.62161" lon="6.82563">
        <ele>95.917083740234</ele>
        <time>2009-03-08T10:48:20Z</time>
      </trkpt>
      <trkpt lat="43.62153" lon="6.8257">
        <ele>96.20783996582</ele>
        <time>2009-03-08T10:48:24Z</time>
      </trkpt>
      <trkpt lat="43.62136" lon="6.82578">
        <ele>96.941795349121</ele>
        <time>2009-03-08T10:48:29Z</time>
      </trkpt>
      <trkpt lat="43.62127" lon="6.82591">
        <ele>96.20043182373</ele>
        <time>2009-03-08T10:48:33Z</time>
      </trkpt>
      <trkpt lat="43.62119" lon="6.82609">
        <ele>95.323394775391</ele>
        <time>2009-03-08T10:48:38Z</time>
      </trkpt>
      <trkpt lat="43.62123" lon="6.82629">
        <ele>92.266578674316</ele>
        <time>2009-03-08T10:48:43Z</time>
      </trkpt>
      <trkpt lat="43.62131" lon="6.82646">
        <ele>89.248321533203</ele>
        <time>2009-03-08T10:48:48Z</time>
      </trkpt>
      <trkpt lat="43.6214" lon="6.82655">
        <ele>88.015731811523</ele>
        <time>2009-03-08T10:48:53Z</time>
      </trkpt>
      <trkpt lat="43.62145" lon="6.8266">
        <ele>88.054405212402</ele>
        <time>2009-03-08T10:48:58Z</time>
      </trkpt>
      <trkpt lat="43.62146" lon="6.82659">
        <ele>88.06510925293</ele>
        <time>2009-03-08T10:49:00Z</time>
      </trkpt>
      <trkpt lat="43.62147" lon="6.8266">
        <ele>88.06713104248</ele>
        <time>2009-03-08T10:49:04Z</time>
      </trkpt>
      <trkpt lat="43.62154" lon="6.82677">
        <ele>88</ele>
        <time>2009-03-08T10:49:09Z</time>
      </trkpt>
      <trkpt lat="43.62154" lon="6.82695">
        <ele>88</ele>
        <time>2009-03-08T10:49:12Z</time>
      </trkpt>
      <trkpt lat="43.62143" lon="6.82738">
        <ele>87.914474487305</ele>
        <time>2009-03-08T10:49:18Z</time>
      </trkpt>
      <trkpt lat="43.62141" lon="6.82745">
        <ele>87.925392150879</ele>
        <time>2009-03-08T10:49:19Z</time>
      </trkpt>
      <trkpt lat="43.62138" lon="6.82783">
        <ele>87</ele>
        <time>2009-03-08T10:49:25Z</time>
      </trkpt>
      <trkpt lat="43.62137" lon="6.82788">
        <ele>87</ele>
        <time>2009-03-08T10:49:26Z</time>
      </trkpt>
      <trkpt lat="43.62135" lon="6.828">
        <ele>87</ele>
        <time>2009-03-08T10:49:28Z</time>
      </trkpt>
      <trkpt lat="43.62131" lon="6.82811">
        <ele>87</ele>
        <time>2009-03-08T10:49:30Z</time>
      </trkpt>
      <trkpt lat="43.6213" lon="6.82837">
        <ele>87</ele>
        <time>2009-03-08T10:49:34Z</time>
      </trkpt>
      <trkpt lat="43.62135" lon="6.82862">
        <ele>87.013465881348</ele>
        <time>2009-03-08T10:49:39Z</time>
      </trkpt>
      <trkpt lat="43.62138" lon="6.82889">
        <ele>87.024368286133</ele>
        <time>2009-03-08T10:49:43Z</time>
      </trkpt>
      <trkpt lat="43.62142" lon="6.8291">
        <ele>86.248107910156</ele>
        <time>2009-03-08T10:49:47Z</time>
      </trkpt>
      <trkpt lat="43.62149" lon="6.82923">
        <ele>86</ele>
        <time>2009-03-08T10:49:52Z</time>
      </trkpt>
      <trkpt lat="43.62153" lon="6.82928">
        <ele>86</ele>
        <time>2009-03-08T10:49:54Z</time>
      </trkpt>
      <trkpt lat="43.62164" lon="6.82946">
        <ele>86</ele>
        <time>2009-03-08T10:50:00Z</time>
      </trkpt>
      <trkpt lat="43.62175" lon="6.8297">
        <ele>86.023361206055</ele>
        <time>2009-03-08T10:50:08Z</time>
      </trkpt>
      <trkpt lat="43.62175" lon="6.82973">
        <ele>86</ele>
        <time>2009-03-08T10:50:09Z</time>
      </trkpt>
      <trkpt lat="43.62175" lon="6.82977">
        <ele>86</ele>
        <time>2009-03-08T10:50:14Z</time>
      </trkpt>
      <trkpt lat="43.62174" lon="6.82978">
        <ele>86</ele>
        <time>2009-03-08T10:50:22Z</time>
      </trkpt>
      <trkpt lat="43.62178" lon="6.82994">
        <ele>86</ele>
        <time>2009-03-08T10:50:27Z</time>
      </trkpt>
      <trkpt lat="43.6218" lon="6.83017">
        <ele>86</ele>
        <time>2009-03-08T10:50:31Z</time>
      </trkpt>
      <trkpt lat="43.62188" lon="6.83046">
        <ele>86</ele>
        <time>2009-03-08T10:50:35Z</time>
      </trkpt>
      <trkpt lat="43.62183" lon="6.83074">
        <ele>86</ele>
        <time>2009-03-08T10:50:39Z</time>
      </trkpt>
      <trkpt lat="43.62182" lon="6.83081">
        <ele>86</ele>
        <time>2009-03-08T10:50:40Z</time>
      </trkpt>
      <trkpt lat="43.62167" lon="6.83103">
        <ele>86.017623901367</ele>
        <time>2009-03-08T10:50:45Z</time>
      </trkpt>
      <trkpt lat="43.62164" lon="6.83107">
        <ele>86</ele>
        <time>2009-03-08T10:50:46Z</time>
      </trkpt>
      <trkpt lat="43.62156" lon="6.83123">
        <ele>86</ele>
        <time>2009-03-08T10:50:49Z</time>
      </trkpt>
      <trkpt lat="43.6215" lon="6.83146">
        <ele>86</ele>
        <time>2009-03-08T10:50:53Z</time>
      </trkpt>
      <trkpt lat="43.62147" lon="6.83159">
        <ele>86</ele>
        <time>2009-03-08T10:50:55Z</time>
      </trkpt>
      <trkpt lat="43.62138" lon="6.83182">
        <ele>85.985816955566</ele>
        <time>2009-03-08T10:51:00Z</time>
      </trkpt>
      <trkpt lat="43.62135" lon="6.83186">
        <ele>85.95915222168</ele>
        <time>2009-03-08T10:51:01Z</time>
      </trkpt>
      <trkpt lat="43.6213" lon="6.83192">
        <ele>85.973022460938</ele>
        <time>2009-03-08T10:51:03Z</time>
      </trkpt>
      <trkpt lat="43.62113" lon="6.8322">
        <ele>86</ele>
        <time>2009-03-08T10:51:08Z</time>
      </trkpt>
      <trkpt lat="43.62108" lon="6.83234">
        <ele>85.585433959961</ele>
        <time>2009-03-08T10:51:10Z</time>
      </trkpt>
      <trkpt lat="43.62097" lon="6.83259">
        <ele>85</ele>
        <time>2009-03-08T10:51:14Z</time>
      </trkpt>
      <trkpt lat="43.62091" lon="6.83272">
        <ele>85</ele>
        <time>2009-03-08T10:51:16Z</time>
      </trkpt>
      <trkpt lat="43.62072" lon="6.83297">
        <ele>85</ele>
        <time>2009-03-08T10:51:22Z</time>
      </trkpt>
      <trkpt lat="43.62054" lon="6.83315">
        <ele>84.973495483398</ele>
        <time>2009-03-08T10:51:27Z</time>
      </trkpt>
      <trkpt lat="43.62029" lon="6.83348">
        <ele>84.465560913086</ele>
        <time>2009-03-08T10:51:34Z</time>
      </trkpt>
      <trkpt lat="43.62025" lon="6.83355">
        <ele>84.226951599121</ele>
        <time>2009-03-08T10:51:35Z</time>
      </trkpt>
      <trkpt lat="43.62011" lon="6.83391">
        <ele>84</ele>
        <time>2009-03-08T10:51:39Z</time>
      </trkpt>
      <trkpt lat="43.62008" lon="6.83434">
        <ele>84.551002502441</ele>
        <time>2009-03-08T10:51:44Z</time>
      </trkpt>
      <trkpt lat="43.62008" lon="6.83442">
        <ele>84.786468505859</ele>
        <time>2009-03-08T10:51:45Z</time>
      </trkpt>
      <trkpt lat="43.62001" lon="6.83474">
        <ele>84.589950561523</ele>
        <time>2009-03-08T10:51:50Z</time>
      </trkpt>
      <trkpt lat="43.61982" lon="6.83503">
        <ele>86.442115783691</ele>
        <time>2009-03-08T10:51:56Z</time>
      </trkpt>
      <trkpt lat="43.61951" lon="6.8352">
        <ele>84.421508789062</ele>
        <time>2009-03-08T10:52:02Z</time>
      </trkpt>
      <trkpt lat="43.61934" lon="6.83524">
        <ele>83.134689331055</ele>
        <time>2009-03-08T10:52:06Z</time>
      </trkpt>
      <trkpt lat="43.61911" lon="6.8353">
        <ele>83</ele>
        <time>2009-03-08T10:52:12Z</time>
      </trkpt>
      <trkpt lat="43.619" lon="6.83527">
        <ele>83.012809753418</ele>
        <time>2009-03-08T10:52:15Z</time>
      </trkpt>
      <trkpt lat="43.61876" lon="6.83533">
        <ele>83</ele>
        <time>2009-03-08T10:52:22Z</time>
      </trkpt>
      <trkpt lat="43.6186" lon="6.83534">
        <ele>83.226753234863</ele>
        <time>2009-03-08T10:52:27Z</time>
      </trkpt>
      <trkpt lat="43.61843" lon="6.83536">
        <ele>85.243186950684</ele>
        <time>2009-03-08T10:52:32Z</time>
      </trkpt>
      <trkpt lat="43.61832" lon="6.83538">
        <ele>86.352424621582</ele>
        <time>2009-03-08T10:52:37Z</time>
      </trkpt>
      <trkpt lat="43.61817" lon="6.83547">
        <ele>86.723152160645</ele>
        <time>2009-03-08T10:52:42Z</time>
      </trkpt>
      <trkpt lat="43.61798" lon="6.8356">
        <ele>87.489646911621</ele>
        <time>2009-03-08T10:52:46Z</time>
      </trkpt>
      <trkpt lat="43.61786" lon="6.83569">
        <ele>87.568855285645</ele>
        <time>2009-03-08T10:52:48Z</time>
      </trkpt>
      <trkpt lat="43.6176" lon="6.83593">
        <ele>88.881072998047</ele>
        <time>2009-03-08T10:52:53Z</time>
      </trkpt>
      <trkpt lat="43.61762" lon="6.83602">
        <ele>87.211982727051</ele>
        <time>2009-03-08T10:52:56Z</time>
      </trkpt>
      <trkpt lat="43.61765" lon="6.83603">
        <ele>86.379699707031</ele>
        <time>2009-03-08T10:52:59Z</time>
      </trkpt>
      <trkpt lat="43.61769" lon="6.83616">
        <ele>84.263221740723</ele>
        <time>2009-03-08T10:53:05Z</time>
      </trkpt>
      <trkpt lat="43.61776" lon="6.83633">
        <ele>83.097373962402</ele>
        <time>2009-03-08T10:53:10Z</time>
      </trkpt>
      <trkpt lat="43.61783" lon="6.83643">
        <ele>82.838005065918</ele>
        <time>2009-03-08T10:53:15Z</time>
      </trkpt>
      <trkpt lat="43.61783" lon="6.83671">
        <ele>82</ele>
        <time>2009-03-08T10:53:20Z</time>
      </trkpt>
      <trkpt lat="43.61777" lon="6.83697">
        <ele>82</ele>
        <time>2009-03-08T10:53:24Z</time>
      </trkpt>
      <trkpt lat="43.61769" lon="6.83719">
        <ele>82</ele>
        <time>2009-03-08T10:53:28Z</time>
      </trkpt>
      <trkpt lat="43.61768" lon="6.83726">
        <ele>82.094055175781</ele>
        <time>2009-03-08T10:53:30Z</time>
      </trkpt>
      <trkpt lat="43.61765" lon="6.83738">
        <ele>82.301940917969</ele>
        <time>2009-03-08T10:53:35Z</time>
      </trkpt>
      <trkpt lat="43.61763" lon="6.83746">
        <ele>82.38191986084</ele>
        <time>2009-03-08T10:53:38Z</time>
      </trkpt>
      <trkpt lat="43.61757" lon="6.83762">
        <ele>82.542823791504</ele>
        <time>2009-03-08T10:53:44Z</time>
      </trkpt>
      <trkpt lat="43.61744" lon="6.83778">
        <ele>82</ele>
        <time>2009-03-08T10:53:50Z</time>
      </trkpt>
      <trkpt lat="43.6173" lon="6.83789">
        <ele>82</ele>
        <time>2009-03-08T10:53:55Z</time>
      </trkpt>
      <trkpt lat="43.61715" lon="6.83801">
        <ele>81.981552124023</ele>
        <time>2009-03-08T10:53:59Z</time>
      </trkpt>
      <trkpt lat="43.61715" lon="6.83803">
        <ele>81.89136505127</ele>
        <time>2009-03-08T10:54:00Z</time>
      </trkpt>
      <trkpt lat="43.61698" lon="6.83815">
        <ele>81.42813873291</ele>
        <time>2009-03-08T10:54:05Z</time>
      </trkpt>
      <trkpt lat="43.6169" lon="6.83821">
        <ele>82.036880493164</ele>
        <time>2009-03-08T10:54:07Z</time>
      </trkpt>
      <trkpt lat="43.61676" lon="6.83833">
        <ele>82.047653198242</ele>
        <time>2009-03-08T10:54:11Z</time>
      </trkpt>
      <trkpt lat="43.61658" lon="6.83844">
        <ele>83.05233001709</ele>
        <time>2009-03-08T10:54:16Z</time>
      </trkpt>
      <trkpt lat="43.61646" lon="6.83857">
        <ele>82.096611022949</ele>
        <time>2009-03-08T10:54:21Z</time>
      </trkpt>
      <trkpt lat="43.61642" lon="6.83861">
        <ele>81.114677429199</ele>
        <time>2009-03-08T10:54:26Z</time>
      </trkpt>
      <trkpt lat="43.61632" lon="6.83869">
        <ele>82.180648803711</ele>
        <time>2009-03-08T10:54:32Z</time>
      </trkpt>
      <trkpt lat="43.61622" lon="6.83876">
        <ele>82.588882446289</ele>
        <time>2009-03-08T10:54:38Z</time>
      </trkpt>
      <trkpt lat="43.61612" lon="6.83883">
        <ele>81.648780822754</ele>
        <time>2009-03-08T10:54:44Z</time>
      </trkpt>
      <trkpt lat="43.61602" lon="6.83891">
        <ele>81.231582641602</ele>
        <time>2009-03-08T10:54:51Z</time>
      </trkpt>
      <trkpt lat="43.61597" lon="6.83894">
        <ele>81.687538146973</ele>
        <time>2009-03-08T10:54:57Z</time>
      </trkpt>
      <trkpt lat="43.61588" lon="6.83904">
        <ele>81.60368347168</ele>
        <time>2009-03-08T10:55:02Z</time>
      </trkpt>
      <trkpt lat="43.61582" lon="6.83915">
        <ele>80.442283630371</ele>
        <time>2009-03-08T10:55:08Z</time>
      </trkpt>
      <trkpt lat="43.61574" lon="6.83928">
        <ele>80.595405578613</ele>
        <time>2009-03-08T10:55:13Z</time>
      </trkpt>
      <trkpt lat="43.61566" lon="6.83936">
        <ele>80.555145263672</ele>
        <time>2009-03-08T10:55:17Z</time>
      </trkpt>
      <trkpt lat="43.61554" lon="6.83944">
        <ele>80.008338928223</ele>
        <time>2009-03-08T10:55:22Z</time>
      </trkpt>
      <trkpt lat="43.61542" lon="6.83953">
        <ele>80.321701049805</ele>
        <time>2009-03-08T10:55:26Z</time>
      </trkpt>
      <trkpt lat="43.61526" lon="6.83961">
        <ele>80.579193115234</ele>
        <time>2009-03-08T10:55:29Z</time>
      </trkpt>
      <trkpt lat="43.61521" lon="6.83961">
        <ele>80.587776184082</ele>
        <time>2009-03-08T10:55:30Z</time>
      </trkpt>
      <trkpt lat="43.61503" lon="6.83949">
        <ele>80.153472900391</ele>
        <time>2009-03-08T10:55:34Z</time>
      </trkpt>
      <trkpt lat="43.615" lon="6.83947">
        <ele>80.075637817383</ele>
        <time>2009-03-08T10:55:37Z</time>
      </trkpt>
      <trkpt lat="43.61499" lon="6.83948">
        <ele>80.105155944824</ele>
        <time>2009-03-08T10:55:39Z</time>
      </trkpt>
      <trkpt lat="43.61496" lon="6.83946">
        <ele>80.054290771484</ele>
        <time>2009-03-08T10:55:41Z</time>
      </trkpt>
      <trkpt lat="43.61491" lon="6.83937">
        <ele>81.153747558594</ele>
        <time>2009-03-08T10:55:46Z</time>
      </trkpt>
      <trkpt lat="43.61489" lon="6.83932">
        <ele>81.625068664551</ele>
        <time>2009-03-08T10:55:48Z</time>
      </trkpt>
      <trkpt lat="43.61482" lon="6.83915">
        <ele>82.299705505371</ele>
        <time>2009-03-08T10:55:54Z</time>
      </trkpt>
      <trkpt lat="43.61478" lon="6.83899">
        <ele>84.034622192383</ele>
        <time>2009-03-08T10:55:59Z</time>
      </trkpt>
      <trkpt lat="43.61475" lon="6.83885">
        <ele>85.573348999023</ele>
        <time>2009-03-08T10:56:03Z</time>
      </trkpt>
      <trkpt lat="43.61473" lon="6.83861">
        <ele>92.391288757324</ele>
        <time>2009-03-08T10:56:08Z</time>
      </trkpt>
      <trkpt lat="43.61466" lon="6.83845">
        <ele>94.401443481445</ele>
        <time>2009-03-08T10:56:12Z</time>
      </trkpt>
      <trkpt lat="43.61465" lon="6.83843">
        <ele>94.71085357666</ele>
        <time>2009-03-08T10:56:15Z</time>
      </trkpt>
      <trkpt lat="43.6146" lon="6.83836">
        <ele>95.452735900879</ele>
        <time>2009-03-08T10:56:20Z</time>
      </trkpt>
      <trkpt lat="43.61456" lon="6.83818">
        <ele>98.277549743652</ele>
        <time>2009-03-08T10:56:24Z</time>
      </trkpt>
      <trkpt lat="43.61453" lon="6.83811">
        <ele>99.37141418457</ele>
        <time>2009-03-08T10:56:28Z</time>
      </trkpt>
      <trkpt lat="43.61451" lon="6.83805">
        <ele>100.45829772949</ele>
        <time>2009-03-08T10:56:34Z</time>
      </trkpt>
      <trkpt lat="43.61451" lon="6.83797">
        <ele>101.13121032715</ele>
        <time>2009-03-08T10:56:40Z</time>
      </trkpt>
      <trkpt lat="43.61451" lon="6.83792">
        <ele>101.47453308106</ele>
        <time>2009-03-08T10:56:47Z</time>
      </trkpt>
      <trkpt lat="43.61447" lon="6.83787">
        <ele>101.53289794922</ele>
        <time>2009-03-08T10:56:51Z</time>
      </trkpt>
      <trkpt lat="43.61444" lon="6.83784">
        <ele>101.5230178833</ele>
        <time>2009-03-08T10:56:57Z</time>
      </trkpt>
      <trkpt lat="43.6144" lon="6.83787">
        <ele>101.11408996582</ele>
        <time>2009-03-08T10:57:00Z</time>
      </trkpt>
      <trkpt lat="43.61437" lon="6.83786">
        <ele>101.06739807129</ele>
        <time>2009-03-08T10:57:08Z</time>
      </trkpt>
      <trkpt lat="43.61432" lon="6.83784">
        <ele>100.99180603027</ele>
        <time>2009-03-08T10:57:14Z</time>
      </trkpt>
      <trkpt lat="43.61427" lon="6.83785">
        <ele>100.73014831543</ele>
        <time>2009-03-08T10:57:17Z</time>
      </trkpt>
      <trkpt lat="43.61419" lon="6.83782">
        <ele>100.93963623047</ele>
        <time>2009-03-08T10:57:22Z</time>
      </trkpt>
      <trkpt lat="43.6141" lon="6.83779">
        <ele>101.81846618652</ele>
        <time>2009-03-08T10:57:26Z</time>
      </trkpt>
      <trkpt lat="43.61404" lon="6.83776">
        <ele>102.688331604</ele>
        <time>2009-03-08T10:57:29Z</time>
      </trkpt>
      <trkpt lat="43.61398" lon="6.83778">
        <ele>102.54459381103</ele>
        <time>2009-03-08T10:57:35Z</time>
      </trkpt>
      <trkpt lat="43.61399" lon="6.8378">
        <ele>102.01416015625</ele>
        <time>2009-03-08T10:57:42Z</time>
      </trkpt>
      <trkpt lat="43.61392" lon="6.83796">
        <ele>98.271942138672</ele>
        <time>2009-03-08T10:57:52Z</time>
      </trkpt>
      <trkpt lat="43.6139" lon="6.838">
        <ele>97.391319274902</ele>
        <time>2009-03-08T10:57:53Z</time>
      </trkpt>
      <trkpt lat="43.61378" lon="6.83819">
        <ele>93.631896972656</ele>
        <time>2009-03-08T10:58:00Z</time>
      </trkpt>
      <trkpt lat="43.61366" lon="6.83831">
        <ele>91.935615539551</ele>
        <time>2009-03-08T10:58:08Z</time>
      </trkpt>
      <trkpt lat="43.6136" lon="6.83842">
        <ele>90.86580657959</ele>
        <time>2009-03-08T10:58:13Z</time>
      </trkpt>
      <trkpt lat="43.61353" lon="6.83854">
        <ele>90.594581604004</ele>
        <time>2009-03-08T10:58:17Z</time>
      </trkpt>
      <trkpt lat="43.61348" lon="6.83874">
        <ele>87.103469848633</ele>
        <time>2009-03-08T10:58:23Z</time>
      </trkpt>
      <trkpt lat="43.61343" lon="6.839">
        <ele>81.94059753418</ele>
        <time>2009-03-08T10:58:27Z</time>
      </trkpt>
      <trkpt lat="43.61331" lon="6.83915">
        <ele>79.773742675781</ele>
        <time>2009-03-08T10:58:31Z</time>
      </trkpt>
      <trkpt lat="43.61329" lon="6.83918">
        <ele>79.719947814941</ele>
        <time>2009-03-08T10:58:32Z</time>
      </trkpt>
      <trkpt lat="43.61318" lon="6.83943">
        <ele>78.870651245117</ele>
        <time>2009-03-08T10:58:36Z</time>
      </trkpt>
      <trkpt lat="43.61308" lon="6.83959">
        <ele>78.795700073242</ele>
        <time>2009-03-08T10:58:38Z</time>
      </trkpt>
      <trkpt lat="43.6128" lon="6.84005">
        <ele>78.547332763672</ele>
        <time>2009-03-08T10:58:44Z</time>
      </trkpt>
      <trkpt lat="43.61281" lon="6.84007">
        <ele>78.411254882812</ele>
        <time>2009-03-08T10:58:45Z</time>
      </trkpt>
      <trkpt lat="43.61285" lon="6.84013">
        <ele>77.872344970703</ele>
        <time>2009-03-08T10:58:48Z</time>
      </trkpt>
      <trkpt lat="43.61281" lon="6.84029">
        <ele>77.732528686523</ele>
        <time>2009-03-08T10:58:54Z</time>
      </trkpt>
      <trkpt lat="43.6128" lon="6.84044">
        <ele>76.764991760254</ele>
        <time>2009-03-08T10:59:00Z</time>
      </trkpt>
      <trkpt lat="43.61277" lon="6.84057">
        <ele>76.125885009766</ele>
        <time>2009-03-08T10:59:05Z</time>
      </trkpt>
      <trkpt lat="43.61263" lon="6.84078">
        <ele>77.28116607666</ele>
        <time>2009-03-08T10:59:12Z</time>
      </trkpt>
      <trkpt lat="43.61261" lon="6.84083">
        <ele>77.425361633301</ele>
        <time>2009-03-08T10:59:15Z</time>
      </trkpt>
      <trkpt lat="43.61257" lon="6.84099">
        <ele>77.253051757812</ele>
        <time>2009-03-08T10:59:22Z</time>
      </trkpt>
      <trkpt lat="43.61254" lon="6.84112">
        <ele>77.297149658203</ele>
        <time>2009-03-08T10:59:29Z</time>
      </trkpt>
      <trkpt lat="43.61251" lon="6.84118">
        <ele>77.574752807617</ele>
        <time>2009-03-08T10:59:32Z</time>
      </trkpt>
      <trkpt lat="43.61242" lon="6.84128">
        <ele>78.42578125</ele>
        <time>2009-03-08T10:59:37Z</time>
      </trkpt>
      <trkpt lat="43.61234" lon="6.84134">
        <ele>79.081008911133</ele>
        <time>2009-03-08T10:59:41Z</time>
      </trkpt>
      <trkpt lat="43.61225" lon="6.84142">
        <ele>79.674377441406</ele>
        <time>2009-03-08T10:59:46Z</time>
      </trkpt>
      <trkpt lat="43.61221" lon="6.84146">
        <ele>80.333885192871</ele>
        <time>2009-03-08T10:59:51Z</time>
      </trkpt>
      <trkpt lat="43.6122" lon="6.84149">
        <ele>80.604759216309</ele>
        <time>2009-03-08T10:59:55Z</time>
      </trkpt>
      <trkpt lat="43.61217" lon="6.84153">
        <ele>81.096229553223</ele>
        <time>2009-03-08T10:59:58Z</time>
      </trkpt>
      <trkpt lat="43.61214" lon="6.84159">
        <ele>81.700981140137</ele>
        <time>2009-03-08T11:00:03Z</time>
      </trkpt>
      <trkpt lat="43.61208" lon="6.84168">
        <ele>82.4052734375</ele>
        <time>2009-03-08T11:00:09Z</time>
      </trkpt>
      <trkpt lat="43.61202" lon="6.84177">
        <ele>82.780387878418</ele>
        <time>2009-03-08T11:00:13Z</time>
      </trkpt>
      <trkpt lat="43.61197" lon="6.8419">
        <ele>82.236351013184</ele>
        <time>2009-03-08T11:00:19Z</time>
      </trkpt>
      <trkpt lat="43.61195" lon="6.84198">
        <ele>81.584411621094</ele>
        <time>2009-03-08T11:00:23Z</time>
      </trkpt>
      <trkpt lat="43.61187" lon="6.84213">
        <ele>82.79224395752</ele>
        <time>2009-03-08T11:00:29Z</time>
      </trkpt>
      <trkpt lat="43.61183" lon="6.84218">
        <ele>83.743438720703</ele>
        <time>2009-03-08T11:00:33Z</time>
      </trkpt>
      <trkpt lat="43.61179" lon="6.84224">
        <ele>84.632553100586</ele>
        <time>2009-03-08T11:00:43Z</time>
      </trkpt>
      <trkpt lat="43.61177" lon="6.84228">
        <ele>84.787979125977</ele>
        <time>2009-03-08T11:00:46Z</time>
      </trkpt>
      <trkpt lat="43.61176" lon="6.84245">
        <ele>84.195381164551</ele>
        <time>2009-03-08T11:00:52Z</time>
      </trkpt>
      <trkpt lat="43.61177" lon="6.84264">
        <ele>82.08430480957</ele>
        <time>2009-03-08T11:00:58Z</time>
      </trkpt>
      <trkpt lat="43.61182" lon="6.84279">
        <ele>79.668891906738</ele>
        <time>2009-03-08T11:01:03Z</time>
      </trkpt>
      <trkpt lat="43.6119" lon="6.8429">
        <ele>77.095848083496</ele>
        <time>2009-03-08T11:01:08Z</time>
      </trkpt>
      <trkpt lat="43.61201" lon="6.843">
        <ele>75.110061645508</ele>
        <time>2009-03-08T11:01:14Z</time>
      </trkpt>
      <trkpt lat="43.61216" lon="6.84311">
        <ele>74.02352142334</ele>
        <time>2009-03-08T11:01:19Z</time>
      </trkpt>
      <trkpt lat="43.61219" lon="6.84313">
        <ele>73.865592956543</ele>
        <time>2009-03-08T11:01:20Z</time>
      </trkpt>
      <trkpt lat="43.61231" lon="6.84323">
        <ele>72.611343383789</ele>
        <time>2009-03-08T11:01:25Z</time>
      </trkpt>
      <trkpt lat="43.61235" lon="6.84334">
        <ele>71.99210357666</ele>
        <time>2009-03-08T11:01:29Z</time>
      </trkpt>
      <trkpt lat="43.61246" lon="6.8437">
        <ele>69.56031036377</ele>
        <time>2009-03-08T11:01:35Z</time>
      </trkpt>
      <trkpt lat="43.6123" lon="6.84395">
        <ele>69.183555603027</ele>
        <time>2009-03-08T11:01:39Z</time>
      </trkpt>
      <trkpt lat="43.61216" lon="6.84404">
        <ele>69.650375366211</ele>
        <time>2009-03-08T11:01:41Z</time>
      </trkpt>
      <trkpt lat="43.61169" lon="6.84428">
        <ele>70.096374511719</ele>
        <time>2009-03-08T11:01:47Z</time>
      </trkpt>
      <trkpt lat="43.61153" lon="6.84438">
        <ele>70.612731933594</ele>
        <time>2009-03-08T11:01:49Z</time>
      </trkpt>
      <trkpt lat="43.61119" lon="6.84457">
        <ele>71.463989257812</ele>
        <time>2009-03-08T11:01:53Z</time>
      </trkpt>
      <trkpt lat="43.61087" lon="6.84485">
        <ele>69.958625793457</ele>
        <time>2009-03-08T11:01:57Z</time>
      </trkpt>
      <trkpt lat="43.61073" lon="6.84494">
        <ele>69.57381439209</ele>
        <time>2009-03-08T11:01:59Z</time>
      </trkpt>
      <trkpt lat="43.61064" lon="6.84506">
        <ele>68.751899719238</ele>
        <time>2009-03-08T11:02:02Z</time>
      </trkpt>
      <trkpt lat="43.61062" lon="6.84507">
        <ele>68.822280883789</ele>
        <time>2009-03-08T11:02:04Z</time>
      </trkpt>
      <trkpt lat="43.61059" lon="6.84505">
        <ele>69.158737182617</ele>
        <time>2009-03-08T11:02:14Z</time>
      </trkpt>
      <trkpt lat="43.61061" lon="6.84505">
        <ele>69.126121520996</ele>
        <time>2009-03-08T11:02:20Z</time>
      </trkpt>
      <trkpt lat="43.61061" lon="6.84504">
        <ele>69.155303955078</ele>
        <time>2009-03-08T11:02:29Z</time>
      </trkpt>
      <trkpt lat="43.61063" lon="6.84502">
        <ele>69.26001739502</ele>
        <time>2009-03-08T11:02:42Z</time>
      </trkpt>
      <trkpt lat="43.61063" lon="6.84503">
        <ele>69.158737182617</ele>
        <time>2009-03-08T11:02:58Z</time>
      </trkpt>
      <trkpt lat="43.6106" lon="6.84505">
        <ele>69.143287658691</ele>
        <time>2009-03-08T11:03:09Z</time>
      </trkpt>
      <trkpt lat="43.61058" lon="6.84506">
        <ele>69.162170410156</ele>
        <time>2009-03-08T11:03:14Z</time>
      </trkpt>
      <trkpt lat="43.61059" lon="6.84505">
        <ele>69.179336547852</ele>
        <time>2009-03-08T11:03:24Z</time>
      </trkpt>
      <trkpt lat="43.61057" lon="6.84506">
        <ele>69.22053527832</ele>
        <time>2009-03-08T11:03:35Z</time>
      </trkpt>
      <trkpt lat="43.61054" lon="6.8451">
        <ele>68.941398620605</ele>
        <time>2009-03-08T11:04:05Z</time>
      </trkpt>
      <trkpt lat="43.61053" lon="6.8451">
        <ele>68.874450683594</ele>
        <time>2009-03-08T11:04:13Z</time>
      </trkpt>
      <trkpt lat="43.61054" lon="6.8451">
        <ele>68.884750366211</ele>
        <time>2009-03-08T11:04:15Z</time>
      </trkpt>
      <trkpt lat="43.61057" lon="6.8451">
        <ele>68.887512207031</ele>
        <time>2009-03-08T11:04:23Z</time>
      </trkpt>
      <trkpt lat="43.61061" lon="6.84508">
        <ele>68.733016967773</ele>
        <time>2009-03-08T11:04:49Z</time>
      </trkpt>
      <trkpt lat="43.61061" lon="6.84508">
        <ele>68.71070098877</ele>
        <time>2009-03-08T11:04:50Z</time>
      </trkpt>
      <trkpt lat="43.61065" lon="6.84506">
        <ele>68.684951782227</ele>
        <time>2009-03-08T11:05:02Z</time>
      </trkpt>
      <trkpt lat="43.61065" lon="6.84507">
        <ele>68.623153686523</ele>
        <time>2009-03-08T11:05:36Z</time>
      </trkpt>
      <trkpt lat="43.61065" lon="6.84507">
        <ele>68.624870300293</ele>
        <time>2009-03-08T11:05:39Z</time>
      </trkpt>
      <trkpt lat="43.61065" lon="6.84507">
        <ele>68.619720458984</ele>
        <time>2009-03-08T11:05:40Z</time>
      </trkpt>
      <trkpt lat="43.61064" lon="6.84507">
        <ele>68.602554321289</ele>
        <time>2009-03-08T11:05:51Z</time>
      </trkpt>
      <trkpt lat="43.61067" lon="6.84505">
        <ele>68.686668395996</ele>
        <time>2009-03-08T11:06:04Z</time>
      </trkpt>
      <trkpt lat="43.61063" lon="6.84505">
        <ele>68.911544799805</ele>
        <time>2009-03-08T11:07:15Z</time>
      </trkpt>
      <trkpt lat="43.61069" lon="6.84501">
        <ele>68.971626281738</ele>
        <time>2009-03-08T11:08:42Z</time>
      </trkpt>
      <trkpt lat="43.61072" lon="6.84501">
        <ele>68.67293548584</ele>
        <time>2009-03-08T11:09:42Z</time>
      </trkpt>
      <trkpt lat="43.61056" lon="6.84509">
        <ele>68.976776123047</ele>
        <time>2009-03-08T11:12:47Z</time>
      </trkpt>
      <trkpt lat="43.61056" lon="6.84509">
        <ele>68.988792419434</ele>
        <time>2009-03-08T11:12:48Z</time>
      </trkpt>
      <trkpt lat="43.61055" lon="6.84509">
        <ele>68.987747192383</ele>
        <time>2009-03-08T11:13:07Z</time>
      </trkpt>
      <trkpt lat="43.61054" lon="6.84509">
        <ele>69.013496398926</ele>
        <time>2009-03-08T11:13:17Z</time>
      </trkpt>
      <trkpt lat="43.61054" lon="6.84509">
        <ele>69.044395446777</ele>
        <time>2009-03-08T11:13:51Z</time>
      </trkpt>
      <trkpt lat="43.61053" lon="6.84508">
        <ele>69.111343383789</ele>
        <time>2009-03-08T11:14:01Z</time>
      </trkpt>
      <trkpt lat="43.61051" lon="6.84509">
        <ele>69.008346557617</ele>
        <time>2009-03-08T11:14:14Z</time>
      </trkpt>
      <trkpt lat="43.61055" lon="6.84509">
        <ele>69.008346557617</ele>
        <time>2009-03-08T11:16:30Z</time>
      </trkpt>
      <trkpt lat="43.61055" lon="6.84509">
        <ele>69.028945922852</ele>
        <time>2009-03-08T11:16:41Z</time>
      </trkpt>
      <trkpt lat="43.61055" lon="6.84509">
        <ele>69.044395446777</ele>
        <time>2009-03-08T11:16:46Z</time>
      </trkpt>
      <trkpt lat="43.61055" lon="6.84509">
        <ele>69.054695129395</ele>
        <time>2009-03-08T11:16:52Z</time>
      </trkpt>
      <trkpt lat="43.61056" lon="6.84506">
        <ele>69.318382263184</ele>
        <time>2009-03-08T11:18:14Z</time>
      </trkpt>
      <trkpt lat="43.61056" lon="6.84506">
        <ele>69.326965332031</ele>
        <time>2009-03-08T11:18:15Z</time>
      </trkpt>
      <trkpt lat="43.6106" lon="6.84502">
        <ele>69.51579284668</ele>
        <time>2009-03-08T11:18:38Z</time>
      </trkpt>
      <trkpt lat="43.6106" lon="6.84501">
        <ele>69.519226074219</ele>
        <time>2009-03-08T11:18:39Z</time>
      </trkpt>
      <trkpt lat="43.61063" lon="6.84498">
        <ele>69.728302001953</ele>
        <time>2009-03-08T11:18:53Z</time>
      </trkpt>
      <trkpt lat="43.61057" lon="6.84507">
        <ele>69.084922790527</ele>
        <time>2009-03-08T11:19:31Z</time>
      </trkpt>
      <trkpt lat="43.61057" lon="6.84508">
        <ele>69.004241943359</ele>
        <time>2009-03-08T11:19:55Z</time>
      </trkpt>
      <trkpt lat="43.61058" lon="6.84509">
        <ele>68.923561096191</ele>
        <time>2009-03-08T11:20:21Z</time>
      </trkpt>
      <trkpt lat="43.61055" lon="6.84509">
        <ele>69.075294494629</ele>
        <time>2009-03-08T11:20:46Z</time>
      </trkpt>
      <trkpt lat="43.61053" lon="6.84508">
        <ele>69.085594177246</ele>
        <time>2009-03-08T11:20:57Z</time>
      </trkpt>
      <trkpt lat="43.61055" lon="6.84508">
        <ele>69.131942749023</ele>
        <time>2009-03-08T11:21:11Z</time>
      </trkpt>
      <trkpt lat="43.61055" lon="6.84507">
        <ele>69.21949005127</ele>
        <time>2009-03-08T11:21:27Z</time>
      </trkpt>
      <trkpt lat="43.61058" lon="6.84507">
        <ele>69.057456970215</ele>
        <time>2009-03-08T11:21:31Z</time>
      </trkpt>
      <trkpt lat="43.6106" lon="6.84507">
        <ele>68.882362365723</ele>
        <time>2009-03-08T11:21:36Z</time>
      </trkpt>
      <trkpt lat="43.61063" lon="6.84506">
        <ele>68.865196228027</ele>
        <time>2009-03-08T11:21:50Z</time>
      </trkpt>
      <trkpt lat="43.61061" lon="6.84504">
        <ele>69.143287658691</ele>
        <time>2009-03-08T11:21:52Z</time>
      </trkpt>
      <trkpt lat="43.61059" lon="6.84498">
        <ele>69.928871154785</ele>
        <time>2009-03-08T11:21:56Z</time>
      </trkpt>
      <trkpt lat="43.61047" lon="6.8449">
        <ele>71.099182128906</ele>
        <time>2009-03-08T11:22:03Z</time>
      </trkpt>
      <trkpt lat="43.61043" lon="6.84488">
        <ele>71.310325622559</ele>
        <time>2009-03-08T11:22:05Z</time>
      </trkpt>
      <trkpt lat="43.6103" lon="6.84482">
        <ele>71.990104675293</ele>
        <time>2009-03-08T11:22:12Z</time>
      </trkpt>
      <trkpt lat="43.61013" lon="6.84478">
        <ele>71.704788208008</ele>
        <time>2009-03-08T11:22:18Z</time>
      </trkpt>
      <trkpt lat="43.60997" lon="6.84475">
        <ele>71.452178955078</ele>
        <time>2009-03-08T11:22:23Z</time>
      </trkpt>
      <trkpt lat="43.60977" lon="6.84479">
        <ele>70.209350585938</ele>
        <time>2009-03-08T11:22:29Z</time>
      </trkpt>
      <trkpt lat="43.60957" lon="6.84485">
        <ele>68.816314697266</ele>
        <time>2009-03-08T11:22:35Z</time>
      </trkpt>
      <trkpt lat="43.60939" lon="6.84495">
        <ele>67.542999267578</ele>
        <time>2009-03-08T11:22:41Z</time>
      </trkpt>
      <trkpt lat="43.60925" lon="6.84498">
        <ele>67.20825958252</ele>
        <time>2009-03-08T11:22:46Z</time>
      </trkpt>
      <trkpt lat="43.60909" lon="6.845">
        <ele>66.703414916992</ele>
        <time>2009-03-08T11:22:52Z</time>
      </trkpt>
      <trkpt lat="43.60896" lon="6.84505">
        <ele>65.76099395752</ele>
        <time>2009-03-08T11:22:57Z</time>
      </trkpt>
      <trkpt lat="43.60885" lon="6.84508">
        <ele>65.061668395996</ele>
        <time>2009-03-08T11:23:02Z</time>
      </trkpt>
      <trkpt lat="43.6087" lon="6.84515">
        <ele>63.980895996094</ele>
        <time>2009-03-08T11:23:08Z</time>
      </trkpt>
      <trkpt lat="43.60845" lon="6.84525">
        <ele>61.873985290527</ele>
        <time>2009-03-08T11:23:17Z</time>
      </trkpt>
      <trkpt lat="43.60831" lon="6.84529">
        <ele>61</ele>
        <time>2009-03-08T11:23:23Z</time>
      </trkpt>
      <trkpt lat="43.60817" lon="6.84534">
        <ele>61</ele>
        <time>2009-03-08T11:23:29Z</time>
      </trkpt>
      <trkpt lat="43.60795" lon="6.84541">
        <ele>61</ele>
        <time>2009-03-08T11:23:36Z</time>
      </trkpt>
      <trkpt lat="43.6076" lon="6.84547">
        <ele>61</ele>
        <time>2009-03-08T11:23:45Z</time>
      </trkpt>
      <trkpt lat="43.60732" lon="6.84548">
        <ele>61</ele>
        <time>2009-03-08T11:23:52Z</time>
      </trkpt>
      <trkpt lat="43.60727" lon="6.84547">
        <ele>61</ele>
        <time>2009-03-08T11:23:53Z</time>
      </trkpt>
      <trkpt lat="43.60696" lon="6.84532">
        <ele>62.8583984375</ele>
        <time>2009-03-08T11:24:01Z</time>
      </trkpt>
      <trkpt lat="43.60678" lon="6.84513">
        <ele>63</ele>
        <time>2009-03-08T11:24:07Z</time>
      </trkpt>
      <trkpt lat="43.60659" lon="6.84486">
        <ele>63.745307922363</ele>
        <time>2009-03-08T11:24:14Z</time>
      </trkpt>
      <trkpt lat="43.60643" lon="6.84473">
        <ele>63.310451507568</ele>
        <time>2009-03-08T11:24:19Z</time>
      </trkpt>
      <trkpt lat="43.60619" lon="6.84448">
        <ele>63.475109100342</ele>
        <time>2009-03-08T11:24:27Z</time>
      </trkpt>
      <trkpt lat="43.60603" lon="6.84432">
        <ele>63.441780090332</ele>
        <time>2009-03-08T11:24:33Z</time>
      </trkpt>
      <trkpt lat="43.60581" lon="6.84421">
        <ele>63.892311096191</ele>
        <time>2009-03-08T11:24:41Z</time>
      </trkpt>
      <trkpt lat="43.60564" lon="6.84429">
        <ele>64.818580627441</ele>
        <time>2009-03-08T11:24:46Z</time>
      </trkpt>
      <trkpt lat="43.60531" lon="6.84448">
        <ele>76.404754638672</ele>
        <time>2009-03-08T11:24:56Z</time>
      </trkpt>
      <trkpt lat="43.60524" lon="6.84448">
        <ele>78.390571594238</ele>
        <time>2009-03-08T11:24:58Z</time>
      </trkpt>
      <trkpt lat="43.60516" lon="6.84433">
        <ele>75.923049926758</ele>
        <time>2009-03-08T11:25:03Z</time>
      </trkpt>
      <trkpt lat="43.60511" lon="6.84403">
        <ele>70.405426025391</ele>
        <time>2009-03-08T11:25:10Z</time>
      </trkpt>
      <trkpt lat="43.605" lon="6.84385">
        <ele>70.25171661377</ele>
        <time>2009-03-08T11:25:15Z</time>
      </trkpt>
      <trkpt lat="43.60489" lon="6.84371">
        <ele>68.410903930664</ele>
        <time>2009-03-08T11:25:21Z</time>
      </trkpt>
      <trkpt lat="43.60479" lon="6.84355">
        <ele>67.019882202148</ele>
        <time>2009-03-08T11:25:27Z</time>
      </trkpt>
      <trkpt lat="43.6047" lon="6.8433">
        <ele>66.009979248047</ele>
        <time>2009-03-08T11:25:34Z</time>
      </trkpt>
      <trkpt lat="43.60465" lon="6.84303">
        <ele>66.251342773438</ele>
        <time>2009-03-08T11:25:42Z</time>
      </trkpt>
      <trkpt lat="43.60464" lon="6.84275">
        <ele>66.517013549805</ele>
        <time>2009-03-08T11:25:50Z</time>
      </trkpt>
      <trkpt lat="43.60456" lon="6.84256">
        <ele>67.937507629395</ele>
        <time>2009-03-08T11:25:57Z</time>
      </trkpt>
      <trkpt lat="43.60442" lon="6.84248">
        <ele>67.158126831055</ele>
        <time>2009-03-08T11:26:03Z</time>
      </trkpt>
      <trkpt lat="43.60423" lon="6.84238">
        <ele>67.193725585938</ele>
        <time>2009-03-08T11:26:10Z</time>
      </trkpt>
      <trkpt lat="43.60395" lon="6.84231">
        <ele>67</ele>
        <time>2009-03-08T11:26:20Z</time>
      </trkpt>
      <trkpt lat="43.60371" lon="6.84226">
        <ele>67</ele>
        <time>2009-03-08T11:26:29Z</time>
      </trkpt>
      <trkpt lat="43.60345" lon="6.84223">
        <ele>67</ele>
        <time>2009-03-08T11:26:38Z</time>
      </trkpt>
      <trkpt lat="43.60321" lon="6.84225">
        <ele>67</ele>
        <time>2009-03-08T11:26:47Z</time>
      </trkpt>
      <trkpt lat="43.60305" lon="6.84225">
        <ele>67.000587463379</ele>
        <time>2009-03-08T11:26:53Z</time>
      </trkpt>
      <trkpt lat="43.60302" lon="6.84227">
        <ele>67.020370483398</ele>
        <time>2009-03-08T11:26:59Z</time>
      </trkpt>
      <trkpt lat="43.60303" lon="6.84227">
        <ele>67.01586151123</ele>
        <time>2009-03-08T11:27:14Z</time>
      </trkpt>
      <trkpt lat="43.60304" lon="6.84231">
        <ele>67.02010345459</ele>
        <time>2009-03-08T11:27:21Z</time>
      </trkpt>
      <trkpt lat="43.60302" lon="6.84238">
        <ele>67.078903198242</ele>
        <time>2009-03-08T11:27:27Z</time>
      </trkpt>
      <trkpt lat="43.60298" lon="6.8424">
        <ele>67.18270111084</ele>
        <time>2009-03-08T11:27:34Z</time>
      </trkpt>
      <trkpt lat="43.60294" lon="6.84244">
        <ele>67.320999145508</ele>
        <time>2009-03-08T11:27:40Z</time>
      </trkpt>
      <trkpt lat="43.60289" lon="6.84247">
        <ele>67.551528930664</ele>
        <time>2009-03-08T11:27:48Z</time>
      </trkpt>
      <trkpt lat="43.60284" lon="6.84251">
        <ele>68.091262817383</ele>
        <time>2009-03-08T11:27:54Z</time>
      </trkpt>
      <trkpt lat="43.60279" lon="6.84256">
        <ele>69.676376342773</ele>
        <time>2009-03-08T11:28:01Z</time>
      </trkpt>
      <trkpt lat="43.60274" lon="6.84261">
        <ele>71.14005279541</ele>
        <time>2009-03-08T11:28:09Z</time>
      </trkpt>
      <trkpt lat="43.60268" lon="6.84264">
        <ele>71.760238647461</ele>
        <time>2009-03-08T11:28:18Z</time>
      </trkpt>
      <trkpt lat="43.60263" lon="6.84266">
        <ele>72.341911315918</ele>
        <time>2009-03-08T11:28:24Z</time>
      </trkpt>
      <trkpt lat="43.60261" lon="6.84275">
        <ele>74.130996704102</ele>
        <time>2009-03-08T11:28:30Z</time>
      </trkpt>
      <trkpt lat="43.60261" lon="6.84281">
        <ele>75.681381225586</ele>
        <time>2009-03-08T11:28:34Z</time>
      </trkpt>
      <trkpt lat="43.60258" lon="6.84279">
        <ele>74.980758666992</ele>
        <time>2009-03-08T11:28:41Z</time>
      </trkpt>
      <trkpt lat="43.60254" lon="6.84277">
        <ele>74.138954162598</ele>
        <time>2009-03-08T11:28:48Z</time>
      </trkpt>
      <trkpt lat="43.6025" lon="6.84272">
        <ele>72.928092956543</ele>
        <time>2009-03-08T11:28:55Z</time>
      </trkpt>
      <trkpt lat="43.60246" lon="6.84274">
        <ele>73.532341003418</ele>
        <time>2009-03-08T11:29:01Z</time>
      </trkpt>
      <trkpt lat="43.60243" lon="6.84276">
        <ele>73.934028625488</ele>
        <time>2009-03-08T11:29:07Z</time>
      </trkpt>
      <trkpt lat="43.60238" lon="6.84278">
        <ele>74.482971191406</ele>
        <time>2009-03-08T11:29:16Z</time>
      </trkpt>
      <trkpt lat="43.60234" lon="6.84281">
        <ele>75.404968261719</ele>
        <time>2009-03-08T11:29:23Z</time>
      </trkpt>
      <trkpt lat="43.6023" lon="6.84282">
        <ele>75.626365661621</ele>
        <time>2009-03-08T11:29:29Z</time>
      </trkpt>
      <trkpt lat="43.60226" lon="6.84285">
        <ele>76.31356048584</ele>
        <time>2009-03-08T11:29:36Z</time>
      </trkpt>
      <trkpt lat="43.60222" lon="6.84295">
        <ele>78.047157287598</ele>
        <time>2009-03-08T11:29:45Z</time>
      </trkpt>
      <trkpt lat="43.60219" lon="6.84297">
        <ele>77.977333068848</ele>
        <time>2009-03-08T11:29:52Z</time>
      </trkpt>
      <trkpt lat="43.60216" lon="6.84301">
        <ele>78.402656555176</ele>
        <time>2009-03-08T11:30:00Z</time>
      </trkpt>
      <trkpt lat="43.60215" lon="6.84312">
        <ele>79.458511352539</ele>
        <time>2009-03-08T11:30:09Z</time>
      </trkpt>
      <trkpt lat="43.60216" lon="6.84329">
        <ele>80.728805541992</ele>
        <time>2009-03-08T11:30:17Z</time>
      </trkpt>
      <trkpt lat="43.60215" lon="6.84332">
        <ele>80.848968505859</ele>
        <time>2009-03-08T11:30:26Z</time>
      </trkpt>
      <trkpt lat="43.60215" lon="6.8433">
        <ele>80.687606811523</ele>
        <time>2009-03-08T11:30:37Z</time>
      </trkpt>
      <trkpt lat="43.60216" lon="6.84333">
        <ele>81.010330200195</ele>
        <time>2009-03-08T11:30:44Z</time>
      </trkpt>
      <trkpt lat="43.60216" lon="6.84337">
        <ele>81.471878051758</ele>
        <time>2009-03-08T11:30:48Z</time>
      </trkpt>
      <trkpt lat="43.60217" lon="6.84345">
        <ele>82.448165893555</ele>
        <time>2009-03-08T11:30:52Z</time>
      </trkpt>
      <trkpt lat="43.6022" lon="6.84369">
        <ele>85.746368408203</ele>
        <time>2009-03-08T11:31:01Z</time>
      </trkpt>
      <trkpt lat="43.60222" lon="6.8439">
        <ele>89.121231079102</ele>
        <time>2009-03-08T11:31:08Z</time>
      </trkpt>
      <trkpt lat="43.60224" lon="6.84415">
        <ele>91.628318786621</ele>
        <time>2009-03-08T11:31:16Z</time>
      </trkpt>
      <trkpt lat="43.60225" lon="6.84438">
        <ele>95.730255126953</ele>
        <time>2009-03-08T11:31:24Z</time>
      </trkpt>
      <trkpt lat="43.60225" lon="6.84465">
        <ele>98.305122375488</ele>
        <time>2009-03-08T11:31:33Z</time>
      </trkpt>
      <trkpt lat="43.60223" lon="6.84489">
        <ele>99.452934265137</ele>
        <time>2009-03-08T11:31:40Z</time>
      </trkpt>
      <trkpt lat="43.60221" lon="6.84511">
        <ele>101.80715942383</ele>
        <time>2009-03-08T11:31:47Z</time>
      </trkpt>
      <trkpt lat="43.60217" lon="6.84531">
        <ele>104.84240722656</ele>
        <time>2009-03-08T11:31:54Z</time>
      </trkpt>
      <trkpt lat="43.60214" lon="6.84555">
        <ele>108.34568786621</ele>
        <time>2009-03-08T11:32:02Z</time>
      </trkpt>
      <trkpt lat="43.60212" lon="6.84586">
        <ele>112.81887054443</ele>
        <time>2009-03-08T11:32:11Z</time>
      </trkpt>
      <trkpt lat="43.60209" lon="6.8461">
        <ele>115.8911819458</ele>
        <time>2009-03-08T11:32:19Z</time>
      </trkpt>
      <trkpt lat="43.60204" lon="6.84624">
        <ele>115.69913482666</ele>
        <time>2009-03-08T11:32:25Z</time>
      </trkpt>
      <trkpt lat="43.6019" lon="6.84639">
        <ele>111.66743469238</ele>
        <time>2009-03-08T11:32:34Z</time>
      </trkpt>
      <trkpt lat="43.60179" lon="6.8465">
        <ele>109.56127166748</ele>
        <time>2009-03-08T11:32:41Z</time>
      </trkpt>
      <trkpt lat="43.6017" lon="6.84659">
        <ele>107.63468170166</ele>
        <time>2009-03-08T11:32:48Z</time>
      </trkpt>
      <trkpt lat="43.60162" lon="6.84668">
        <ele>107.72512054443</ele>
        <time>2009-03-08T11:32:55Z</time>
      </trkpt>
      <trkpt lat="43.60155" lon="6.84679">
        <ele>110.68392944336</ele>
        <time>2009-03-08T11:33:03Z</time>
      </trkpt>
      <trkpt lat="43.60148" lon="6.84689">
        <ele>114.14070892334</ele>
        <time>2009-03-08T11:33:10Z</time>
      </trkpt>
      <trkpt lat="43.60141" lon="6.84697">
        <ele>117.14305877685</ele>
        <time>2009-03-08T11:33:16Z</time>
      </trkpt>
      <trkpt lat="43.60135" lon="6.84704">
        <ele>118.19990539551</ele>
        <time>2009-03-08T11:33:22Z</time>
      </trkpt>
      <trkpt lat="43.60131" lon="6.8471">
        <ele>118.66968536377</ele>
        <time>2009-03-08T11:33:27Z</time>
      </trkpt>
      <trkpt lat="43.60127" lon="6.84718">
        <ele>119.95848846435</ele>
        <time>2009-03-08T11:33:34Z</time>
      </trkpt>
      <trkpt lat="43.60126" lon="6.84731">
        <ele>126.17172241211</ele>
        <time>2009-03-08T11:33:41Z</time>
      </trkpt>
      <trkpt lat="43.60126" lon="6.84738">
        <ele>130.66581726074</ele>
        <time>2009-03-08T11:33:45Z</time>
      </trkpt>
      <trkpt lat="43.60127" lon="6.84751">
        <ele>138.90040588379</ele>
        <time>2009-03-08T11:33:52Z</time>
      </trkpt>
      <trkpt lat="43.60129" lon="6.84762">
        <ele>147.07424926758</ele>
        <time>2009-03-08T11:33:59Z</time>
      </trkpt>
      <trkpt lat="43.6013" lon="6.84771">
        <ele>153.00251770019</ele>
        <time>2009-03-08T11:34:04Z</time>
      </trkpt>
      <trkpt lat="43.60131" lon="6.84773">
        <ele>154.84317016602</ele>
        <time>2009-03-08T11:34:17Z</time>
      </trkpt>
      <trkpt lat="43.60131" lon="6.84774">
        <ele>155.23066711426</ele>
        <time>2009-03-08T11:34:27Z</time>
      </trkpt>
      <trkpt lat="43.60132" lon="6.84775">
        <ele>156.38801574707</ele>
        <time>2009-03-08T11:34:35Z</time>
      </trkpt>
      <trkpt lat="43.60133" lon="6.84776">
        <ele>157.15875244141</ele>
        <time>2009-03-08T11:34:41Z</time>
      </trkpt>
      <trkpt lat="43.60133" lon="6.84777">
        <ele>158.13780212402</ele>
        <time>2009-03-08T11:34:48Z</time>
      </trkpt>
      <trkpt lat="43.60133" lon="6.84777">
        <ele>158.35887145996</ele>
        <time>2009-03-08T11:34:57Z</time>
      </trkpt>
      <trkpt lat="43.60133" lon="6.84778">
        <ele>158.35725402832</ele>
        <time>2009-03-08T11:35:03Z</time>
      </trkpt>
      <trkpt lat="43.60133" lon="6.84779">
        <ele>158.78886413574</ele>
        <time>2009-03-08T11:35:13Z</time>
      </trkpt>
      <trkpt lat="43.60133" lon="6.84781">
        <ele>158.95333862305</ele>
        <time>2009-03-08T11:35:14Z</time>
      </trkpt>
      <trkpt lat="43.60135" lon="6.84796">
        <ele>160.83863830566</ele>
        <time>2009-03-08T11:35:21Z</time>
      </trkpt>
      <trkpt lat="43.60139" lon="6.84812">
        <ele>162.7966003418</ele>
        <time>2009-03-08T11:35:27Z</time>
      </trkpt>
      <trkpt lat="43.60141" lon="6.84822">
        <ele>163.99136352539</ele>
        <time>2009-03-08T11:35:30Z</time>
      </trkpt>
      <trkpt lat="43.60141" lon="6.84841">
        <ele>165.97920227051</ele>
        <time>2009-03-08T11:35:37Z</time>
      </trkpt>
      <trkpt lat="43.60147" lon="6.84853">
        <ele>168.09579467773</ele>
        <time>2009-03-08T11:35:42Z</time>
      </trkpt>
      <trkpt lat="43.60154" lon="6.84855">
        <ele>169.03820800781</ele>
        <time>2009-03-08T11:35:47Z</time>
      </trkpt>
      <trkpt lat="43.60167" lon="6.84852">
        <ele>169.98216247559</ele>
        <time>2009-03-08T11:35:53Z</time>
      </trkpt>
      <trkpt lat="43.60176" lon="6.84848">
        <ele>168.39988708496</ele>
        <time>2009-03-08T11:35:58Z</time>
      </trkpt>
      <trkpt lat="43.60182" lon="6.84844">
        <ele>167.07844543457</ele>
        <time>2009-03-08T11:36:02Z</time>
      </trkpt>
      <trkpt lat="43.60191" lon="6.84842">
        <ele>165.77601623535</ele>
        <time>2009-03-08T11:36:08Z</time>
      </trkpt>
      <trkpt lat="43.60197" lon="6.84847">
        <ele>165.63284301758</ele>
        <time>2009-03-08T11:36:14Z</time>
      </trkpt>
      <trkpt lat="43.60199" lon="6.84859">
        <ele>167.11599731445</ele>
        <time>2009-03-08T11:36:21Z</time>
      </trkpt>
      <trkpt lat="43.60197" lon="6.84864">
        <ele>167.93835449219</ele>
        <time>2009-03-08T11:36:27Z</time>
      </trkpt>
      <trkpt lat="43.60197" lon="6.84864">
        <ele>167.97048950195</ele>
        <time>2009-03-08T11:36:30Z</time>
      </trkpt>
      <trkpt lat="43.60197" lon="6.84862">
        <ele>167.72080993652</ele>
        <time>2009-03-08T11:36:37Z</time>
      </trkpt>
      <trkpt lat="43.60198" lon="6.84859">
        <ele>167.3219909668</ele>
        <time>2009-03-08T11:36:49Z</time>
      </trkpt>
      <trkpt lat="43.60199" lon="6.84859">
        <ele>167.26705932617</ele>
        <time>2009-03-08T11:36:57Z</time>
      </trkpt>
      <trkpt lat="43.60199" lon="6.84863">
        <ele>167.72354125977</ele>
        <time>2009-03-08T11:37:03Z</time>
      </trkpt>
      <trkpt lat="43.60195" lon="6.84872">
        <ele>168.77044677734</ele>
        <time>2009-03-08T11:37:11Z</time>
      </trkpt>
      <trkpt lat="43.60194" lon="6.84876">
        <ele>169.19134521484</ele>
        <time>2009-03-08T11:37:14Z</time>
      </trkpt>
      <trkpt lat="43.60191" lon="6.84889">
        <ele>170.32774353027</ele>
        <time>2009-03-08T11:37:25Z</time>
      </trkpt>
      <trkpt lat="43.60189" lon="6.84898">
        <ele>171.73388671875</ele>
        <time>2009-03-08T11:37:34Z</time>
      </trkpt>
      <trkpt lat="43.60189" lon="6.84905">
        <ele>172.72468566894</ele>
        <time>2009-03-08T11:37:41Z</time>
      </trkpt>
      <trkpt lat="43.60186" lon="6.84912">
        <ele>174.01612854004</ele>
        <time>2009-03-08T11:37:51Z</time>
      </trkpt>
      <trkpt lat="43.60184" lon="6.84923">
        <ele>175.22024536133</ele>
        <time>2009-03-08T11:38:00Z</time>
      </trkpt>
      <trkpt lat="43.60182" lon="6.84933">
        <ele>176.11975097656</ele>
        <time>2009-03-08T11:38:10Z</time>
      </trkpt>
      <trkpt lat="43.60181" lon="6.84942">
        <ele>176.78923034668</ele>
        <time>2009-03-08T11:38:18Z</time>
      </trkpt>
      <trkpt lat="43.60181" lon="6.8495">
        <ele>177.90202331543</ele>
        <time>2009-03-08T11:38:26Z</time>
      </trkpt>
      <trkpt lat="43.60181" lon="6.84959">
        <ele>179.27583312988</ele>
        <time>2009-03-08T11:38:34Z</time>
      </trkpt>
      <trkpt lat="43.6018" lon="6.84971">
        <ele>181.41203308106</ele>
        <time>2009-03-08T11:38:45Z</time>
      </trkpt>
      <trkpt lat="43.60179" lon="6.84975">
        <ele>182.54411315918</ele>
        <time>2009-03-08T11:38:51Z</time>
      </trkpt>
      <trkpt lat="43.60179" lon="6.84984">
        <ele>184.98760986328</ele>
        <time>2009-03-08T11:39:00Z</time>
      </trkpt>
      <trkpt lat="43.60179" lon="6.84986">
        <ele>185.63481140137</ele>
        <time>2009-03-08T11:39:07Z</time>
      </trkpt>
      <trkpt lat="43.6018" lon="6.8499">
        <ele>186.46408081055</ele>
        <time>2009-03-08T11:39:16Z</time>
      </trkpt>
      <trkpt lat="43.60181" lon="6.85">
        <ele>188.83744812012</ele>
        <time>2009-03-08T11:39:23Z</time>
      </trkpt>
      <trkpt lat="43.60182" lon="6.85005">
        <ele>189.45288085938</ele>
        <time>2009-03-08T11:39:26Z</time>
      </trkpt>
      <trkpt lat="43.60184" lon="6.85019">
        <ele>190.74223327637</ele>
        <time>2009-03-08T11:39:35Z</time>
      </trkpt>
      <trkpt lat="43.60186" lon="6.85029">
        <ele>191.36152648926</ele>
        <time>2009-03-08T11:39:43Z</time>
      </trkpt>
      <trkpt lat="43.60186" lon="6.85038">
        <ele>191.63043212891</ele>
        <time>2009-03-08T11:39:49Z</time>
      </trkpt>
      <trkpt lat="43.60187" lon="6.85043">
        <ele>191.51934814453</ele>
        <time>2009-03-08T11:39:52Z</time>
      </trkpt>
      <trkpt lat="43.60185" lon="6.85059">
        <ele>192.88859558106</ele>
        <time>2009-03-08T11:40:03Z</time>
      </trkpt>
      <trkpt lat="43.60178" lon="6.85068">
        <ele>196.21832275391</ele>
        <time>2009-03-08T11:40:12Z</time>
      </trkpt>
      <trkpt lat="43.60172" lon="6.8507">
        <ele>198.77809143066</ele>
        <time>2009-03-08T11:40:20Z</time>
      </trkpt>
      <trkpt lat="43.60166" lon="6.85072">
        <ele>201.29754638672</ele>
        <time>2009-03-08T11:40:27Z</time>
      </trkpt>
      <trkpt lat="43.6016" lon="6.85071">
        <ele>202.28762817383</ele>
        <time>2009-03-08T11:40:34Z</time>
      </trkpt>
      <trkpt lat="43.60153" lon="6.85074">
        <ele>203.54635620117</ele>
        <time>2009-03-08T11:40:42Z</time>
      </trkpt>
      <trkpt lat="43.60146" lon="6.85076">
        <ele>205.08312988281</ele>
        <time>2009-03-08T11:40:50Z</time>
      </trkpt>
      <trkpt lat="43.60138" lon="6.85077">
        <ele>206.38363647461</ele>
        <time>2009-03-08T11:40:58Z</time>
      </trkpt>
      <trkpt lat="43.60131" lon="6.8508">
        <ele>207.41094970703</ele>
        <time>2009-03-08T11:41:07Z</time>
      </trkpt>
      <trkpt lat="43.60122" lon="6.8509">
        <ele>209.40773010254</ele>
        <time>2009-03-08T11:41:18Z</time>
      </trkpt>
      <trkpt lat="43.60117" lon="6.85097">
        <ele>210.72444152832</ele>
        <time>2009-03-08T11:41:26Z</time>
      </trkpt>
      <trkpt lat="43.60112" lon="6.85105">
        <ele>212.27505493164</ele>
        <time>2009-03-08T11:41:35Z</time>
      </trkpt>
      <trkpt lat="43.60109" lon="6.85114">
        <ele>213.73580932617</ele>
        <time>2009-03-08T11:41:44Z</time>
      </trkpt>
      <trkpt lat="43.6011" lon="6.85122">
        <ele>214.30358886719</ele>
        <time>2009-03-08T11:41:52Z</time>
      </trkpt>
      <trkpt lat="43.60118" lon="6.85126">
        <ele>213.17094421387</ele>
        <time>2009-03-08T11:42:00Z</time>
      </trkpt>
      <trkpt lat="43.60127" lon="6.85129">
        <ele>211.54399108887</ele>
        <time>2009-03-08T11:42:10Z</time>
      </trkpt>
      <trkpt lat="43.60133" lon="6.85134">
        <ele>210.46740722656</ele>
        <time>2009-03-08T11:42:17Z</time>
      </trkpt>
      <trkpt lat="43.60139" lon="6.85143">
        <ele>209.08592224121</ele>
        <time>2009-03-08T11:42:27Z</time>
      </trkpt>
      <trkpt lat="43.60141" lon="6.85151">
        <ele>208.8215637207</ele>
        <time>2009-03-08T11:42:35Z</time>
      </trkpt>
      <trkpt lat="43.60139" lon="6.85158">
        <ele>209.7458190918</ele>
        <time>2009-03-08T11:42:45Z</time>
      </trkpt>
      <trkpt lat="43.60138" lon="6.85161">
        <ele>210.04107666016</ele>
        <time>2009-03-08T11:42:52Z</time>
      </trkpt>
      <trkpt lat="43.6014" lon="6.8516">
        <ele>209.25175476074</ele>
        <time>2009-03-08T11:43:07Z</time>
      </trkpt>
      <trkpt lat="43.60141" lon="6.8516">
        <ele>208.97598266602</ele>
        <time>2009-03-08T11:43:16Z</time>
      </trkpt>
      <trkpt lat="43.60144" lon="6.8516">
        <ele>207.95066833496</ele>
        <time>2009-03-08T11:43:26Z</time>
      </trkpt>
      <trkpt lat="43.60144" lon="6.85155">
        <ele>207.83460998535</ele>
        <time>2009-03-08T11:43:40Z</time>
      </trkpt>
      <trkpt lat="43.60144" lon="6.85154">
        <ele>207.66809082031</ele>
        <time>2009-03-08T11:43:45Z</time>
      </trkpt>
      <trkpt lat="43.60144" lon="6.85153">
        <ele>207.79518127441</ele>
        <time>2009-03-08T11:43:50Z</time>
      </trkpt>
      <trkpt lat="43.60143" lon="6.85154">
        <ele>207.96006774902</ele>
        <time>2009-03-08T11:44:04Z</time>
      </trkpt>
      <trkpt lat="43.60141" lon="6.85159">
        <ele>208.79164123535</ele>
        <time>2009-03-08T11:44:17Z</time>
      </trkpt>
      <trkpt lat="43.60139" lon="6.85166">
        <ele>210.01875305176</ele>
        <time>2009-03-08T11:44:21Z</time>
      </trkpt>
      <trkpt lat="43.60133" lon="6.85176">
        <ele>211.24597167969</ele>
        <time>2009-03-08T11:44:27Z</time>
      </trkpt>
      <trkpt lat="43.60128" lon="6.85186">
        <ele>211.95837402344</ele>
        <time>2009-03-08T11:44:32Z</time>
      </trkpt>
      <trkpt lat="43.60123" lon="6.85203">
        <ele>212.26843261719</ele>
        <time>2009-03-08T11:44:39Z</time>
      </trkpt>
      <trkpt lat="43.6012" lon="6.85216">
        <ele>211.6339263916</ele>
        <time>2009-03-08T11:44:44Z</time>
      </trkpt>
      <trkpt lat="43.60114" lon="6.85231">
        <ele>211.71339416504</ele>
        <time>2009-03-08T11:44:50Z</time>
      </trkpt>
      <trkpt lat="43.60108" lon="6.85245">
        <ele>212.29638671875</ele>
        <time>2009-03-08T11:44:56Z</time>
      </trkpt>
      <trkpt lat="43.60102" lon="6.85257">
        <ele>213.62246704102</ele>
        <time>2009-03-08T11:45:03Z</time>
      </trkpt>
      <trkpt lat="43.60102" lon="6.85259">
        <ele>213.71720886231</ele>
        <time>2009-03-08T11:45:04Z</time>
      </trkpt>
      <trkpt lat="43.60095" lon="6.85268">
        <ele>215.88024902344</ele>
        <time>2009-03-08T11:45:11Z</time>
      </trkpt>
      <trkpt lat="43.60085" lon="6.85284">
        <ele>219.40641784668</ele>
        <time>2009-03-08T11:45:20Z</time>
      </trkpt>
      <trkpt lat="43.60081" lon="6.85289">
        <ele>220.41304016113</ele>
        <time>2009-03-08T11:45:23Z</time>
      </trkpt>
      <trkpt lat="43.60072" lon="6.85298">
        <ele>222.00276184082</ele>
        <time>2009-03-08T11:45:30Z</time>
      </trkpt>
      <trkpt lat="43.60063" lon="6.85306">
        <ele>223.69924926758</ele>
        <time>2009-03-08T11:45:37Z</time>
      </trkpt>
      <trkpt lat="43.60059" lon="6.8531">
        <ele>224.41986083984</ele>
        <time>2009-03-08T11:45:44Z</time>
      </trkpt>
      <trkpt lat="43.6006" lon="6.85308">
        <ele>224.22880554199</ele>
        <time>2009-03-08T11:46:00Z</time>
      </trkpt>
      <trkpt lat="43.60054" lon="6.85316">
        <ele>225.70474243164</ele>
        <time>2009-03-08T11:46:05Z</time>
      </trkpt>
      <trkpt lat="43.60046" lon="6.85326">
        <ele>227.88311767578</ele>
        <time>2009-03-08T11:46:10Z</time>
      </trkpt>
      <trkpt lat="43.60037" lon="6.85335">
        <ele>229.83255004883</ele>
        <time>2009-03-08T11:46:15Z</time>
      </trkpt>
      <trkpt lat="43.60025" lon="6.8535">
        <ele>231.17247009277</ele>
        <time>2009-03-08T11:46:23Z</time>
      </trkpt>
      <trkpt lat="43.60015" lon="6.85362">
        <ele>233.79153442383</ele>
        <time>2009-03-08T11:46:30Z</time>
      </trkpt>
      <trkpt lat="43.60005" lon="6.85373">
        <ele>236.50845336914</ele>
        <time>2009-03-08T11:46:37Z</time>
      </trkpt>
      <trkpt lat="43.59995" lon="6.85379">
        <ele>237.90031433106</ele>
        <time>2009-03-08T11:46:45Z</time>
      </trkpt>
      <trkpt lat="43.59987" lon="6.85384">
        <ele>238.20935058594</ele>
        <time>2009-03-08T11:46:51Z</time>
      </trkpt>
      <trkpt lat="43.59975" lon="6.85394">
        <ele>239.60197448731</ele>
        <time>2009-03-08T11:46:59Z</time>
      </trkpt>
      <trkpt lat="43.59961" lon="6.85408">
        <ele>240.39251708984</ele>
        <time>2009-03-08T11:47:07Z</time>
      </trkpt>
      <trkpt lat="43.59948" lon="6.85417">
        <ele>240.85943603516</ele>
        <time>2009-03-08T11:47:14Z</time>
      </trkpt>
      <trkpt lat="43.5993" lon="6.85424">
        <ele>243.94076538086</ele>
        <time>2009-03-08T11:47:24Z</time>
      </trkpt>
      <trkpt lat="43.59917" lon="6.85424">
        <ele>246.50979614258</ele>
        <time>2009-03-08T11:47:31Z</time>
      </trkpt>
      <trkpt lat="43.59901" lon="6.85427">
        <ele>249.74714660644</ele>
        <time>2009-03-08T11:47:39Z</time>
      </trkpt>
      <trkpt lat="43.59887" lon="6.8544">
        <ele>255.05987548828</ele>
        <time>2009-03-08T11:47:47Z</time>
      </trkpt>
      <trkpt lat="43.59878" lon="6.85452">
        <ele>257.4514465332</ele>
        <time>2009-03-08T11:47:53Z</time>
      </trkpt>
      <trkpt lat="43.59875" lon="6.85454">
        <ele>257.87030029297</ele>
        <time>2009-03-08T11:47:55Z</time>
      </trkpt>
      <trkpt lat="43.59866" lon="6.8546">
        <ele>259.06506347656</ele>
        <time>2009-03-08T11:48:02Z</time>
      </trkpt>
      <trkpt lat="43.59864" lon="6.8546">
        <ele>259.18179321289</ele>
        <time>2009-03-08T11:48:03Z</time>
      </trkpt>
      <trkpt lat="43.59848" lon="6.8547">
        <ele>259.92596435547</ele>
        <time>2009-03-08T11:48:13Z</time>
      </trkpt>
      <trkpt lat="43.59837" lon="6.85485">
        <ele>260.63626098633</ele>
        <time>2009-03-08T11:48:20Z</time>
      </trkpt>
      <trkpt lat="43.59837" lon="6.855">
        <ele>261.2734375</ele>
        <time>2009-03-08T11:48:25Z</time>
      </trkpt>
      <trkpt lat="43.59842" lon="6.85523">
        <ele>263.86331176758</ele>
        <time>2009-03-08T11:48:34Z</time>
      </trkpt>
      <trkpt lat="43.59848" lon="6.85545">
        <ele>266.10971069336</ele>
        <time>2009-03-08T11:48:42Z</time>
      </trkpt>
      <trkpt lat="43.59854" lon="6.85564">
        <ele>267.71920776367</ele>
        <time>2009-03-08T11:48:49Z</time>
      </trkpt>
      <trkpt lat="43.59859" lon="6.8559">
        <ele>269.59393310547</ele>
        <time>2009-03-08T11:48:58Z</time>
      </trkpt>
      <trkpt lat="43.59862" lon="6.85611">
        <ele>270.72766113281</ele>
        <time>2009-03-08T11:49:05Z</time>
      </trkpt>
      <trkpt lat="43.59864" lon="6.8563">
        <ele>271.25500488281</ele>
        <time>2009-03-08T11:49:12Z</time>
      </trkpt>
      <trkpt lat="43.59867" lon="6.85644">
        <ele>270.7643737793</ele>
        <time>2009-03-08T11:49:18Z</time>
      </trkpt>
      <trkpt lat="43.59867" lon="6.85652">
        <ele>271.09710693359</ele>
        <time>2009-03-08T11:49:21Z</time>
      </trkpt>
      <trkpt lat="43.59863" lon="6.85663">
        <ele>274.12380981445</ele>
        <time>2009-03-08T11:49:26Z</time>
      </trkpt>
      <trkpt lat="43.5985" lon="6.85671">
        <ele>276.51583862305</ele>
        <time>2009-03-08T11:49:33Z</time>
      </trkpt>
      <trkpt lat="43.59838" lon="6.85685">
        <ele>278.771484375</ele>
        <time>2009-03-08T11:49:40Z</time>
      </trkpt>
      <trkpt lat="43.59832" lon="6.85695">
        <ele>280.06362915039</ele>
        <time>2009-03-08T11:49:45Z</time>
      </trkpt>
      <trkpt lat="43.5982" lon="6.85703">
        <ele>280.61782836914</ele>
        <time>2009-03-08T11:49:51Z</time>
      </trkpt>
      <trkpt lat="43.59809" lon="6.85709">
        <ele>281.31674194336</ele>
        <time>2009-03-08T11:49:57Z</time>
      </trkpt>
      <trkpt lat="43.59796" lon="6.85713">
        <ele>282.27496337891</ele>
        <time>2009-03-08T11:50:04Z</time>
      </trkpt>
      <trkpt lat="43.5978" lon="6.85713">
        <ele>283.22848510742</ele>
        <time>2009-03-08T11:50:12Z</time>
      </trkpt>
      <trkpt lat="43.59762" lon="6.85714">
        <ele>283.65408325195</ele>
        <time>2009-03-08T11:50:21Z</time>
      </trkpt>
      <trkpt lat="43.59749" lon="6.8572">
        <ele>284.75164794922</ele>
        <time>2009-03-08T11:50:27Z</time>
      </trkpt>
      <trkpt lat="43.59731" lon="6.85732">
        <ele>290.0891418457</ele>
        <time>2009-03-08T11:50:36Z</time>
      </trkpt>
      <trkpt lat="43.59716" lon="6.85741">
        <ele>293.41931152344</ele>
        <time>2009-03-08T11:50:43Z</time>
      </trkpt>
      <trkpt lat="43.59697" lon="6.85749">
        <ele>293.79525756836</ele>
        <time>2009-03-08T11:50:52Z</time>
      </trkpt>
      <trkpt lat="43.59682" lon="6.85757">
        <ele>295.12780761719</ele>
        <time>2009-03-08T11:50:59Z</time>
      </trkpt>
      <trkpt lat="43.59669" lon="6.85774">
        <ele>298.98895263672</ele>
        <time>2009-03-08T11:51:07Z</time>
      </trkpt>
      <trkpt lat="43.59652" lon="6.8579">
        <ele>300</ele>
        <time>2009-03-08T11:51:16Z</time>
      </trkpt>
      <trkpt lat="43.59633" lon="6.858">
        <ele>299.38385009766</ele>
        <time>2009-03-08T11:51:25Z</time>
      </trkpt>
      <trkpt lat="43.59619" lon="6.85812">
        <ele>297.57565307617</ele>
        <time>2009-03-08T11:51:33Z</time>
      </trkpt>
      <trkpt lat="43.59606" lon="6.85819">
        <ele>294.64663696289</ele>
        <time>2009-03-08T11:51:39Z</time>
      </trkpt>
      <trkpt lat="43.59584" lon="6.85829">
        <ele>289.5827331543</ele>
        <time>2009-03-08T11:51:48Z</time>
      </trkpt>
      <trkpt lat="43.59575" lon="6.85845">
        <ele>286.95178222656</ele>
        <time>2009-03-08T11:51:54Z</time>
      </trkpt>
      <trkpt lat="43.59568" lon="6.85872">
        <ele>284.34558105469</ele>
        <time>2009-03-08T11:52:03Z</time>
      </trkpt>
      <trkpt lat="43.59558" lon="6.85891">
        <ele>282.90264892578</ele>
        <time>2009-03-08T11:52:10Z</time>
      </trkpt>
      <trkpt lat="43.59549" lon="6.85905">
        <ele>281.7258605957</ele>
        <time>2009-03-08T11:52:16Z</time>
      </trkpt>
      <trkpt lat="43.59541" lon="6.85916">
        <ele>281.02301025391</ele>
        <time>2009-03-08T11:52:22Z</time>
      </trkpt>
      <trkpt lat="43.59532" lon="6.85926">
        <ele>280.25350952148</ele>
        <time>2009-03-08T11:52:27Z</time>
      </trkpt>
      <trkpt lat="43.59522" lon="6.85933">
        <ele>280.95147705078</ele>
        <time>2009-03-08T11:52:33Z</time>
      </trkpt>
      <trkpt lat="43.59515" lon="6.85938">
        <ele>281.46017456055</ele>
        <time>2009-03-08T11:52:37Z</time>
      </trkpt>
      <trkpt lat="43.59506" lon="6.85943">
        <ele>282.37701416016</ele>
        <time>2009-03-08T11:52:43Z</time>
      </trkpt>
      <trkpt lat="43.59496" lon="6.85952">
        <ele>282.74789428711</ele>
        <time>2009-03-08T11:52:49Z</time>
      </trkpt>
      <trkpt lat="43.59484" lon="6.85959">
        <ele>284.56405639648</ele>
        <time>2009-03-08T11:52:55Z</time>
      </trkpt>
      <trkpt lat="43.5947" lon="6.85969">
        <ele>288.89987182617</ele>
        <time>2009-03-08T11:53:02Z</time>
      </trkpt>
      <trkpt lat="43.59454" lon="6.85982">
        <ele>298.86224365234</ele>
        <time>2009-03-08T11:53:09Z</time>
      </trkpt>
      <trkpt lat="43.59442" lon="6.85997">
        <ele>309.20166015625</ele>
        <time>2009-03-08T11:53:17Z</time>
      </trkpt>
      <trkpt lat="43.59432" lon="6.86008">
        <ele>314.37490844727</ele>
        <time>2009-03-08T11:53:22Z</time>
      </trkpt>
      <trkpt lat="43.5942" lon="6.86027">
        <ele>321.33456420898</ele>
        <time>2009-03-08T11:53:28Z</time>
      </trkpt>
      <trkpt lat="43.59409" lon="6.86041">
        <ele>322.04721069336</ele>
        <time>2009-03-08T11:53:33Z</time>
      </trkpt>
      <trkpt lat="43.59399" lon="6.86049">
        <ele>323.11755371094</ele>
        <time>2009-03-08T11:53:38Z</time>
      </trkpt>
      <trkpt lat="43.59388" lon="6.86059">
        <ele>324.55377197266</ele>
        <time>2009-03-08T11:53:43Z</time>
      </trkpt>
      <trkpt lat="43.59375" lon="6.86078">
        <ele>323.13397216797</ele>
        <time>2009-03-08T11:53:49Z</time>
      </trkpt>
      <trkpt lat="43.59367" lon="6.86099">
        <ele>319.49688720703</ele>
        <time>2009-03-08T11:53:55Z</time>
      </trkpt>
      <trkpt lat="43.59361" lon="6.86115">
        <ele>317.38638305664</ele>
        <time>2009-03-08T11:54:01Z</time>
      </trkpt>
      <trkpt lat="43.59348" lon="6.86137">
        <ele>316.72549438477</ele>
        <time>2009-03-08T11:54:09Z</time>
      </trkpt>
      <trkpt lat="43.5934" lon="6.86151">
        <ele>314.84802246094</ele>
        <time>2009-03-08T11:54:15Z</time>
      </trkpt>
      <trkpt lat="43.5933" lon="6.86163">
        <ele>314.29666137695</ele>
        <time>2009-03-08T11:54:21Z</time>
      </trkpt>
      <trkpt lat="43.59318" lon="6.86171">
        <ele>316.84271240234</ele>
        <time>2009-03-08T11:54:26Z</time>
      </trkpt>
      <trkpt lat="43.59301" lon="6.86181">
        <ele>320.48059082031</ele>
        <time>2009-03-08T11:54:32Z</time>
      </trkpt>
      <trkpt lat="43.59281" lon="6.86196">
        <ele>323.52716064453</ele>
        <time>2009-03-08T11:54:39Z</time>
      </trkpt>
      <trkpt lat="43.59269" lon="6.86213">
        <ele>322.32260131836</ele>
        <time>2009-03-08T11:54:44Z</time>
      </trkpt>
      <trkpt lat="43.59256" lon="6.86239">
        <ele>320.47305297852</ele>
        <time>2009-03-08T11:54:51Z</time>
      </trkpt>
      <trkpt lat="43.59237" lon="6.86261">
        <ele>323.52423095703</ele>
        <time>2009-03-08T11:54:59Z</time>
      </trkpt>
      <trkpt lat="43.59223" lon="6.86281">
        <ele>326.43676757812</ele>
        <time>2009-03-08T11:55:06Z</time>
      </trkpt>
      <trkpt lat="43.59217" lon="6.8631">
        <ele>322.6994934082</ele>
        <time>2009-03-08T11:55:13Z</time>
      </trkpt>
      <trkpt lat="43.59213" lon="6.86337">
        <ele>320.57379150391</ele>
        <time>2009-03-08T11:55:20Z</time>
      </trkpt>
      <trkpt lat="43.59214" lon="6.86375">
        <ele>320.14221191406</ele>
        <time>2009-03-08T11:55:30Z</time>
      </trkpt>
      <trkpt lat="43.59219" lon="6.86414">
        <ele>320.90621948242</ele>
        <time>2009-03-08T11:55:40Z</time>
      </trkpt>
      <trkpt lat="43.59223" lon="6.86444">
        <ele>321.77072143555</ele>
        <time>2009-03-08T11:55:48Z</time>
      </trkpt>
      <trkpt lat="43.59226" lon="6.86471">
        <ele>323.2900390625</ele>
        <time>2009-03-08T11:55:55Z</time>
      </trkpt>
      <trkpt lat="43.59232" lon="6.86509">
        <ele>324.76879882812</ele>
        <time>2009-03-08T11:56:05Z</time>
      </trkpt>
      <trkpt lat="43.59235" lon="6.86531">
        <ele>325.80642700195</ele>
        <time>2009-03-08T11:56:11Z</time>
      </trkpt>
      <trkpt lat="43.59243" lon="6.86546">
        <ele>327.08221435547</ele>
        <time>2009-03-08T11:56:16Z</time>
      </trkpt>
      <trkpt lat="43.59256" lon="6.86568">
        <ele>328.439453125</ele>
        <time>2009-03-08T11:56:23Z</time>
      </trkpt>
      <trkpt lat="43.59264" lon="6.8659">
        <ele>329.70953369141</ele>
        <time>2009-03-08T11:56:29Z</time>
      </trkpt>
      <trkpt lat="43.59275" lon="6.86607">
        <ele>330.75497436523</ele>
        <time>2009-03-08T11:56:35Z</time>
      </trkpt>
      <trkpt lat="43.59285" lon="6.86614">
        <ele>330.49829101562</ele>
        <time>2009-03-08T11:56:40Z</time>
      </trkpt>
      <trkpt lat="43.59297" lon="6.86616">
        <ele>329.61785888672</ele>
        <time>2009-03-08T11:56:45Z</time>
      </trkpt>
      <trkpt lat="43.59315" lon="6.86623">
        <ele>328.63061523438</ele>
        <time>2009-03-08T11:56:53Z</time>
      </trkpt>
      <trkpt lat="43.59328" lon="6.86636">
        <ele>328.42807006836</ele>
        <time>2009-03-08T11:57:01Z</time>
      </trkpt>
      <trkpt lat="43.59341" lon="6.86648">
        <ele>327.55087280273</ele>
        <time>2009-03-08T11:57:08Z</time>
      </trkpt>
      <trkpt lat="43.59355" lon="6.86657">
        <ele>326.24969482422</ele>
        <time>2009-03-08T11:57:15Z</time>
      </trkpt>
      <trkpt lat="43.59367" lon="6.86666">
        <ele>324.47717285156</ele>
        <time>2009-03-08T11:57:21Z</time>
      </trkpt>
      <trkpt lat="43.59386" lon="6.86686">
        <ele>318.58068847656</ele>
        <time>2009-03-08T11:57:30Z</time>
      </trkpt>
      <trkpt lat="43.59389" lon="6.86705">
        <ele>315.78790283203</ele>
        <time>2009-03-08T11:57:36Z</time>
      </trkpt>
      <trkpt lat="43.59382" lon="6.86723">
        <ele>316.7356262207</ele>
        <time>2009-03-08T11:57:43Z</time>
      </trkpt>
      <trkpt lat="43.59376" lon="6.86726">
        <ele>318.79211425781</ele>
        <time>2009-03-08T11:57:47Z</time>
      </trkpt>
      <trkpt lat="43.59376" lon="6.86727">
        <ele>318.70971679688</ele>
        <time>2009-03-08T11:57:51Z</time>
      </trkpt>
      <trkpt lat="43.59375" lon="6.86726">
        <ele>319.09423828125</ele>
        <time>2009-03-08T11:58:04Z</time>
      </trkpt>
      <trkpt lat="43.59375" lon="6.86727">
        <ele>319.12170410156</ele>
        <time>2009-03-08T11:58:28Z</time>
      </trkpt>
      <trkpt lat="43.59378" lon="6.8673">
        <ele>317.90979003906</ele>
        <time>2009-03-08T11:58:35Z</time>
      </trkpt>
      <trkpt lat="43.59378" lon="6.8673">
        <ele>317.58361816406</ele>
        <time>2009-03-08T11:58:44Z</time>
      </trkpt>
      <trkpt lat="43.5938" lon="6.8673">
        <ele>316.97937011719</ele>
        <time>2009-03-08T11:58:48Z</time>
      </trkpt>
      <trkpt lat="43.59383" lon="6.86723">
        <ele>316.11419677734</ele>
        <time>2009-03-08T11:59:18Z</time>
      </trkpt>
      <trkpt lat="43.59396" lon="6.86724">
        <ele>311.92816162109</ele>
        <time>2009-03-08T11:59:55Z</time>
      </trkpt>
      <trkpt lat="43.59382" lon="6.86731">
        <ele>316.18286132812</ele>
        <time>2009-03-08T12:00:43Z</time>
      </trkpt>
      <trkpt lat="43.59381" lon="6.86731">
        <ele>316.62921142578</ele>
        <time>2009-03-08T12:00:58Z</time>
      </trkpt>
      <trkpt lat="43.5938" lon="6.8673">
        <ele>317.13388061523</ele>
        <time>2009-03-08T12:01:15Z</time>
      </trkpt>
      <trkpt lat="43.59379" lon="6.86728">
        <ele>317.40167236328</ele>
        <time>2009-03-08T12:01:34Z</time>
      </trkpt>
      <trkpt lat="43.59379" lon="6.86728">
        <ele>317.58361816406</ele>
        <time>2009-03-08T12:01:37Z</time>
      </trkpt>
      <trkpt lat="43.5937" lon="6.86734">
        <ele>320.46411132812</ele>
        <time>2009-03-08T12:01:44Z</time>
      </trkpt>
      <trkpt lat="43.59368" lon="6.86736">
        <ele>321.19882202148</ele>
        <time>2009-03-08T12:01:53Z</time>
      </trkpt>
      <trkpt lat="43.59369" lon="6.86739">
        <ele>320.86923217773</ele>
        <time>2009-03-08T12:02:05Z</time>
      </trkpt>
      <trkpt lat="43.59369" lon="6.86738">
        <ele>320.94134521484</ele>
        <time>2009-03-08T12:02:08Z</time>
      </trkpt>
      <trkpt lat="43.59368" lon="6.86734">
        <ele>321.50094604492</ele>
        <time>2009-03-08T12:02:27Z</time>
      </trkpt>
      <trkpt lat="43.59364" lon="6.86732">
        <ele>323.35144042969</ele>
        <time>2009-03-08T12:02:47Z</time>
      </trkpt>
      <trkpt lat="43.59362" lon="6.86732">
        <ele>323.80120849609</ele>
        <time>2009-03-08T12:02:49Z</time>
      </trkpt>
      <trkpt lat="43.59361" lon="6.86731">
        <ele>324.40505981445</ele>
        <time>2009-03-08T12:02:55Z</time>
      </trkpt>
      <trkpt lat="43.59358" lon="6.86735">
        <ele>324.97326660156</ele>
        <time>2009-03-08T12:03:00Z</time>
      </trkpt>
      <trkpt lat="43.59354" lon="6.86745">
        <ele>325.64862060547</ele>
        <time>2009-03-08T12:03:06Z</time>
      </trkpt>
      <trkpt lat="43.59349" lon="6.86759">
        <ele>329.16348266602</ele>
        <time>2009-03-08T12:03:13Z</time>
      </trkpt>
      <trkpt lat="43.59345" lon="6.86782">
        <ele>334.54699707031</ele>
        <time>2009-03-08T12:03:21Z</time>
      </trkpt>
      <trkpt lat="43.59344" lon="6.868">
        <ele>337.75308227539</ele>
        <time>2009-03-08T12:03:27Z</time>
      </trkpt>
      <trkpt lat="43.59345" lon="6.86823">
        <ele>340.51370239258</ele>
        <time>2009-03-08T12:03:34Z</time>
      </trkpt>
      <trkpt lat="43.59346" lon="6.86849">
        <ele>344.0966796875</ele>
        <time>2009-03-08T12:03:42Z</time>
      </trkpt>
      <trkpt lat="43.59342" lon="6.86866">
        <ele>349.03594970703</ele>
        <time>2009-03-08T12:03:48Z</time>
      </trkpt>
      <trkpt lat="43.59341" lon="6.86892">
        <ele>353.0302734375</ele>
        <time>2009-03-08T12:03:56Z</time>
      </trkpt>
      <trkpt lat="43.5935" lon="6.86906">
        <ele>348.66662597656</ele>
        <time>2009-03-08T12:04:02Z</time>
      </trkpt>
      <trkpt lat="43.59361" lon="6.86922">
        <ele>343.59921264648</ele>
        <time>2009-03-08T12:04:08Z</time>
      </trkpt>
      <trkpt lat="43.5937" lon="6.86944">
        <ele>337.47372436523</ele>
        <time>2009-03-08T12:04:16Z</time>
      </trkpt>
      <trkpt lat="43.59375" lon="6.86976">
        <ele>333.72088623047</ele>
        <time>2009-03-08T12:04:26Z</time>
      </trkpt>
      <trkpt lat="43.59372" lon="6.86999">
        <ele>333.33331298828</ele>
        <time>2009-03-08T12:04:33Z</time>
      </trkpt>
      <trkpt lat="43.5936" lon="6.87012">
        <ele>335.06097412109</ele>
        <time>2009-03-08T12:04:39Z</time>
      </trkpt>
      <trkpt lat="43.59346" lon="6.8702">
        <ele>337.41976928711</ele>
        <time>2009-03-08T12:04:46Z</time>
      </trkpt>
      <trkpt lat="43.59334" lon="6.87028">
        <ele>339.7262878418</ele>
        <time>2009-03-08T12:04:52Z</time>
      </trkpt>
      <trkpt lat="43.59321" lon="6.87036">
        <ele>345.25457763672</ele>
        <time>2009-03-08T12:04:58Z</time>
      </trkpt>
      <trkpt lat="43.59309" lon="6.87048">
        <ele>349.75329589844</ele>
        <time>2009-03-08T12:05:04Z</time>
      </trkpt>
      <trkpt lat="43.593" lon="6.87061">
        <ele>351.23822021484</ele>
        <time>2009-03-08T12:05:09Z</time>
      </trkpt>
      <trkpt lat="43.59296" lon="6.8709">
        <ele>347.18334960938</ele>
        <time>2009-03-08T12:05:18Z</time>
      </trkpt>
      <trkpt lat="43.59296" lon="6.87122">
        <ele>342.84759521484</ele>
        <time>2009-03-08T12:05:27Z</time>
      </trkpt>
      <trkpt lat="43.59296" lon="6.87143">
        <ele>339.62954711914</ele>
        <time>2009-03-08T12:05:33Z</time>
      </trkpt>
      <trkpt lat="43.59293" lon="6.87162">
        <ele>336.84005737305</ele>
        <time>2009-03-08T12:05:38Z</time>
      </trkpt>
      <trkpt lat="43.59287" lon="6.87188">
        <ele>334.34146118164</ele>
        <time>2009-03-08T12:05:45Z</time>
      </trkpt>
      <trkpt lat="43.59276" lon="6.87207">
        <ele>335.83764648438</ele>
        <time>2009-03-08T12:05:52Z</time>
      </trkpt>
      <trkpt lat="43.5926" lon="6.87224">
        <ele>336.64630126953</ele>
        <time>2009-03-08T12:05:59Z</time>
      </trkpt>
      <trkpt lat="43.59246" lon="6.87235">
        <ele>337.54455566406</ele>
        <time>2009-03-08T12:06:06Z</time>
      </trkpt>
      <trkpt lat="43.59233" lon="6.87242">
        <ele>341.02593994141</ele>
        <time>2009-03-08T12:06:12Z</time>
      </trkpt>
      <trkpt lat="43.59212" lon="6.87247">
        <ele>348.50534057617</ele>
        <time>2009-03-08T12:06:21Z</time>
      </trkpt>
      <trkpt lat="43.59193" lon="6.87251">
        <ele>356.09518432617</ele>
        <time>2009-03-08T12:06:29Z</time>
      </trkpt>
      <trkpt lat="43.59179" lon="6.87261">
        <ele>357.00003051758</ele>
        <time>2009-03-08T12:06:35Z</time>
      </trkpt>
      <trkpt lat="43.59166" lon="6.87273">
        <ele>358.43405151367</ele>
        <time>2009-03-08T12:06:41Z</time>
      </trkpt>
      <trkpt lat="43.59156" lon="6.87287">
        <ele>360.51406860352</ele>
        <time>2009-03-08T12:06:46Z</time>
      </trkpt>
      <trkpt lat="43.59149" lon="6.87307">
        <ele>360.87210083008</ele>
        <time>2009-03-08T12:06:52Z</time>
      </trkpt>
      <trkpt lat="43.5914" lon="6.8733">
        <ele>360.23794555664</ele>
        <time>2009-03-08T12:06:59Z</time>
      </trkpt>
      <trkpt lat="43.59131" lon="6.87356">
        <ele>361.7041015625</ele>
        <time>2009-03-08T12:07:06Z</time>
      </trkpt>
      <trkpt lat="43.59124" lon="6.87383">
        <ele>362.23083496094</ele>
        <time>2009-03-08T12:07:14Z</time>
      </trkpt>
      <trkpt lat="43.59122" lon="6.87412">
        <ele>360.61727905273</ele>
        <time>2009-03-08T12:07:22Z</time>
      </trkpt>
      <trkpt lat="43.59121" lon="6.87433">
        <ele>359.78729248047</ele>
        <time>2009-03-08T12:07:28Z</time>
      </trkpt>
      <trkpt lat="43.59121" lon="6.87437">
        <ele>359.46502685547</ele>
        <time>2009-03-08T12:07:29Z</time>
      </trkpt>
      <trkpt lat="43.59118" lon="6.87464">
        <ele>358.40133666992</ele>
        <time>2009-03-08T12:07:37Z</time>
      </trkpt>
      <trkpt lat="43.59116" lon="6.87467">
        <ele>358.44253540039</ele>
        <time>2009-03-08T12:07:38Z</time>
      </trkpt>
      <trkpt lat="43.59105" lon="6.87492">
        <ele>360.74456787109</ele>
        <time>2009-03-08T12:07:46Z</time>
      </trkpt>
      <trkpt lat="43.5909" lon="6.87517">
        <ele>361.58108520508</ele>
        <time>2009-03-08T12:07:55Z</time>
      </trkpt>
      <trkpt lat="43.59075" lon="6.87531">
        <ele>362.41110229492</ele>
        <time>2009-03-08T12:08:02Z</time>
      </trkpt>
      <trkpt lat="43.59065" lon="6.87538">
        <ele>362.81726074219</ele>
        <time>2009-03-08T12:08:07Z</time>
      </trkpt>
      <trkpt lat="43.59061" lon="6.87542">
        <ele>363.02517700195</ele>
        <time>2009-03-08T12:08:10Z</time>
      </trkpt>
      <trkpt lat="43.59056" lon="6.87549">
        <ele>363.23205566406</ele>
        <time>2009-03-08T12:08:16Z</time>
      </trkpt>
      <trkpt lat="43.59052" lon="6.87552">
        <ele>363.37265014648</ele>
        <time>2009-03-08T12:08:22Z</time>
      </trkpt>
      <trkpt lat="43.59051" lon="6.87552">
        <ele>363.42352294922</ele>
        <time>2009-03-08T12:08:28Z</time>
      </trkpt>
      <trkpt lat="43.5905" lon="6.87552">
        <ele>363.47912597656</ele>
        <time>2009-03-08T12:08:38Z</time>
      </trkpt>
      <trkpt lat="43.5905" lon="6.87552">
        <ele>363.4638671875</ele>
        <time>2009-03-08T12:08:55Z</time>
      </trkpt>
      <trkpt lat="43.5905" lon="6.87551">
        <ele>363.46600341797</ele>
        <time>2009-03-08T12:08:58Z</time>
      </trkpt>
      <trkpt lat="43.5905" lon="6.87551">
        <ele>363.46817016602</ele>
        <time>2009-03-08T12:09:00Z</time>
      </trkpt>
      <trkpt lat="43.59052" lon="6.8755">
        <ele>363.40399169922</ele>
        <time>2009-03-08T12:09:39Z</time>
      </trkpt>
      <trkpt lat="43.59052" lon="6.87551">
        <ele>363.36471557617</ele>
        <time>2009-03-08T12:10:23Z</time>
      </trkpt>
      <trkpt lat="43.59053" lon="6.87552">
        <ele>363.30517578125</ele>
        <time>2009-03-08T12:10:43Z</time>
      </trkpt>
      <trkpt lat="43.59053" lon="6.87552">
        <ele>363.30383300781</ele>
        <time>2009-03-08T12:10:45Z</time>
      </trkpt>
      <trkpt lat="43.59053" lon="6.87552">
        <ele>363.30111694336</ele>
        <time>2009-03-08T12:10:49Z</time>
      </trkpt>
      <trkpt lat="43.59053" lon="6.87552">
        <ele>363.27685546875</ele>
        <time>2009-03-08T12:10:59Z</time>
      </trkpt>
      <trkpt lat="43.59054" lon="6.87552">
        <ele>363.23434448242</ele>
        <time>2009-03-08T12:11:12Z</time>
      </trkpt>
      <trkpt lat="43.59054" lon="6.87552">
        <ele>363.21337890625</ele>
        <time>2009-03-08T12:11:17Z</time>
      </trkpt>
      <trkpt lat="43.59055" lon="6.87552">
        <ele>363.19577026367</ele>
        <time>2009-03-08T12:11:36Z</time>
      </trkpt>
      <trkpt lat="43.59055" lon="6.87552">
        <ele>363.2053527832</ele>
        <time>2009-03-08T12:11:47Z</time>
      </trkpt>
      <trkpt lat="43.59054" lon="6.87551">
        <ele>363.24276733398</ele>
        <time>2009-03-08T12:12:01Z</time>
      </trkpt>
      <trkpt lat="43.59054" lon="6.87551">
        <ele>363.26733398438</ele>
        <time>2009-03-08T12:12:09Z</time>
      </trkpt>
      <trkpt lat="43.59053" lon="6.87551">
        <ele>363.31481933594</ele>
        <time>2009-03-08T12:12:14Z</time>
      </trkpt>
      <trkpt lat="43.59048" lon="6.87558">
        <ele>363.5107421875</ele>
        <time>2009-03-08T12:12:25Z</time>
      </trkpt>
      <trkpt lat="43.5904" lon="6.8757">
        <ele>364.08752441406</ele>
        <time>2009-03-08T12:12:30Z</time>
      </trkpt>
      <trkpt lat="43.59039" lon="6.87572">
        <ele>364.169921875</ele>
        <time>2009-03-08T12:12:31Z</time>
      </trkpt>
      <trkpt lat="43.59029" lon="6.87581">
        <ele>364.91149902344</ele>
        <time>2009-03-08T12:12:38Z</time>
      </trkpt>
      <trkpt lat="43.59024" lon="6.87586">
        <ele>365.36163330078</ele>
        <time>2009-03-08T12:12:42Z</time>
      </trkpt>
      <trkpt lat="43.59023" lon="6.87586">
        <ele>365.52642822266</ele>
        <time>2009-03-08T12:12:46Z</time>
      </trkpt>
      <trkpt lat="43.59022" lon="6.87587">
        <ele>365.65002441406</ele>
        <time>2009-03-08T12:12:48Z</time>
      </trkpt>
      <trkpt lat="43.59011" lon="6.87586">
        <ele>366.84478759766</ele>
        <time>2009-03-08T12:12:54Z</time>
      </trkpt>
      <trkpt lat="43.59008" lon="6.87588">
        <ele>367.09197998047</ele>
        <time>2009-03-08T12:12:55Z</time>
      </trkpt>
      <trkpt lat="43.59001" lon="6.87599">
        <ele>367.87475585938</ele>
        <time>2009-03-08T12:13:01Z</time>
      </trkpt>
      <trkpt lat="43.58999" lon="6.87601">
        <ele>368.16259765625</ele>
        <time>2009-03-08T12:13:03Z</time>
      </trkpt>
      <trkpt lat="43.58993" lon="6.87611">
        <ele>369.04150390625</ele>
        <time>2009-03-08T12:13:08Z</time>
      </trkpt>
      <trkpt lat="43.58981" lon="6.87625">
        <ele>367.36047363281</ele>
        <time>2009-03-08T12:13:15Z</time>
      </trkpt>
      <trkpt lat="43.58971" lon="6.87636">
        <ele>366.04116821289</ele>
        <time>2009-03-08T12:13:20Z</time>
      </trkpt>
      <trkpt lat="43.58958" lon="6.87649">
        <ele>364.69750976562</ele>
        <time>2009-03-08T12:13:26Z</time>
      </trkpt>
      <trkpt lat="43.58942" lon="6.8767">
        <ele>362.70819091797</ele>
        <time>2009-03-08T12:13:34Z</time>
      </trkpt>
      <trkpt lat="43.58932" lon="6.8769">
        <ele>359.84591674805</ele>
        <time>2009-03-08T12:13:40Z</time>
      </trkpt>
      <trkpt lat="43.5892" lon="6.87721">
        <ele>353.71655273438</ele>
        <time>2009-03-08T12:13:50Z</time>
      </trkpt>
      <trkpt lat="43.58906" lon="6.87744">
        <ele>353.27047729492</ele>
        <time>2009-03-08T12:13:58Z</time>
      </trkpt>
      <trkpt lat="43.58889" lon="6.87764">
        <ele>357.7844543457</ele>
        <time>2009-03-08T12:14:06Z</time>
      </trkpt>
      <trkpt lat="43.58883" lon="6.87772">
        <ele>359.09140014648</ele>
        <time>2009-03-08T12:14:10Z</time>
      </trkpt>
      <trkpt lat="43.58864" lon="6.87793">
        <ele>361.16152954102</ele>
        <time>2009-03-08T12:14:18Z</time>
      </trkpt>
      <trkpt lat="43.58845" lon="6.87814">
        <ele>366.4296875</ele>
        <time>2009-03-08T12:14:26Z</time>
      </trkpt>
      <trkpt lat="43.58821" lon="6.87833">
        <ele>374.26553344727</ele>
        <time>2009-03-08T12:14:35Z</time>
      </trkpt>
      <trkpt lat="43.58799" lon="6.87843">
        <ele>380.66888427734</ele>
        <time>2009-03-08T12:14:43Z</time>
      </trkpt>
      <trkpt lat="43.58771" lon="6.8785">
        <ele>383.90029907227</ele>
        <time>2009-03-08T12:14:53Z</time>
      </trkpt>
      <trkpt lat="43.58745" lon="6.87849">
        <ele>386.87091064453</ele>
        <time>2009-03-08T12:15:02Z</time>
      </trkpt>
      <trkpt lat="43.58723" lon="6.87851">
        <ele>388.29867553711</ele>
        <time>2009-03-08T12:15:10Z</time>
      </trkpt>
      <trkpt lat="43.58704" lon="6.87862">
        <ele>390.55084228516</ele>
        <time>2009-03-08T12:15:17Z</time>
      </trkpt>
      <trkpt lat="43.58688" lon="6.87877">
        <ele>393.38928222656</ele>
        <time>2009-03-08T12:15:24Z</time>
      </trkpt>
      <trkpt lat="43.58672" lon="6.87893">
        <ele>396.06625366211</ele>
        <time>2009-03-08T12:15:31Z</time>
      </trkpt>
      <trkpt lat="43.58654" lon="6.87915">
        <ele>397.43948364258</ele>
        <time>2009-03-08T12:15:39Z</time>
      </trkpt>
      <trkpt lat="43.58635" lon="6.87938">
        <ele>398.3239440918</ele>
        <time>2009-03-08T12:15:47Z</time>
      </trkpt>
      <trkpt lat="43.58619" lon="6.87946">
        <ele>397.90975952148</ele>
        <time>2009-03-08T12:15:53Z</time>
      </trkpt>
      <trkpt lat="43.58593" lon="6.87941">
        <ele>393.46923828125</ele>
        <time>2009-03-08T12:16:02Z</time>
      </trkpt>
      <trkpt lat="43.58575" lon="6.87947">
        <ele>393.52059936523</ele>
        <time>2009-03-08T12:16:08Z</time>
      </trkpt>
      <trkpt lat="43.58564" lon="6.87951">
        <ele>394.74627685547</ele>
        <time>2009-03-08T12:16:13Z</time>
      </trkpt>
      <trkpt lat="43.58549" lon="6.87957">
        <ele>395.65289306641</ele>
        <time>2009-03-08T12:16:18Z</time>
      </trkpt>
      <trkpt lat="43.58532" lon="6.87969">
        <ele>396.75170898438</ele>
        <time>2009-03-08T12:16:24Z</time>
      </trkpt>
      <trkpt lat="43.58514" lon="6.87983">
        <ele>397.58361816406</ele>
        <time>2009-03-08T12:16:30Z</time>
      </trkpt>
      <trkpt lat="43.58494" lon="6.87985">
        <ele>396.61044311523</ele>
        <time>2009-03-08T12:16:36Z</time>
      </trkpt>
      <trkpt lat="43.58476" lon="6.87976">
        <ele>393.04504394531</ele>
        <time>2009-03-08T12:16:42Z</time>
      </trkpt>
      <trkpt lat="43.58456" lon="6.87971">
        <ele>390.01080322266</ele>
        <time>2009-03-08T12:16:47Z</time>
      </trkpt>
      <trkpt lat="43.58439" lon="6.8798">
        <ele>389.58471679688</ele>
        <time>2009-03-08T12:16:52Z</time>
      </trkpt>
      <trkpt lat="43.58435" lon="6.87996">
        <ele>391.39059448242</ele>
        <time>2009-03-08T12:16:56Z</time>
      </trkpt>
      <trkpt lat="43.58434" lon="6.88013">
        <ele>392.60446166992</ele>
        <time>2009-03-08T12:17:00Z</time>
      </trkpt>
      <trkpt lat="43.58432" lon="6.88016">
        <ele>392.4035949707</ele>
        <time>2009-03-08T12:17:05Z</time>
      </trkpt>
      <trkpt lat="43.58436" lon="6.88014">
        <ele>392.96286010742</ele>
        <time>2009-03-08T12:17:13Z</time>
      </trkpt>
      <trkpt lat="43.58435" lon="6.88014">
        <ele>392.72537231445</ele>
        <time>2009-03-08T12:17:15Z</time>
      </trkpt>
      <trkpt lat="43.58419" lon="6.88012">
        <ele>390.03472900391</ele>
        <time>2009-03-08T12:17:20Z</time>
      </trkpt>
      <trkpt lat="43.58411" lon="6.88013">
        <ele>388.87921142578</ele>
        <time>2009-03-08T12:17:22Z</time>
      </trkpt>
      <trkpt lat="43.58399" lon="6.88014">
        <ele>387.53726196289</ele>
        <time>2009-03-08T12:17:24Z</time>
      </trkpt>
      <trkpt lat="43.58392" lon="6.88014">
        <ele>386.81552124023</ele>
        <time>2009-03-08T12:17:25Z</time>
      </trkpt>
      <trkpt lat="43.58387" lon="6.88015">
        <ele>386.15347290039</ele>
        <time>2009-03-08T12:17:26Z</time>
      </trkpt>
      <trkpt lat="43.58383" lon="6.88015">
        <ele>385.57565307617</ele>
        <time>2009-03-08T12:17:27Z</time>
      </trkpt>
      <trkpt lat="43.58376" lon="6.88017">
        <ele>384.4733581543</ele>
        <time>2009-03-08T12:17:29Z</time>
      </trkpt>
      <trkpt lat="43.58358" lon="6.88023">
        <ele>381.22225952148</ele>
        <time>2009-03-08T12:17:34Z</time>
      </trkpt>
      <trkpt lat="43.58321" lon="6.88034">
        <ele>371.66189575195</ele>
        <time>2009-03-08T12:17:41Z</time>
      </trkpt>
      <trkpt lat="43.58302" lon="6.88021">
        <ele>370.88323974609</ele>
        <time>2009-03-08T12:17:45Z</time>
      </trkpt>
      <trkpt lat="43.58295" lon="6.88001">
        <ele>371.05834960938</ele>
        <time>2009-03-08T12:17:48Z</time>
      </trkpt>
      <trkpt lat="43.58288" lon="6.87994">
        <ele>369.42233276367</ele>
        <time>2009-03-08T12:17:51Z</time>
      </trkpt>
      <trkpt lat="43.58284" lon="6.88007">
        <ele>368.57952880859</ele>
        <time>2009-03-08T12:17:53Z</time>
      </trkpt>
      <trkpt lat="43.58271" lon="6.88057">
        <ele>361.58966064453</ele>
        <time>2009-03-08T12:17:58Z</time>
      </trkpt>
      <trkpt lat="43.58255" lon="6.88087">
        <ele>357.43930053711</ele>
        <time>2009-03-08T12:18:02Z</time>
      </trkpt>
      <trkpt lat="43.5823" lon="6.88101">
        <ele>353.47033691406</ele>
        <time>2009-03-08T12:18:06Z</time>
      </trkpt>
      <trkpt lat="43.58218" lon="6.88098">
        <ele>352.49273681641</ele>
        <time>2009-03-08T12:18:08Z</time>
      </trkpt>
      <trkpt lat="43.58208" lon="6.88094">
        <ele>349.54824829102</ele>
        <time>2009-03-08T12:18:10Z</time>
      </trkpt>
      <trkpt lat="43.58188" lon="6.8809">
        <ele>346.77471923828</ele>
        <time>2009-03-08T12:18:15Z</time>
      </trkpt>
      <trkpt lat="43.58169" lon="6.8809">
        <ele>352.46578979492</ele>
        <time>2009-03-08T12:18:19Z</time>
      </trkpt>
      <trkpt lat="43.58136" lon="6.88088">
        <ele>360</ele>
        <time>2009-03-08T12:18:25Z</time>
      </trkpt>
      <trkpt lat="43.58104" lon="6.8809">
        <ele>360</ele>
        <time>2009-03-08T12:18:30Z</time>
      </trkpt>
      <trkpt lat="43.58092" lon="6.88083">
        <ele>360</ele>
        <time>2009-03-08T12:18:32Z</time>
      </trkpt>
      <trkpt lat="43.58072" lon="6.88049">
        <ele>358.71017456055</ele>
        <time>2009-03-08T12:18:37Z</time>
      </trkpt>
      <trkpt lat="43.58043" lon="6.87995">
        <ele>346.59661865234</ele>
        <time>2009-03-08T12:18:43Z</time>
      </trkpt>
      <trkpt lat="43.58006" lon="6.87964">
        <ele>341.6025390625</ele>
        <time>2009-03-08T12:18:48Z</time>
      </trkpt>
      <trkpt lat="43.57981" lon="6.87966">
        <ele>341.55981445312</ele>
        <time>2009-03-08T12:18:52Z</time>
      </trkpt>
      <trkpt lat="43.57965" lon="6.87979">
        <ele>342.17251586914</ele>
        <time>2009-03-08T12:18:55Z</time>
      </trkpt>
      <trkpt lat="43.57942" lon="6.87981">
        <ele>341.91918945312</ele>
        <time>2009-03-08T12:18:59Z</time>
      </trkpt>
      <trkpt lat="43.57931" lon="6.87977">
        <ele>341.52093505859</ele>
        <time>2009-03-08T12:19:01Z</time>
      </trkpt>
      <trkpt lat="43.57904" lon="6.87984">
        <ele>337.36911010742</ele>
        <time>2009-03-08T12:19:07Z</time>
      </trkpt>
      <trkpt lat="43.57901" lon="6.87991">
        <ele>335.7756652832</ele>
        <time>2009-03-08T12:19:09Z</time>
      </trkpt>
      <trkpt lat="43.57899" lon="6.88007">
        <ele>333.6916809082</ele>
        <time>2009-03-08T12:19:12Z</time>
      </trkpt>
      <trkpt lat="43.57896" lon="6.88025">
        <ele>330.02285766602</ele>
        <time>2009-03-08T12:19:16Z</time>
      </trkpt>
      <trkpt lat="43.57899" lon="6.8805">
        <ele>326.2666015625</ele>
        <time>2009-03-08T12:19:20Z</time>
      </trkpt>
      <trkpt lat="43.57901" lon="6.88058">
        <ele>325.16912841797</ele>
        <time>2009-03-08T12:19:21Z</time>
      </trkpt>
      <trkpt lat="43.57913" lon="6.88078">
        <ele>324.37600708008</ele>
        <time>2009-03-08T12:19:25Z</time>
      </trkpt>
      <trkpt lat="43.57932" lon="6.88099">
        <ele>323.81979370117</ele>
        <time>2009-03-08T12:19:30Z</time>
      </trkpt>
      <trkpt lat="43.57953" lon="6.88118">
        <ele>323.9172668457</ele>
        <time>2009-03-08T12:19:36Z</time>
      </trkpt>
      <trkpt lat="43.57961" lon="6.88134">
        <ele>321.66864013672</ele>
        <time>2009-03-08T12:19:39Z</time>
      </trkpt>
      <trkpt lat="43.57965" lon="6.88146">
        <ele>320.11810302734</ele>
        <time>2009-03-08T12:19:41Z</time>
      </trkpt>
      <trkpt lat="43.57973" lon="6.88167">
        <ele>318.51544189453</ele>
        <time>2009-03-08T12:19:46Z</time>
      </trkpt>
      <trkpt lat="43.57985" lon="6.8818">
        <ele>320.10504150391</ele>
        <time>2009-03-08T12:19:52Z</time>
      </trkpt>
      <trkpt lat="43.57994" lon="6.88188">
        <ele>321.82855224609</ele>
        <time>2009-03-08T12:19:56Z</time>
      </trkpt>
      <trkpt lat="43.58009" lon="6.88205">
        <ele>322.53579711914</ele>
        <time>2009-03-08T12:20:01Z</time>
      </trkpt>
      <trkpt lat="43.58026" lon="6.88213">
        <ele>323.9850769043</ele>
        <time>2009-03-08T12:20:05Z</time>
      </trkpt>
      <trkpt lat="43.58044" lon="6.88229">
        <ele>324.12020874023</ele>
        <time>2009-03-08T12:20:09Z</time>
      </trkpt>
      <trkpt lat="43.58063" lon="6.88243">
        <ele>322.03366088867</ele>
        <time>2009-03-08T12:20:15Z</time>
      </trkpt>
      <trkpt lat="43.58068" lon="6.88247">
        <ele>320.87811279297</ele>
        <time>2009-03-08T12:20:17Z</time>
      </trkpt>
      <trkpt lat="43.58078" lon="6.88261">
        <ele>316.85021972656</ele>
        <time>2009-03-08T12:20:22Z</time>
      </trkpt>
      <trkpt lat="43.58082" lon="6.88278">
        <ele>311.9091796875</ele>
        <time>2009-03-08T12:20:27Z</time>
      </trkpt>
      <trkpt lat="43.58087" lon="6.88295">
        <ele>308.19097900391</ele>
        <time>2009-03-08T12:20:32Z</time>
      </trkpt>
      <trkpt lat="43.58103" lon="6.88306">
        <ele>305.76275634766</ele>
        <time>2009-03-08T12:20:37Z</time>
      </trkpt>
      <trkpt lat="43.58122" lon="6.88313">
        <ele>303.30062866211</ele>
        <time>2009-03-08T12:20:41Z</time>
      </trkpt>
      <trkpt lat="43.58126" lon="6.88315">
        <ele>302.53457641602</ele>
        <time>2009-03-08T12:20:42Z</time>
      </trkpt>
      <trkpt lat="43.58158" lon="6.88312">
        <ele>300.01245117188</ele>
        <time>2009-03-08T12:20:48Z</time>
      </trkpt>
      <trkpt lat="43.58163" lon="6.8831">
        <ele>299.70712280273</ele>
        <time>2009-03-08T12:20:49Z</time>
      </trkpt>
      <trkpt lat="43.58183" lon="6.88301">
        <ele>306.24536132812</ele>
        <time>2009-03-08T12:20:53Z</time>
      </trkpt>
      <trkpt lat="43.582" lon="6.88283">
        <ele>313.74298095703</ele>
        <time>2009-03-08T12:20:58Z</time>
      </trkpt>
      <trkpt lat="43.58207" lon="6.88282">
        <ele>314.71728515625</ele>
        <time>2009-03-08T12:21:01Z</time>
      </trkpt>
      <trkpt lat="43.58209" lon="6.88294">
        <ele>313.33471679688</ele>
        <time>2009-03-08T12:21:05Z</time>
      </trkpt>
      <trkpt lat="43.5821" lon="6.88299">
        <ele>312.70260620117</ele>
        <time>2009-03-08T12:21:06Z</time>
      </trkpt>
      <trkpt lat="43.58216" lon="6.88336">
        <ele>307.16381835938</ele>
        <time>2009-03-08T12:21:12Z</time>
      </trkpt>
      <trkpt lat="43.58215" lon="6.88347">
        <ele>304.98199462891</ele>
        <time>2009-03-08T12:21:14Z</time>
      </trkpt>
      <trkpt lat="43.58211" lon="6.88383">
        <ele>298.73602294922</ele>
        <time>2009-03-08T12:21:19Z</time>
      </trkpt>
      <trkpt lat="43.58202" lon="6.88401">
        <ele>294.30743408203</ele>
        <time>2009-03-08T12:21:23Z</time>
      </trkpt>
      <trkpt lat="43.58196" lon="6.88412">
        <ele>291.09002685547</ele>
        <time>2009-03-08T12:21:25Z</time>
      </trkpt>
      <trkpt lat="43.58172" lon="6.88432">
        <ele>284.59567260742</ele>
        <time>2009-03-08T12:21:30Z</time>
      </trkpt>
      <trkpt lat="43.58153" lon="6.88449">
        <ele>280.24807739258</ele>
        <time>2009-03-08T12:21:34Z</time>
      </trkpt>
      <trkpt lat="43.58148" lon="6.88457">
        <ele>279.37271118164</ele>
        <time>2009-03-08T12:21:35Z</time>
      </trkpt>
      <trkpt lat="43.58139" lon="6.88472">
        <ele>277.98294067383</ele>
        <time>2009-03-08T12:21:37Z</time>
      </trkpt>
      <trkpt lat="43.58131" lon="6.88496">
        <ele>276.59240722656</ele>
        <time>2009-03-08T12:21:41Z</time>
      </trkpt>
      <trkpt lat="43.58134" lon="6.88536">
        <ele>276.705078125</ele>
        <time>2009-03-08T12:21:46Z</time>
      </trkpt>
      <trkpt lat="43.58137" lon="6.88544">
        <ele>276.91079711914</ele>
        <time>2009-03-08T12:21:48Z</time>
      </trkpt>
      <trkpt lat="43.58134" lon="6.8855">
        <ele>276.78979492188</ele>
        <time>2009-03-08T12:21:57Z</time>
      </trkpt>
      <trkpt lat="43.58136" lon="6.88544">
        <ele>276.83456420898</ele>
        <time>2009-03-08T12:22:14Z</time>
      </trkpt>
      <trkpt lat="43.58136" lon="6.88543">
        <ele>276.82867431641</ele>
        <time>2009-03-08T12:22:23Z</time>
      </trkpt>
      <trkpt lat="43.58136" lon="6.88543">
        <ele>276.86709594727</ele>
        <time>2009-03-08T12:22:35Z</time>
      </trkpt>
      <trkpt lat="43.5814" lon="6.88543">
        <ele>277.06567382812</ele>
        <time>2009-03-08T12:22:57Z</time>
      </trkpt>
      <trkpt lat="43.58147" lon="6.88545">
        <ele>277.61499023438</ele>
        <time>2009-03-08T12:23:16Z</time>
      </trkpt>
      <trkpt lat="43.58159" lon="6.88544">
        <ele>278.43896484375</ele>
        <time>2009-03-08T12:23:21Z</time>
      </trkpt>
      <trkpt lat="43.58175" lon="6.88533">
        <ele>279.29626464844</ele>
        <time>2009-03-08T12:23:27Z</time>
      </trkpt>
      <trkpt lat="43.58197" lon="6.88515">
        <ele>280</ele>
        <time>2009-03-08T12:23:34Z</time>
      </trkpt>
      <trkpt lat="43.58218" lon="6.88501">
        <ele>280</ele>
        <time>2009-03-08T12:23:41Z</time>
      </trkpt>
      <trkpt lat="43.58229" lon="6.8851">
        <ele>280.47073364258</ele>
        <time>2009-03-08T12:23:45Z</time>
      </trkpt>
      <trkpt lat="43.58238" lon="6.88526">
        <ele>280.12771606445</ele>
        <time>2009-03-08T12:23:50Z</time>
      </trkpt>
      <trkpt lat="43.58244" lon="6.88536">
        <ele>280</ele>
        <time>2009-03-08T12:23:54Z</time>
      </trkpt>
      <trkpt lat="43.58251" lon="6.88541">
        <ele>280.06854248047</ele>
        <time>2009-03-08T12:23:57Z</time>
      </trkpt>
      <trkpt lat="43.5826" lon="6.88542">
        <ele>280.50204467773</ele>
        <time>2009-03-08T12:24:00Z</time>
      </trkpt>
      <trkpt lat="43.58278" lon="6.8854">
        <ele>281.80212402344</ele>
        <time>2009-03-08T12:24:06Z</time>
      </trkpt>
      <trkpt lat="43.5829" lon="6.88551">
        <ele>282.90155029297</ele>
        <time>2009-03-08T12:24:11Z</time>
      </trkpt>
      <trkpt lat="43.58302" lon="6.88568">
        <ele>282.38128662109</ele>
        <time>2009-03-08T12:24:18Z</time>
      </trkpt>
      <trkpt lat="43.58317" lon="6.88583">
        <ele>281.71313476562</ele>
        <time>2009-03-08T12:24:25Z</time>
      </trkpt>
      <trkpt lat="43.58335" lon="6.88594">
        <ele>282.80825805664</ele>
        <time>2009-03-08T12:24:32Z</time>
      </trkpt>
      <trkpt lat="43.5834" lon="6.88596">
        <ele>283.50494384766</ele>
        <time>2009-03-08T12:24:34Z</time>
      </trkpt>
      <trkpt lat="43.58355" lon="6.88595">
        <ele>286.57601928711</ele>
        <time>2009-03-08T12:24:39Z</time>
      </trkpt>
      <trkpt lat="43.58367" lon="6.88607">
        <ele>286.67474365234</ele>
        <time>2009-03-08T12:24:45Z</time>
      </trkpt>
      <trkpt lat="43.58382" lon="6.88621">
        <ele>286.97964477539</ele>
        <time>2009-03-08T12:24:52Z</time>
      </trkpt>
      <trkpt lat="43.58398" lon="6.88624">
        <ele>288.30059814453</ele>
        <time>2009-03-08T12:24:57Z</time>
      </trkpt>
      <trkpt lat="43.58421" lon="6.88616">
        <ele>291.01232910156</ele>
        <time>2009-03-08T12:25:04Z</time>
      </trkpt>
      <trkpt lat="43.58445" lon="6.8861">
        <ele>294.17202758789</ele>
        <time>2009-03-08T12:25:11Z</time>
      </trkpt>
      <trkpt lat="43.58451" lon="6.88621">
        <ele>293.43762207031</ele>
        <time>2009-03-08T12:25:15Z</time>
      </trkpt>
      <trkpt lat="43.58453" lon="6.88644">
        <ele>290.97467041016</ele>
        <time>2009-03-08T12:25:21Z</time>
      </trkpt>
      <trkpt lat="43.58451" lon="6.8867">
        <ele>287.5885925293</ele>
        <time>2009-03-08T12:25:27Z</time>
      </trkpt>
      <trkpt lat="43.58449" lon="6.88693">
        <ele>286.38705444336</ele>
        <time>2009-03-08T12:25:33Z</time>
      </trkpt>
      <trkpt lat="43.5845" lon="6.88703">
        <ele>285.48742675781</ele>
        <time>2009-03-08T12:25:38Z</time>
      </trkpt>
      <trkpt lat="43.58448" lon="6.88719">
        <ele>283.48187255859</ele>
        <time>2009-03-08T12:25:44Z</time>
      </trkpt>
      <trkpt lat="43.58448" lon="6.88743">
        <ele>281.47592163086</ele>
        <time>2009-03-08T12:25:51Z</time>
      </trkpt>
      <trkpt lat="43.58446" lon="6.88758">
        <ele>280.90283203125</ele>
        <time>2009-03-08T12:25:57Z</time>
      </trkpt>
      <trkpt lat="43.58437" lon="6.88773">
        <ele>281.46496582031</ele>
        <time>2009-03-08T12:26:05Z</time>
      </trkpt>
      <trkpt lat="43.5843" lon="6.88781">
        <ele>282.41143798828</ele>
        <time>2009-03-08T12:26:11Z</time>
      </trkpt>
      <trkpt lat="43.58416" lon="6.88791">
        <ele>285.4133605957</ele>
        <time>2009-03-08T12:26:19Z</time>
      </trkpt>
      <trkpt lat="43.58405" lon="6.88804">
        <ele>288.92874145508</ele>
        <time>2009-03-08T12:26:27Z</time>
      </trkpt>
      <trkpt lat="43.58395" lon="6.88818">
        <ele>291.99548339844</ele>
        <time>2009-03-08T12:26:34Z</time>
      </trkpt>
      <trkpt lat="43.58383" lon="6.88824">
        <ele>294.85266113281</ele>
        <time>2009-03-08T12:26:41Z</time>
      </trkpt>
      <trkpt lat="43.5837" lon="6.88826">
        <ele>297.56661987305</ele>
        <time>2009-03-08T12:26:48Z</time>
      </trkpt>
      <trkpt lat="43.58359" lon="6.88832">
        <ele>301.2629699707</ele>
        <time>2009-03-08T12:26:54Z</time>
      </trkpt>
      <trkpt lat="43.58347" lon="6.88847">
        <ele>306.88342285156</ele>
        <time>2009-03-08T12:27:02Z</time>
      </trkpt>
      <trkpt lat="43.5834" lon="6.88867">
        <ele>313.29489135742</ele>
        <time>2009-03-08T12:27:10Z</time>
      </trkpt>
      <trkpt lat="43.58335" lon="6.88885">
        <ele>319.97143554688</ele>
        <time>2009-03-08T12:27:17Z</time>
      </trkpt>
      <trkpt lat="43.58332" lon="6.88906">
        <ele>327.37329101562</ele>
        <time>2009-03-08T12:27:25Z</time>
      </trkpt>
      <trkpt lat="43.58328" lon="6.88923">
        <ele>333.53573608398</ele>
        <time>2009-03-08T12:27:32Z</time>
      </trkpt>
      <trkpt lat="43.58327" lon="6.88933">
        <ele>335.67947387695</ele>
        <time>2009-03-08T12:27:36Z</time>
      </trkpt>
      <trkpt lat="43.58323" lon="6.88941">
        <ele>338.71655273438</ele>
        <time>2009-03-08T12:27:41Z</time>
      </trkpt>
      <trkpt lat="43.58318" lon="6.88954">
        <ele>343.28207397461</ele>
        <time>2009-03-08T12:27:48Z</time>
      </trkpt>
      <trkpt lat="43.58317" lon="6.88959">
        <ele>344.78491210938</ele>
        <time>2009-03-08T12:27:53Z</time>
      </trkpt>
      <trkpt lat="43.58314" lon="6.88963">
        <ele>346.87423706055</ele>
        <time>2009-03-08T12:28:03Z</time>
      </trkpt>
      <trkpt lat="43.58315" lon="6.88962">
        <ele>346.2253112793</ele>
        <time>2009-03-08T12:28:11Z</time>
      </trkpt>
      <trkpt lat="43.58316" lon="6.88961">
        <ele>345.34527587891</ele>
        <time>2009-03-08T12:28:20Z</time>
      </trkpt>
      <trkpt lat="43.58318" lon="6.8896">
        <ele>344.70681762695</ele>
        <time>2009-03-08T12:28:28Z</time>
      </trkpt>
      <trkpt lat="43.58318" lon="6.8896">
        <ele>344.4983215332</ele>
        <time>2009-03-08T12:28:31Z</time>
      </trkpt>
      <trkpt lat="43.58322" lon="6.88956">
        <ele>342.02349853516</ele>
        <time>2009-03-08T12:28:40Z</time>
      </trkpt>
      <trkpt lat="43.58322" lon="6.88953">
        <ele>341.16329956055</ele>
        <time>2009-03-08T12:28:52Z</time>
      </trkpt>
      <trkpt lat="43.58321" lon="6.88954">
        <ele>342.0744934082</ele>
        <time>2009-03-08T12:29:00Z</time>
      </trkpt>
      <trkpt lat="43.58322" lon="6.88955">
        <ele>341.72308349609</ele>
        <time>2009-03-08T12:29:03Z</time>
      </trkpt>
      <trkpt lat="43.58325" lon="6.88953">
        <ele>340.0774230957</ele>
        <time>2009-03-08T12:29:12Z</time>
      </trkpt>
      <trkpt lat="43.58326" lon="6.88952">
        <ele>339.35479736328</ele>
        <time>2009-03-08T12:29:18Z</time>
      </trkpt>
      <trkpt lat="43.58331" lon="6.88958">
        <ele>338.61505126953</ele>
        <time>2009-03-08T12:30:07Z</time>
      </trkpt>
      <trkpt lat="43.58336" lon="6.88962">
        <ele>336.5426940918</ele>
        <time>2009-03-08T12:30:11Z</time>
      </trkpt>
      <trkpt lat="43.58339" lon="6.88962">
        <ele>334.52328491211</ele>
        <time>2009-03-08T12:30:13Z</time>
      </trkpt>
      <trkpt lat="43.58344" lon="6.88952">
        <ele>330.00579833984</ele>
        <time>2009-03-08T12:30:19Z</time>
      </trkpt>
      <trkpt lat="43.58349" lon="6.88944">
        <ele>325.42468261719</ele>
        <time>2009-03-08T12:30:24Z</time>
      </trkpt>
      <trkpt lat="43.58352" lon="6.88938">
        <ele>322.75668334961</ele>
        <time>2009-03-08T12:30:27Z</time>
      </trkpt>
      <trkpt lat="43.58355" lon="6.88925">
        <ele>319.54208374023</ele>
        <time>2009-03-08T12:30:33Z</time>
      </trkpt>
      <trkpt lat="43.5836" lon="6.88913">
        <ele>315.13031005859</ele>
        <time>2009-03-08T12:30:39Z</time>
      </trkpt>
      <trkpt lat="43.58368" lon="6.88907">
        <ele>309.80307006836</ele>
        <time>2009-03-08T12:30:45Z</time>
      </trkpt>
      <trkpt lat="43.58371" lon="6.88907">
        <ele>308.45709228516</ele>
        <time>2009-03-08T12:30:47Z</time>
      </trkpt>
      <trkpt lat="43.58377" lon="6.88912">
        <ele>305.79650878906</ele>
        <time>2009-03-08T12:30:53Z</time>
      </trkpt>
      <trkpt lat="43.58385" lon="6.88923">
        <ele>302.55291748047</ele>
        <time>2009-03-08T12:31:01Z</time>
      </trkpt>
      <trkpt lat="43.58391" lon="6.88933">
        <ele>300.16152954102</ele>
        <time>2009-03-08T12:31:08Z</time>
      </trkpt>
      <trkpt lat="43.58392" lon="6.88944">
        <ele>300.3537902832</ele>
        <time>2009-03-08T12:31:15Z</time>
      </trkpt>
      <trkpt lat="43.5839" lon="6.88949">
        <ele>301.58526611328</ele>
        <time>2009-03-08T12:31:19Z</time>
      </trkpt>
      <trkpt lat="43.58386" lon="6.88954">
        <ele>304.275390625</ele>
        <time>2009-03-08T12:31:24Z</time>
      </trkpt>
      <trkpt lat="43.58383" lon="6.88958">
        <ele>307.03253173828</ele>
        <time>2009-03-08T12:31:28Z</time>
      </trkpt>
      <trkpt lat="43.58377" lon="6.88972">
        <ele>312.49249267578</ele>
        <time>2009-03-08T12:31:39Z</time>
      </trkpt>
      <trkpt lat="43.58375" lon="6.88984">
        <ele>316.22583007812</ele>
        <time>2009-03-08T12:31:46Z</time>
      </trkpt>
      <trkpt lat="43.58375" lon="6.88999">
        <ele>319.11169433594</ele>
        <time>2009-03-08T12:31:53Z</time>
      </trkpt>
      <trkpt lat="43.58376" lon="6.8901">
        <ele>320.59967041016</ele>
        <time>2009-03-08T12:31:59Z</time>
      </trkpt>
      <trkpt lat="43.58377" lon="6.89022">
        <ele>321.80581665039</ele>
        <time>2009-03-08T12:32:05Z</time>
      </trkpt>
      <trkpt lat="43.58376" lon="6.89031">
        <ele>323.97918701172</ele>
        <time>2009-03-08T12:32:11Z</time>
      </trkpt>
      <trkpt lat="43.58374" lon="6.89037">
        <ele>326.39987182617</ele>
        <time>2009-03-08T12:32:17Z</time>
      </trkpt>
      <trkpt lat="43.58372" lon="6.89043">
        <ele>329.52151489258</ele>
        <time>2009-03-08T12:32:21Z</time>
      </trkpt>
      <trkpt lat="43.58367" lon="6.89051">
        <ele>334.77456665039</ele>
        <time>2009-03-08T12:32:28Z</time>
      </trkpt>
      <trkpt lat="43.58364" lon="6.89053">
        <ele>337.47149658203</ele>
        <time>2009-03-08T12:32:34Z</time>
      </trkpt>
      <trkpt lat="43.58359" lon="6.89056">
        <ele>341.13409423828</ele>
        <time>2009-03-08T12:32:41Z</time>
      </trkpt>
      <trkpt lat="43.58356" lon="6.89059">
        <ele>342.96981811523</ele>
        <time>2009-03-08T12:32:47Z</time>
      </trkpt>
      <trkpt lat="43.5835" lon="6.89061">
        <ele>346.46331787109</ele>
        <time>2009-03-08T12:32:54Z</time>
      </trkpt>
      <trkpt lat="43.58345" lon="6.89063">
        <ele>349.86441040039</ele>
        <time>2009-03-08T12:33:02Z</time>
      </trkpt>
      <trkpt lat="43.58339" lon="6.89064">
        <ele>353.92651367188</ele>
        <time>2009-03-08T12:33:11Z</time>
      </trkpt>
      <trkpt lat="43.58334" lon="6.89064">
        <ele>356.79876708984</ele>
        <time>2009-03-08T12:33:18Z</time>
      </trkpt>
      <trkpt lat="43.58329" lon="6.89065">
        <ele>358.21438598633</ele>
        <time>2009-03-08T12:33:24Z</time>
      </trkpt>
      <trkpt lat="43.58323" lon="6.89065">
        <ele>359.47189331055</ele>
        <time>2009-03-08T12:33:31Z</time>
      </trkpt>
      <trkpt lat="43.58317" lon="6.89067">
        <ele>360.61633300781</ele>
        <time>2009-03-08T12:33:37Z</time>
      </trkpt>
      <trkpt lat="43.58311" lon="6.89068">
        <ele>361.79257202148</ele>
        <time>2009-03-08T12:33:45Z</time>
      </trkpt>
      <trkpt lat="43.58304" lon="6.89069">
        <ele>363.64334106445</ele>
        <time>2009-03-08T12:33:54Z</time>
      </trkpt>
      <trkpt lat="43.58297" lon="6.89068">
        <ele>366.08724975586</ele>
        <time>2009-03-08T12:34:02Z</time>
      </trkpt>
      <trkpt lat="43.58291" lon="6.89066">
        <ele>368.47369384766</ele>
        <time>2009-03-08T12:34:10Z</time>
      </trkpt>
      <trkpt lat="43.58286" lon="6.89063">
        <ele>370.18478393555</ele>
        <time>2009-03-08T12:34:17Z</time>
      </trkpt>
      <trkpt lat="43.58282" lon="6.89063">
        <ele>371.51446533203</ele>
        <time>2009-03-08T12:34:25Z</time>
      </trkpt>
      <trkpt lat="43.58278" lon="6.89061">
        <ele>372.66931152344</ele>
        <time>2009-03-08T12:34:31Z</time>
      </trkpt>
      <trkpt lat="43.58272" lon="6.8906">
        <ele>373.38165283203</ele>
        <time>2009-03-08T12:34:41Z</time>
      </trkpt>
      <trkpt lat="43.58268" lon="6.89057">
        <ele>373.56018066406</ele>
        <time>2009-03-08T12:34:49Z</time>
      </trkpt>
      <trkpt lat="43.58263" lon="6.89053">
        <ele>373.75836181641</ele>
        <time>2009-03-08T12:34:56Z</time>
      </trkpt>
      <trkpt lat="43.58257" lon="6.89048">
        <ele>373.49053955078</ele>
        <time>2009-03-08T12:35:05Z</time>
      </trkpt>
      <trkpt lat="43.58256" lon="6.89048">
        <ele>373.50527954102</ele>
        <time>2009-03-08T12:35:06Z</time>
      </trkpt>
      <trkpt lat="43.58249" lon="6.89042">
        <ele>373.26010131836</ele>
        <time>2009-03-08T12:35:13Z</time>
      </trkpt>
      <trkpt lat="43.58239" lon="6.89038">
        <ele>373.12963867188</ele>
        <time>2009-03-08T12:35:20Z</time>
      </trkpt>
      <trkpt lat="43.58229" lon="6.89037">
        <ele>373.404296875</ele>
        <time>2009-03-08T12:35:28Z</time>
      </trkpt>
      <trkpt lat="43.58226" lon="6.89036">
        <ele>373.45922851562</ele>
        <time>2009-03-08T12:35:33Z</time>
      </trkpt>
      <trkpt lat="43.58219" lon="6.89036">
        <ele>373.73217773438</ele>
        <time>2009-03-08T12:35:39Z</time>
      </trkpt>
      <trkpt lat="43.5821" lon="6.89036">
        <ele>373.81457519531</ele>
        <time>2009-03-08T12:35:44Z</time>
      </trkpt>
      <trkpt lat="43.58195" lon="6.89036">
        <ele>373.75277709961</ele>
        <time>2009-03-08T12:35:51Z</time>
      </trkpt>
      <trkpt lat="43.58178" lon="6.89037">
        <ele>374.4328918457</ele>
        <time>2009-03-08T12:35:59Z</time>
      </trkpt>
      <trkpt lat="43.58156" lon="6.89039">
        <ele>374.24523925781</ele>
        <time>2009-03-08T12:36:06Z</time>
      </trkpt>
      <trkpt lat="43.5814" lon="6.89041">
        <ele>373.03506469727</ele>
        <time>2009-03-08T12:36:12Z</time>
      </trkpt>
      <trkpt lat="43.58125" lon="6.89041">
        <ele>372.86514282227</ele>
        <time>2009-03-08T12:36:19Z</time>
      </trkpt>
      <trkpt lat="43.58111" lon="6.89039">
        <ele>372.41195678711</ele>
        <time>2009-03-08T12:36:24Z</time>
      </trkpt>
      <trkpt lat="43.58107" lon="6.89037">
        <ele>371.48025512695</ele>
        <time>2009-03-08T12:36:26Z</time>
      </trkpt>
      <trkpt lat="43.58094" lon="6.89044">
        <ele>371.42254638672</ele>
        <time>2009-03-08T12:36:31Z</time>
      </trkpt>
      <trkpt lat="43.58084" lon="6.89061">
        <ele>372.63919067383</ele>
        <time>2009-03-08T12:36:37Z</time>
      </trkpt>
      <trkpt lat="43.58077" lon="6.8908">
        <ele>373.56658935547</ele>
        <time>2009-03-08T12:36:43Z</time>
      </trkpt>
      <trkpt lat="43.58068" lon="6.89099">
        <ele>375.38998413086</ele>
        <time>2009-03-08T12:36:49Z</time>
      </trkpt>
      <trkpt lat="43.5806" lon="6.89118">
        <ele>378.00213623047</ele>
        <time>2009-03-08T12:36:56Z</time>
      </trkpt>
      <trkpt lat="43.58056" lon="6.89125">
        <ele>379.06988525391</ele>
        <time>2009-03-08T12:37:00Z</time>
      </trkpt>
      <trkpt lat="43.58048" lon="6.8914">
        <ele>380.4001159668</ele>
        <time>2009-03-08T12:37:06Z</time>
      </trkpt>
      <trkpt lat="43.58036" lon="6.89158">
        <ele>380.31143188477</ele>
        <time>2009-03-08T12:37:13Z</time>
      </trkpt>
      <trkpt lat="43.58025" lon="6.89158">
        <ele>378.36099243164</ele>
        <time>2009-03-08T12:37:18Z</time>
      </trkpt>
      <trkpt lat="43.5802" lon="6.89156">
        <ele>377.8193359375</ele>
        <time>2009-03-08T12:37:21Z</time>
      </trkpt>
      <trkpt lat="43.58006" lon="6.89157">
        <ele>377.6787109375</ele>
        <time>2009-03-08T12:37:28Z</time>
      </trkpt>
      <trkpt lat="43.57997" lon="6.89158">
        <ele>377.13061523438</ele>
        <time>2009-03-08T12:37:34Z</time>
      </trkpt>
      <trkpt lat="43.57994" lon="6.89158">
        <ele>376.6604309082</ele>
        <time>2009-03-08T12:37:39Z</time>
      </trkpt>
      <trkpt lat="43.57991" lon="6.8916">
        <ele>376.22796630859</ele>
        <time>2009-03-08T12:37:45Z</time>
      </trkpt>
      <trkpt lat="43.57985" lon="6.89161">
        <ele>375.04721069336</ele>
        <time>2009-03-08T12:37:52Z</time>
      </trkpt>
      <trkpt lat="43.5798" lon="6.89164">
        <ele>374.36419677734</ele>
        <time>2009-03-08T12:37:57Z</time>
      </trkpt>
      <trkpt lat="43.5797" lon="6.89166">
        <ele>372.51162719727</ele>
        <time>2009-03-08T12:38:05Z</time>
      </trkpt>
      <trkpt lat="43.57962" lon="6.89171">
        <ele>372.22610473633</ele>
        <time>2009-03-08T12:38:14Z</time>
      </trkpt>
      <trkpt lat="43.57958" lon="6.89175">
        <ele>372.46813964844</ele>
        <time>2009-03-08T12:38:19Z</time>
      </trkpt>
      <trkpt lat="43.57956" lon="6.89177">
        <ele>372.66555786133</ele>
        <time>2009-03-08T12:38:21Z</time>
      </trkpt>
      <trkpt lat="43.57951" lon="6.89181">
        <ele>372.93850708008</ele>
        <time>2009-03-08T12:38:26Z</time>
      </trkpt>
      <trkpt lat="43.57944" lon="6.89186">
        <ele>372.86853027344</ele>
        <time>2009-03-08T12:38:34Z</time>
      </trkpt>
      <trkpt lat="43.57938" lon="6.8919">
        <ele>373.40237426758</ele>
        <time>2009-03-08T12:38:40Z</time>
      </trkpt>
      <trkpt lat="43.57932" lon="6.89199">
        <ele>375.21685791016</ele>
        <time>2009-03-08T12:38:48Z</time>
      </trkpt>
      <trkpt lat="43.57928" lon="6.89205">
        <ele>376.48541259766</ele>
        <time>2009-03-08T12:38:55Z</time>
      </trkpt>
      <trkpt lat="43.5792" lon="6.8921">
        <ele>377.24932861328</ele>
        <time>2009-03-08T12:39:01Z</time>
      </trkpt>
      <trkpt lat="43.5792" lon="6.8921">
        <ele>377.17034912109</ele>
        <time>2009-03-08T12:39:02Z</time>
      </trkpt>
      <trkpt lat="43.57912" lon="6.89214">
        <ele>377.30847167969</ele>
        <time>2009-03-08T12:39:07Z</time>
      </trkpt>
      <trkpt lat="43.57903" lon="6.89218">
        <ele>377.4423828125</ele>
        <time>2009-03-08T12:39:13Z</time>
      </trkpt>
      <trkpt lat="43.5789" lon="6.89225">
        <ele>377.58364868164</ele>
        <time>2009-03-08T12:39:19Z</time>
      </trkpt>
      <trkpt lat="43.57875" lon="6.89231">
        <ele>378.38635253906</ele>
        <time>2009-03-08T12:39:25Z</time>
      </trkpt>
      <trkpt lat="43.57866" lon="6.89227">
        <ele>377.69036865234</ele>
        <time>2009-03-08T12:39:29Z</time>
      </trkpt>
      <trkpt lat="43.57858" lon="6.89219">
        <ele>375.67144775391</ele>
        <time>2009-03-08T12:39:34Z</time>
      </trkpt>
      <trkpt lat="43.57851" lon="6.89206">
        <ele>371.31286621094</ele>
        <time>2009-03-08T12:39:39Z</time>
      </trkpt>
      <trkpt lat="43.57843" lon="6.89198">
        <ele>368.45108032227</ele>
        <time>2009-03-08T12:39:43Z</time>
      </trkpt>
      <trkpt lat="43.5783" lon="6.89193">
        <ele>367.35266113281</ele>
        <time>2009-03-08T12:39:49Z</time>
      </trkpt>
      <trkpt lat="43.57817" lon="6.89189">
        <ele>368.70886230469</ele>
        <time>2009-03-08T12:39:56Z</time>
      </trkpt>
      <trkpt lat="43.57816" lon="6.89189">
        <ele>368.91159057617</ele>
        <time>2009-03-08T12:39:57Z</time>
      </trkpt>
      <trkpt lat="43.57803" lon="6.89184">
        <ele>370.02618408203</ele>
        <time>2009-03-08T12:40:04Z</time>
      </trkpt>
      <trkpt lat="43.5779" lon="6.8918">
        <ele>370.2370300293</ele>
        <time>2009-03-08T12:40:12Z</time>
      </trkpt>
      <trkpt lat="43.57789" lon="6.89179">
        <ele>370.22738647461</ele>
        <time>2009-03-08T12:40:13Z</time>
      </trkpt>
      <trkpt lat="43.57779" lon="6.89178">
        <ele>370.97311401367</ele>
        <time>2009-03-08T12:40:18Z</time>
      </trkpt>
      <trkpt lat="43.57772" lon="6.89181">
        <ele>371.70736694336</ele>
        <time>2009-03-08T12:40:23Z</time>
      </trkpt>
      <trkpt lat="43.57767" lon="6.89186">
        <ele>372.84375</ele>
        <time>2009-03-08T12:40:28Z</time>
      </trkpt>
      <trkpt lat="43.57764" lon="6.89193">
        <ele>374.24450683594</ele>
        <time>2009-03-08T12:40:32Z</time>
      </trkpt>
      <trkpt lat="43.5776" lon="6.89203">
        <ele>376.26190185547</ele>
        <time>2009-03-08T12:40:38Z</time>
      </trkpt>
      <trkpt lat="43.5776" lon="6.89204">
        <ele>376.39096069336</ele>
        <time>2009-03-08T12:40:39Z</time>
      </trkpt>
      <trkpt lat="43.57759" lon="6.89208">
        <ele>377.25997924805</ele>
        <time>2009-03-08T12:40:47Z</time>
      </trkpt>
      <trkpt lat="43.57759" lon="6.89211">
        <ele>377.85440063477</ele>
        <time>2009-03-08T12:40:59Z</time>
      </trkpt>
      <trkpt lat="43.57757" lon="6.89212">
        <ele>378.10366821289</ele>
        <time>2009-03-08T12:41:08Z</time>
      </trkpt>
      <trkpt lat="43.57757" lon="6.89216">
        <ele>378.74291992188</ele>
        <time>2009-03-08T12:41:13Z</time>
      </trkpt>
      <trkpt lat="43.57758" lon="6.89219">
        <ele>379.46807861328</ele>
        <time>2009-03-08T12:41:20Z</time>
      </trkpt>
      <trkpt lat="43.57759" lon="6.89228">
        <ele>380</ele>
        <time>2009-03-08T12:41:28Z</time>
      </trkpt>
      <trkpt lat="43.57759" lon="6.89231">
        <ele>380</ele>
        <time>2009-03-08T12:41:31Z</time>
      </trkpt>
      <trkpt lat="43.57759" lon="6.89238">
        <ele>380</ele>
        <time>2009-03-08T12:41:37Z</time>
      </trkpt>
      <trkpt lat="43.57761" lon="6.89246">
        <ele>380</ele>
        <time>2009-03-08T12:41:43Z</time>
      </trkpt>
      <trkpt lat="43.57761" lon="6.89251">
        <ele>380.02838134766</ele>
        <time>2009-03-08T12:41:46Z</time>
      </trkpt>
      <trkpt lat="43.57764" lon="6.8926">
        <ele>380.5553894043</ele>
        <time>2009-03-08T12:41:53Z</time>
      </trkpt>
      <trkpt lat="43.57766" lon="6.89268">
        <ele>381.03112792969</ele>
        <time>2009-03-08T12:41:59Z</time>
      </trkpt>
      <trkpt lat="43.57767" lon="6.89276">
        <ele>381.52404785156</ele>
        <time>2009-03-08T12:42:04Z</time>
      </trkpt>
      <trkpt lat="43.57773" lon="6.89288">
        <ele>382.20681762695</ele>
        <time>2009-03-08T12:42:13Z</time>
      </trkpt>
      <trkpt lat="43.57775" lon="6.89296">
        <ele>382.57244873047</ele>
        <time>2009-03-08T12:42:18Z</time>
      </trkpt>
      <trkpt lat="43.57784" lon="6.89307">
        <ele>383.26568603516</ele>
        <time>2009-03-08T12:42:27Z</time>
      </trkpt>
      <trkpt lat="43.57789" lon="6.89315">
        <ele>383.68231201172</ele>
        <time>2009-03-08T12:42:33Z</time>
      </trkpt>
      <trkpt lat="43.57792" lon="6.89317">
        <ele>383.91888427734</ele>
        <time>2009-03-08T12:42:36Z</time>
      </trkpt>
      <trkpt lat="43.57797" lon="6.89325">
        <ele>384.62976074219</ele>
        <time>2009-03-08T12:42:43Z</time>
      </trkpt>
      <trkpt lat="43.57798" lon="6.89326">
        <ele>384.85430908203</ele>
        <time>2009-03-08T12:42:45Z</time>
      </trkpt>
      <trkpt lat="43.57804" lon="6.89335">
        <ele>385.95822143555</ele>
        <time>2009-03-08T12:42:52Z</time>
      </trkpt>
      <trkpt lat="43.57808" lon="6.89344">
        <ele>387.36895751953</ele>
        <time>2009-03-08T12:42:58Z</time>
      </trkpt>
      <trkpt lat="43.57812" lon="6.89355">
        <ele>389.27523803711</ele>
        <time>2009-03-08T12:43:03Z</time>
      </trkpt>
      <trkpt lat="43.57817" lon="6.8937">
        <ele>391.38290405273</ele>
        <time>2009-03-08T12:43:10Z</time>
      </trkpt>
      <trkpt lat="43.57821" lon="6.89387">
        <ele>392.37774658203</ele>
        <time>2009-03-08T12:43:16Z</time>
      </trkpt>
      <trkpt lat="43.57827" lon="6.89401">
        <ele>393.56469726562</ele>
        <time>2009-03-08T12:43:22Z</time>
      </trkpt>
      <trkpt lat="43.57827" lon="6.89403">
        <ele>393.47616577148</ele>
        <time>2009-03-08T12:43:23Z</time>
      </trkpt>
      <trkpt lat="43.57837" lon="6.89406">
        <ele>396.65719604492</ele>
        <time>2009-03-08T12:43:29Z</time>
      </trkpt>
      <trkpt lat="43.57851" lon="6.89414">
        <ele>398.91967773438</ele>
        <time>2009-03-08T12:43:36Z</time>
      </trkpt>
      <trkpt lat="43.57859" lon="6.8943">
        <ele>399.89730834961</ele>
        <time>2009-03-08T12:43:43Z</time>
      </trkpt>
      <trkpt lat="43.57864" lon="6.89441">
        <ele>401.09530639648</ele>
        <time>2009-03-08T12:43:49Z</time>
      </trkpt>
      <trkpt lat="43.5787" lon="6.89454">
        <ele>403.59671020508</ele>
        <time>2009-03-08T12:43:55Z</time>
      </trkpt>
      <trkpt lat="43.57877" lon="6.8947">
        <ele>405.74731445312</ele>
        <time>2009-03-08T12:44:01Z</time>
      </trkpt>
      <trkpt lat="43.57886" lon="6.89494">
        <ele>407.28961181641</ele>
        <time>2009-03-08T12:44:09Z</time>
      </trkpt>
      <trkpt lat="43.57896" lon="6.89508">
        <ele>410.94512939453</ele>
        <time>2009-03-08T12:44:14Z</time>
      </trkpt>
      <trkpt lat="43.57904" lon="6.89526">
        <ele>413.52005004883</ele>
        <time>2009-03-08T12:44:20Z</time>
      </trkpt>
      <trkpt lat="43.57904" lon="6.89542">
        <ele>413.82415771484</ele>
        <time>2009-03-08T12:44:25Z</time>
      </trkpt>
      <trkpt lat="43.579" lon="6.89564">
        <ele>412.73104858398</ele>
        <time>2009-03-08T12:44:32Z</time>
      </trkpt>
      <trkpt lat="43.57899" lon="6.89585">
        <ele>412.92330932617</ele>
        <time>2009-03-08T12:44:39Z</time>
      </trkpt>
      <trkpt lat="43.57899" lon="6.89596">
        <ele>413.6882019043</ele>
        <time>2009-03-08T12:44:44Z</time>
      </trkpt>
      <trkpt lat="43.57901" lon="6.89611">
        <ele>414.93658447266</ele>
        <time>2009-03-08T12:44:50Z</time>
      </trkpt>
      <trkpt lat="43.57901" lon="6.89627">
        <ele>415.37539672852</ele>
        <time>2009-03-08T12:44:57Z</time>
      </trkpt>
      <trkpt lat="43.57906" lon="6.89645">
        <ele>416.82684326172</ele>
        <time>2009-03-08T12:45:04Z</time>
      </trkpt>
      <trkpt lat="43.57908" lon="6.89661">
        <ele>417.90487670898</ele>
        <time>2009-03-08T12:45:11Z</time>
      </trkpt>
      <trkpt lat="43.57906" lon="6.89673">
        <ele>417.85638427734</ele>
        <time>2009-03-08T12:45:17Z</time>
      </trkpt>
      <trkpt lat="43.57903" lon="6.89684">
        <ele>417.69869995117</ele>
        <time>2009-03-08T12:45:23Z</time>
      </trkpt>
      <trkpt lat="43.57898" lon="6.89694">
        <ele>417.32598876953</ele>
        <time>2009-03-08T12:45:29Z</time>
      </trkpt>
      <trkpt lat="43.57894" lon="6.89709">
        <ele>417.39651489258</ele>
        <time>2009-03-08T12:45:37Z</time>
      </trkpt>
      <trkpt lat="43.57893" lon="6.89711">
        <ele>417.35357666016</ele>
        <time>2009-03-08T12:45:38Z</time>
      </trkpt>
      <trkpt lat="43.57897" lon="6.89728">
        <ele>418.63995361328</ele>
        <time>2009-03-08T12:45:46Z</time>
      </trkpt>
      <trkpt lat="43.57902" lon="6.89743">
        <ele>419.71041870117</ele>
        <time>2009-03-08T12:45:54Z</time>
      </trkpt>
      <trkpt lat="43.57907" lon="6.89757">
        <ele>420.9416809082</ele>
        <time>2009-03-08T12:46:01Z</time>
      </trkpt>
      <trkpt lat="43.57908" lon="6.89758">
        <ele>421.15710449219</ele>
        <time>2009-03-08T12:46:02Z</time>
      </trkpt>
      <trkpt lat="43.57914" lon="6.89772">
        <ele>422.44369506836</ele>
        <time>2009-03-08T12:46:10Z</time>
      </trkpt>
      <trkpt lat="43.57918" lon="6.89785">
        <ele>422.78356933594</ele>
        <time>2009-03-08T12:46:15Z</time>
      </trkpt>
      <trkpt lat="43.5792" lon="6.89792">
        <ele>422.58959960938</ele>
        <time>2009-03-08T12:46:18Z</time>
      </trkpt>
      <trkpt lat="43.57927" lon="6.89802">
        <ele>422.50207519531</ele>
        <time>2009-03-08T12:46:26Z</time>
      </trkpt>
      <trkpt lat="43.57935" lon="6.89815">
        <ele>422.43341064453</ele>
        <time>2009-03-08T12:46:32Z</time>
      </trkpt>
      <trkpt lat="43.57943" lon="6.89829">
        <ele>422.14877319336</ele>
        <time>2009-03-08T12:46:38Z</time>
      </trkpt>
      <trkpt lat="43.57949" lon="6.89842">
        <ele>421.87368774414</ele>
        <time>2009-03-08T12:46:44Z</time>
      </trkpt>
      <trkpt lat="43.57951" lon="6.89847">
        <ele>421.61871337891</ele>
        <time>2009-03-08T12:46:49Z</time>
      </trkpt>
      <trkpt lat="43.57951" lon="6.89847">
        <ele>421.60821533203</ele>
        <time>2009-03-08T12:47:04Z</time>
      </trkpt>
      <trkpt lat="43.57951" lon="6.89848">
        <ele>421.5578918457</ele>
        <time>2009-03-08T12:47:13Z</time>
      </trkpt>
      <trkpt lat="43.57951" lon="6.89849">
        <ele>421.51593017578</ele>
        <time>2009-03-08T12:47:20Z</time>
      </trkpt>
      <trkpt lat="43.57952" lon="6.89849">
        <ele>421.4895324707</ele>
        <time>2009-03-08T12:47:28Z</time>
      </trkpt>
      <trkpt lat="43.57952" lon="6.89851">
        <ele>421.37072753906</ele>
        <time>2009-03-08T12:47:50Z</time>
      </trkpt>
      <trkpt lat="43.57952" lon="6.89852">
        <ele>421.29315185547</ele>
        <time>2009-03-08T12:47:57Z</time>
      </trkpt>
      <trkpt lat="43.57952" lon="6.89852">
        <ele>421.34561157227</ele>
        <time>2009-03-08T12:48:24Z</time>
      </trkpt>
      <trkpt lat="43.57953" lon="6.89851">
        <ele>421.38330078125</ele>
        <time>2009-03-08T12:48:33Z</time>
      </trkpt>
      <trkpt lat="43.57956" lon="6.89847">
        <ele>421.75210571289</ele>
        <time>2009-03-08T12:48:38Z</time>
      </trkpt>
      <trkpt lat="43.57946" lon="6.89826">
        <ele>422.43914794922</ele>
        <time>2009-03-08T12:48:46Z</time>
      </trkpt>
      <trkpt lat="43.57939" lon="6.89808">
        <ele>422.71911621094</ele>
        <time>2009-03-08T12:48:52Z</time>
      </trkpt>
      <trkpt lat="43.57927" lon="6.89791">
        <ele>422.90545654297</ele>
        <time>2009-03-08T12:48:59Z</time>
      </trkpt>
      <trkpt lat="43.57924" lon="6.89784">
        <ele>423.06512451172</ele>
        <time>2009-03-08T12:49:04Z</time>
      </trkpt>
      <trkpt lat="43.57924" lon="6.89784">
        <ele>423.04623413086</ele>
        <time>2009-03-08T12:49:23Z</time>
      </trkpt>
      <trkpt lat="43.57924" lon="6.89784">
        <ele>423.01531982422</ele>
        <time>2009-03-08T12:49:38Z</time>
      </trkpt>
      <trkpt lat="43.57925" lon="6.8978">
        <ele>423.22131347656</ele>
        <time>2009-03-08T12:49:48Z</time>
      </trkpt>
      <trkpt lat="43.57925" lon="6.89768">
        <ele>423.02639770508</ele>
        <time>2009-03-08T12:49:57Z</time>
      </trkpt>
      <trkpt lat="43.57925" lon="6.89766">
        <ele>423.01037597656</ele>
        <time>2009-03-08T12:50:03Z</time>
      </trkpt>
      <trkpt lat="43.57924" lon="6.89766">
        <ele>422.95837402344</ele>
        <time>2009-03-08T12:50:23Z</time>
      </trkpt>
      <trkpt lat="43.57922" lon="6.89767">
        <ele>422.85650634766</ele>
        <time>2009-03-08T12:50:31Z</time>
      </trkpt>
      <trkpt lat="43.57923" lon="6.89767">
        <ele>422.92449951172</ele>
        <time>2009-03-08T12:50:48Z</time>
      </trkpt>
      <trkpt lat="43.57922" lon="6.8977">
        <ele>422.98748779297</ele>
        <time>2009-03-08T12:51:07Z</time>
      </trkpt>
      <trkpt lat="43.57921" lon="6.8977">
        <ele>422.92926025391</ele>
        <time>2009-03-08T12:51:57Z</time>
      </trkpt>
      <trkpt lat="43.57922" lon="6.89773">
        <ele>423.02731323242</ele>
        <time>2009-03-08T12:52:19Z</time>
      </trkpt>
      <trkpt lat="43.57922" lon="6.89772">
        <ele>423.00897216797</ele>
        <time>2009-03-08T12:52:29Z</time>
      </trkpt>
      <trkpt lat="43.57922" lon="6.89773">
        <ele>423.03720092773</ele>
        <time>2009-03-08T12:52:40Z</time>
      </trkpt>
      <trkpt lat="43.57922" lon="6.89773">
        <ele>423.04849243164</ele>
        <time>2009-03-08T12:52:54Z</time>
      </trkpt>
      <trkpt lat="43.57921" lon="6.89772">
        <ele>422.9895324707</ele>
        <time>2009-03-08T12:53:06Z</time>
      </trkpt>
      <trkpt lat="43.57921" lon="6.89771">
        <ele>422.94085693359</ele>
        <time>2009-03-08T12:53:15Z</time>
      </trkpt>
      <trkpt lat="43.57921" lon="6.89771">
        <ele>422.94937133789</ele>
        <time>2009-03-08T12:53:23Z</time>
      </trkpt>
      <trkpt lat="43.57923" lon="6.89772">
        <ele>423.06127929688</ele>
        <time>2009-03-08T12:53:37Z</time>
      </trkpt>
      <trkpt lat="43.57922" lon="6.89773">
        <ele>423.04495239258</ele>
        <time>2009-03-08T12:53:40Z</time>
      </trkpt>
      <trkpt lat="43.5792" lon="6.89771">
        <ele>422.92318725586</ele>
        <time>2009-03-08T12:53:54Z</time>
      </trkpt>
      <trkpt lat="43.5792" lon="6.89771">
        <ele>422.87725830078</ele>
        <time>2009-03-08T12:54:02Z</time>
      </trkpt>
      <trkpt lat="43.5792" lon="6.89771">
        <ele>422.88034057617</ele>
        <time>2009-03-08T12:54:27Z</time>
      </trkpt>
      <trkpt lat="43.57919" lon="6.89771">
        <ele>422.85369873047</ele>
        <time>2009-03-08T12:54:34Z</time>
      </trkpt>
      <trkpt lat="43.57919" lon="6.89772">
        <ele>422.86056518555</ele>
        <time>2009-03-08T12:54:49Z</time>
      </trkpt>
      <trkpt lat="43.57921" lon="6.8977">
        <ele>422.921875</ele>
        <time>2009-03-08T12:55:14Z</time>
      </trkpt>
      <trkpt lat="43.57925" lon="6.89772">
        <ele>423.15551757812</ele>
        <time>2009-03-08T12:55:18Z</time>
      </trkpt>
      <trkpt lat="43.57927" lon="6.89773">
        <ele>423.2741394043</ele>
        <time>2009-03-08T12:55:25Z</time>
      </trkpt>
      <trkpt lat="43.57925" lon="6.89774">
        <ele>423.21429443359</ele>
        <time>2009-03-08T12:55:55Z</time>
      </trkpt>
      <trkpt lat="43.57922" lon="6.89772">
        <ele>423.01718139648</ele>
        <time>2009-03-08T12:56:11Z</time>
      </trkpt>
      <trkpt lat="43.57921" lon="6.89771">
        <ele>422.96658325195</ele>
        <time>2009-03-08T12:56:24Z</time>
      </trkpt>
      <trkpt lat="43.57921" lon="6.89771">
        <ele>422.94522094727</ele>
        <time>2009-03-08T12:56:28Z</time>
      </trkpt>
      <trkpt lat="43.57921" lon="6.89771">
        <ele>422.94232177734</ele>
        <time>2009-03-08T12:56:31Z</time>
      </trkpt>
      <trkpt lat="43.57921" lon="6.89771">
        <ele>422.94085693359</ele>
        <time>2009-03-08T12:56:34Z</time>
      </trkpt>
      <trkpt lat="43.57922" lon="6.89772">
        <ele>423.0241394043</ele>
        <time>2009-03-08T12:56:47Z</time>
      </trkpt>
      <trkpt lat="43.57922" lon="6.89772">
        <ele>423.04614257812</ele>
        <time>2009-03-08T12:57:07Z</time>
      </trkpt>
      <trkpt lat="43.57922" lon="6.89773">
        <ele>423.02166748047</ele>
        <time>2009-03-08T12:57:13Z</time>
      </trkpt>
      <trkpt lat="43.5792" lon="6.89781">
        <ele>423.03591918945</ele>
        <time>2009-03-08T12:57:17Z</time>
      </trkpt>
      <trkpt lat="43.57922" lon="6.89794">
        <ele>422.60504150391</ele>
        <time>2009-03-08T12:57:23Z</time>
      </trkpt>
      <trkpt lat="43.57927" lon="6.89802">
        <ele>422.48489379883</ele>
        <time>2009-03-08T12:57:28Z</time>
      </trkpt>
      <trkpt lat="43.57934" lon="6.89813">
        <ele>422.44546508789</ele>
        <time>2009-03-08T12:57:32Z</time>
      </trkpt>
      <trkpt lat="43.57942" lon="6.89828">
        <ele>422.16339111328</ele>
        <time>2009-03-08T12:57:38Z</time>
      </trkpt>
      <trkpt lat="43.57951" lon="6.89847">
        <ele>421.62728881836</ele>
        <time>2009-03-08T12:57:45Z</time>
      </trkpt>
      <trkpt lat="43.57957" lon="6.89861">
        <ele>420.54040527344</ele>
        <time>2009-03-08T12:57:50Z</time>
      </trkpt>
      <trkpt lat="43.57963" lon="6.89875">
        <ele>418.51995849609</ele>
        <time>2009-03-08T12:57:54Z</time>
      </trkpt>
      <trkpt lat="43.57965" lon="6.89878">
        <ele>417.85009765625</ele>
        <time>2009-03-08T12:57:55Z</time>
      </trkpt>
      <trkpt lat="43.57962" lon="6.89888">
        <ele>416.89807128906</ele>
        <time>2009-03-08T12:58:00Z</time>
      </trkpt>
      <trkpt lat="43.57954" lon="6.89895">
        <ele>416.4938659668</ele>
        <time>2009-03-08T12:58:05Z</time>
      </trkpt>
      <trkpt lat="43.5794" lon="6.89911">
        <ele>414.25482177734</ele>
        <time>2009-03-08T12:58:14Z</time>
      </trkpt>
      <trkpt lat="43.57932" lon="6.89922">
        <ele>412.95349121094</ele>
        <time>2009-03-08T12:58:19Z</time>
      </trkpt>
      <trkpt lat="43.57927" lon="6.89931">
        <ele>411.77880859375</ele>
        <time>2009-03-08T12:58:23Z</time>
      </trkpt>
      <trkpt lat="43.57918" lon="6.89943">
        <ele>410.13824462891</ele>
        <time>2009-03-08T12:58:29Z</time>
      </trkpt>
      <trkpt lat="43.57908" lon="6.89952">
        <ele>408.515625</ele>
        <time>2009-03-08T12:58:34Z</time>
      </trkpt>
      <trkpt lat="43.57891" lon="6.89961">
        <ele>407.67449951172</ele>
        <time>2009-03-08T12:58:41Z</time>
      </trkpt>
      <trkpt lat="43.57881" lon="6.89966">
        <ele>407.62460327148</ele>
        <time>2009-03-08T12:58:45Z</time>
      </trkpt>
      <trkpt lat="43.57867" lon="6.89969">
        <ele>408.41949462891</ele>
        <time>2009-03-08T12:58:52Z</time>
      </trkpt>
      <trkpt lat="43.57861" lon="6.89971">
        <ele>408.39086914062</ele>
        <time>2009-03-08T12:58:57Z</time>
      </trkpt>
      <trkpt lat="43.57853" lon="6.89973">
        <ele>408.92755126953</ele>
        <time>2009-03-08T12:59:03Z</time>
      </trkpt>
      <trkpt lat="43.57853" lon="6.89973">
        <ele>409.01818847656</ele>
        <time>2009-03-08T12:59:04Z</time>
      </trkpt>
      <trkpt lat="43.5785" lon="6.89977">
        <ele>407.84033203125</ele>
        <time>2009-03-08T12:59:09Z</time>
      </trkpt>
      <trkpt lat="43.57843" lon="6.89981">
        <ele>406.98944091797</ele>
        <time>2009-03-08T12:59:16Z</time>
      </trkpt>
      <trkpt lat="43.57839" lon="6.89982">
        <ele>407.11111450195</ele>
        <time>2009-03-08T12:59:19Z</time>
      </trkpt>
      <trkpt lat="43.57832" lon="6.89985">
        <ele>406.79925537109</ele>
        <time>2009-03-08T12:59:24Z</time>
      </trkpt>
      <trkpt lat="43.57825" lon="6.89992">
        <ele>405.87915039062</ele>
        <time>2009-03-08T12:59:29Z</time>
      </trkpt>
      <trkpt lat="43.57812" lon="6.90006">
        <ele>404.58038330078</ele>
        <time>2009-03-08T12:59:35Z</time>
      </trkpt>
      <trkpt lat="43.57806" lon="6.90017">
        <ele>403.20077514648</ele>
        <time>2009-03-08T12:59:40Z</time>
      </trkpt>
      <trkpt lat="43.57797" lon="6.90032">
        <ele>400.01556396484</ele>
        <time>2009-03-08T12:59:45Z</time>
      </trkpt>
      <trkpt lat="43.57787" lon="6.9005">
        <ele>395.72082519531</ele>
        <time>2009-03-08T12:59:50Z</time>
      </trkpt>
      <trkpt lat="43.57778" lon="6.9007">
        <ele>390.33670043945</ele>
        <time>2009-03-08T12:59:55Z</time>
      </trkpt>
      <trkpt lat="43.57769" lon="6.90089">
        <ele>385.30325317383</ele>
        <time>2009-03-08T13:00:01Z</time>
      </trkpt>
      <trkpt lat="43.57755" lon="6.90104">
        <ele>381.94857788086</ele>
        <time>2009-03-08T13:00:08Z</time>
      </trkpt>
      <trkpt lat="43.57737" lon="6.90113">
        <ele>382.90646362305</ele>
        <time>2009-03-08T13:00:15Z</time>
      </trkpt>
      <trkpt lat="43.57727" lon="6.9012">
        <ele>382.94921875</ele>
        <time>2009-03-08T13:00:20Z</time>
      </trkpt>
      <trkpt lat="43.57716" lon="6.90135">
        <ele>381.13195800781</ele>
        <time>2009-03-08T13:00:26Z</time>
      </trkpt>
      <trkpt lat="43.577" lon="6.90155">
        <ele>380.73107910156</ele>
        <time>2009-03-08T13:00:32Z</time>
      </trkpt>
      <trkpt lat="43.5768" lon="6.90176">
        <ele>386.53207397461</ele>
        <time>2009-03-08T13:00:39Z</time>
      </trkpt>
      <trkpt lat="43.57658" lon="6.90197">
        <ele>392.57318115234</ele>
        <time>2009-03-08T13:00:45Z</time>
      </trkpt>
      <trkpt lat="43.57635" lon="6.90213">
        <ele>401.74713134766</ele>
        <time>2009-03-08T13:00:49Z</time>
      </trkpt>
      <trkpt lat="43.57599" lon="6.9024">
        <ele>412.86141967773</ele>
        <time>2009-03-08T13:00:54Z</time>
      </trkpt>
      <trkpt lat="43.57579" lon="6.90261">
        <ele>413.88467407227</ele>
        <time>2009-03-08T13:00:57Z</time>
      </trkpt>
      <trkpt lat="43.57547" lon="6.90279">
        <ele>419.31213378906</ele>
        <time>2009-03-08T13:01:02Z</time>
      </trkpt>
      <trkpt lat="43.57527" lon="6.90285">
        <ele>419.95492553711</ele>
        <time>2009-03-08T13:01:06Z</time>
      </trkpt>
      <trkpt lat="43.57506" lon="6.90295">
        <ele>419.98165893555</ele>
        <time>2009-03-08T13:01:12Z</time>
      </trkpt>
      <trkpt lat="43.57493" lon="6.90302">
        <ele>420.11804199219</ele>
        <time>2009-03-08T13:01:16Z</time>
      </trkpt>
      <trkpt lat="43.57479" lon="6.90315">
        <ele>419.74612426758</ele>
        <time>2009-03-08T13:01:21Z</time>
      </trkpt>
      <trkpt lat="43.57468" lon="6.9033">
        <ele>420</ele>
        <time>2009-03-08T13:01:26Z</time>
      </trkpt>
      <trkpt lat="43.57453" lon="6.90356">
        <ele>419.23983764648</ele>
        <time>2009-03-08T13:01:33Z</time>
      </trkpt>
      <trkpt lat="43.5743" lon="6.90387">
        <ele>417.72161865234</ele>
        <time>2009-03-08T13:01:42Z</time>
      </trkpt>
      <trkpt lat="43.57413" lon="6.90413">
        <ele>417.69448852539</ele>
        <time>2009-03-08T13:01:50Z</time>
      </trkpt>
      <trkpt lat="43.57398" lon="6.90437">
        <ele>415.76092529297</ele>
        <time>2009-03-08T13:01:57Z</time>
      </trkpt>
      <trkpt lat="43.57384" lon="6.90463">
        <ele>414.2516784668</ele>
        <time>2009-03-08T13:02:04Z</time>
      </trkpt>
      <trkpt lat="43.57369" lon="6.90486">
        <ele>414.64221191406</ele>
        <time>2009-03-08T13:02:11Z</time>
      </trkpt>
      <trkpt lat="43.57351" lon="6.90503">
        <ele>416.59118652344</ele>
        <time>2009-03-08T13:02:18Z</time>
      </trkpt>
      <trkpt lat="43.57336" lon="6.9051">
        <ele>418.98489379883</ele>
        <time>2009-03-08T13:02:23Z</time>
      </trkpt>
      <trkpt lat="43.57317" lon="6.90511">
        <ele>420.98263549805</ele>
        <time>2009-03-08T13:02:30Z</time>
      </trkpt>
      <trkpt lat="43.57293" lon="6.90508">
        <ele>424.00552368164</ele>
        <time>2009-03-08T13:02:38Z</time>
      </trkpt>
      <trkpt lat="43.57267" lon="6.90505">
        <ele>428.27703857422</ele>
        <time>2009-03-08T13:02:46Z</time>
      </trkpt>
      <trkpt lat="43.57251" lon="6.9051">
        <ele>431.91775512695</ele>
        <time>2009-03-08T13:02:52Z</time>
      </trkpt>
      <trkpt lat="43.57238" lon="6.90509">
        <ele>432.93585205078</ele>
        <time>2009-03-08T13:02:57Z</time>
      </trkpt>
      <trkpt lat="43.5722" lon="6.90496">
        <ele>432.81680297852</ele>
        <time>2009-03-08T13:03:04Z</time>
      </trkpt>
      <trkpt lat="43.57209" lon="6.90489">
        <ele>432.9407043457</ele>
        <time>2009-03-08T13:03:08Z</time>
      </trkpt>
      <trkpt lat="43.57187" lon="6.90484">
        <ele>434.03634643555</ele>
        <time>2009-03-08T13:03:15Z</time>
      </trkpt>
      <trkpt lat="43.57156" lon="6.90484">
        <ele>437.48672485352</ele>
        <time>2009-03-08T13:03:25Z</time>
      </trkpt>
      <trkpt lat="43.57136" lon="6.90478">
        <ele>438.89889526367</ele>
        <time>2009-03-08T13:03:31Z</time>
      </trkpt>
      <trkpt lat="43.57109" lon="6.90466">
        <ele>438.80184936523</ele>
        <time>2009-03-08T13:03:40Z</time>
      </trkpt>
      <trkpt lat="43.57083" lon="6.90456">
        <ele>439.53753662109</ele>
        <time>2009-03-08T13:03:48Z</time>
      </trkpt>
      <trkpt lat="43.57052" lon="6.90448">
        <ele>442.16036987305</ele>
        <time>2009-03-08T13:03:58Z</time>
      </trkpt>
      <trkpt lat="43.57032" lon="6.90439">
        <ele>443.44580078125</ele>
        <time>2009-03-08T13:04:05Z</time>
      </trkpt>
      <trkpt lat="43.57013" lon="6.90427">
        <ele>445.84042358398</ele>
        <time>2009-03-08T13:04:11Z</time>
      </trkpt>
      <trkpt lat="43.56995" lon="6.90404">
        <ele>447.03784179688</ele>
        <time>2009-03-08T13:04:19Z</time>
      </trkpt>
      <trkpt lat="43.56979" lon="6.90391">
        <ele>447.45257568359</ele>
        <time>2009-03-08T13:04:25Z</time>
      </trkpt>
      <trkpt lat="43.56962" lon="6.90394">
        <ele>447.72286987305</ele>
        <time>2009-03-08T13:04:30Z</time>
      </trkpt>
      <trkpt lat="43.56939" lon="6.90413">
        <ele>447.83609008789</ele>
        <time>2009-03-08T13:04:38Z</time>
      </trkpt>
      <trkpt lat="43.56915" lon="6.90439">
        <ele>448.99560546875</ele>
        <time>2009-03-08T13:04:47Z</time>
      </trkpt>
      <trkpt lat="43.56897" lon="6.90459">
        <ele>450.61810302734</ele>
        <time>2009-03-08T13:04:54Z</time>
      </trkpt>
      <trkpt lat="43.56879" lon="6.90471">
        <ele>451.05023193359</ele>
        <time>2009-03-08T13:05:00Z</time>
      </trkpt>
      <trkpt lat="43.56866" lon="6.90482">
        <ele>451.43353271484</ele>
        <time>2009-03-08T13:05:05Z</time>
      </trkpt>
      <trkpt lat="43.56853" lon="6.90501">
        <ele>452.31619262695</ele>
        <time>2009-03-08T13:05:11Z</time>
      </trkpt>
      <trkpt lat="43.5684" lon="6.90519">
        <ele>454.62139892578</ele>
        <time>2009-03-08T13:05:17Z</time>
      </trkpt>
      <trkpt lat="43.56822" lon="6.90524">
        <ele>454.44802856445</ele>
        <time>2009-03-08T13:05:23Z</time>
      </trkpt>
      <trkpt lat="43.56807" lon="6.90524">
        <ele>453.35418701172</ele>
        <time>2009-03-08T13:05:29Z</time>
      </trkpt>
      <trkpt lat="43.56792" lon="6.90523">
        <ele>453.20947265625</ele>
        <time>2009-03-08T13:05:34Z</time>
      </trkpt>
      <trkpt lat="43.56767" lon="6.90517">
        <ele>453.48413085938</ele>
        <time>2009-03-08T13:05:42Z</time>
      </trkpt>
      <trkpt lat="43.56745" lon="6.90503">
        <ele>453.38647460938</ele>
        <time>2009-03-08T13:05:50Z</time>
      </trkpt>
      <trkpt lat="43.56719" lon="6.90492">
        <ele>455.41677856445</ele>
        <time>2009-03-08T13:05:58Z</time>
      </trkpt>
      <trkpt lat="43.56696" lon="6.90488">
        <ele>457.05297851562</ele>
        <time>2009-03-08T13:06:05Z</time>
      </trkpt>
      <trkpt lat="43.56674" lon="6.90487">
        <ele>459.30426025391</ele>
        <time>2009-03-08T13:06:12Z</time>
      </trkpt>
      <trkpt lat="43.56656" lon="6.90481">
        <ele>460.1220703125</ele>
        <time>2009-03-08T13:06:18Z</time>
      </trkpt>
      <trkpt lat="43.5664" lon="6.90472">
        <ele>459.91439819336</ele>
        <time>2009-03-08T13:06:24Z</time>
      </trkpt>
      <trkpt lat="43.56623" lon="6.90456">
        <ele>459.11764526367</ele>
        <time>2009-03-08T13:06:31Z</time>
      </trkpt>
      <trkpt lat="43.56606" lon="6.90434">
        <ele>456.85665893555</ele>
        <time>2009-03-08T13:06:37Z</time>
      </trkpt>
      <trkpt lat="43.5659" lon="6.90417">
        <ele>451.71890258789</ele>
        <time>2009-03-08T13:06:41Z</time>
      </trkpt>
      <trkpt lat="43.56567" lon="6.90408">
        <ele>442.69927978516</ele>
        <time>2009-03-08T13:06:45Z</time>
      </trkpt>
      <trkpt lat="43.56544" lon="6.90403">
        <ele>431.95330810547</ele>
        <time>2009-03-08T13:06:49Z</time>
      </trkpt>
      <trkpt lat="43.5653" lon="6.90402">
        <ele>424.92404174805</ele>
        <time>2009-03-08T13:06:52Z</time>
      </trkpt>
      <trkpt lat="43.56517" lon="6.90404">
        <ele>422.00317382812</ele>
        <time>2009-03-08T13:06:55Z</time>
      </trkpt>
      <trkpt lat="43.56501" lon="6.90411">
        <ele>418.97637939453</ele>
        <time>2009-03-08T13:06:59Z</time>
      </trkpt>
      <trkpt lat="43.56491" lon="6.90417">
        <ele>416.47033691406</ele>
        <time>2009-03-08T13:07:02Z</time>
      </trkpt>
      <trkpt lat="43.56467" lon="6.90437">
        <ele>416.04779052734</ele>
        <time>2009-03-08T13:07:09Z</time>
      </trkpt>
      <trkpt lat="43.56464" lon="6.90441">
        <ele>416.23321533203</ele>
        <time>2009-03-08T13:07:10Z</time>
      </trkpt>
      <trkpt lat="43.56449" lon="6.90458">
        <ele>417.20895385742</ele>
        <time>2009-03-08T13:07:15Z</time>
      </trkpt>
      <trkpt lat="43.56448" lon="6.90458">
        <ele>416.72882080078</ele>
        <time>2009-03-08T13:07:19Z</time>
      </trkpt>
      <trkpt lat="43.56446" lon="6.90459">
        <ele>416.6286315918</ele>
        <time>2009-03-08T13:07:30Z</time>
      </trkpt>
      <trkpt lat="43.56446" lon="6.9046">
        <ele>416.41537475586</ele>
        <time>2009-03-08T13:07:37Z</time>
      </trkpt>
      <trkpt lat="43.56445" lon="6.90459">
        <ele>415.89453125</ele>
        <time>2009-03-08T13:07:56Z</time>
      </trkpt>
      <trkpt lat="43.56445" lon="6.90459">
        <ele>415.806640625</ele>
        <time>2009-03-08T13:08:18Z</time>
      </trkpt>
      <trkpt lat="43.56445" lon="6.90459">
        <ele>415.85302734375</ele>
        <time>2009-03-08T13:08:21Z</time>
      </trkpt>
      <trkpt lat="43.56445" lon="6.90459">
        <ele>415.86849975586</ele>
        <time>2009-03-08T13:08:22Z</time>
      </trkpt>
      <trkpt lat="43.56444" lon="6.90459">
        <ele>415.75216674805</ele>
        <time>2009-03-08T13:08:31Z</time>
      </trkpt>
      <trkpt lat="43.56445" lon="6.90457">
        <ele>415.15692138672</ele>
        <time>2009-03-08T13:08:55Z</time>
      </trkpt>
      <trkpt lat="43.56444" lon="6.90457">
        <ele>415.11871337891</ele>
        <time>2009-03-08T13:09:01Z</time>
      </trkpt>
      <trkpt lat="43.56445" lon="6.90458">
        <ele>415.54364013672</ele>
        <time>2009-03-08T13:09:10Z</time>
      </trkpt>
      <trkpt lat="43.56444" lon="6.90458">
        <ele>415.427734375</ele>
        <time>2009-03-08T13:09:12Z</time>
      </trkpt>
      <trkpt lat="43.56444" lon="6.90458">
        <ele>415.39682006836</ele>
        <time>2009-03-08T13:09:13Z</time>
      </trkpt>
      <trkpt lat="43.56445" lon="6.90457">
        <ele>415.29937744141</ele>
        <time>2009-03-08T13:09:21Z</time>
      </trkpt>
      <trkpt lat="43.56445" lon="6.90456">
        <ele>414.83319091797</ele>
        <time>2009-03-08T13:09:35Z</time>
      </trkpt>
      <trkpt lat="43.56445" lon="6.90456">
        <ele>414.84872436523</ele>
        <time>2009-03-08T13:09:40Z</time>
      </trkpt>
      <trkpt lat="43.56445" lon="6.90456">
        <ele>414.94229125977</ele>
        <time>2009-03-08T13:09:53Z</time>
      </trkpt>
      <trkpt lat="43.56445" lon="6.90456">
        <ele>414.95788574219</ele>
        <time>2009-03-08T13:09:56Z</time>
      </trkpt>
      <trkpt lat="43.56445" lon="6.90456">
        <ele>414.83319091797</ele>
        <time>2009-03-08T13:09:59Z</time>
      </trkpt>
      <trkpt lat="43.5645" lon="6.90454">
        <ele>415.76321411133</ele>
        <time>2009-03-08T13:10:41Z</time>
      </trkpt>
      <trkpt lat="43.5645" lon="6.90455">
        <ele>416.50924682617</ele>
        <time>2009-03-08T13:11:06Z</time>
      </trkpt>
      <trkpt lat="43.56453" lon="6.90455">
        <ele>417.24969482422</ele>
        <time>2009-03-08T13:11:17Z</time>
      </trkpt>
      <trkpt lat="43.56453" lon="6.90455">
        <ele>417.55865478516</ele>
        <time>2009-03-08T13:11:27Z</time>
      </trkpt>
      <trkpt lat="43.56451" lon="6.90453">
        <ele>416.34811401367</ele>
        <time>2009-03-08T13:11:57Z</time>
      </trkpt>
      <trkpt lat="43.56451" lon="6.90452">
        <ele>416.0634765625</ele>
        <time>2009-03-08T13:12:41Z</time>
      </trkpt>
      <trkpt lat="43.56451" lon="6.90452">
        <ele>415.72799682617</ele>
        <time>2009-03-08T13:12:46Z</time>
      </trkpt>
      <trkpt lat="43.56451" lon="6.90456">
        <ele>417.41958618164</ele>
        <time>2009-03-08T13:13:25Z</time>
      </trkpt>
      <trkpt lat="43.56451" lon="6.90458">
        <ele>417.96194458008</ele>
        <time>2009-03-08T13:13:35Z</time>
      </trkpt>
      <trkpt lat="43.56445" lon="6.90471">
        <ele>420.04690551758</ele>
        <time>2009-03-08T13:13:39Z</time>
      </trkpt>
      <trkpt lat="43.56431" lon="6.905">
        <ele>425.53631591797</ele>
        <time>2009-03-08T13:13:44Z</time>
      </trkpt>
      <trkpt lat="43.5641" lon="6.90534">
        <ele>433.02502441406</ele>
        <time>2009-03-08T13:13:49Z</time>
      </trkpt>
      <trkpt lat="43.56376" lon="6.90586">
        <ele>438.02215576172</ele>
        <time>2009-03-08T13:13:56Z</time>
      </trkpt>
      <trkpt lat="43.5635" lon="6.90606">
        <ele>433.58563232422</ele>
        <time>2009-03-08T13:14:00Z</time>
      </trkpt>
      <trkpt lat="43.56342" lon="6.90608">
        <ele>429.88101196289</ele>
        <time>2009-03-08T13:14:01Z</time>
      </trkpt>
      <trkpt lat="43.56307" lon="6.90626">
        <ele>425.27593994141</ele>
        <time>2009-03-08T13:14:06Z</time>
      </trkpt>
      <trkpt lat="43.56301" lon="6.90637">
        <ele>426.45449829102</ele>
        <time>2009-03-08T13:14:07Z</time>
      </trkpt>
      <trkpt lat="43.5627" lon="6.90665">
        <ele>426.03997802734</ele>
        <time>2009-03-08T13:14:12Z</time>
      </trkpt>
      <trkpt lat="43.56238" lon="6.90666">
        <ele>422.63928222656</ele>
        <time>2009-03-08T13:14:16Z</time>
      </trkpt>
      <trkpt lat="43.56226" lon="6.90681">
        <ele>422.56021118164</ele>
        <time>2009-03-08T13:14:18Z</time>
      </trkpt>
      <trkpt lat="43.56224" lon="6.90706">
        <ele>423.74810791016</ele>
        <time>2009-03-08T13:14:20Z</time>
      </trkpt>
      <trkpt lat="43.56233" lon="6.90729">
        <ele>425.43872070312</ele>
        <time>2009-03-08T13:14:22Z</time>
      </trkpt>
      <trkpt lat="43.56239" lon="6.90739">
        <ele>426.23345947266</ele>
        <time>2009-03-08T13:14:23Z</time>
      </trkpt>
      <trkpt lat="43.56278" lon="6.90789">
        <ele>428.62652587891</ele>
        <time>2009-03-08T13:14:29Z</time>
      </trkpt>
      <trkpt lat="43.56311" lon="6.90799">
        <ele>429.93551635742</ele>
        <time>2009-03-08T13:14:33Z</time>
      </trkpt>
      <trkpt lat="43.5632" lon="6.90795">
        <ele>431.09140014648</ele>
        <time>2009-03-08T13:14:34Z</time>
      </trkpt>
      <trkpt lat="43.56337" lon="6.90787">
        <ele>434.07397460938</ele>
        <time>2009-03-08T13:14:36Z</time>
      </trkpt>
      <trkpt lat="43.56372" lon="6.90793">
        <ele>441.31100463867</ele>
        <time>2009-03-08T13:14:40Z</time>
      </trkpt>
      <trkpt lat="43.5638" lon="6.90815">
        <ele>439.97973632812</ele>
        <time>2009-03-08T13:14:42Z</time>
      </trkpt>
      <trkpt lat="43.56378" lon="6.90843">
        <ele>434.10931396484</ele>
        <time>2009-03-08T13:14:44Z</time>
      </trkpt>
      <trkpt lat="43.56374" lon="6.90855">
        <ele>431.08703613281</ele>
        <time>2009-03-08T13:14:45Z</time>
      </trkpt>
      <trkpt lat="43.56367" lon="6.90903">
        <ele>421.58953857422</ele>
        <time>2009-03-08T13:14:49Z</time>
      </trkpt>
      <trkpt lat="43.56353" lon="6.90942">
        <ele>411.27267456055</ele>
        <time>2009-03-08T13:14:53Z</time>
      </trkpt>
      <trkpt lat="43.56347" lon="6.90949">
        <ele>410.76550292969</ele>
        <time>2009-03-08T13:14:54Z</time>
      </trkpt>
      <trkpt lat="43.56313" lon="6.90983">
        <ele>412.22204589844</ele>
        <time>2009-03-08T13:14:59Z</time>
      </trkpt>
      <trkpt lat="43.56293" lon="6.91022">
        <ele>411.81546020508</ele>
        <time>2009-03-08T13:15:03Z</time>
      </trkpt>
      <trkpt lat="43.56279" lon="6.91104">
        <ele>411.59811401367</ele>
        <time>2009-03-08T13:15:10Z</time>
      </trkpt>
      <trkpt lat="43.56277" lon="6.91116">
        <ele>413.63433837891</ele>
        <time>2009-03-08T13:15:11Z</time>
      </trkpt>
      <trkpt lat="43.56278" lon="6.9116">
        <ele>416.97225952148</ele>
        <time>2009-03-08T13:15:15Z</time>
      </trkpt>
      <trkpt lat="43.56282" lon="6.91191">
        <ele>417.35467529297</ele>
        <time>2009-03-08T13:15:18Z</time>
      </trkpt>
      <trkpt lat="43.56277" lon="6.9122">
        <ele>420.14407348633</ele>
        <time>2009-03-08T13:15:21Z</time>
      </trkpt>
      <trkpt lat="43.56263" lon="6.91247">
        <ele>429.43121337891</ele>
        <time>2009-03-08T13:15:25Z</time>
      </trkpt>
      <trkpt lat="43.5625" lon="6.91273">
        <ele>436.9489440918</ele>
        <time>2009-03-08T13:15:29Z</time>
      </trkpt>
      <trkpt lat="43.5625" lon="6.91304">
        <ele>434.02740478516</ele>
        <time>2009-03-08T13:15:33Z</time>
      </trkpt>
      <trkpt lat="43.56258" lon="6.91325">
        <ele>429.32257080078</ele>
        <time>2009-03-08T13:15:36Z</time>
      </trkpt>
      <trkpt lat="43.56269" lon="6.91347">
        <ele>425.13403320312</ele>
        <time>2009-03-08T13:15:39Z</time>
      </trkpt>
      <trkpt lat="43.56272" lon="6.91354">
        <ele>423.8740234375</ele>
        <time>2009-03-08T13:15:40Z</time>
      </trkpt>
      <trkpt lat="43.5628" lon="6.91369">
        <ele>420.95034790039</ele>
        <time>2009-03-08T13:15:42Z</time>
      </trkpt>
      <trkpt lat="43.56284" lon="6.91376">
        <ele>419.30926513672</ele>
        <time>2009-03-08T13:15:43Z</time>
      </trkpt>
      <trkpt lat="43.563" lon="6.91396">
        <ele>414.10650634766</ele>
        <time>2009-03-08T13:15:46Z</time>
      </trkpt>
      <trkpt lat="43.5631" lon="6.91434">
        <ele>408.61410522461</ele>
        <time>2009-03-08T13:15:50Z</time>
      </trkpt>
      <trkpt lat="43.56306" lon="6.91458">
        <ele>408.32846069336</ele>
        <time>2009-03-08T13:15:52Z</time>
      </trkpt>
      <trkpt lat="43.56295" lon="6.91494">
        <ele>409.85015869141</ele>
        <time>2009-03-08T13:15:55Z</time>
      </trkpt>
      <trkpt lat="43.56276" lon="6.91523">
        <ele>413.40759277344</ele>
        <time>2009-03-08T13:15:59Z</time>
      </trkpt>
      <trkpt lat="43.56259" lon="6.91537">
        <ele>416.66943359375</ele>
        <time>2009-03-08T13:16:02Z</time>
      </trkpt>
      <trkpt lat="43.56251" lon="6.91544">
        <ele>417.6686706543</ele>
        <time>2009-03-08T13:16:06Z</time>
      </trkpt>
      <trkpt lat="43.5625" lon="6.91542">
        <ele>417.84057617188</ele>
        <time>2009-03-08T13:16:17Z</time>
      </trkpt>
      <trkpt lat="43.5625" lon="6.91544">
        <ele>417.71090698242</ele>
        <time>2009-03-08T13:16:28Z</time>
      </trkpt>
      <trkpt lat="43.5625" lon="6.91546">
        <ele>417.60580444336</ele>
        <time>2009-03-08T13:16:38Z</time>
      </trkpt>
      <trkpt lat="43.56252" lon="6.91546">
        <ele>417.41027832031</ele>
        <time>2009-03-08T13:16:45Z</time>
      </trkpt>
      <trkpt lat="43.56252" lon="6.91546">
        <ele>417.33978271484</ele>
        <time>2009-03-08T13:16:48Z</time>
      </trkpt>
      <trkpt lat="43.56253" lon="6.91549">
        <ele>416.90328979492</ele>
        <time>2009-03-08T13:17:07Z</time>
      </trkpt>
      <trkpt lat="43.56254" lon="6.91549">
        <ele>416.82730102539</ele>
        <time>2009-03-08T13:17:15Z</time>
      </trkpt>
      <trkpt lat="43.56253" lon="6.91547">
        <ele>417.03869628906</ele>
        <time>2009-03-08T13:17:31Z</time>
      </trkpt>
      <trkpt lat="43.56255" lon="6.91549">
        <ele>416.75134277344</ele>
        <time>2009-03-08T13:17:39Z</time>
      </trkpt>
      <trkpt lat="43.56253" lon="6.91544">
        <ele>417.36386108398</ele>
        <time>2009-03-08T13:17:53Z</time>
      </trkpt>
      <trkpt lat="43.56252" lon="6.91543">
        <ele>417.47427368164</ele>
        <time>2009-03-08T13:17:58Z</time>
      </trkpt>
      <trkpt lat="43.5625" lon="6.91544">
        <ele>417.8623046875</ele>
        <time>2009-03-08T13:18:21Z</time>
      </trkpt>
      <trkpt lat="43.5625" lon="6.91543">
        <ele>417.88290405273</ele>
        <time>2009-03-08T13:18:34Z</time>
      </trkpt>
      <trkpt lat="43.56249" lon="6.91544">
        <ele>417.50106811523</ele>
        <time>2009-03-08T13:18:42Z</time>
      </trkpt>
      <trkpt lat="43.56248" lon="6.91548">
        <ele>417.11193847656</ele>
        <time>2009-03-08T13:19:12Z</time>
      </trkpt>
      <trkpt lat="43.56248" lon="6.91545">
        <ele>417.0768737793</ele>
        <time>2009-03-08T13:19:27Z</time>
      </trkpt>
      <trkpt lat="43.56247" lon="6.91543">
        <ele>416.97491455078</ele>
        <time>2009-03-08T13:19:41Z</time>
      </trkpt>
      <trkpt lat="43.56245" lon="6.91542">
        <ele>416.70364379883</ele>
        <time>2009-03-08T13:19:44Z</time>
      </trkpt>
      <trkpt lat="43.56244" lon="6.91543">
        <ele>416.13265991211</ele>
        <time>2009-03-08T13:19:51Z</time>
      </trkpt>
      <trkpt lat="43.56243" lon="6.91544">
        <ele>415.95260620117</ele>
        <time>2009-03-08T13:19:55Z</time>
      </trkpt>
      <trkpt lat="43.56242" lon="6.91544">
        <ele>415.48406982422</ele>
        <time>2009-03-08T13:20:01Z</time>
      </trkpt>
      <trkpt lat="43.56241" lon="6.91545">
        <ele>415.12734985352</ele>
        <time>2009-03-08T13:20:15Z</time>
      </trkpt>
      <trkpt lat="43.56243" lon="6.91547">
        <ele>415.47888183594</ele>
        <time>2009-03-08T13:20:24Z</time>
      </trkpt>
      <trkpt lat="43.56243" lon="6.91547">
        <ele>415.45977783203</ele>
        <time>2009-03-08T13:20:26Z</time>
      </trkpt>
      <trkpt lat="43.56244" lon="6.91548">
        <ele>415.65057373047</ele>
        <time>2009-03-08T13:20:30Z</time>
      </trkpt>
      <trkpt lat="43.56244" lon="6.91548">
        <ele>415.59957885742</ele>
        <time>2009-03-08T13:20:35Z</time>
      </trkpt>
      <trkpt lat="43.56243" lon="6.91548">
        <ele>415.38812255859</ele>
        <time>2009-03-08T13:20:43Z</time>
      </trkpt>
      <trkpt lat="43.56241" lon="6.91549">
        <ele>414.80072021484</ele>
        <time>2009-03-08T13:20:46Z</time>
      </trkpt>
      <trkpt lat="43.56241" lon="6.9155">
        <ele>414.60403442383</ele>
        <time>2009-03-08T13:20:47Z</time>
      </trkpt>
      <trkpt lat="43.56239" lon="6.91552">
        <ele>413.97869873047</ele>
        <time>2009-03-08T13:20:49Z</time>
      </trkpt>
      <trkpt lat="43.56234" lon="6.91554">
        <ele>411.9573059082</ele>
        <time>2009-03-08T13:20:55Z</time>
      </trkpt>
      <trkpt lat="43.56232" lon="6.91554">
        <ele>411.49621582031</ele>
        <time>2009-03-08T13:20:56Z</time>
      </trkpt>
      <trkpt lat="43.56218" lon="6.91552">
        <ele>407.99893188477</ele>
        <time>2009-03-08T13:21:03Z</time>
      </trkpt>
      <trkpt lat="43.56213" lon="6.9155">
        <ele>407.54681396484</ele>
        <time>2009-03-08T13:21:05Z</time>
      </trkpt>
      <trkpt lat="43.56205" lon="6.91557">
        <ele>404.78884887695</ele>
        <time>2009-03-08T13:21:10Z</time>
      </trkpt>
      <trkpt lat="43.56201" lon="6.9156">
        <ele>403.50482177734</ele>
        <time>2009-03-08T13:21:12Z</time>
      </trkpt>
      <trkpt lat="43.56182" lon="6.91561">
        <ele>399.18267822266</ele>
        <time>2009-03-08T13:21:17Z</time>
      </trkpt>
      <trkpt lat="43.56179" lon="6.9156">
        <ele>398.57843017578</ele>
        <time>2009-03-08T13:21:18Z</time>
      </trkpt>
      <trkpt lat="43.56166" lon="6.91542">
        <ele>399.14321899414</ele>
        <time>2009-03-08T13:21:23Z</time>
      </trkpt>
      <trkpt lat="43.56158" lon="6.91534">
        <ele>399.64196777344</ele>
        <time>2009-03-08T13:21:25Z</time>
      </trkpt>
      <trkpt lat="43.56123" lon="6.91525">
        <ele>396.23989868164</ele>
        <time>2009-03-08T13:21:31Z</time>
      </trkpt>
      <trkpt lat="43.561" lon="6.91527">
        <ele>392.59414672852</ele>
        <time>2009-03-08T13:21:35Z</time>
      </trkpt>
      <trkpt lat="43.56084" lon="6.91535">
        <ele>387.57482910156</ele>
        <time>2009-03-08T13:21:39Z</time>
      </trkpt>
      <trkpt lat="43.5606" lon="6.91554">
        <ele>380.55212402344</ele>
        <time>2009-03-08T13:21:45Z</time>
      </trkpt>
      <trkpt lat="43.56039" lon="6.91562">
        <ele>377.32406616211</ele>
        <time>2009-03-08T13:21:49Z</time>
      </trkpt>
      <trkpt lat="43.56015" lon="6.91558">
        <ele>375.30923461914</ele>
        <time>2009-03-08T13:21:53Z</time>
      </trkpt>
      <trkpt lat="43.56012" lon="6.91556">
        <ele>375.34359741211</ele>
        <time>2009-03-08T13:21:54Z</time>
      </trkpt>
      <trkpt lat="43.55992" lon="6.91543">
        <ele>376.85537719727</ele>
        <time>2009-03-08T13:22:01Z</time>
      </trkpt>
      <trkpt lat="43.55975" lon="6.91537">
        <ele>378.99713134766</ele>
        <time>2009-03-08T13:22:06Z</time>
      </trkpt>
      <trkpt lat="43.55955" lon="6.91518">
        <ele>382.73107910156</ele>
        <time>2009-03-08T13:22:11Z</time>
      </trkpt>
      <trkpt lat="43.55949" lon="6.91508">
        <ele>383.45129394531</ele>
        <time>2009-03-08T13:22:15Z</time>
      </trkpt>
      <trkpt lat="43.55947" lon="6.91505">
        <ele>383.61138916016</ele>
        <time>2009-03-08T13:22:19Z</time>
      </trkpt>
      <trkpt lat="43.55937" lon="6.91506">
        <ele>382.00964355469</ele>
        <time>2009-03-08T13:22:23Z</time>
      </trkpt>
      <trkpt lat="43.5592" lon="6.91509">
        <ele>378.4635925293</ele>
        <time>2009-03-08T13:22:28Z</time>
      </trkpt>
      <trkpt lat="43.55921" lon="6.9151">
        <ele>378.61721801758</ele>
        <time>2009-03-08T13:22:32Z</time>
      </trkpt>
      <trkpt lat="43.55921" lon="6.91512">
        <ele>378.24325561523</ele>
        <time>2009-03-08T13:22:41Z</time>
      </trkpt>
      <trkpt lat="43.55919" lon="6.91508">
        <ele>378.58572387695</ele>
        <time>2009-03-08T13:22:51Z</time>
      </trkpt>
      <trkpt lat="43.55917" lon="6.91501">
        <ele>379.72738647461</ele>
        <time>2009-03-08T13:22:56Z</time>
      </trkpt>
      <trkpt lat="43.55905" lon="6.91501">
        <ele>376.8879699707</ele>
        <time>2009-03-08T13:23:00Z</time>
      </trkpt>
      <trkpt lat="43.55892" lon="6.91508">
        <ele>372.40698242188</ele>
        <time>2009-03-08T13:23:04Z</time>
      </trkpt>
      <trkpt lat="43.55881" lon="6.91526">
        <ele>366.53359985352</ele>
        <time>2009-03-08T13:23:09Z</time>
      </trkpt>
      <trkpt lat="43.55877" lon="6.91531">
        <ele>364.45736694336</ele>
        <time>2009-03-08T13:23:13Z</time>
      </trkpt>
      <trkpt lat="43.55876" lon="6.9153">
        <ele>364.44067382812</ele>
        <time>2009-03-08T13:23:25Z</time>
      </trkpt>
      <trkpt lat="43.55865" lon="6.91541">
        <ele>358.36950683594</ele>
        <time>2009-03-08T13:23:30Z</time>
      </trkpt>
      <trkpt lat="43.55858" lon="6.91542">
        <ele>356.10394287109</ele>
        <time>2009-03-08T13:23:33Z</time>
      </trkpt>
      <trkpt lat="43.55845" lon="6.9155">
        <ele>351.44869995117</ele>
        <time>2009-03-08T13:23:39Z</time>
      </trkpt>
      <trkpt lat="43.55843" lon="6.9155">
        <ele>350.92822265625</ele>
        <time>2009-03-08T13:23:40Z</time>
      </trkpt>
      <trkpt lat="43.5584" lon="6.91546">
        <ele>351.50271606445</ele>
        <time>2009-03-08T13:23:46Z</time>
      </trkpt>
      <trkpt lat="43.55836" lon="6.91543">
        <ele>351.88363647461</ele>
        <time>2009-03-08T13:23:51Z</time>
      </trkpt>
      <trkpt lat="43.55825" lon="6.91546">
        <ele>349.6953125</ele>
        <time>2009-03-08T13:23:56Z</time>
      </trkpt>
      <trkpt lat="43.55813" lon="6.91561">
        <ele>345.86370849609</ele>
        <time>2009-03-08T13:24:01Z</time>
      </trkpt>
      <trkpt lat="43.55811" lon="6.91563">
        <ele>345.50680541992</ele>
        <time>2009-03-08T13:24:02Z</time>
      </trkpt>
      <trkpt lat="43.55805" lon="6.9156">
        <ele>345.42608642578</ele>
        <time>2009-03-08T13:24:06Z</time>
      </trkpt>
      <trkpt lat="43.55793" lon="6.91558">
        <ele>344.39025878906</ele>
        <time>2009-03-08T13:24:11Z</time>
      </trkpt>
      <trkpt lat="43.55781" lon="6.91573">
        <ele>342.580078125</ele>
        <time>2009-03-08T13:24:15Z</time>
      </trkpt>
      <trkpt lat="43.55775" lon="6.91594">
        <ele>339.80087280273</ele>
        <time>2009-03-08T13:24:19Z</time>
      </trkpt>
      <trkpt lat="43.55766" lon="6.91596">
        <ele>338.74887084961</ele>
        <time>2009-03-08T13:24:22Z</time>
      </trkpt>
      <trkpt lat="43.55757" lon="6.91602">
        <ele>336.73550415039</ele>
        <time>2009-03-08T13:24:25Z</time>
      </trkpt>
      <trkpt lat="43.55752" lon="6.91625">
        <ele>330.67398071289</ele>
        <time>2009-03-08T13:24:28Z</time>
      </trkpt>
      <trkpt lat="43.55751" lon="6.9165">
        <ele>325.37728881836</ele>
        <time>2009-03-08T13:24:31Z</time>
      </trkpt>
      <trkpt lat="43.5575" lon="6.91658">
        <ele>324.27313232422</ele>
        <time>2009-03-08T13:24:32Z</time>
      </trkpt>
      <trkpt lat="43.55746" lon="6.91689">
        <ele>317.34344482422</ele>
        <time>2009-03-08T13:24:37Z</time>
      </trkpt>
      <trkpt lat="43.55737" lon="6.91701">
        <ele>314.51602172852</ele>
        <time>2009-03-08T13:24:40Z</time>
      </trkpt>
      <trkpt lat="43.55728" lon="6.9171">
        <ele>312.47604370117</ele>
        <time>2009-03-08T13:24:42Z</time>
      </trkpt>
      <trkpt lat="43.55715" lon="6.91717">
        <ele>310.99401855469</ele>
        <time>2009-03-08T13:24:44Z</time>
      </trkpt>
      <trkpt lat="43.55679" lon="6.91729">
        <ele>308.13049316406</ele>
        <time>2009-03-08T13:24:49Z</time>
      </trkpt>
      <trkpt lat="43.55667" lon="6.91733">
        <ele>306.82244873047</ele>
        <time>2009-03-08T13:24:51Z</time>
      </trkpt>
      <trkpt lat="43.55644" lon="6.91729">
        <ele>306.67065429688</ele>
        <time>2009-03-08T13:24:55Z</time>
      </trkpt>
      <trkpt lat="43.55639" lon="6.91727">
        <ele>306.63726806641</ele>
        <time>2009-03-08T13:24:56Z</time>
      </trkpt>
      <trkpt lat="43.5562" lon="6.91723">
        <ele>305.56268310547</ele>
        <time>2009-03-08T13:25:01Z</time>
      </trkpt>
      <trkpt lat="43.55616" lon="6.91725">
        <ele>305.16098022461</ele>
        <time>2009-03-08T13:25:05Z</time>
      </trkpt>
      <trkpt lat="43.55612" lon="6.9173">
        <ele>304.51553344727</ele>
        <time>2009-03-08T13:25:12Z</time>
      </trkpt>
      <trkpt lat="43.55592" lon="6.91746">
        <ele>301.7067565918</ele>
        <time>2009-03-08T13:25:20Z</time>
      </trkpt>
      <trkpt lat="43.55578" lon="6.91767">
        <ele>298.1171875</ele>
        <time>2009-03-08T13:25:25Z</time>
      </trkpt>
      <trkpt lat="43.55571" lon="6.91787">
        <ele>293.92416381836</ele>
        <time>2009-03-08T13:25:28Z</time>
      </trkpt>
      <trkpt lat="43.55559" lon="6.91804">
        <ele>289.43301391602</ele>
        <time>2009-03-08T13:25:32Z</time>
      </trkpt>
      <trkpt lat="43.55546" lon="6.91808">
        <ele>286.9284362793</ele>
        <time>2009-03-08T13:25:36Z</time>
      </trkpt>
      <trkpt lat="43.55545" lon="6.9182">
        <ele>285.37240600586</ele>
        <time>2009-03-08T13:25:39Z</time>
      </trkpt>
      <trkpt lat="43.55539" lon="6.91839">
        <ele>282.27993774414</ele>
        <time>2009-03-08T13:25:43Z</time>
      </trkpt>
      <trkpt lat="43.55523" lon="6.91844">
        <ele>279.57757568359</ele>
        <time>2009-03-08T13:25:48Z</time>
      </trkpt>
      <trkpt lat="43.55515" lon="6.91844">
        <ele>278.21801757812</ele>
        <time>2009-03-08T13:25:51Z</time>
      </trkpt>
      <trkpt lat="43.55512" lon="6.91858">
        <ele>275.65682983398</ele>
        <time>2009-03-08T13:25:55Z</time>
      </trkpt>
      <trkpt lat="43.55515" lon="6.91866">
        <ele>274.84558105469</ele>
        <time>2009-03-08T13:25:58Z</time>
      </trkpt>
      <trkpt lat="43.55509" lon="6.91875">
        <ele>272.62588500977</ele>
        <time>2009-03-08T13:26:01Z</time>
      </trkpt>
      <trkpt lat="43.55496" lon="6.91889">
        <ele>269.73083496094</ele>
        <time>2009-03-08T13:26:06Z</time>
      </trkpt>
      <trkpt lat="43.55487" lon="6.91905">
        <ele>267.87246704102</ele>
        <time>2009-03-08T13:26:11Z</time>
      </trkpt>
      <trkpt lat="43.55486" lon="6.91908">
        <ele>267.60467529297</ele>
        <time>2009-03-08T13:26:14Z</time>
      </trkpt>
      <trkpt lat="43.55483" lon="6.91915">
        <ele>266.89056396484</ele>
        <time>2009-03-08T13:26:28Z</time>
      </trkpt>
      <trkpt lat="43.55482" lon="6.91934">
        <ele>264.96636962891</ele>
        <time>2009-03-08T13:26:35Z</time>
      </trkpt>
      <trkpt lat="43.55484" lon="6.91954">
        <ele>263.32623291016</ele>
        <time>2009-03-08T13:26:40Z</time>
      </trkpt>
      <trkpt lat="43.55486" lon="6.91968">
        <ele>262.28253173828</ele>
        <time>2009-03-08T13:26:44Z</time>
      </trkpt>
      <trkpt lat="43.55497" lon="6.91983">
        <ele>259.17385864258</ele>
        <time>2009-03-08T13:26:49Z</time>
      </trkpt>
      <trkpt lat="43.55497" lon="6.92">
        <ele>254.1930847168</ele>
        <time>2009-03-08T13:26:52Z</time>
      </trkpt>
      <trkpt lat="43.55497" lon="6.92027">
        <ele>244.72080993652</ele>
        <time>2009-03-08T13:26:56Z</time>
      </trkpt>
      <trkpt lat="43.55493" lon="6.92057">
        <ele>238.13035583496</ele>
        <time>2009-03-08T13:27:01Z</time>
      </trkpt>
      <trkpt lat="43.55492" lon="6.92072">
        <ele>234.09280395508</ele>
        <time>2009-03-08T13:27:05Z</time>
      </trkpt>
      <trkpt lat="43.55495" lon="6.92078">
        <ele>232.09655761719</ele>
        <time>2009-03-08T13:27:08Z</time>
      </trkpt>
      <trkpt lat="43.55496" lon="6.92085">
        <ele>230.23809814453</ele>
        <time>2009-03-08T13:27:11Z</time>
      </trkpt>
      <trkpt lat="43.55497" lon="6.92106">
        <ele>224.70373535156</ele>
        <time>2009-03-08T13:27:17Z</time>
      </trkpt>
      <trkpt lat="43.55496" lon="6.92128">
        <ele>220.62767028809</ele>
        <time>2009-03-08T13:27:21Z</time>
      </trkpt>
      <trkpt lat="43.55495" lon="6.92131">
        <ele>220.17488098144</ele>
        <time>2009-03-08T13:27:22Z</time>
      </trkpt>
      <trkpt lat="43.55495" lon="6.92136">
        <ele>219.36268615723</ele>
        <time>2009-03-08T13:27:25Z</time>
      </trkpt>
      <trkpt lat="43.55505" lon="6.92132">
        <ele>218.44451904297</ele>
        <time>2009-03-08T13:27:30Z</time>
      </trkpt>
      <trkpt lat="43.55518" lon="6.92127">
        <ele>217.27210998535</ele>
        <time>2009-03-08T13:27:36Z</time>
      </trkpt>
      <trkpt lat="43.55519" lon="6.92127">
        <ele>217.10514831543</ele>
        <time>2009-03-08T13:27:40Z</time>
      </trkpt>
      <trkpt lat="43.55521" lon="6.92125">
        <ele>217.03263854981</ele>
        <time>2009-03-08T13:27:46Z</time>
      </trkpt>
      <trkpt lat="43.55523" lon="6.92123">
        <ele>217.15296936035</ele>
        <time>2009-03-08T13:27:52Z</time>
      </trkpt>
      <trkpt lat="43.55524" lon="6.92121">
        <ele>217.31344604492</ele>
        <time>2009-03-08T13:27:58Z</time>
      </trkpt>
      <trkpt lat="43.55524" lon="6.92119">
        <ele>217.46844482422</ele>
        <time>2009-03-08T13:28:06Z</time>
      </trkpt>
      <trkpt lat="43.55524" lon="6.92117">
        <ele>217.77461242676</ele>
        <time>2009-03-08T13:28:15Z</time>
      </trkpt>
      <trkpt lat="43.55525" lon="6.92115">
        <ele>217.90068054199</ele>
        <time>2009-03-08T13:28:16Z</time>
      </trkpt>
      <trkpt lat="43.55536" lon="6.92082">
        <ele>223.90576171875</ele>
        <time>2009-03-08T13:28:24Z</time>
      </trkpt>
      <trkpt lat="43.55545" lon="6.9206">
        <ele>229.09385681152</ele>
        <time>2009-03-08T13:28:28Z</time>
      </trkpt>
      <trkpt lat="43.5555" lon="6.92055">
        <ele>229.99279785156</ele>
        <time>2009-03-08T13:28:29Z</time>
      </trkpt>
      <trkpt lat="43.55563" lon="6.92048">
        <ele>229.26052856445</ele>
        <time>2009-03-08T13:28:33Z</time>
      </trkpt>
      <trkpt lat="43.55565" lon="6.9205">
        <ele>228.59791564941</ele>
        <time>2009-03-08T13:28:34Z</time>
      </trkpt>
      <trkpt lat="43.55584" lon="6.92058">
        <ele>222.86659240723</ele>
        <time>2009-03-08T13:28:39Z</time>
      </trkpt>
      <trkpt lat="43.55597" lon="6.92059">
        <ele>220.22282409668</ele>
        <time>2009-03-08T13:28:41Z</time>
      </trkpt>
      <trkpt lat="43.55633" lon="6.92066">
        <ele>215.73329162598</ele>
        <time>2009-03-08T13:28:46Z</time>
      </trkpt>
      <trkpt lat="43.55643" lon="6.92081">
        <ele>213.00682067871</ele>
        <time>2009-03-08T13:28:50Z</time>
      </trkpt>
      <trkpt lat="43.55637" lon="6.92086">
        <ele>211.46922302246</ele>
        <time>2009-03-08T13:28:52Z</time>
      </trkpt>
      <trkpt lat="43.55628" lon="6.9209">
        <ele>210.59375</ele>
        <time>2009-03-08T13:28:54Z</time>
      </trkpt>
      <trkpt lat="43.5561" lon="6.92116">
        <ele>205.36151123047</ele>
        <time>2009-03-08T13:28:59Z</time>
      </trkpt>
      <trkpt lat="43.55613" lon="6.92148">
        <ele>199.99034118652</ele>
        <time>2009-03-08T13:29:03Z</time>
      </trkpt>
      <trkpt lat="43.55616" lon="6.92156">
        <ele>198.44497680664</ele>
        <time>2009-03-08T13:29:04Z</time>
      </trkpt>
      <trkpt lat="43.55624" lon="6.9218">
        <ele>194.5701751709</ele>
        <time>2009-03-08T13:29:07Z</time>
      </trkpt>
      <trkpt lat="43.55643" lon="6.92211">
        <ele>193.32878112793</ele>
        <time>2009-03-08T13:29:12Z</time>
      </trkpt>
      <trkpt lat="43.55644" lon="6.92217">
        <ele>193.12622070312</ele>
        <time>2009-03-08T13:29:15Z</time>
      </trkpt>
      <trkpt lat="43.55647" lon="6.92225">
        <ele>192.74230957031</ele>
        <time>2009-03-08T13:29:19Z</time>
      </trkpt>
      <trkpt lat="43.55649" lon="6.92228">
        <ele>192.61184692383</ele>
        <time>2009-03-08T13:29:29Z</time>
      </trkpt>
      <trkpt lat="43.55648" lon="6.92229">
        <ele>192.39898681641</ele>
        <time>2009-03-08T13:29:32Z</time>
      </trkpt>
      <trkpt lat="43.5565" lon="6.92243">
        <ele>190.63430786133</ele>
        <time>2009-03-08T13:29:36Z</time>
      </trkpt>
      <trkpt lat="43.55652" lon="6.92249">
        <ele>190.03692626953</ele>
        <time>2009-03-08T13:29:39Z</time>
      </trkpt>
      <trkpt lat="43.5566" lon="6.92267">
        <ele>189.04737854004</ele>
        <time>2009-03-08T13:29:44Z</time>
      </trkpt>
      <trkpt lat="43.55663" lon="6.92275">
        <ele>188.70072937012</ele>
        <time>2009-03-08T13:29:46Z</time>
      </trkpt>
      <trkpt lat="43.55659" lon="6.92289">
        <ele>186.49731445312</ele>
        <time>2009-03-08T13:29:50Z</time>
      </trkpt>
      <trkpt lat="43.55643" lon="6.92306">
        <ele>182.49632263184</ele>
        <time>2009-03-08T13:29:54Z</time>
      </trkpt>
      <trkpt lat="43.55639" lon="6.9231">
        <ele>181.43453979492</ele>
        <time>2009-03-08T13:29:55Z</time>
      </trkpt>
      <trkpt lat="43.5563" lon="6.92311">
        <ele>178.64378356934</ele>
        <time>2009-03-08T13:29:59Z</time>
      </trkpt>
      <trkpt lat="43.5563" lon="6.92299">
        <ele>179.595703125</ele>
        <time>2009-03-08T13:30:02Z</time>
      </trkpt>
      <trkpt lat="43.55621" lon="6.92259">
        <ele>181.40530395508</ele>
        <time>2009-03-08T13:30:08Z</time>
      </trkpt>
      <trkpt lat="43.55603" lon="6.92263">
        <ele>176.87451171875</ele>
        <time>2009-03-08T13:30:12Z</time>
      </trkpt>
      <trkpt lat="43.556" lon="6.92268">
        <ele>175.53550720215</ele>
        <time>2009-03-08T13:30:13Z</time>
      </trkpt>
      <trkpt lat="43.55587" lon="6.92284">
        <ele>171.00489807129</ele>
        <time>2009-03-08T13:30:16Z</time>
      </trkpt>
      <trkpt lat="43.55577" lon="6.92295">
        <ele>169.37397766113</ele>
        <time>2009-03-08T13:30:18Z</time>
      </trkpt>
      <trkpt lat="43.55567" lon="6.92311">
        <ele>167.65531921387</ele>
        <time>2009-03-08T13:30:21Z</time>
      </trkpt>
      <trkpt lat="43.55561" lon="6.9232">
        <ele>166.23472595215</ele>
        <time>2009-03-08T13:30:23Z</time>
      </trkpt>
      <trkpt lat="43.55549" lon="6.92333">
        <ele>164.37106323242</ele>
        <time>2009-03-08T13:30:28Z</time>
      </trkpt>
      <trkpt lat="43.55548" lon="6.92335">
        <ele>163.87738037109</ele>
        <time>2009-03-08T13:30:32Z</time>
      </trkpt>
      <trkpt lat="43.5554" lon="6.92346">
        <ele>161.99206542969</ele>
        <time>2009-03-08T13:30:36Z</time>
      </trkpt>
      <trkpt lat="43.5553" lon="6.92344">
        <ele>162.59086608887</ele>
        <time>2009-03-08T13:30:39Z</time>
      </trkpt>
      <trkpt lat="43.55512" lon="6.92339">
        <ele>166.55128479004</ele>
        <time>2009-03-08T13:30:44Z</time>
      </trkpt>
      <trkpt lat="43.55499" lon="6.92343">
        <ele>167.75677490234</ele>
        <time>2009-03-08T13:30:48Z</time>
      </trkpt>
      <trkpt lat="43.55483" lon="6.92345">
        <ele>170.09994506836</ele>
        <time>2009-03-08T13:30:52Z</time>
      </trkpt>
      <trkpt lat="43.55471" lon="6.92337">
        <ele>174.10322570801</ele>
        <time>2009-03-08T13:30:57Z</time>
      </trkpt>
      <trkpt lat="43.55467" lon="6.92335">
        <ele>174.82106018066</ele>
        <time>2009-03-08T13:30:58Z</time>
      </trkpt>
      <trkpt lat="43.55457" lon="6.9234">
        <ele>174.03269958496</ele>
        <time>2009-03-08T13:31:02Z</time>
      </trkpt>
      <trkpt lat="43.55453" lon="6.92343">
        <ele>173.51077270508</ele>
        <time>2009-03-08T13:31:04Z</time>
      </trkpt>
      <trkpt lat="43.55446" lon="6.92351">
        <ele>172.17161560059</ele>
        <time>2009-03-08T13:31:09Z</time>
      </trkpt>
      <trkpt lat="43.55441" lon="6.92362">
        <ele>170.19244384766</ele>
        <time>2009-03-08T13:31:17Z</time>
      </trkpt>
      <trkpt lat="43.5544" lon="6.92364">
        <ele>169.93838500977</ele>
        <time>2009-03-08T13:31:18Z</time>
      </trkpt>
      <trkpt lat="43.55437" lon="6.92369">
        <ele>169.47146606445</ele>
        <time>2009-03-08T13:31:25Z</time>
      </trkpt>
      <trkpt lat="43.55436" lon="6.92376">
        <ele>168.4826965332</ele>
        <time>2009-03-08T13:31:30Z</time>
      </trkpt>
      <trkpt lat="43.55433" lon="6.92391">
        <ele>166.26974487305</ele>
        <time>2009-03-08T13:31:35Z</time>
      </trkpt>
      <trkpt lat="43.55421" lon="6.92413">
        <ele>162.60649108887</ele>
        <time>2009-03-08T13:31:39Z</time>
      </trkpt>
      <trkpt lat="43.55405" lon="6.92434">
        <ele>160.30288696289</ele>
        <time>2009-03-08T13:31:42Z</time>
      </trkpt>
      <trkpt lat="43.55383" lon="6.92481">
        <ele>153.63005065918</ele>
        <time>2009-03-08T13:31:47Z</time>
      </trkpt>
      <trkpt lat="43.55372" lon="6.92518">
        <ele>149.41033935547</ele>
        <time>2009-03-08T13:31:51Z</time>
      </trkpt>
      <trkpt lat="43.55363" lon="6.92547">
        <ele>146.88322448731</ele>
        <time>2009-03-08T13:31:55Z</time>
      </trkpt>
      <trkpt lat="43.55344" lon="6.92579">
        <ele>143.87145996094</ele>
        <time>2009-03-08T13:32:00Z</time>
      </trkpt>
      <trkpt lat="43.55338" lon="6.92589">
        <ele>143.23684692383</ele>
        <time>2009-03-08T13:32:02Z</time>
      </trkpt>
      <trkpt lat="43.55328" lon="6.92616">
        <ele>141.560546875</ele>
        <time>2009-03-08T13:32:07Z</time>
      </trkpt>
      <trkpt lat="43.55317" lon="6.9263">
        <ele>140.96170043945</ele>
        <time>2009-03-08T13:32:12Z</time>
      </trkpt>
      <trkpt lat="43.55313" lon="6.9263">
        <ele>141.54585266113</ele>
        <time>2009-03-08T13:32:14Z</time>
      </trkpt>
      <trkpt lat="43.55315" lon="6.92637">
        <ele>140.17587280273</ele>
        <time>2009-03-08T13:32:18Z</time>
      </trkpt>
      <trkpt lat="43.55326" lon="6.92647">
        <ele>136.03684997559</ele>
        <time>2009-03-08T13:32:23Z</time>
      </trkpt>
      <trkpt lat="43.55331" lon="6.92651">
        <ele>133.98454284668</ele>
        <time>2009-03-08T13:32:27Z</time>
      </trkpt>
      <trkpt lat="43.5534" lon="6.92656">
        <ele>130.2647857666</ele>
        <time>2009-03-08T13:32:34Z</time>
      </trkpt>
      <trkpt lat="43.5534" lon="6.9266">
        <ele>129.36770629883</ele>
        <time>2009-03-08T13:32:40Z</time>
      </trkpt>
      <trkpt lat="43.55338" lon="6.9266">
        <ele>129.70692443848</ele>
        <time>2009-03-08T13:32:42Z</time>
      </trkpt>
      <trkpt lat="43.55334" lon="6.92669">
        <ele>129.47608947754</ele>
        <time>2009-03-08T13:32:48Z</time>
      </trkpt>
      <trkpt lat="43.55339" lon="6.92673">
        <ele>127.15135192871</ele>
        <time>2009-03-08T13:32:52Z</time>
      </trkpt>
      <trkpt lat="43.55338" lon="6.92678">
        <ele>126.77031707764</ele>
        <time>2009-03-08T13:32:55Z</time>
      </trkpt>
      <trkpt lat="43.55335" lon="6.92686">
        <ele>126.84408569336</ele>
        <time>2009-03-08T13:33:01Z</time>
      </trkpt>
      <trkpt lat="43.55336" lon="6.92689">
        <ele>126.20665740967</ele>
        <time>2009-03-08T13:33:04Z</time>
      </trkpt>
      <trkpt lat="43.55343" lon="6.9269">
        <ele>123.94136810303</ele>
        <time>2009-03-08T13:33:08Z</time>
      </trkpt>
      <trkpt lat="43.55345" lon="6.92696">
        <ele>122.79121398926</ele>
        <time>2009-03-08T13:33:12Z</time>
      </trkpt>
      <trkpt lat="43.55341" lon="6.92709">
        <ele>121.62219238281</ele>
        <time>2009-03-08T13:33:17Z</time>
      </trkpt>
      <trkpt lat="43.55335" lon="6.92717">
        <ele>120.95016479492</ele>
        <time>2009-03-08T13:33:21Z</time>
      </trkpt>
      <trkpt lat="43.55336" lon="6.92725">
        <ele>119.67194366455</ele>
        <time>2009-03-08T13:33:24Z</time>
      </trkpt>
      <trkpt lat="43.55346" lon="6.92732">
        <ele>118.552734375</ele>
        <time>2009-03-08T13:33:28Z</time>
      </trkpt>
      <trkpt lat="43.55357" lon="6.92731">
        <ele>117.69348907471</ele>
        <time>2009-03-08T13:33:33Z</time>
      </trkpt>
      <trkpt lat="43.55358" lon="6.92733">
        <ele>117.49044799805</ele>
        <time>2009-03-08T13:33:42Z</time>
      </trkpt>
      <trkpt lat="43.55358" lon="6.92733">
        <ele>117.46445465088</ele>
        <time>2009-03-08T13:33:43Z</time>
      </trkpt>
      <trkpt lat="43.55364" lon="6.92751">
        <ele>114.38614654541</ele>
        <time>2009-03-08T13:33:50Z</time>
      </trkpt>
      <trkpt lat="43.5537" lon="6.92767">
        <ele>110.28687286377</ele>
        <time>2009-03-08T13:33:56Z</time>
      </trkpt>
      <trkpt lat="43.5537" lon="6.9277">
        <ele>109.98303222656</ele>
        <time>2009-03-08T13:33:57Z</time>
      </trkpt>
      <trkpt lat="43.55369" lon="6.92779">
        <ele>110.51141357422</ele>
        <time>2009-03-08T13:34:02Z</time>
      </trkpt>
      <trkpt lat="43.5537" lon="6.92773">
        <ele>110.07229614258</ele>
        <time>2009-03-08T13:34:19Z</time>
      </trkpt>
      <trkpt lat="43.5537" lon="6.92772">
        <ele>110.33665466309</ele>
        <time>2009-03-08T13:34:32Z</time>
      </trkpt>
      <trkpt lat="43.55369" lon="6.92772">
        <ele>110.57011413574</ele>
        <time>2009-03-08T13:34:39Z</time>
      </trkpt>
      <trkpt lat="43.55368" lon="6.92771">
        <ele>111.01471710205</ele>
        <time>2009-03-08T13:34:52Z</time>
      </trkpt>
      <trkpt lat="43.55369" lon="6.92771">
        <ele>110.79670715332</ele>
        <time>2009-03-08T13:34:58Z</time>
      </trkpt>
      <trkpt lat="43.5537" lon="6.92773">
        <ele>110.07401275635</ele>
        <time>2009-03-08T13:35:03Z</time>
      </trkpt>
      <trkpt lat="43.55381" lon="6.92792">
        <ele>102.68859863281</ele>
        <time>2009-03-08T13:35:08Z</time>
      </trkpt>
      <trkpt lat="43.55384" lon="6.92814">
        <ele>99.653564453125</ele>
        <time>2009-03-08T13:35:11Z</time>
      </trkpt>
      <trkpt lat="43.55383" lon="6.92856">
        <ele>98.895790100098</ele>
        <time>2009-03-08T13:35:16Z</time>
      </trkpt>
      <trkpt lat="43.5539" lon="6.92911">
        <ele>92.053741455078</ele>
        <time>2009-03-08T13:35:22Z</time>
      </trkpt>
      <trkpt lat="43.55387" lon="6.92954">
        <ele>91.099769592285</ele>
        <time>2009-03-08T13:35:26Z</time>
      </trkpt>
      <trkpt lat="43.55382" lon="6.92982">
        <ele>92.987808227539</ele>
        <time>2009-03-08T13:35:30Z</time>
      </trkpt>
      <trkpt lat="43.55383" lon="6.92981">
        <ele>92.328628540039</ele>
        <time>2009-03-08T13:35:32Z</time>
      </trkpt>
      <trkpt lat="43.55385" lon="6.92987">
        <ele>90.728744506836</ele>
        <time>2009-03-08T13:35:37Z</time>
      </trkpt>
      <trkpt lat="43.55385" lon="6.9299">
        <ele>90.629180908203</ele>
        <time>2009-03-08T13:35:38Z</time>
      </trkpt>
      <trkpt lat="43.55385" lon="6.93">
        <ele>90.480888366699</ele>
        <time>2009-03-08T13:35:41Z</time>
      </trkpt>
      <trkpt lat="43.55385" lon="6.93008">
        <ele>89.93643951416</ele>
        <time>2009-03-08T13:35:43Z</time>
      </trkpt>
      <trkpt lat="43.55384" lon="6.93024">
        <ele>90.143547058105</ele>
        <time>2009-03-08T13:35:47Z</time>
      </trkpt>
      <trkpt lat="43.55385" lon="6.93045">
        <ele>88.216217041016</ele>
        <time>2009-03-08T13:35:52Z</time>
      </trkpt>
      <trkpt lat="43.55382" lon="6.93067">
        <ele>88.61580657959</ele>
        <time>2009-03-08T13:35:56Z</time>
      </trkpt>
      <trkpt lat="43.55379" lon="6.93083">
        <ele>89.670532226562</ele>
        <time>2009-03-08T13:35:59Z</time>
      </trkpt>
      <trkpt lat="43.5538" lon="6.93107">
        <ele>86.99821472168</ele>
        <time>2009-03-08T13:36:05Z</time>
      </trkpt>
      <trkpt lat="43.55381" lon="6.93126">
        <ele>84.39501953125</ele>
        <time>2009-03-08T13:36:09Z</time>
      </trkpt>
      <trkpt lat="43.55392" lon="6.93135">
        <ele>80.590103149414</ele>
        <time>2009-03-08T13:36:13Z</time>
      </trkpt>
      <trkpt lat="43.554" lon="6.93139">
        <ele>78.648887634277</ele>
        <time>2009-03-08T13:36:16Z</time>
      </trkpt>
      <trkpt lat="43.55404" lon="6.93149">
        <ele>76.915420532227</ele>
        <time>2009-03-08T13:36:20Z</time>
      </trkpt>
      <trkpt lat="43.55411" lon="6.93153">
        <ele>74.843070983887</ele>
        <time>2009-03-08T13:36:22Z</time>
      </trkpt>
      <trkpt lat="43.55428" lon="6.93165">
        <ele>67.290710449219</ele>
        <time>2009-03-08T13:36:27Z</time>
      </trkpt>
      <trkpt lat="43.55428" lon="6.9318">
        <ele>65.212112426758</ele>
        <time>2009-03-08T13:36:31Z</time>
      </trkpt>
      <trkpt lat="43.55426" lon="6.9319">
        <ele>64.434852600098</ele>
        <time>2009-03-08T13:36:35Z</time>
      </trkpt>
      <trkpt lat="43.55442" lon="6.93203">
        <ele>57.742416381836</ele>
        <time>2009-03-08T13:36:39Z</time>
      </trkpt>
      <trkpt lat="43.5545" lon="6.93209">
        <ele>55.340698242188</ele>
        <time>2009-03-08T13:36:43Z</time>
      </trkpt>
      <trkpt lat="43.55449" lon="6.9322">
        <ele>54.52530670166</ele>
        <time>2009-03-08T13:36:47Z</time>
      </trkpt>
      <trkpt lat="43.55449" lon="6.93233">
        <ele>52.43733215332</ele>
        <time>2009-03-08T13:36:51Z</time>
      </trkpt>
      <trkpt lat="43.55449" lon="6.93247">
        <ele>49.939922332764</ele>
        <time>2009-03-08T13:36:55Z</time>
      </trkpt>
      <trkpt lat="43.55447" lon="6.93262">
        <ele>47.847473144531</ele>
        <time>2009-03-08T13:37:00Z</time>
      </trkpt>
      <trkpt lat="43.55453" lon="6.93267">
        <ele>46.329986572266</ele>
        <time>2009-03-08T13:37:03Z</time>
      </trkpt>
      <trkpt lat="43.55453" lon="6.93274">
        <ele>45.265686035156</ele>
        <time>2009-03-08T13:37:06Z</time>
      </trkpt>
      <trkpt lat="43.55452" lon="6.93276">
        <ele>45.231353759766</ele>
        <time>2009-03-08T13:37:07Z</time>
      </trkpt>
      <trkpt lat="43.55449" lon="6.93277">
        <ele>45.4716796875</ele>
        <time>2009-03-08T13:37:10Z</time>
      </trkpt>
      <trkpt lat="43.5545" lon="6.93286">
        <ele>44.375137329102</ele>
        <time>2009-03-08T13:37:15Z</time>
      </trkpt>
      <trkpt lat="43.55456" lon="6.93296">
        <ele>42.378715515137</ele>
        <time>2009-03-08T13:37:20Z</time>
      </trkpt>
      <trkpt lat="43.5546" lon="6.93298">
        <ele>41.48779296875</ele>
        <time>2009-03-08T13:37:22Z</time>
      </trkpt>
      <trkpt lat="43.55477" lon="6.93293">
        <ele>39.804107666016</ele>
        <time>2009-03-08T13:37:27Z</time>
      </trkpt>
      <trkpt lat="43.55489" lon="6.93279">
        <ele>40.030700683594</ele>
        <time>2009-03-08T13:37:30Z</time>
      </trkpt>
      <trkpt lat="43.555" lon="6.93277">
        <ele>39.231021881104</ele>
        <time>2009-03-08T13:37:33Z</time>
      </trkpt>
      <trkpt lat="43.55507" lon="6.93282">
        <ele>38.845752716064</ele>
        <time>2009-03-08T13:37:37Z</time>
      </trkpt>
      <trkpt lat="43.55505" lon="6.93263">
        <ele>41.889572143555</ele>
        <time>2009-03-08T13:37:41Z</time>
      </trkpt>
      <trkpt lat="43.55504" lon="6.93258">
        <ele>42.841197967529</ele>
        <time>2009-03-08T13:37:42Z</time>
      </trkpt>
      <trkpt lat="43.555" lon="6.93232">
        <ele>46.588218688965</ele>
        <time>2009-03-08T13:37:47Z</time>
      </trkpt>
      <trkpt lat="43.55501" lon="6.93206">
        <ele>49.906169891357</ele>
        <time>2009-03-08T13:37:52Z</time>
      </trkpt>
      <trkpt lat="43.55505" lon="6.93185">
        <ele>53.407272338867</ele>
        <time>2009-03-08T13:37:56Z</time>
      </trkpt>
      <trkpt lat="43.55505" lon="6.93166">
        <ele>56.759296417236</ele>
        <time>2009-03-08T13:38:00Z</time>
      </trkpt>
      <trkpt lat="43.55499" lon="6.93144">
        <ele>58.538333892822</ele>
        <time>2009-03-08T13:38:05Z</time>
      </trkpt>
      <trkpt lat="43.55495" lon="6.93131">
        <ele>60.283416748047</ele>
        <time>2009-03-08T13:38:09Z</time>
      </trkpt>
      <trkpt lat="43.55494" lon="6.93128">
        <ele>60.798400878906</ele>
        <time>2009-03-08T13:38:10Z</time>
      </trkpt>
      <trkpt lat="43.55492" lon="6.93107">
        <ele>63.912044525146</ele>
        <time>2009-03-08T13:38:16Z</time>
      </trkpt>
      <trkpt lat="43.55491" lon="6.93091">
        <ele>66.514762878418</ele>
        <time>2009-03-08T13:38:21Z</time>
      </trkpt>
      <trkpt lat="43.5549" lon="6.93084">
        <ele>67.535133361816</ele>
        <time>2009-03-08T13:38:27Z</time>
      </trkpt>
      <trkpt lat="43.55491" lon="6.93079">
        <ele>67.990753173828</ele>
        <time>2009-03-08T13:38:37Z</time>
      </trkpt>
      <trkpt lat="43.55487" lon="6.93081">
        <ele>67.698928833008</ele>
        <time>2009-03-08T13:38:46Z</time>
      </trkpt>
      <trkpt lat="43.55487" lon="6.93082">
        <ele>67.619964599609</ele>
        <time>2009-03-08T13:38:50Z</time>
      </trkpt>
      <trkpt lat="43.55488" lon="6.93082">
        <ele>67.633697509766</ele>
        <time>2009-03-08T13:38:56Z</time>
      </trkpt>
      <trkpt lat="43.55488" lon="6.93079">
        <ele>67.91178894043</ele>
        <time>2009-03-08T13:39:00Z</time>
      </trkpt>
      <trkpt lat="43.55488" lon="6.93077">
        <ele>67.987319946289</ele>
        <time>2009-03-08T13:39:02Z</time>
      </trkpt>
      <trkpt lat="43.55489" lon="6.93071">
        <ele>68.502304077148</ele>
        <time>2009-03-08T13:39:09Z</time>
      </trkpt>
      <trkpt lat="43.55487" lon="6.93072">
        <ele>68.330642700195</ele>
        <time>2009-03-08T13:39:13Z</time>
      </trkpt>
      <trkpt lat="43.55487" lon="6.93068">
        <ele>68.632766723633</ele>
        <time>2009-03-08T13:39:17Z</time>
      </trkpt>
      <trkpt lat="43.55485" lon="6.93062">
        <ele>69.027587890625</ele>
        <time>2009-03-08T13:39:25Z</time>
      </trkpt>
      <trkpt lat="43.5549" lon="6.93064">
        <ele>69.041320800781</ele>
        <time>2009-03-08T13:39:44Z</time>
      </trkpt>
      <trkpt lat="43.55491" lon="6.93065">
        <ele>69.000122070312</ele>
        <time>2009-03-08T13:39:46Z</time>
      </trkpt>
      <trkpt lat="43.55495" lon="6.93073">
        <ele>68.553802490234</ele>
        <time>2009-03-08T13:39:50Z</time>
      </trkpt>
      <trkpt lat="43.55498" lon="6.93091">
        <ele>66.520988464355</ele>
        <time>2009-03-08T13:39:56Z</time>
      </trkpt>
      <trkpt lat="43.55504" lon="6.93112">
        <ele>63.724285125732</ele>
        <time>2009-03-08T13:40:02Z</time>
      </trkpt>
      <trkpt lat="43.55506" lon="6.93131">
        <ele>61.263706207275</ele>
        <time>2009-03-08T13:40:06Z</time>
      </trkpt>
      <trkpt lat="43.55513" lon="6.93148">
        <ele>60.14986038208</ele>
        <time>2009-03-08T13:40:10Z</time>
      </trkpt>
      <trkpt lat="43.55526" lon="6.93158">
        <ele>60.920749664307</ele>
        <time>2009-03-08T13:40:14Z</time>
      </trkpt>
      <trkpt lat="43.55528" lon="6.93159">
        <ele>61.199981689453</ele>
        <time>2009-03-08T13:40:18Z</time>
      </trkpt>
      <trkpt lat="43.55531" lon="6.93162">
        <ele>61.213714599609</ele>
        <time>2009-03-08T13:40:24Z</time>
      </trkpt>
      <trkpt lat="43.55531" lon="6.93169">
        <ele>60.240497589111</ele>
        <time>2009-03-08T13:40:29Z</time>
      </trkpt>
      <trkpt lat="43.55531" lon="6.9318">
        <ele>58.289817810059</ele>
        <time>2009-03-08T13:40:33Z</time>
      </trkpt>
      <trkpt lat="43.55531" lon="6.93187">
        <ele>56.93803024292</ele>
        <time>2009-03-08T13:40:39Z</time>
      </trkpt>
      <trkpt lat="43.55531" lon="6.93189">
        <ele>56.560585021973</ele>
        <time>2009-03-08T13:40:44Z</time>
      </trkpt>
      <trkpt lat="43.55532" lon="6.93189">
        <ele>56.729721069336</ele>
        <time>2009-03-08T13:40:47Z</time>
      </trkpt>
      <trkpt lat="43.55532" lon="6.93196">
        <ele>55.588989257812</ele>
        <time>2009-03-08T13:40:53Z</time>
      </trkpt>
      <trkpt lat="43.55532" lon="6.93211">
        <ele>53.384857177734</ele>
        <time>2009-03-08T13:40:59Z</time>
      </trkpt>
      <trkpt lat="43.55538" lon="6.93228">
        <ele>51.77906036377</ele>
        <time>2009-03-08T13:41:04Z</time>
      </trkpt>
      <trkpt lat="43.55543" lon="6.93242">
        <ele>49.746963500977</ele>
        <time>2009-03-08T13:41:09Z</time>
      </trkpt>
      <trkpt lat="43.55554" lon="6.93264">
        <ele>46.662322998047</ele>
        <time>2009-03-08T13:41:14Z</time>
      </trkpt>
      <trkpt lat="43.55564" lon="6.93282">
        <ele>44.606567382812</ele>
        <time>2009-03-08T13:41:18Z</time>
      </trkpt>
      <trkpt lat="43.55575" lon="6.93302">
        <ele>43.377471923828</ele>
        <time>2009-03-08T13:41:22Z</time>
      </trkpt>
      <trkpt lat="43.55578" lon="6.93325">
        <ele>40.023323059082</ele>
        <time>2009-03-08T13:41:26Z</time>
      </trkpt>
      <trkpt lat="43.55569" lon="6.93355">
        <ele>35.192470550537</ele>
        <time>2009-03-08T13:41:31Z</time>
      </trkpt>
      <trkpt lat="43.55558" lon="6.93375">
        <ele>32.233505249023</ele>
        <time>2009-03-08T13:41:34Z</time>
      </trkpt>
      <trkpt lat="43.55557" lon="6.93381">
        <ele>31.715087890625</ele>
        <time>2009-03-08T13:41:35Z</time>
      </trkpt>
      <trkpt lat="43.55558" lon="6.93401">
        <ele>29.915992736816</ele>
        <time>2009-03-08T13:41:40Z</time>
      </trkpt>
      <trkpt lat="43.55551" lon="6.9342">
        <ele>26.814153671265</ele>
        <time>2009-03-08T13:41:44Z</time>
      </trkpt>
      <trkpt lat="43.5555" lon="6.93438">
        <ele>24.159074783325</ele>
        <time>2009-03-08T13:41:47Z</time>
      </trkpt>
      <trkpt lat="43.55555" lon="6.93447">
        <ele>23.79243850708</ele>
        <time>2009-03-08T13:41:49Z</time>
      </trkpt>
      <trkpt lat="43.55567" lon="6.93477">
        <ele>23.247215270996</ele>
        <time>2009-03-08T13:41:55Z</time>
      </trkpt>
      <trkpt lat="43.55582" lon="6.93503">
        <ele>22.559061050415</ele>
        <time>2009-03-08T13:42:02Z</time>
      </trkpt>
      <trkpt lat="43.55595" lon="6.93505">
        <ele>24.993743896484</ele>
        <time>2009-03-08T13:42:06Z</time>
      </trkpt>
      <trkpt lat="43.5561" lon="6.93509">
        <ele>27.656211853027</ele>
        <time>2009-03-08T13:42:11Z</time>
      </trkpt>
      <trkpt lat="43.55616" lon="6.9352">
        <ele>28.315835952759</ele>
        <time>2009-03-08T13:42:14Z</time>
      </trkpt>
      <trkpt lat="43.55604" lon="6.93541">
        <ele>23.725065231323</ele>
        <time>2009-03-08T13:42:18Z</time>
      </trkpt>
      <trkpt lat="43.55585" lon="6.93575">
        <ele>20.098022460938</ele>
        <time>2009-03-08T13:42:22Z</time>
      </trkpt>
      <trkpt lat="43.55577" lon="6.93596">
        <ele>19.350708007812</ele>
        <time>2009-03-08T13:42:24Z</time>
      </trkpt>
      <trkpt lat="43.55572" lon="6.93619">
        <ele>18.596618652344</ele>
        <time>2009-03-08T13:42:26Z</time>
      </trkpt>
      <trkpt lat="43.55564" lon="6.93649">
        <ele>17.940582275391</ele>
        <time>2009-03-08T13:42:29Z</time>
      </trkpt>
      <trkpt lat="43.55541" lon="6.93681">
        <ele>17</ele>
        <time>2009-03-08T13:42:33Z</time>
      </trkpt>
      <trkpt lat="43.55526" lon="6.93694">
        <ele>16.949277877808</ele>
        <time>2009-03-08T13:42:35Z</time>
      </trkpt>
      <trkpt lat="43.55505" lon="6.93731">
        <ele>15.758313179016</ele>
        <time>2009-03-08T13:42:39Z</time>
      </trkpt>
      <trkpt lat="43.5549" lon="6.93772">
        <ele>15</ele>
        <time>2009-03-08T13:42:43Z</time>
      </trkpt>
      <trkpt lat="43.55496" lon="6.93799">
        <ele>15</ele>
        <time>2009-03-08T13:42:47Z</time>
      </trkpt>
      <trkpt lat="43.55501" lon="6.93801">
        <ele>15</ele>
        <time>2009-03-08T13:42:48Z</time>
      </trkpt>
      <trkpt lat="43.55525" lon="6.93809">
        <ele>14.859382629394</ele>
        <time>2009-03-08T13:42:52Z</time>
      </trkpt>
      <trkpt lat="43.55537" lon="6.93815">
        <ele>14.770021438599</ele>
        <time>2009-03-08T13:42:54Z</time>
      </trkpt>
      <trkpt lat="43.55553" lon="6.93841">
        <ele>14.664891242981</ele>
        <time>2009-03-08T13:42:58Z</time>
      </trkpt>
      <trkpt lat="43.55548" lon="6.93862">
        <ele>13.994545936584</ele>
        <time>2009-03-08T13:43:01Z</time>
      </trkpt>
      <trkpt lat="43.55534" lon="6.93876">
        <ele>13.595532417297</ele>
        <time>2009-03-08T13:43:04Z</time>
      </trkpt>
      <trkpt lat="43.55517" lon="6.93874">
        <ele>13.528221130371</ele>
        <time>2009-03-08T13:43:07Z</time>
      </trkpt>
      <trkpt lat="43.55494" lon="6.93873">
        <ele>13.576286315918</ele>
        <time>2009-03-08T13:43:11Z</time>
      </trkpt>
      <trkpt lat="43.55484" lon="6.93883">
        <ele>13.205497741699</ele>
        <time>2009-03-08T13:43:14Z</time>
      </trkpt>
      <trkpt lat="43.55496" lon="6.9389">
        <ele>13</ele>
        <time>2009-03-08T13:43:17Z</time>
      </trkpt>
      <trkpt lat="43.55524" lon="6.9391">
        <ele>13</ele>
        <time>2009-03-08T13:43:25Z</time>
      </trkpt>
      <trkpt lat="43.55532" lon="6.93912">
        <ele>13.025554656982</ele>
        <time>2009-03-08T13:43:27Z</time>
      </trkpt>
      <trkpt lat="43.55551" lon="6.93933">
        <ele>13</ele>
        <time>2009-03-08T13:43:33Z</time>
      </trkpt>
      <trkpt lat="43.55555" lon="6.93957">
        <ele>12.990568161011</ele>
        <time>2009-03-08T13:43:37Z</time>
      </trkpt>
      <trkpt lat="43.55555" lon="6.93976">
        <ele>12.856569290161</ele>
        <time>2009-03-08T13:43:40Z</time>
      </trkpt>
      <trkpt lat="43.55554" lon="6.94014">
        <ele>11.975095748901</ele>
        <time>2009-03-08T13:43:47Z</time>
      </trkpt>
      <trkpt lat="43.55552" lon="6.94037">
        <ele>11.565168380737</ele>
        <time>2009-03-08T13:43:52Z</time>
      </trkpt>
      <trkpt lat="43.55552" lon="6.9404">
        <ele>11.487751960754</ele>
        <time>2009-03-08T13:43:55Z</time>
      </trkpt>
      <trkpt lat="43.55554" lon="6.94041">
        <ele>11.497192382812</ele>
        <time>2009-03-08T13:44:08Z</time>
      </trkpt>
      <trkpt lat="43.55555" lon="6.94041">
        <ele>11.510643005371</ele>
        <time>2009-03-08T13:44:16Z</time>
      </trkpt>
      <trkpt lat="43.55556" lon="6.9404">
        <ele>11.569363594055</ele>
        <time>2009-03-08T13:44:27Z</time>
      </trkpt>
      <trkpt lat="43.55556" lon="6.94041">
        <ele>11.544478416443</ele>
        <time>2009-03-08T13:44:35Z</time>
      </trkpt>
      <trkpt lat="43.55554" lon="6.94043">
        <ele>11.439260482788</ele>
        <time>2009-03-08T13:44:49Z</time>
      </trkpt>
      <trkpt lat="43.55555" lon="6.9404">
        <ele>11.562100410461</ele>
        <time>2009-03-08T13:45:10Z</time>
      </trkpt>
      <trkpt lat="43.55555" lon="6.94039">
        <ele>11.568075180054</ele>
        <time>2009-03-08T13:45:16Z</time>
      </trkpt>
      <trkpt lat="43.55553" lon="6.9406">
        <ele>11</ele>
        <time>2009-03-08T13:45:21Z</time>
      </trkpt>
      <trkpt lat="43.55544" lon="6.94095">
        <ele>10.575149536133</ele>
        <time>2009-03-08T13:45:27Z</time>
      </trkpt>
      <trkpt lat="43.5554" lon="6.941">
        <ele>10.391471862793</ele>
        <time>2009-03-08T13:45:28Z</time>
      </trkpt>
      <trkpt lat="43.55532" lon="6.94137">
        <ele>10</ele>
        <time>2009-03-08T13:45:33Z</time>
      </trkpt>
      <trkpt lat="43.55536" lon="6.94151">
        <ele>9.6761274337769</ele>
        <time>2009-03-08T13:45:36Z</time>
      </trkpt>
      <trkpt lat="43.55534" lon="6.94158">
        <ele>9.4674892425537</ele>
        <time>2009-03-08T13:45:37Z</time>
      </trkpt>
      <trkpt lat="43.5553" lon="6.9419">
        <ele>9.0122413635254</ele>
        <time>2009-03-08T13:45:41Z</time>
      </trkpt>
      <trkpt lat="43.55524" lon="6.94237">
        <ele>8</ele>
        <time>2009-03-08T13:45:47Z</time>
      </trkpt>
      <trkpt lat="43.55519" lon="6.9427">
        <ele>7.297492980957</ele>
        <time>2009-03-08T13:45:51Z</time>
      </trkpt>
      <trkpt lat="43.55509" lon="6.94331">
        <ele>7</ele>
        <time>2009-03-08T13:45:59Z</time>
      </trkpt>
      <trkpt lat="43.55502" lon="6.94359">
        <ele>6.0719757080078</ele>
        <time>2009-03-08T13:46:04Z</time>
      </trkpt>
      <trkpt lat="43.5549" lon="6.94377">
        <ele>6</ele>
        <time>2009-03-08T13:46:09Z</time>
      </trkpt>
      <trkpt lat="43.55471" lon="6.94375">
        <ele>5.9855751991272</ele>
        <time>2009-03-08T13:46:15Z</time>
      </trkpt>
      <trkpt lat="43.55452" lon="6.9437">
        <ele>5.7703351974487</ele>
        <time>2009-03-08T13:46:21Z</time>
      </trkpt>
      <trkpt lat="43.55426" lon="6.94363">
        <ele>5.9140472412109</ele>
        <time>2009-03-08T13:46:27Z</time>
      </trkpt>
      <trkpt lat="43.55413" lon="6.94357">
        <ele>5.8882789611816</ele>
        <time>2009-03-08T13:46:31Z</time>
      </trkpt>
      <trkpt lat="43.55402" lon="6.94349">
        <ele>5.6924004554748</ele>
        <time>2009-03-08T13:46:35Z</time>
      </trkpt>
      <trkpt lat="43.55376" lon="6.94343">
        <ele>5.6470413208008</ele>
        <time>2009-03-08T13:46:42Z</time>
      </trkpt>
      <trkpt lat="43.55354" lon="6.94338">
        <ele>5.5909957885742</ele>
        <time>2009-03-08T13:46:47Z</time>
      </trkpt>
      <trkpt lat="43.55328" lon="6.94335">
        <ele>4.935432434082</ele>
        <time>2009-03-08T13:46:53Z</time>
      </trkpt>
      <trkpt lat="43.55305" lon="6.94334">
        <ele>4.9586005210877</ele>
        <time>2009-03-08T13:46:58Z</time>
      </trkpt>
      <trkpt lat="43.55297" lon="6.94335">
        <ele>4.6386270523071</ele>
        <time>2009-03-08T13:47:00Z</time>
      </trkpt>
      <trkpt lat="43.55276" lon="6.94329">
        <ele>4.155158996582</ele>
        <time>2009-03-08T13:47:05Z</time>
      </trkpt>
      <trkpt lat="43.55241" lon="6.9432">
        <ele>4.4967651367188</ele>
        <time>2009-03-08T13:47:13Z</time>
      </trkpt>
      <trkpt lat="43.55236" lon="6.94318">
        <ele>4.5431137084961</ele>
        <time>2009-03-08T13:47:14Z</time>
      </trkpt>
      <trkpt lat="43.55223" lon="6.94317">
        <ele>4.5808792114258</ele>
        <time>2009-03-08T13:47:17Z</time>
      </trkpt>
      <trkpt lat="43.55191" lon="6.94309">
        <ele>4</ele>
        <time>2009-03-08T13:47:24Z</time>
      </trkpt>
      <trkpt lat="43.55177" lon="6.94307">
        <ele>4</ele>
        <time>2009-03-08T13:47:27Z</time>
      </trkpt>
      <trkpt lat="43.55148" lon="6.94299">
        <ele>4.2400588989258</ele>
        <time>2009-03-08T13:47:34Z</time>
      </trkpt>
      <trkpt lat="43.55123" lon="6.94293">
        <ele>4.4580688476562</ele>
        <time>2009-03-08T13:47:41Z</time>
      </trkpt>
      <trkpt lat="43.55117" lon="6.94286">
        <ele>4.689811706543</ele>
        <time>2009-03-08T13:47:45Z</time>
      </trkpt>
      <trkpt lat="43.55114" lon="6.94287">
        <ele>4.6760787963867</ele>
        <time>2009-03-08T13:47:48Z</time>
      </trkpt>
      <trkpt lat="43.55111" lon="6.94296">
        <ele>4.3327612876892</ele>
        <time>2009-03-08T13:47:55Z</time>
      </trkpt>
      <trkpt lat="43.55108" lon="6.94306">
        <ele>4</ele>
        <time>2009-03-08T13:48:03Z</time>
      </trkpt>
      <trkpt lat="43.55104" lon="6.94318">
        <ele>4</ele>
        <time>2009-03-08T13:48:11Z</time>
      </trkpt>
      <trkpt lat="43.55101" lon="6.94337">
        <ele>4</ele>
        <time>2009-03-08T13:48:16Z</time>
      </trkpt>
      <trkpt lat="43.55101" lon="6.94341">
        <ele>4</ele>
        <time>2009-03-08T13:48:17Z</time>
      </trkpt>
      <trkpt lat="43.55091" lon="6.94342">
        <ele>4</ele>
        <time>2009-03-08T13:48:21Z</time>
      </trkpt>
      <trkpt lat="43.5507" lon="6.94335">
        <ele>4</ele>
        <time>2009-03-08T13:48:27Z</time>
      </trkpt>
      <trkpt lat="43.55053" lon="6.94331">
        <ele>4</ele>
        <time>2009-03-08T13:48:32Z</time>
      </trkpt>
      <trkpt lat="43.5503" lon="6.94327">
        <ele>4</ele>
        <time>2009-03-08T13:48:38Z</time>
      </trkpt>
      <trkpt lat="43.55008" lon="6.94326">
        <ele>4</ele>
        <time>2009-03-08T13:48:44Z</time>
      </trkpt>
      <trkpt lat="43.54992" lon="6.94332">
        <ele>4</ele>
        <time>2009-03-08T13:48:49Z</time>
      </trkpt>
      <trkpt lat="43.54984" lon="6.94336">
        <ele>4</ele>
        <time>2009-03-08T13:48:51Z</time>
      </trkpt>
      <trkpt lat="43.54973" lon="6.94344">
        <ele>4</ele>
        <time>2009-03-08T13:48:55Z</time>
      </trkpt>
      <trkpt lat="43.54966" lon="6.94347">
        <ele>4</ele>
        <time>2009-03-08T13:49:00Z</time>
      </trkpt>
      <trkpt lat="43.54964" lon="6.94348">
        <ele>4</ele>
        <time>2009-03-08T13:49:06Z</time>
      </trkpt>
      <trkpt lat="43.54963" lon="6.94348">
        <ele>4</ele>
        <time>2009-03-08T13:49:32Z</time>
      </trkpt>
      <trkpt lat="43.54956" lon="6.94349">
        <ele>4</ele>
        <time>2009-03-08T13:49:41Z</time>
      </trkpt>
      <trkpt lat="43.54947" lon="6.94348">
        <ele>4</ele>
        <time>2009-03-08T13:49:46Z</time>
      </trkpt>
      <trkpt lat="43.54932" lon="6.94353">
        <ele>4</ele>
        <time>2009-03-08T13:49:50Z</time>
      </trkpt>
      <trkpt lat="43.54919" lon="6.94362">
        <ele>4</ele>
        <time>2009-03-08T13:49:55Z</time>
      </trkpt>
      <trkpt lat="43.54906" lon="6.9436">
        <ele>3.9876184463501</ele>
        <time>2009-03-08T13:50:00Z</time>
      </trkpt>
      <trkpt lat="43.54898" lon="6.9436">
        <ele>3.9660742282867</ele>
        <time>2009-03-08T13:50:03Z</time>
      </trkpt>
      <trkpt lat="43.54866" lon="6.94354">
        <ele>3.7529296875</ele>
        <time>2009-03-08T13:50:11Z</time>
      </trkpt>
      <trkpt lat="43.54844" lon="6.94348">
        <ele>3.2074522972107</ele>
        <time>2009-03-08T13:50:17Z</time>
      </trkpt>
      <trkpt lat="43.54823" lon="6.94342">
        <ele>3</ele>
        <time>2009-03-08T13:50:23Z</time>
      </trkpt>
      <trkpt lat="43.54805" lon="6.9433">
        <ele>3</ele>
        <time>2009-03-08T13:50:29Z</time>
      </trkpt>
      <trkpt lat="43.54776" lon="6.94308">
        <ele>3.0719418525696</ele>
        <time>2009-03-08T13:50:37Z</time>
      </trkpt>
      <trkpt lat="43.54762" lon="6.94306">
        <ele>3.570574760437</ele>
        <time>2009-03-08T13:50:41Z</time>
      </trkpt>
      <trkpt lat="43.54751" lon="6.94314">
        <ele>3.6635901927948</ele>
        <time>2009-03-08T13:50:44Z</time>
      </trkpt>
      <trkpt lat="43.54734" lon="6.94346">
        <ele>3</ele>
        <time>2009-03-08T13:50:50Z</time>
      </trkpt>
      <trkpt lat="43.54727" lon="6.94352">
        <ele>3</ele>
        <time>2009-03-08T13:50:53Z</time>
      </trkpt>
      <trkpt lat="43.54721" lon="6.94353">
        <ele>3.0119643211365</ele>
        <time>2009-03-08T13:50:55Z</time>
      </trkpt>
      <trkpt lat="43.547" lon="6.94364">
        <ele>3</ele>
        <time>2009-03-08T13:51:01Z</time>
      </trkpt>
      <trkpt lat="43.54679" lon="6.94382">
        <ele>3</ele>
        <time>2009-03-08T13:51:08Z</time>
      </trkpt>
      <trkpt lat="43.54665" lon="6.94394">
        <ele>3</ele>
        <time>2009-03-08T13:51:13Z</time>
      </trkpt>
      <trkpt lat="43.54652" lon="6.94407">
        <ele>3</ele>
        <time>2009-03-08T13:51:18Z</time>
      </trkpt>
      <trkpt lat="43.54638" lon="6.94416">
        <ele>3</ele>
        <time>2009-03-08T13:51:22Z</time>
      </trkpt>
      <trkpt lat="43.54622" lon="6.94429">
        <ele>3</ele>
        <time>2009-03-08T13:51:27Z</time>
      </trkpt>
      <trkpt lat="43.54604" lon="6.94445">
        <ele>3</ele>
        <time>2009-03-08T13:51:32Z</time>
      </trkpt>
      <trkpt lat="43.54587" lon="6.94459">
        <ele>3</ele>
        <time>2009-03-08T13:51:37Z</time>
      </trkpt>
      <trkpt lat="43.5457" lon="6.94471">
        <ele>3</ele>
        <time>2009-03-08T13:51:44Z</time>
      </trkpt>
      <trkpt lat="43.54565" lon="6.94477">
        <ele>3</ele>
        <time>2009-03-08T13:51:47Z</time>
      </trkpt>
      <trkpt lat="43.54563" lon="6.94479">
        <ele>3</ele>
        <time>2009-03-08T13:51:57Z</time>
      </trkpt>
      <trkpt lat="43.54562" lon="6.94481">
        <ele>3</ele>
        <time>2009-03-08T13:51:58Z</time>
      </trkpt>
      <trkpt lat="43.5456" lon="6.94496">
        <ele>3</ele>
        <time>2009-03-08T13:52:03Z</time>
      </trkpt>
      <trkpt lat="43.54556" lon="6.94513">
        <ele>3</ele>
        <time>2009-03-08T13:52:07Z</time>
      </trkpt>
      <trkpt lat="43.54543" lon="6.94551">
        <ele>3</ele>
        <time>2009-03-08T13:52:15Z</time>
      </trkpt>
      <trkpt lat="43.5454" lon="6.9457">
        <ele>3</ele>
        <time>2009-03-08T13:52:19Z</time>
      </trkpt>
      <trkpt lat="43.5454" lon="6.94597">
        <ele>3</ele>
        <time>2009-03-08T13:52:25Z</time>
      </trkpt>
      <trkpt lat="43.54543" lon="6.94628">
        <ele>3</ele>
        <time>2009-03-08T13:52:32Z</time>
      </trkpt>
      <trkpt lat="43.54547" lon="6.94652">
        <ele>3</ele>
        <time>2009-03-08T13:52:37Z</time>
      </trkpt>
      <trkpt lat="43.54555" lon="6.94671">
        <ele>3</ele>
        <time>2009-03-08T13:52:42Z</time>
      </trkpt>
      <trkpt lat="43.54565" lon="6.94694">
        <ele>3</ele>
        <time>2009-03-08T13:52:49Z</time>
      </trkpt>
      <trkpt lat="43.54574" lon="6.94712">
        <ele>3</ele>
        <time>2009-03-08T13:52:55Z</time>
      </trkpt>
      <trkpt lat="43.54581" lon="6.94722">
        <ele>3</ele>
        <time>2009-03-08T13:53:00Z</time>
      </trkpt>
      <trkpt lat="43.54589" lon="6.9473">
        <ele>3</ele>
        <time>2009-03-08T13:53:05Z</time>
      </trkpt>
      <trkpt lat="43.54591" lon="6.94735">
        <ele>3</ele>
        <time>2009-03-08T13:53:10Z</time>
      </trkpt>
      <trkpt lat="43.54591" lon="6.94738">
        <ele>3</ele>
        <time>2009-03-08T13:53:16Z</time>
      </trkpt>
      <trkpt lat="43.54591" lon="6.9474">
        <ele>3</ele>
        <time>2009-03-08T13:53:23Z</time>
      </trkpt>
      <trkpt lat="43.5459" lon="6.94742">
        <ele>3</ele>
        <time>2009-03-08T13:53:30Z</time>
      </trkpt>
      <trkpt lat="43.54589" lon="6.94744">
        <ele>3</ele>
        <time>2009-03-08T13:53:31Z</time>
      </trkpt>
      <trkpt lat="43.54588" lon="6.94751">
        <ele>3.0282897949219</ele>
        <time>2009-03-08T13:53:35Z</time>
      </trkpt>
      <trkpt lat="43.54588" lon="6.9476">
        <ele>3.3441467285156</ele>
        <time>2009-03-08T13:53:41Z</time>
      </trkpt>
      <trkpt lat="43.54587" lon="6.94772">
        <ele>3.7938995361328</ele>
        <time>2009-03-08T13:53:47Z</time>
      </trkpt>
      <trkpt lat="43.54586" lon="6.94784">
        <ele>4</ele>
        <time>2009-03-08T13:53:52Z</time>
      </trkpt>
      <trkpt lat="43.54586" lon="6.94787">
        <ele>4</ele>
        <time>2009-03-08T13:53:53Z</time>
      </trkpt>
      <trkpt lat="43.54586" lon="6.94791">
        <ele>4</ele>
        <time>2009-03-08T13:53:55Z</time>
      </trkpt>
      <trkpt lat="43.54584" lon="6.94808">
        <ele>4</ele>
        <time>2009-03-08T13:54:00Z</time>
      </trkpt>
      <trkpt lat="43.54582" lon="6.94831">
        <ele>3.9459838867188</ele>
        <time>2009-03-08T13:54:07Z</time>
      </trkpt>
      <trkpt lat="43.5458" lon="6.94863">
        <ele>3.8970952033997</ele>
        <time>2009-03-08T13:54:15Z</time>
      </trkpt>
      <trkpt lat="43.54578" lon="6.94903">
        <ele>4</ele>
        <time>2009-03-08T13:54:24Z</time>
      </trkpt>
      <trkpt lat="43.54577" lon="6.94928">
        <ele>4</ele>
        <time>2009-03-08T13:54:30Z</time>
      </trkpt>
      <trkpt lat="43.54576" lon="6.94936">
        <ele>4</ele>
        <time>2009-03-08T13:54:32Z</time>
      </trkpt>
      <trkpt lat="43.54565" lon="6.94943">
        <ele>4</ele>
        <time>2009-03-08T13:54:37Z</time>
      </trkpt>
      <trkpt lat="43.54562" lon="6.94944">
        <ele>4</ele>
        <time>2009-03-08T13:54:38Z</time>
      </trkpt>
      <trkpt lat="43.54533" lon="6.94946">
        <ele>3.1881713867188</ele>
        <time>2009-03-08T13:54:46Z</time>
      </trkpt>
      <trkpt lat="43.54509" lon="6.94937">
        <ele>3</ele>
        <time>2009-03-08T13:54:52Z</time>
      </trkpt>
      <trkpt lat="43.54479" lon="6.9492">
        <ele>3</ele>
        <time>2009-03-08T13:54:59Z</time>
      </trkpt>
      <trkpt lat="43.54435" lon="6.94896">
        <ele>2.6588134765625</ele>
        <time>2009-03-08T13:55:09Z</time>
      </trkpt>
      <trkpt lat="43.54384" lon="6.94869">
        <ele>2</ele>
        <time>2009-03-08T13:55:20Z</time>
      </trkpt>
      <trkpt lat="43.54345" lon="6.94852">
        <ele>2</ele>
        <time>2009-03-08T13:55:28Z</time>
      </trkpt>
      <trkpt lat="43.54315" lon="6.94838">
        <ele>2</ele>
        <time>2009-03-08T13:55:34Z</time>
      </trkpt>
      <trkpt lat="43.54282" lon="6.9481">
        <ele>2</ele>
        <time>2009-03-08T13:55:42Z</time>
      </trkpt>
      <trkpt lat="43.54239" lon="6.94778">
        <ele>2</ele>
        <time>2009-03-08T13:55:52Z</time>
      </trkpt>
      <trkpt lat="43.542" lon="6.94758">
        <ele>2</ele>
        <time>2009-03-08T13:56:00Z</time>
      </trkpt>
      <trkpt lat="43.54147" lon="6.94736">
        <ele>2</ele>
        <time>2009-03-08T13:56:11Z</time>
      </trkpt>
      <trkpt lat="43.54092" lon="6.94715">
        <ele>2</ele>
        <time>2009-03-08T13:56:22Z</time>
      </trkpt>
      <trkpt lat="43.54049" lon="6.94703">
        <ele>1.7611083984375</ele>
        <time>2009-03-08T13:56:31Z</time>
      </trkpt>
      <trkpt lat="43.54008" lon="6.94694">
        <ele>1</ele>
        <time>2009-03-08T13:56:39Z</time>
      </trkpt>
      <trkpt lat="43.53952" lon="6.94685">
        <ele>1</ele>
        <time>2009-03-08T13:56:50Z</time>
      </trkpt>
      <trkpt lat="43.53906" lon="6.94679">
        <ele>1</ele>
        <time>2009-03-08T13:56:59Z</time>
      </trkpt>
      <trkpt lat="43.53861" lon="6.94691">
        <ele>1</ele>
        <time>2009-03-08T13:57:08Z</time>
      </trkpt>
      <trkpt lat="43.53816" lon="6.94709">
        <ele>1</ele>
        <time>2009-03-08T13:57:17Z</time>
      </trkpt>
      <trkpt lat="43.53772" lon="6.94724">
        <ele>1</ele>
        <time>2009-03-08T13:57:26Z</time>
      </trkpt>
      <trkpt lat="43.53742" lon="6.94725">
        <ele>1</ele>
        <time>2009-03-08T13:57:32Z</time>
      </trkpt>
      <trkpt lat="43.53733" lon="6.94724">
        <ele>1</ele>
        <time>2009-03-08T13:57:34Z</time>
      </trkpt>
      <trkpt lat="43.53714" lon="6.94708">
        <ele>1</ele>
        <time>2009-03-08T13:57:39Z</time>
      </trkpt>
      <trkpt lat="43.53712" lon="6.94703">
        <ele>1</ele>
        <time>2009-03-08T13:57:40Z</time>
      </trkpt>
      <trkpt lat="43.53695" lon="6.94684">
        <ele>1</ele>
        <time>2009-03-08T13:57:45Z</time>
      </trkpt>
      <trkpt lat="43.5368" lon="6.94691">
        <ele>1</ele>
        <time>2009-03-08T13:57:49Z</time>
      </trkpt>
      <trkpt lat="43.53671" lon="6.94693">
        <ele>1</ele>
        <time>2009-03-08T13:57:53Z</time>
      </trkpt>
      <trkpt lat="43.53669" lon="6.94679">
        <ele>1</ele>
        <time>2009-03-08T13:57:56Z</time>
      </trkpt>
      <trkpt lat="43.53657" lon="6.94656">
        <ele>1</ele>
        <time>2009-03-08T13:58:00Z</time>
      </trkpt>
      <trkpt lat="43.53648" lon="6.94647">
        <ele>1</ele>
        <time>2009-03-08T13:58:02Z</time>
      </trkpt>
      <trkpt lat="43.53641" lon="6.9464">
        <ele>1</ele>
        <time>2009-03-08T13:58:04Z</time>
      </trkpt>
      <trkpt lat="43.53635" lon="6.94636">
        <ele>1</ele>
        <time>2009-03-08T13:58:06Z</time>
      </trkpt>
      <trkpt lat="43.5363" lon="6.9463">
        <ele>1</ele>
        <time>2009-03-08T13:58:11Z</time>
      </trkpt>
      <trkpt lat="43.53627" lon="6.94634">
        <ele>1</ele>
        <time>2009-03-08T13:58:19Z</time>
      </trkpt>
      <trkpt lat="43.53627" lon="6.94637">
        <ele>1</ele>
        <time>2009-03-08T13:58:28Z</time>
      </trkpt>
      <trkpt lat="43.53628" lon="6.94637">
        <ele>1</ele>
        <time>2009-03-08T13:58:34Z</time>
      </trkpt>
      <trkpt lat="43.53627" lon="6.94636">
        <ele>1</ele>
        <time>2009-03-08T13:58:37Z</time>
      </trkpt>
      <trkpt lat="43.53628" lon="6.94641">
        <ele>1</ele>
        <time>2009-03-08T13:58:51Z</time>
      </trkpt>
    </trkseg>
  </trk>
</gpx>